<?xml version='1.0' encoding='UTF-8'?><gpx version="1.1" creator="JPX - https://github.com/jenetics/jpx" xmlns="http://www.topografix.com/GPX/1/1"><trk><trkseg><trkpt lat="44.1507607" lon="10.4125017"><ele>546.0</ele><time>2026-04-08T07:13:54.947Z</time></trkpt><trkpt lat="44.1507812" lon="10.412374"><ele>546.0</ele><time>2026-04-08T07:13:56.95Z</time></trkpt><trkpt lat="44.150808" lon="10.4122534"><ele>546.0</ele><time>2026-04-08T07:13:58.942Z</time></trkpt><trkpt lat="44.1508416" lon="10.4121649"><ele>546.0</ele><time>2026-04-08T07:14:00.95Z</time></trkpt><trkpt lat="44.1509346" lon="10.4121377"><ele>546.0</ele><time>2026-04-08T07:14:03.945Z</time></trkpt><trkpt lat="44.1510258" lon="10.4121276"><ele>546.0</ele><time>2026-04-08T07:14:06.943Z</time></trkpt><trkpt lat="44.151068" lon="10.4120621"><ele>543.5</ele><time>2026-04-08T07:14:08.958Z</time></trkpt><trkpt lat="44.1510121" lon="10.4119525"><ele>541.0</ele><time>2026-04-08T07:14:10.964Z</time></trkpt><trkpt lat="44.1509296" lon="10.4118941"><ele>538.5</ele><time>2026-04-08T07:14:12.96Z</time></trkpt><trkpt lat="44.1509409" lon="10.4117884"><ele>536.0</ele><time>2026-04-08T07:14:15.946Z</time></trkpt><trkpt lat="44.1510187" lon="10.411752"><ele>533.5</ele><time>2026-04-08T07:14:18.957Z</time></trkpt><trkpt lat="44.1511131" lon="10.4117444"><ele>531.0</ele><time>2026-04-08T07:14:21.959Z</time></trkpt><trkpt lat="44.1512052" lon="10.4117394"><ele>531.0</ele><time>2026-04-08T07:14:24.945Z</time></trkpt><trkpt lat="44.1512955" lon="10.4117256"><ele>531.0</ele><time>2026-04-08T07:14:27.948Z</time></trkpt><trkpt lat="44.1513864" lon="10.4117164"><ele>531.0</ele><time>2026-04-08T07:14:30.978Z</time></trkpt><trkpt lat="44.1514792" lon="10.4117028"><ele>531.0</ele><time>2026-04-08T07:14:33.964Z</time></trkpt><trkpt lat="44.1515422" lon="10.4116954"><ele>531.0</ele><time>2026-04-08T07:14:35.956Z</time></trkpt><trkpt lat="44.1516358" lon="10.4116919"><ele>531.0</ele><time>2026-04-08T07:14:38.958Z</time></trkpt><trkpt lat="44.1517289" lon="10.4116725"><ele>532.2857142857143</ele><time>2026-04-08T07:14:41.957Z</time></trkpt><trkpt lat="44.1517906" lon="10.4116468"><ele>533.5714285714287</ele><time>2026-04-08T07:14:43.95Z</time></trkpt><trkpt lat="44.1518508" lon="10.4116109"><ele>534.8571428571429</ele><time>2026-04-08T07:14:45.948Z</time></trkpt><trkpt lat="44.1519075" lon="10.4115677"><ele>536.1428571428571</ele><time>2026-04-08T07:14:47.955Z</time></trkpt><trkpt lat="44.1519615" lon="10.41152"><ele>537.4285714285713</ele><time>2026-04-08T07:14:49.951Z</time></trkpt><trkpt lat="44.1520452" lon="10.4114576"><ele>538.7142857142857</ele><time>2026-04-08T07:14:52.954Z</time></trkpt><trkpt lat="44.1521258" lon="10.4113907"><ele>540.0</ele><time>2026-04-08T07:14:55.954Z</time></trkpt><trkpt lat="44.1521824" lon="10.4113515"><ele>540.2</ele><time>2026-04-08T07:14:57.956Z</time></trkpt><trkpt lat="44.1522657" lon="10.4112958"><ele>540.4</ele><time>2026-04-08T07:15:00.957Z</time></trkpt><trkpt lat="44.1523493" lon="10.4112423"><ele>540.6</ele><time>2026-04-08T07:15:03.953Z</time></trkpt><trkpt lat="44.1524333" lon="10.41119"><ele>540.8</ele><time>2026-04-08T07:15:06.955Z</time></trkpt><trkpt lat="44.1525175" lon="10.4111467"><ele>541.0</ele><time>2026-04-08T07:15:09.948Z</time></trkpt><trkpt lat="44.152598" lon="10.4111044"><ele>541.0</ele><time>2026-04-08T07:15:12.952Z</time></trkpt><trkpt lat="44.1526801" lon="10.4110682"><ele>541.0</ele><time>2026-04-08T07:15:15.979Z</time></trkpt><trkpt lat="44.1527664" lon="10.4110525"><ele>541.0</ele><time>2026-04-08T07:15:18.968Z</time></trkpt><trkpt lat="44.152856" lon="10.4110662"><ele>541.0</ele><time>2026-04-08T07:15:21.956Z</time></trkpt><trkpt lat="44.152941" lon="10.4111034"><ele>541.0</ele><time>2026-04-08T07:15:24.958Z</time></trkpt><trkpt lat="44.1530261" lon="10.4111493"><ele>541.0</ele><time>2026-04-08T07:15:27.954Z</time></trkpt><trkpt lat="44.153109" lon="10.4111871"><ele>541.0</ele><time>2026-04-08T07:15:30.952Z</time></trkpt><trkpt lat="44.1531898" lon="10.4112227"><ele>541.0</ele><time>2026-04-08T07:15:33.95Z</time></trkpt><trkpt lat="44.1532713" lon="10.4112649"><ele>541.0</ele><time>2026-04-08T07:15:36.951Z</time></trkpt><trkpt lat="44.153358" lon="10.411297"><ele>541.0</ele><time>2026-04-08T07:15:39.977Z</time></trkpt><trkpt lat="44.1534488" lon="10.4113221"><ele>541.0</ele><time>2026-04-08T07:15:42.971Z</time></trkpt><trkpt lat="44.1535402" lon="10.411341"><ele>541.0</ele><time>2026-04-08T07:15:45.954Z</time></trkpt><trkpt lat="44.1536272" lon="10.4113543"><ele>542.3333333333334</ele><time>2026-04-08T07:15:48.955Z</time></trkpt><trkpt lat="44.1537138" lon="10.4113396"><ele>543.6666666666667</ele><time>2026-04-08T07:15:51.955Z</time></trkpt><trkpt lat="44.1538065" lon="10.4113225"><ele>545.0</ele><time>2026-04-08T07:15:54.955Z</time></trkpt><trkpt lat="44.1538993" lon="10.4113031"><ele>546.3333333333334</ele><time>2026-04-08T07:15:57.954Z</time></trkpt><trkpt lat="44.1539632" lon="10.4112926"><ele>547.6666666666666</ele><time>2026-04-08T07:15:59.958Z</time></trkpt><trkpt lat="44.1540263" lon="10.4112808"><ele>549.0</ele><time>2026-04-08T07:16:01.96Z</time></trkpt><trkpt lat="44.1541129" lon="10.4112603"><ele>551.1666666666666</ele><time>2026-04-08T07:16:04.963Z</time></trkpt><trkpt lat="44.154197" lon="10.411244"><ele>553.3333333333334</ele><time>2026-04-08T07:16:07.949Z</time></trkpt><trkpt lat="44.1542793" lon="10.411229"><ele>555.5</ele><time>2026-04-08T07:16:10.953Z</time></trkpt><trkpt lat="44.1543666" lon="10.4112147"><ele>557.6666666666667</ele><time>2026-04-08T07:16:13.957Z</time></trkpt><trkpt lat="44.1544533" lon="10.4112002"><ele>559.8333333333334</ele><time>2026-04-08T07:16:16.96Z</time></trkpt><trkpt lat="44.1545452" lon="10.4111864"><ele>562.0</ele><time>2026-04-08T07:16:19.953Z</time></trkpt><trkpt lat="44.1546324" lon="10.4111804"><ele>562.0</ele><time>2026-04-08T07:16:22.952Z</time></trkpt><trkpt lat="44.1547199" lon="10.4111764"><ele>562.0</ele><time>2026-04-08T07:16:25.964Z</time></trkpt><trkpt lat="44.1548128" lon="10.4111661"><ele>562.0</ele><time>2026-04-08T07:16:28.95Z</time></trkpt><trkpt lat="44.1549003" lon="10.4111565"><ele>562.0</ele><time>2026-04-08T07:16:31.956Z</time></trkpt><trkpt lat="44.1549862" lon="10.4111573"><ele>562.0</ele><time>2026-04-08T07:16:34.955Z</time></trkpt><trkpt lat="44.1550688" lon="10.4111614"><ele>562.0</ele><time>2026-04-08T07:16:37.957Z</time></trkpt><trkpt lat="44.1551532" lon="10.411154"><ele>563.0</ele><time>2026-04-08T07:16:40.962Z</time></trkpt><trkpt lat="44.1552454" lon="10.4111447"><ele>564.0</ele><time>2026-04-08T07:16:43.971Z</time></trkpt><trkpt lat="44.1553352" lon="10.4111285"><ele>565.0</ele><time>2026-04-08T07:16:46.956Z</time></trkpt><trkpt lat="44.1554215" lon="10.4111033"><ele>566.0</ele><time>2026-04-08T07:16:49.955Z</time></trkpt><trkpt lat="44.1555106" lon="10.4110738"><ele>567.0</ele><time>2026-04-08T07:16:52.944Z</time></trkpt><trkpt lat="44.1556014" lon="10.4110472"><ele>567.0</ele><time>2026-04-08T07:16:55.958Z</time></trkpt><trkpt lat="44.1556917" lon="10.4110243"><ele>567.0</ele><time>2026-04-08T07:16:58.955Z</time></trkpt><trkpt lat="44.1557773" lon="10.4109947"><ele>567.0</ele><time>2026-04-08T07:17:01.953Z</time></trkpt><trkpt lat="44.1558657" lon="10.4109692"><ele>567.0</ele><time>2026-04-08T07:17:04.958Z</time></trkpt><trkpt lat="44.1559527" lon="10.410939"><ele>567.0</ele><time>2026-04-08T07:17:07.947Z</time></trkpt><trkpt lat="44.1560398" lon="10.4109203"><ele>567.0</ele><time>2026-04-08T07:17:10.952Z</time></trkpt><trkpt lat="44.1561274" lon="10.410896"><ele>568.4</ele><time>2026-04-08T07:17:13.958Z</time></trkpt><trkpt lat="44.1562135" lon="10.4108673"><ele>569.8000000000001</ele><time>2026-04-08T07:17:16.952Z</time></trkpt><trkpt lat="44.1562999" lon="10.4108329"><ele>571.2</ele><time>2026-04-08T07:17:19.956Z</time></trkpt><trkpt lat="44.1563859" lon="10.4107918"><ele>572.6</ele><time>2026-04-08T07:17:22.96Z</time></trkpt><trkpt lat="44.1564731" lon="10.4107455"><ele>574.0</ele><time>2026-04-08T07:17:25.961Z</time></trkpt><trkpt lat="44.1565656" lon="10.410711"><ele>575.8333333333334</ele><time>2026-04-08T07:17:28.956Z</time></trkpt><trkpt lat="44.1566259" lon="10.4106786"><ele>577.6666666666667</ele><time>2026-04-08T07:17:30.954Z</time></trkpt><trkpt lat="44.1566895" lon="10.4106615"><ele>579.5</ele><time>2026-04-08T07:17:32.963Z</time></trkpt><trkpt lat="44.1567628" lon="10.4106721"><ele>581.3333333333334</ele><time>2026-04-08T07:17:36.96Z</time></trkpt><trkpt lat="44.1568431" lon="10.410691"><ele>583.1666666666666</ele><time>2026-04-08T07:17:40.956Z</time></trkpt><trkpt lat="44.1569161" lon="10.4106387"><ele>585.0</ele><time>2026-04-08T07:17:43.961Z</time></trkpt><trkpt lat="44.1569817" lon="10.4105546"><ele>582.4</ele><time>2026-04-08T07:17:46.961Z</time></trkpt><trkpt lat="44.1570315" lon="10.4104843"><ele>579.8</ele><time>2026-04-08T07:17:48.947Z</time></trkpt><trkpt lat="44.1570965" lon="10.4103943"><ele>577.2</ele><time>2026-04-08T07:17:50.943Z</time></trkpt><trkpt lat="44.1571512" lon="10.4102761"><ele>574.6</ele><time>2026-04-08T07:17:52.948Z</time></trkpt><trkpt lat="44.1571962" lon="10.4101278"><ele>572.0</ele><time>2026-04-08T07:17:54.954Z</time></trkpt><trkpt lat="44.1572324" lon="10.4099564"><ele>572.0</ele><time>2026-04-08T07:17:56.947Z</time></trkpt><trkpt lat="44.1572519" lon="10.4098603"><ele>572.0</ele><time>2026-04-08T07:17:57.95Z</time></trkpt><trkpt lat="44.1572747" lon="10.4097573"><ele>572.0</ele><time>2026-04-08T07:17:58.964Z</time></trkpt><trkpt lat="44.157298" lon="10.4096528"><ele>572.0</ele><time>2026-04-08T07:17:59.952Z</time></trkpt><trkpt lat="44.1573224" lon="10.4095506"><ele>572.0</ele><time>2026-04-08T07:18:00.955Z</time></trkpt><trkpt lat="44.1573493" lon="10.4094403"><ele>572.0</ele><time>2026-04-08T07:18:01.96Z</time></trkpt><trkpt lat="44.1573755" lon="10.4093306"><ele>572.8333333333333</ele><time>2026-04-08T07:18:02.945Z</time></trkpt><trkpt lat="44.157401" lon="10.4092163"><ele>573.6666666666666</ele><time>2026-04-08T07:18:03.957Z</time></trkpt><trkpt lat="44.1574255" lon="10.4091015"><ele>574.5</ele><time>2026-04-08T07:18:04.953Z</time></trkpt><trkpt lat="44.1574518" lon="10.4089842"><ele>575.3333333333334</ele><time>2026-04-08T07:18:05.969Z</time></trkpt><trkpt lat="44.1574883" lon="10.4088661"><ele>576.1666666666667</ele><time>2026-04-08T07:18:06.96Z</time></trkpt><trkpt lat="44.1575381" lon="10.4087537"><ele>577.0</ele><time>2026-04-08T07:18:07.952Z</time></trkpt><trkpt lat="44.1576041" lon="10.4086516"><ele>573.4</ele><time>2026-04-08T07:18:08.962Z</time></trkpt><trkpt lat="44.1576816" lon="10.4085673"><ele>569.8000000000001</ele><time>2026-04-08T07:18:09.95Z</time></trkpt><trkpt lat="44.1577703" lon="10.4085002"><ele>566.2</ele><time>2026-04-08T07:18:10.958Z</time></trkpt><trkpt lat="44.1578699" lon="10.4084529"><ele>562.6</ele><time>2026-04-08T07:18:11.957Z</time></trkpt><trkpt lat="44.1579769" lon="10.408433"><ele>559.0</ele><time>2026-04-08T07:18:12.951Z</time></trkpt><trkpt lat="44.1580853" lon="10.4084414"><ele>559.0</ele><time>2026-04-08T07:18:13.965Z</time></trkpt><trkpt lat="44.1581915" lon="10.4084754"><ele>559.0</ele><time>2026-04-08T07:18:14.964Z</time></trkpt><trkpt lat="44.1582958" lon="10.4085231"><ele>559.0</ele><time>2026-04-08T07:18:15.96Z</time></trkpt><trkpt lat="44.1583998" lon="10.4085806"><ele>559.0</ele><time>2026-04-08T07:18:16.96Z</time></trkpt><trkpt lat="44.1585051" lon="10.4086393"><ele>559.0</ele><time>2026-04-08T07:18:17.956Z</time></trkpt><trkpt lat="44.1586103" lon="10.4087009"><ele>561.25</ele><time>2026-04-08T07:18:18.973Z</time></trkpt><trkpt lat="44.1587199" lon="10.4087469"><ele>563.5</ele><time>2026-04-08T07:18:19.956Z</time></trkpt><trkpt lat="44.1588305" lon="10.4087721"><ele>565.75</ele><time>2026-04-08T07:18:20.955Z</time></trkpt><trkpt lat="44.1589435" lon="10.4087867"><ele>568.0</ele><time>2026-04-08T07:18:21.955Z</time></trkpt><trkpt lat="44.1590565" lon="10.4087963"><ele>568.0</ele><time>2026-04-08T07:18:22.95Z</time></trkpt><trkpt lat="44.1591654" lon="10.408805"><ele>568.0</ele><time>2026-04-08T07:18:23.958Z</time></trkpt><trkpt lat="44.1592675" lon="10.4087868"><ele>568.0</ele><time>2026-04-08T07:18:24.96Z</time></trkpt><trkpt lat="44.1593541" lon="10.4087324"><ele>568.0</ele><time>2026-04-08T07:18:25.961Z</time></trkpt><trkpt lat="44.1594233" lon="10.4086447"><ele>568.0</ele><time>2026-04-08T07:18:26.952Z</time></trkpt><trkpt lat="44.1594586" lon="10.4085341"><ele>568.0</ele><time>2026-04-08T07:18:27.953Z</time></trkpt><trkpt lat="44.1594614" lon="10.408415"><ele>568.0</ele><time>2026-04-08T07:18:28.953Z</time></trkpt><trkpt lat="44.1594326" lon="10.4083171"><ele>568.0</ele><time>2026-04-08T07:18:29.945Z</time></trkpt><trkpt lat="44.1593928" lon="10.4082167"><ele>568.0</ele><time>2026-04-08T07:18:30.948Z</time></trkpt><trkpt lat="44.1593514" lon="10.4081092"><ele>568.0</ele><time>2026-04-08T07:18:31.944Z</time></trkpt><trkpt lat="44.1592923" lon="10.4080421"><ele>568.0</ele><time>2026-04-08T07:18:32.951Z</time></trkpt><trkpt lat="44.1592388" lon="10.4079732"><ele>569.4285714285714</ele><time>2026-04-08T07:18:33.95Z</time></trkpt><trkpt lat="44.1591883" lon="10.4079075"><ele>570.8571428571428</ele><time>2026-04-08T07:18:34.952Z</time></trkpt><trkpt lat="44.1591355" lon="10.4078363"><ele>572.2857142857142</ele><time>2026-04-08T07:18:35.98Z</time></trkpt><trkpt lat="44.1590834" lon="10.4077657"><ele>573.7142857142857</ele><time>2026-04-08T07:18:36.947Z</time></trkpt><trkpt lat="44.1590373" lon="10.4076999"><ele>575.1428571428571</ele><time>2026-04-08T07:18:37.952Z</time></trkpt><trkpt lat="44.1589918" lon="10.4076324"><ele>576.5714285714286</ele><time>2026-04-08T07:18:38.95Z</time></trkpt><trkpt lat="44.1589521" lon="10.4075586"><ele>578.0</ele><time>2026-04-08T07:18:39.952Z</time></trkpt><trkpt lat="44.1589126" lon="10.4074821"><ele>574.1666666666666</ele><time>2026-04-08T07:18:40.973Z</time></trkpt><trkpt lat="44.1588744" lon="10.4074011"><ele>570.3333333333333</ele><time>2026-04-08T07:18:41.953Z</time></trkpt><trkpt lat="44.158835" lon="10.407323"><ele>566.5</ele><time>2026-04-08T07:18:42.951Z</time></trkpt><trkpt lat="44.1588" lon="10.4072426"><ele>562.6666666666666</ele><time>2026-04-08T07:18:43.945Z</time></trkpt><trkpt lat="44.1587636" lon="10.4071629"><ele>558.8333333333334</ele><time>2026-04-08T07:18:44.951Z</time></trkpt><trkpt lat="44.158694" lon="10.4070024"><ele>555.0</ele><time>2026-04-08T07:18:46.971Z</time></trkpt><trkpt lat="44.158665" lon="10.406922"><ele>555.0</ele><time>2026-04-08T07:18:47.958Z</time></trkpt><trkpt lat="44.1586291" lon="10.4068407"><ele>555.0</ele><time>2026-04-08T07:18:48.956Z</time></trkpt><trkpt lat="44.1586032" lon="10.4067562"><ele>555.0</ele><time>2026-04-08T07:18:49.954Z</time></trkpt><trkpt lat="44.1585686" lon="10.4066776"><ele>555.0</ele><time>2026-04-08T07:18:50.945Z</time></trkpt><trkpt lat="44.1585359" lon="10.4066001"><ele>555.0</ele><time>2026-04-08T07:18:51.955Z</time></trkpt><trkpt lat="44.1585053" lon="10.4065219"><ele>555.0</ele><time>2026-04-08T07:18:52.949Z</time></trkpt><trkpt lat="44.1584471" lon="10.4063688"><ele>556.6</ele><time>2026-04-08T07:18:54.962Z</time></trkpt><trkpt lat="44.1583966" lon="10.4062129"><ele>558.2</ele><time>2026-04-08T07:18:56.946Z</time></trkpt><trkpt lat="44.1583682" lon="10.4060429"><ele>559.8</ele><time>2026-04-08T07:18:58.948Z</time></trkpt><trkpt lat="44.1583618" lon="10.4059533"><ele>561.4</ele><time>2026-04-08T07:18:59.95Z</time></trkpt><trkpt lat="44.1583642" lon="10.4057759"><ele>563.0</ele><time>2026-04-08T07:19:01.962Z</time></trkpt><trkpt lat="44.1583762" lon="10.4056883"><ele>563.0</ele><time>2026-04-08T07:19:02.953Z</time></trkpt><trkpt lat="44.1584275" lon="10.4055393"><ele>563.0</ele><time>2026-04-08T07:19:04.961Z</time></trkpt><trkpt lat="44.1584559" lon="10.4054543"><ele>563.0</ele><time>2026-04-08T07:19:05.974Z</time></trkpt><trkpt lat="44.1585286" lon="10.4053106"><ele>563.0</ele><time>2026-04-08T07:19:07.963Z</time></trkpt><trkpt lat="44.1585652" lon="10.4052335"><ele>563.0</ele><time>2026-04-08T07:19:08.962Z</time></trkpt><trkpt lat="44.1586033" lon="10.4051551"><ele>563.0</ele><time>2026-04-08T07:19:09.957Z</time></trkpt><trkpt lat="44.1586421" lon="10.4050818"><ele>561.5714285714286</ele><time>2026-04-08T07:19:10.951Z</time></trkpt><trkpt lat="44.1586853" lon="10.4050036"><ele>560.1428571428571</ele><time>2026-04-08T07:19:11.955Z</time></trkpt><trkpt lat="44.1587295" lon="10.404927"><ele>558.7142857142858</ele><time>2026-04-08T07:19:12.961Z</time></trkpt><trkpt lat="44.1587691" lon="10.4048553"><ele>557.2857142857142</ele><time>2026-04-08T07:19:13.956Z</time></trkpt><trkpt lat="44.1588096" lon="10.4047799"><ele>555.8571428571429</ele><time>2026-04-08T07:19:14.978Z</time></trkpt><trkpt lat="44.1588466" lon="10.4047085"><ele>554.4285714285714</ele><time>2026-04-08T07:19:15.955Z</time></trkpt><trkpt lat="44.1588846" lon="10.4046373"><ele>553.0</ele><time>2026-04-08T07:19:16.961Z</time></trkpt><trkpt lat="44.1589623" lon="10.4045036"><ele>556.25</ele><time>2026-04-08T07:19:18.945Z</time></trkpt><trkpt lat="44.1590377" lon="10.4043702"><ele>559.5</ele><time>2026-04-08T07:19:20.957Z</time></trkpt><trkpt lat="44.1591189" lon="10.404238"><ele>562.75</ele><time>2026-04-08T07:19:22.948Z</time></trkpt><trkpt lat="44.1591982" lon="10.4041038"><ele>566.0</ele><time>2026-04-08T07:19:24.947Z</time></trkpt><trkpt lat="44.1592754" lon="10.403975"><ele>566.0</ele><time>2026-04-08T07:19:26.953Z</time></trkpt><trkpt lat="44.1593513" lon="10.4038322"><ele>566.0</ele><time>2026-04-08T07:19:28.959Z</time></trkpt><trkpt lat="44.1593946" lon="10.4037681"><ele>566.0</ele><time>2026-04-08T07:19:29.946Z</time></trkpt><trkpt lat="44.1594923" lon="10.4036749"><ele>566.0</ele><time>2026-04-08T07:19:31.96Z</time></trkpt><trkpt lat="44.1596027" lon="10.4036102"><ele>566.0</ele><time>2026-04-08T07:19:33.954Z</time></trkpt><trkpt lat="44.1597163" lon="10.4035665"><ele>565.75</ele><time>2026-04-08T07:19:35.976Z</time></trkpt><trkpt lat="44.1598324" lon="10.4035359"><ele>565.5</ele><time>2026-04-08T07:19:37.958Z</time></trkpt><trkpt lat="44.1599511" lon="10.4035088"><ele>565.25</ele><time>2026-04-08T07:19:39.957Z</time></trkpt><trkpt lat="44.1600624" lon="10.4034865"><ele>565.0</ele><time>2026-04-08T07:19:41.964Z</time></trkpt><trkpt lat="44.1601752" lon="10.4034579"><ele>565.0</ele><time>2026-04-08T07:19:43.961Z</time></trkpt><trkpt lat="44.1602845" lon="10.4034176"><ele>565.0</ele><time>2026-04-08T07:19:45.966Z</time></trkpt><trkpt lat="44.160392" lon="10.4033375"><ele>565.0</ele><time>2026-04-08T07:19:47.961Z</time></trkpt><trkpt lat="44.1604811" lon="10.4032297"><ele>565.0</ele><time>2026-04-08T07:19:49.971Z</time></trkpt><trkpt lat="44.1605597" lon="10.4031022"><ele>565.25</ele><time>2026-04-08T07:19:51.949Z</time></trkpt><trkpt lat="44.1606321" lon="10.4029782"><ele>565.5</ele><time>2026-04-08T07:19:53.96Z</time></trkpt><trkpt lat="44.1607111" lon="10.4028599"><ele>565.75</ele><time>2026-04-08T07:19:55.961Z</time></trkpt><trkpt lat="44.160795" lon="10.4027465"><ele>566.0</ele><time>2026-04-08T07:19:57.954Z</time></trkpt><trkpt lat="44.1608845" lon="10.4026361"><ele>566.0</ele><time>2026-04-08T07:19:59.958Z</time></trkpt><trkpt lat="44.1609763" lon="10.4025406"><ele>566.0</ele><time>2026-04-08T07:20:01.957Z</time></trkpt><trkpt lat="44.1610669" lon="10.4024416"><ele>566.0</ele><time>2026-04-08T07:20:03.956Z</time></trkpt><trkpt lat="44.1611545" lon="10.402341"><ele>566.0</ele><time>2026-04-08T07:20:05.948Z</time></trkpt><trkpt lat="44.1612383" lon="10.4022334"><ele>566.7142857142858</ele><time>2026-04-08T07:20:07.954Z</time></trkpt><trkpt lat="44.161318" lon="10.4021198"><ele>567.4285714285714</ele><time>2026-04-08T07:20:09.967Z</time></trkpt><trkpt lat="44.161368" lon="10.4020533"><ele>568.1428571428571</ele><time>2026-04-08T07:20:10.955Z</time></trkpt><trkpt lat="44.1614124" lon="10.4019878"><ele>568.8571428571429</ele><time>2026-04-08T07:20:11.957Z</time></trkpt><trkpt lat="44.1614548" lon="10.4019127"><ele>569.5714285714286</ele><time>2026-04-08T07:20:12.966Z</time></trkpt><trkpt lat="44.1614904" lon="10.4018332"><ele>570.2857142857143</ele><time>2026-04-08T07:20:13.968Z</time></trkpt><trkpt lat="44.1615182" lon="10.401753"><ele>571.0</ele><time>2026-04-08T07:20:14.959Z</time></trkpt><trkpt lat="44.161548" lon="10.4016669"><ele>571.0</ele><time>2026-04-08T07:20:15.965Z</time></trkpt><trkpt lat="44.1615773" lon="10.4015741"><ele>571.0</ele><time>2026-04-08T07:20:16.971Z</time></trkpt><trkpt lat="44.1616081" lon="10.4014781"><ele>571.0</ele><time>2026-04-08T07:20:17.946Z</time></trkpt><trkpt lat="44.161638" lon="10.4013858"><ele>571.0</ele><time>2026-04-08T07:20:18.976Z</time></trkpt><trkpt lat="44.16167" lon="10.4012867"><ele>571.0</ele><time>2026-04-08T07:20:19.958Z</time></trkpt><trkpt lat="44.1617097" lon="10.4011963"><ele>571.0</ele><time>2026-04-08T07:20:20.956Z</time></trkpt><trkpt lat="44.1617564" lon="10.4011118"><ele>568.3333333333334</ele><time>2026-04-08T07:20:21.955Z</time></trkpt><trkpt lat="44.1618167" lon="10.4010432"><ele>565.6666666666667</ele><time>2026-04-08T07:20:22.965Z</time></trkpt><trkpt lat="44.1618824" lon="10.4009848"><ele>563.0</ele><time>2026-04-08T07:20:23.961Z</time></trkpt><trkpt lat="44.1619532" lon="10.4009358"><ele>560.3333333333334</ele><time>2026-04-08T07:20:24.954Z</time></trkpt><trkpt lat="44.1620279" lon="10.4009007"><ele>557.6666666666666</ele><time>2026-04-08T07:20:25.971Z</time></trkpt><trkpt lat="44.1621002" lon="10.4008678"><ele>555.0</ele><time>2026-04-08T07:20:26.951Z</time></trkpt><trkpt lat="44.1621714" lon="10.4008333"><ele>555.0000000000001</ele><time>2026-04-08T07:20:27.96Z</time></trkpt><trkpt lat="44.1622415" lon="10.400797"><ele>555.0</ele><time>2026-04-08T07:20:28.957Z</time></trkpt><trkpt lat="44.1623085" lon="10.4007526"><ele>555.0</ele><time>2026-04-08T07:20:29.971Z</time></trkpt><trkpt lat="44.1623629" lon="10.4006957"><ele>555.0</ele><time>2026-04-08T07:20:30.957Z</time></trkpt><trkpt lat="44.1623978" lon="10.4006206"><ele>555.0</ele><time>2026-04-08T07:20:31.955Z</time></trkpt><trkpt lat="44.1624221" lon="10.4005342"><ele>555.0000000000001</ele><time>2026-04-08T07:20:32.955Z</time></trkpt><trkpt lat="44.1624237" lon="10.4004382"><ele>555.0</ele><time>2026-04-08T07:20:33.953Z</time></trkpt><trkpt lat="44.1624113" lon="10.4003467"><ele>554.2857142857143</ele><time>2026-04-08T07:20:34.959Z</time></trkpt><trkpt lat="44.1623841" lon="10.40026"><ele>553.5714285714286</ele><time>2026-04-08T07:20:35.949Z</time></trkpt><trkpt lat="44.1623437" lon="10.4001895"><ele>552.8571428571429</ele><time>2026-04-08T07:20:36.97Z</time></trkpt><trkpt lat="44.1623029" lon="10.4001169"><ele>552.1428571428571</ele><time>2026-04-08T07:20:37.955Z</time></trkpt><trkpt lat="44.1622581" lon="10.4000527"><ele>551.4285714285714</ele><time>2026-04-08T07:20:38.973Z</time></trkpt><trkpt lat="44.162212" lon="10.3999868"><ele>550.7142857142858</ele><time>2026-04-08T07:20:39.963Z</time></trkpt><trkpt lat="44.1621657" lon="10.3999143"><ele>550.0</ele><time>2026-04-08T07:20:40.96Z</time></trkpt><trkpt lat="44.162121" lon="10.3998485"><ele>550.0</ele><time>2026-04-08T07:20:41.948Z</time></trkpt><trkpt lat="44.1620322" lon="10.3997246"><ele>550.0</ele><time>2026-04-08T07:20:43.965Z</time></trkpt><trkpt lat="44.161995" lon="10.3996523"><ele>550.0</ele><time>2026-04-08T07:20:44.968Z</time></trkpt><trkpt lat="44.1619474" lon="10.3995928"><ele>550.0</ele><time>2026-04-08T07:20:45.969Z</time></trkpt><trkpt lat="44.1618371" lon="10.3995103"><ele>550.0</ele><time>2026-04-08T07:20:47.966Z</time></trkpt><trkpt lat="44.1617722" lon="10.399489"><ele>550.0</ele><time>2026-04-08T07:20:48.964Z</time></trkpt><trkpt lat="44.1616502" lon="10.3994857"><ele>551.6</ele><time>2026-04-08T07:20:50.965Z</time></trkpt><trkpt lat="44.161588" lon="10.3995024"><ele>553.2</ele><time>2026-04-08T07:20:51.951Z</time></trkpt><trkpt lat="44.161521" lon="10.3995153"><ele>554.8</ele><time>2026-04-08T07:20:52.957Z</time></trkpt><trkpt lat="44.1614005" lon="10.3995311"><ele>556.4</ele><time>2026-04-08T07:20:54.962Z</time></trkpt><trkpt lat="44.161286" lon="10.3995686"><ele>558.0</ele><time>2026-04-08T07:20:56.961Z</time></trkpt><trkpt lat="44.1611702" lon="10.3996052"><ele>558.0</ele><time>2026-04-08T07:20:58.958Z</time></trkpt><trkpt lat="44.161054" lon="10.3996396"><ele>558.0</ele><time>2026-04-08T07:21:00.956Z</time></trkpt><trkpt lat="44.1609306" lon="10.39967"><ele>558.0</ele><time>2026-04-08T07:21:02.954Z</time></trkpt><trkpt lat="44.1608142" lon="10.3996817"><ele>558.0</ele><time>2026-04-08T07:21:04.953Z</time></trkpt><trkpt lat="44.1606969" lon="10.3996689"><ele>555.0</ele><time>2026-04-08T07:21:06.963Z</time></trkpt><trkpt lat="44.160579" lon="10.3996391"><ele>552.0</ele><time>2026-04-08T07:21:08.963Z</time></trkpt><trkpt lat="44.1604653" lon="10.3995921"><ele>549.0</ele><time>2026-04-08T07:21:10.963Z</time></trkpt><trkpt lat="44.1603512" lon="10.3995398"><ele>546.0</ele><time>2026-04-08T07:21:12.949Z</time></trkpt><trkpt lat="44.1602402" lon="10.3994887"><ele>546.0</ele><time>2026-04-08T07:21:14.963Z</time></trkpt><trkpt lat="44.1601332" lon="10.3994023"><ele>546.0</ele><time>2026-04-08T07:21:16.959Z</time></trkpt><trkpt lat="44.1600868" lon="10.3993372"><ele>546.0</ele><time>2026-04-08T07:21:17.965Z</time></trkpt><trkpt lat="44.1600451" lon="10.3992673"><ele>546.0</ele><time>2026-04-08T07:21:18.964Z</time></trkpt><trkpt lat="44.1599698" lon="10.3991265"><ele>546.0</ele><time>2026-04-08T07:21:20.957Z</time></trkpt><trkpt lat="44.1599295" lon="10.3990518"><ele>546.0</ele><time>2026-04-08T07:21:21.958Z</time></trkpt><trkpt lat="44.1598927" lon="10.3989753"><ele>546.0</ele><time>2026-04-08T07:21:22.964Z</time></trkpt><trkpt lat="44.1598154" lon="10.3988265"><ele>546.0</ele><time>2026-04-08T07:21:24.96Z</time></trkpt><trkpt lat="44.1597786" lon="10.3987512"><ele>546.0</ele><time>2026-04-08T07:21:25.959Z</time></trkpt><trkpt lat="44.1597415" lon="10.3986742"><ele>546.0</ele><time>2026-04-08T07:21:26.961Z</time></trkpt><trkpt lat="44.1596704" lon="10.3985207"><ele>546.0</ele><time>2026-04-08T07:21:28.961Z</time></trkpt><trkpt lat="44.1596407" lon="10.3984368"><ele>546.0</ele><time>2026-04-08T07:21:29.959Z</time></trkpt><trkpt lat="44.1595969" lon="10.3982788"><ele>546.0</ele><time>2026-04-08T07:21:31.952Z</time></trkpt><trkpt lat="44.1595907" lon="10.3981896"><ele>546.0</ele><time>2026-04-08T07:21:32.97Z</time></trkpt><trkpt lat="44.1595785" lon="10.3980193"><ele>546.0</ele><time>2026-04-08T07:21:34.959Z</time></trkpt><trkpt lat="44.1595698" lon="10.3979285"><ele>546.0</ele><time>2026-04-08T07:21:35.962Z</time></trkpt><trkpt lat="44.1595621" lon="10.3978293"><ele>546.0</ele><time>2026-04-08T07:21:36.958Z</time></trkpt><trkpt lat="44.1595615" lon="10.3977276"><ele>545.8333333333334</ele><time>2026-04-08T07:21:37.968Z</time></trkpt><trkpt lat="44.159566" lon="10.3976216"><ele>545.6666666666666</ele><time>2026-04-08T07:21:38.972Z</time></trkpt><trkpt lat="44.1595845" lon="10.397515"><ele>545.5</ele><time>2026-04-08T07:21:39.967Z</time></trkpt><trkpt lat="44.1596148" lon="10.3974083"><ele>545.3333333333333</ele><time>2026-04-08T07:21:40.96Z</time></trkpt><trkpt lat="44.1596482" lon="10.3972997"><ele>545.1666666666666</ele><time>2026-04-08T07:21:41.957Z</time></trkpt><trkpt lat="44.1596877" lon="10.3971962"><ele>545.0</ele><time>2026-04-08T07:21:42.96Z</time></trkpt><trkpt lat="44.1597236" lon="10.3970913"><ele>544.5</ele><time>2026-04-08T07:21:43.956Z</time></trkpt><trkpt lat="44.15976" lon="10.396992"><ele>544.0</ele><time>2026-04-08T07:21:44.956Z</time></trkpt><trkpt lat="44.1597936" lon="10.3968846"><ele>543.5</ele><time>2026-04-08T07:21:45.959Z</time></trkpt><trkpt lat="44.159828" lon="10.3967749"><ele>543.0</ele><time>2026-04-08T07:21:46.957Z</time></trkpt><trkpt lat="44.1598621" lon="10.3966713"><ele>542.5</ele><time>2026-04-08T07:21:47.962Z</time></trkpt><trkpt lat="44.1598984" lon="10.3965686"><ele>542.0</ele><time>2026-04-08T07:21:48.966Z</time></trkpt><trkpt lat="44.1599353" lon="10.3964757"><ele>542.0</ele><time>2026-04-08T07:21:49.956Z</time></trkpt><trkpt lat="44.1599703" lon="10.3963746"><ele>542.0</ele><time>2026-04-08T07:21:50.958Z</time></trkpt><trkpt lat="44.1600108" lon="10.3962733"><ele>542.0</ele><time>2026-04-08T07:21:51.956Z</time></trkpt><trkpt lat="44.1600508" lon="10.3961702"><ele>542.0</ele><time>2026-04-08T07:21:52.959Z</time></trkpt><trkpt lat="44.1600883" lon="10.3960714"><ele>542.0</ele><time>2026-04-08T07:21:53.951Z</time></trkpt><trkpt lat="44.1601283" lon="10.3959679"><ele>542.0</ele><time>2026-04-08T07:21:54.959Z</time></trkpt><trkpt lat="44.1601642" lon="10.3958617"><ele>541.3333333333333</ele><time>2026-04-08T07:21:55.959Z</time></trkpt><trkpt lat="44.1602055" lon="10.3957614"><ele>540.6666666666666</ele><time>2026-04-08T07:21:56.951Z</time></trkpt><trkpt lat="44.1602478" lon="10.3956586"><ele>540.0</ele><time>2026-04-08T07:21:57.953Z</time></trkpt><trkpt lat="44.1602995" lon="10.3955652"><ele>539.3333333333334</ele><time>2026-04-08T07:21:58.949Z</time></trkpt><trkpt lat="44.1603768" lon="10.3955063"><ele>538.6666666666667</ele><time>2026-04-08T07:21:59.95Z</time></trkpt><trkpt lat="44.160465" lon="10.3954575"><ele>538.0</ele><time>2026-04-08T07:22:00.954Z</time></trkpt><trkpt lat="44.1605605" lon="10.3954489"><ele>538.0</ele><time>2026-04-08T07:22:01.966Z</time></trkpt><trkpt lat="44.1606517" lon="10.3954653"><ele>538.0</ele><time>2026-04-08T07:22:02.958Z</time></trkpt><trkpt lat="44.1607418" lon="10.3955072"><ele>538.0</ele><time>2026-04-08T07:22:03.96Z</time></trkpt><trkpt lat="44.1608307" lon="10.395558"><ele>538.0</ele><time>2026-04-08T07:22:04.961Z</time></trkpt><trkpt lat="44.1609208" lon="10.3956093"><ele>538.0</ele><time>2026-04-08T07:22:05.961Z</time></trkpt><trkpt lat="44.161014" lon="10.3956616"><ele>538.0</ele><time>2026-04-08T07:22:06.961Z</time></trkpt><trkpt lat="44.1611058" lon="10.3957153"><ele>538.0</ele><time>2026-04-08T07:22:07.959Z</time></trkpt><trkpt lat="44.1612009" lon="10.3957642"><ele>538.0</ele><time>2026-04-08T07:22:08.957Z</time></trkpt><trkpt lat="44.161298" lon="10.3958134"><ele>538.0</ele><time>2026-04-08T07:22:09.959Z</time></trkpt><trkpt lat="44.1613954" lon="10.3958591"><ele>538.0</ele><time>2026-04-08T07:22:10.954Z</time></trkpt><trkpt lat="44.1615005" lon="10.3958744"><ele>537.1999999999999</ele><time>2026-04-08T07:22:11.963Z</time></trkpt><trkpt lat="44.1616049" lon="10.3958519"><ele>536.4</ele><time>2026-04-08T07:22:12.964Z</time></trkpt><trkpt lat="44.161695" lon="10.3958093"><ele>535.5999999999999</ele><time>2026-04-08T07:22:13.959Z</time></trkpt><trkpt lat="44.1617802" lon="10.3957547"><ele>534.8</ele><time>2026-04-08T07:22:14.957Z</time></trkpt><trkpt lat="44.1618535" lon="10.3956722"><ele>534.0</ele><time>2026-04-08T07:22:15.956Z</time></trkpt><trkpt lat="44.1619022" lon="10.3955715"><ele>534.1428571428572</ele><time>2026-04-08T07:22:16.963Z</time></trkpt><trkpt lat="44.1619305" lon="10.3954569"><ele>534.2857142857143</ele><time>2026-04-08T07:22:17.962Z</time></trkpt><trkpt lat="44.1619308" lon="10.3953538"><ele>534.4285714285714</ele><time>2026-04-08T07:22:18.946Z</time></trkpt><trkpt lat="44.1619205" lon="10.3952516"><ele>534.5714285714287</ele><time>2026-04-08T07:22:19.96Z</time></trkpt><trkpt lat="44.1618999" lon="10.3951545"><ele>534.7142857142858</ele><time>2026-04-08T07:22:20.96Z</time></trkpt><trkpt lat="44.1618771" lon="10.3950671"><ele>534.8571428571429</ele><time>2026-04-08T07:22:21.958Z</time></trkpt><trkpt lat="44.1618564" lon="10.3949841"><ele>535.0</ele><time>2026-04-08T07:22:22.967Z</time></trkpt><trkpt lat="44.161831" lon="10.3949025"><ele>535.0</ele><time>2026-04-08T07:22:23.963Z</time></trkpt><trkpt lat="44.1617918" lon="10.3947433"><ele>535.0</ele><time>2026-04-08T07:22:25.953Z</time></trkpt><trkpt lat="44.161757" lon="10.3945907"><ele>535.0</ele><time>2026-04-08T07:22:27.959Z</time></trkpt><trkpt lat="44.161721" lon="10.3944433"><ele>535.0</ele><time>2026-04-08T07:22:29.955Z</time></trkpt><trkpt lat="44.161679" lon="10.3942984"><ele>535.2</ele><time>2026-04-08T07:22:31.954Z</time></trkpt><trkpt lat="44.1616337" lon="10.3941655"><ele>535.4</ele><time>2026-04-08T07:22:33.954Z</time></trkpt><trkpt lat="44.1615991" lon="10.3940211"><ele>535.6</ele><time>2026-04-08T07:22:35.965Z</time></trkpt><trkpt lat="44.1615672" lon="10.393881"><ele>535.8</ele><time>2026-04-08T07:22:37.963Z</time></trkpt><trkpt lat="44.1615307" lon="10.3937379"><ele>536.0</ele><time>2026-04-08T07:22:39.966Z</time></trkpt><trkpt lat="44.1614962" lon="10.3935982"><ele>534.6</ele><time>2026-04-08T07:22:41.959Z</time></trkpt><trkpt lat="44.1614652" lon="10.3934607"><ele>533.2</ele><time>2026-04-08T07:22:43.961Z</time></trkpt><trkpt lat="44.1614312" lon="10.3933155"><ele>531.8</ele><time>2026-04-08T07:22:45.967Z</time></trkpt><trkpt lat="44.1613889" lon="10.393167"><ele>530.4</ele><time>2026-04-08T07:22:47.96Z</time></trkpt><trkpt lat="44.1613514" lon="10.3930266"><ele>529.0</ele><time>2026-04-08T07:22:49.965Z</time></trkpt><trkpt lat="44.1613162" lon="10.3928862"><ele>529.0</ele><time>2026-04-08T07:22:51.959Z</time></trkpt><trkpt lat="44.1612835" lon="10.3927435"><ele>529.0</ele><time>2026-04-08T07:22:53.961Z</time></trkpt><trkpt lat="44.1612532" lon="10.3926074"><ele>529.0</ele><time>2026-04-08T07:22:55.969Z</time></trkpt><trkpt lat="44.1612399" lon="10.3924568"><ele>529.0</ele><time>2026-04-08T07:22:57.954Z</time></trkpt><trkpt lat="44.1612424" lon="10.3923021"><ele>529.0</ele><time>2026-04-08T07:22:59.958Z</time></trkpt><trkpt lat="44.1612419" lon="10.3921567"><ele>528.8333333333334</ele><time>2026-04-08T07:23:01.957Z</time></trkpt><trkpt lat="44.1612415" lon="10.3920297"><ele>528.6666666666667</ele><time>2026-04-08T07:23:03.947Z</time></trkpt><trkpt lat="44.1612454" lon="10.3919145"><ele>528.5</ele><time>2026-04-08T07:23:05.95Z</time></trkpt><trkpt lat="44.1612427" lon="10.3918191"><ele>528.3333333333334</ele><time>2026-04-08T07:23:07.949Z</time></trkpt><trkpt lat="44.1612397" lon="10.3916969"><ele>528.1666666666666</ele><time>2026-04-08T07:23:10.958Z</time></trkpt><trkpt lat="44.1612428" lon="10.3915757"><ele>528.0</ele><time>2026-04-08T07:23:13.959Z</time></trkpt><trkpt lat="44.1612512" lon="10.3914469"><ele>528.3333333333334</ele><time>2026-04-08T07:23:16.962Z</time></trkpt><trkpt lat="44.1612556" lon="10.3913147"><ele>528.6666666666666</ele><time>2026-04-08T07:23:19.945Z</time></trkpt><trkpt lat="44.1612541" lon="10.3912269"><ele>529.0</ele><time>2026-04-08T07:23:21.963Z</time></trkpt><trkpt lat="44.1612529" lon="10.3910993"><ele>529.3333333333333</ele><time>2026-04-08T07:23:24.959Z</time></trkpt><trkpt lat="44.1612542" lon="10.3909741"><ele>529.6666666666666</ele><time>2026-04-08T07:23:27.948Z</time></trkpt><trkpt lat="44.1612683" lon="10.3908863"><ele>530.0</ele><time>2026-04-08T07:23:29.96Z</time></trkpt><trkpt lat="44.1612903" lon="10.3907619"><ele>530.0</ele><time>2026-04-08T07:23:32.956Z</time></trkpt><trkpt lat="44.161327" lon="10.3906475"><ele>530.0</ele><time>2026-04-08T07:23:35.961Z</time></trkpt><trkpt lat="44.1613787" lon="10.3905434"><ele>530.0</ele><time>2026-04-08T07:23:38.956Z</time></trkpt><trkpt lat="44.1614373" lon="10.390444"><ele>530.0</ele><time>2026-04-08T07:23:41.957Z</time></trkpt><trkpt lat="44.1615026" lon="10.3903546"><ele>530.0</ele><time>2026-04-08T07:23:44.96Z</time></trkpt><trkpt lat="44.1615713" lon="10.3902743"><ele>532.0</ele><time>2026-04-08T07:23:47.964Z</time></trkpt><trkpt lat="44.1616414" lon="10.3901913"><ele>534.0</ele><time>2026-04-08T07:23:50.948Z</time></trkpt><trkpt lat="44.1617142" lon="10.3901144"><ele>536.0</ele><time>2026-04-08T07:23:53.965Z</time></trkpt><trkpt lat="44.1617887" lon="10.3900388"><ele>538.0</ele><time>2026-04-08T07:23:56.955Z</time></trkpt><trkpt lat="44.1618582" lon="10.3899619"><ele>540.0</ele><time>2026-04-08T07:23:59.957Z</time></trkpt><trkpt lat="44.1619261" lon="10.3898854"><ele>540.0</ele><time>2026-04-08T07:24:02.954Z</time></trkpt><trkpt lat="44.1620029" lon="10.3898235"><ele>540.0</ele><time>2026-04-08T07:24:05.959Z</time></trkpt><trkpt lat="44.1620642" lon="10.3898018"><ele>540.0</ele><time>2026-04-08T07:24:07.975Z</time></trkpt><trkpt lat="44.1621573" lon="10.3898033"><ele>540.0</ele><time>2026-04-08T07:24:10.951Z</time></trkpt><trkpt lat="44.162246" lon="10.3898443"><ele>540.0</ele><time>2026-04-08T07:24:13.956Z</time></trkpt><trkpt lat="44.1623242" lon="10.3899149"><ele>540.0</ele><time>2026-04-08T07:24:16.955Z</time></trkpt><trkpt lat="44.1623917" lon="10.3899993"><ele>541.0</ele><time>2026-04-08T07:24:19.963Z</time></trkpt><trkpt lat="44.1624601" lon="10.3900805"><ele>542.0</ele><time>2026-04-08T07:24:22.95Z</time></trkpt><trkpt lat="44.1625202" lon="10.3901613"><ele>543.0</ele><time>2026-04-08T07:24:25.955Z</time></trkpt><trkpt lat="44.1625836" lon="10.390252"><ele>544.0</ele><time>2026-04-08T07:24:28.957Z</time></trkpt><trkpt lat="44.1626304" lon="10.390326"><ele>545.0</ele><time>2026-04-08T07:24:30.957Z</time></trkpt><trkpt lat="44.1626796" lon="10.3904031"><ele>546.0</ele><time>2026-04-08T07:24:32.955Z</time></trkpt><trkpt lat="44.1627264" lon="10.3904866"><ele>546.6666666666666</ele><time>2026-04-08T07:24:34.967Z</time></trkpt><trkpt lat="44.1627678" lon="10.3905677"><ele>547.3333333333334</ele><time>2026-04-08T07:24:36.949Z</time></trkpt><trkpt lat="44.1627989" lon="10.3906464"><ele>548.0</ele><time>2026-04-08T07:24:38.957Z</time></trkpt><trkpt lat="44.1628426" lon="10.3907603"><ele>548.6666666666667</ele><time>2026-04-08T07:24:41.958Z</time></trkpt><trkpt lat="44.1628969" lon="10.3908484"><ele>549.3333333333334</ele><time>2026-04-08T07:24:44.95Z</time></trkpt><trkpt lat="44.1629529" lon="10.3909373"><ele>550.0</ele><time>2026-04-08T07:24:47.965Z</time></trkpt><trkpt lat="44.1630094" lon="10.3910249"><ele>550.0</ele><time>2026-04-08T07:24:50.956Z</time></trkpt><trkpt lat="44.1630683" lon="10.3910971"><ele>550.0</ele><time>2026-04-08T07:24:53.958Z</time></trkpt><trkpt lat="44.1631337" lon="10.3911536"><ele>550.0</ele><time>2026-04-08T07:24:56.962Z</time></trkpt><trkpt lat="44.1631993" lon="10.3912099"><ele>550.0</ele><time>2026-04-08T07:24:59.96Z</time></trkpt><trkpt lat="44.1632687" lon="10.3912575"><ele>550.0</ele><time>2026-04-08T07:25:02.968Z</time></trkpt><trkpt lat="44.1633398" lon="10.3912945"><ele>550.0</ele><time>2026-04-08T07:25:05.962Z</time></trkpt><trkpt lat="44.1634045" lon="10.3913344"><ele>551.0</ele><time>2026-04-08T07:25:08.967Z</time></trkpt><trkpt lat="44.1634802" lon="10.3913798"><ele>552.0</ele><time>2026-04-08T07:25:11.96Z</time></trkpt><trkpt lat="44.163553" lon="10.3914167"><ele>553.0</ele><time>2026-04-08T07:25:14.965Z</time></trkpt><trkpt lat="44.1636201" lon="10.3914734"><ele>554.0</ele><time>2026-04-08T07:25:17.952Z</time></trkpt><trkpt lat="44.1636801" lon="10.3915487"><ele>555.0</ele><time>2026-04-08T07:25:20.984Z</time></trkpt><trkpt lat="44.1637351" lon="10.3916314"><ele>556.0</ele><time>2026-04-08T07:25:23.952Z</time></trkpt><trkpt lat="44.1637856" lon="10.3917175"><ele>556.0</ele><time>2026-04-08T07:25:26.959Z</time></trkpt><trkpt lat="44.1638278" lon="10.3918195"><ele>556.0</ele><time>2026-04-08T07:25:29.96Z</time></trkpt><trkpt lat="44.1638708" lon="10.3919209"><ele>556.0</ele><time>2026-04-08T07:25:32.959Z</time></trkpt><trkpt lat="44.1639187" lon="10.3920169"><ele>556.0</ele><time>2026-04-08T07:25:35.958Z</time></trkpt><trkpt lat="44.1639636" lon="10.39211"><ele>556.0</ele><time>2026-04-08T07:25:38.955Z</time></trkpt><trkpt lat="44.1640234" lon="10.3921958"><ele>556.0</ele><time>2026-04-08T07:25:41.963Z</time></trkpt><trkpt lat="44.1640749" lon="10.3922511"><ele>558.0</ele><time>2026-04-08T07:25:43.956Z</time></trkpt><trkpt lat="44.1641619" lon="10.3922888"><ele>560.0</ele><time>2026-04-08T07:25:46.967Z</time></trkpt><trkpt lat="44.1642256" lon="10.3922931"><ele>562.0</ele><time>2026-04-08T07:25:48.963Z</time></trkpt><trkpt lat="44.1643188" lon="10.3922879"><ele>564.0</ele><time>2026-04-08T07:25:51.96Z</time></trkpt><trkpt lat="44.164382" lon="10.3922862"><ele>566.0</ele><time>2026-04-08T07:25:53.963Z</time></trkpt><trkpt lat="44.1644455" lon="10.3922807"><ele>568.0</ele><time>2026-04-08T07:25:55.95Z</time></trkpt><trkpt lat="44.1645385" lon="10.3922766"><ele>568.0</ele><time>2026-04-08T07:25:58.958Z</time></trkpt><trkpt lat="44.1646016" lon="10.3922739"><ele>568.0</ele><time>2026-04-08T07:26:00.954Z</time></trkpt><trkpt lat="44.1646656" lon="10.3922677"><ele>568.0</ele><time>2026-04-08T07:26:02.959Z</time></trkpt><trkpt lat="44.1647289" lon="10.3922607"><ele>568.0</ele><time>2026-04-08T07:26:04.954Z</time></trkpt><trkpt lat="44.1648192" lon="10.3922469"><ele>568.0</ele><time>2026-04-08T07:26:07.959Z</time></trkpt><trkpt lat="44.1649115" lon="10.3922349"><ele>568.0</ele><time>2026-04-08T07:26:10.954Z</time></trkpt><trkpt lat="44.165004" lon="10.3922383"><ele>569.0</ele><time>2026-04-08T07:26:13.971Z</time></trkpt><trkpt lat="44.1650981" lon="10.3922392"><ele>570.0</ele><time>2026-04-08T07:26:16.959Z</time></trkpt><trkpt lat="44.165187" lon="10.3922563"><ele>571.0</ele><time>2026-04-08T07:26:19.957Z</time></trkpt><trkpt lat="44.1652708" lon="10.3923059"><ele>572.0</ele><time>2026-04-08T07:26:22.972Z</time></trkpt><trkpt lat="44.1653466" lon="10.392384"><ele>573.0</ele><time>2026-04-08T07:26:25.95Z</time></trkpt><trkpt lat="44.1653895" lon="10.3924506"><ele>574.0</ele><time>2026-04-08T07:26:27.963Z</time></trkpt><trkpt lat="44.1654473" lon="10.3925546"><ele>574.0</ele><time>2026-04-08T07:26:30.953Z</time></trkpt><trkpt lat="44.1655073" lon="10.392657"><ele>574.0</ele><time>2026-04-08T07:26:33.962Z</time></trkpt><trkpt lat="44.1655518" lon="10.3927216"><ele>574.0</ele><time>2026-04-08T07:26:35.95Z</time></trkpt><trkpt lat="44.1656054" lon="10.3927728"><ele>574.0</ele><time>2026-04-08T07:26:37.948Z</time></trkpt><trkpt lat="44.1656718" lon="10.3928054"><ele>574.0</ele><time>2026-04-08T07:26:39.962Z</time></trkpt><trkpt lat="44.1657415" lon="10.3928149"><ele>574.0</ele><time>2026-04-08T07:26:41.964Z</time></trkpt><trkpt lat="44.1658062" lon="10.3927972"><ele>574.0</ele><time>2026-04-08T07:26:43.962Z</time></trkpt><trkpt lat="44.1658686" lon="10.3927731"><ele>572.8571428571429</ele><time>2026-04-08T07:26:45.96Z</time></trkpt><trkpt lat="44.1659329" lon="10.3927471"><ele>571.7142857142858</ele><time>2026-04-08T07:26:47.962Z</time></trkpt><trkpt lat="44.1659954" lon="10.3927238"><ele>570.5714285714286</ele><time>2026-04-08T07:26:49.952Z</time></trkpt><trkpt lat="44.1660584" lon="10.3926982"><ele>569.4285714285714</ele><time>2026-04-08T07:26:51.948Z</time></trkpt><trkpt lat="44.1661227" lon="10.3926674"><ele>568.2857142857143</ele><time>2026-04-08T07:26:53.959Z</time></trkpt><trkpt lat="44.166186" lon="10.3926378"><ele>567.1428571428571</ele><time>2026-04-08T07:26:55.951Z</time></trkpt><trkpt lat="44.1662489" lon="10.3926108"><ele>566.0</ele><time>2026-04-08T07:26:57.95Z</time></trkpt><trkpt lat="44.1663113" lon="10.3925815"><ele>566.0</ele><time>2026-04-08T07:26:59.958Z</time></trkpt><trkpt lat="44.1663711" lon="10.3925511"><ele>566.0</ele><time>2026-04-08T07:27:01.951Z</time></trkpt><trkpt lat="44.1664351" lon="10.3925192"><ele>566.0</ele><time>2026-04-08T07:27:03.953Z</time></trkpt><trkpt lat="44.1664976" lon="10.392484"><ele>566.0</ele><time>2026-04-08T07:27:05.95Z</time></trkpt><trkpt lat="44.1665588" lon="10.3924486"><ele>566.0</ele><time>2026-04-08T07:27:07.953Z</time></trkpt><trkpt lat="44.1666175" lon="10.3924034"><ele>566.0</ele><time>2026-04-08T07:27:09.949Z</time></trkpt><trkpt lat="44.1666727" lon="10.3923442"><ele>566.0</ele><time>2026-04-08T07:27:11.949Z</time></trkpt><trkpt lat="44.1667227" lon="10.3922766"><ele>566.1666666666666</ele><time>2026-04-08T07:27:13.961Z</time></trkpt><trkpt lat="44.1667619" lon="10.3922066"><ele>566.3333333333333</ele><time>2026-04-08T07:27:15.979Z</time></trkpt><trkpt lat="44.1667965" lon="10.3921288"><ele>566.5</ele><time>2026-04-08T07:27:17.96Z</time></trkpt><trkpt lat="44.1668403" lon="10.3920165"><ele>566.6666666666666</ele><time>2026-04-08T07:27:20.97Z</time></trkpt><trkpt lat="44.1668806" lon="10.3919115"><ele>566.8333333333334</ele><time>2026-04-08T07:27:23.952Z</time></trkpt><trkpt lat="44.1669245" lon="10.3917965"><ele>567.0</ele><time>2026-04-08T07:27:26.955Z</time></trkpt><trkpt lat="44.1669545" lon="10.3917182"><ele>567.0</ele><time>2026-04-08T07:27:28.951Z</time></trkpt><trkpt lat="44.1669983" lon="10.3916025"><ele>567.0</ele><time>2026-04-08T07:27:31.959Z</time></trkpt><trkpt lat="44.1670406" lon="10.3914849"><ele>567.0</ele><time>2026-04-08T07:27:34.951Z</time></trkpt><trkpt lat="44.1670763" lon="10.3913999"><ele>567.0</ele><time>2026-04-08T07:27:36.959Z</time></trkpt><trkpt lat="44.1671089" lon="10.3913128"><ele>567.0</ele><time>2026-04-08T07:27:38.949Z</time></trkpt><trkpt lat="44.1671438" lon="10.3912226"><ele>567.0</ele><time>2026-04-08T07:27:40.954Z</time></trkpt><trkpt lat="44.1671791" lon="10.3911357"><ele>566.1428571428571</ele><time>2026-04-08T07:27:42.948Z</time></trkpt><trkpt lat="44.1672105" lon="10.3910464"><ele>565.2857142857142</ele><time>2026-04-08T07:27:44.956Z</time></trkpt><trkpt lat="44.1672419" lon="10.3909589"><ele>564.4285714285714</ele><time>2026-04-08T07:27:46.948Z</time></trkpt><trkpt lat="44.1672724" lon="10.3908768"><ele>563.5714285714286</ele><time>2026-04-08T07:27:48.954Z</time></trkpt><trkpt lat="44.1673091" lon="10.3907971"><ele>562.7142857142857</ele><time>2026-04-08T07:27:50.957Z</time></trkpt><trkpt lat="44.1673527" lon="10.3907232"><ele>561.8571428571429</ele><time>2026-04-08T07:27:52.957Z</time></trkpt><trkpt lat="44.1674122" lon="10.3906667"><ele>561.0</ele><time>2026-04-08T07:27:54.956Z</time></trkpt><trkpt lat="44.1674706" lon="10.3906144"><ele>562.0</ele><time>2026-04-08T07:27:56.954Z</time></trkpt><trkpt lat="44.1675314" lon="10.3905758"><ele>563.0</ele><time>2026-04-08T07:27:58.949Z</time></trkpt><trkpt lat="44.1675973" lon="10.3905447"><ele>564.0</ele><time>2026-04-08T07:28:00.947Z</time></trkpt><trkpt lat="44.1676663" lon="10.3905194"><ele>565.0</ele><time>2026-04-08T07:28:02.957Z</time></trkpt><trkpt lat="44.1677309" lon="10.3904977"><ele>566.0</ele><time>2026-04-08T07:28:04.954Z</time></trkpt><trkpt lat="44.1677966" lon="10.3904739"><ele>567.0</ele><time>2026-04-08T07:28:06.97Z</time></trkpt><trkpt lat="44.1678613" lon="10.3904519"><ele>568.0</ele><time>2026-04-08T07:28:08.966Z</time></trkpt><trkpt lat="44.1679257" lon="10.3904296"><ele>568.0</ele><time>2026-04-08T07:28:10.949Z</time></trkpt><trkpt lat="44.1679912" lon="10.3904079"><ele>568.0</ele><time>2026-04-08T07:28:12.948Z</time></trkpt><trkpt lat="44.1680567" lon="10.3903857"><ele>568.0</ele><time>2026-04-08T07:28:14.946Z</time></trkpt><trkpt lat="44.1681247" lon="10.3903621"><ele>568.0</ele><time>2026-04-08T07:28:16.957Z</time></trkpt><trkpt lat="44.1681917" lon="10.3903442"><ele>568.0</ele><time>2026-04-08T07:28:18.962Z</time></trkpt><trkpt lat="44.1682562" lon="10.3903221"><ele>568.0</ele><time>2026-04-08T07:28:20.952Z</time></trkpt><trkpt lat="44.1683376" lon="10.3902911"><ele>568.0</ele><time>2026-04-08T07:28:23.967Z</time></trkpt><trkpt lat="44.1684238" lon="10.3902559"><ele>569.8333333333334</ele><time>2026-04-08T07:28:26.944Z</time></trkpt><trkpt lat="44.1685135" lon="10.390229"><ele>571.6666666666667</ele><time>2026-04-08T07:28:29.956Z</time></trkpt><trkpt lat="44.168602" lon="10.3901873"><ele>573.5</ele><time>2026-04-08T07:28:32.96Z</time></trkpt><trkpt lat="44.1686886" lon="10.3901427"><ele>575.3333333333334</ele><time>2026-04-08T07:28:35.961Z</time></trkpt><trkpt lat="44.1687431" lon="10.3900946"><ele>577.1666666666666</ele><time>2026-04-08T07:28:37.956Z</time></trkpt><trkpt lat="44.1687956" lon="10.3900415"><ele>579.0</ele><time>2026-04-08T07:28:39.964Z</time></trkpt><trkpt lat="44.1688449" lon="10.3899864"><ele>579.0</ele><time>2026-04-08T07:28:41.954Z</time></trkpt><trkpt lat="44.1689085" lon="10.3899025"><ele>579.0</ele><time>2026-04-08T07:28:44.953Z</time></trkpt><trkpt lat="44.1689641" lon="10.389813"><ele>579.0</ele><time>2026-04-08T07:28:47.953Z</time></trkpt><trkpt lat="44.1690279" lon="10.3897219"><ele>579.0</ele><time>2026-04-08T07:28:50.97Z</time></trkpt><trkpt lat="44.1690764" lon="10.3896504"><ele>579.0</ele><time>2026-04-08T07:28:52.963Z</time></trkpt><trkpt lat="44.1691308" lon="10.3895786"><ele>579.0</ele><time>2026-04-08T07:28:54.957Z</time></trkpt><trkpt lat="44.169192" lon="10.3895101"><ele>578.6666666666666</ele><time>2026-04-08T07:28:56.958Z</time></trkpt><trkpt lat="44.1692558" lon="10.3894394"><ele>578.3333333333334</ele><time>2026-04-08T07:28:58.955Z</time></trkpt><trkpt lat="44.1693234" lon="10.3893771"><ele>578.0</ele><time>2026-04-08T07:29:00.965Z</time></trkpt><trkpt lat="44.1693891" lon="10.3893134"><ele>577.6666666666667</ele><time>2026-04-08T07:29:02.953Z</time></trkpt><trkpt lat="44.1694534" lon="10.3892578"><ele>577.3333333333334</ele><time>2026-04-08T07:29:04.961Z</time></trkpt><trkpt lat="44.1695164" lon="10.3892157"><ele>577.0</ele><time>2026-04-08T07:29:06.953Z</time></trkpt><trkpt lat="44.169578" lon="10.3891846"><ele>577.0</ele><time>2026-04-08T07:29:08.956Z</time></trkpt><trkpt lat="44.1696376" lon="10.3891539"><ele>577.0</ele><time>2026-04-08T07:29:10.96Z</time></trkpt><trkpt lat="44.1697229" lon="10.3891114"><ele>577.0</ele><time>2026-04-08T07:29:13.955Z</time></trkpt><trkpt lat="44.1698093" lon="10.3890776"><ele>577.0</ele><time>2026-04-08T07:29:16.954Z</time></trkpt><trkpt lat="44.169895" lon="10.3890382"><ele>577.0</ele><time>2026-04-08T07:29:19.954Z</time></trkpt><trkpt lat="44.1699789" lon="10.3889915"><ele>577.0</ele><time>2026-04-08T07:29:22.959Z</time></trkpt><trkpt lat="44.170056" lon="10.3889554"><ele>576.5</ele><time>2026-04-08T07:29:25.954Z</time></trkpt><trkpt lat="44.1701324" lon="10.3889161"><ele>576.0</ele><time>2026-04-08T07:29:28.95Z</time></trkpt><trkpt lat="44.1702091" lon="10.3888775"><ele>575.5</ele><time>2026-04-08T07:29:31.952Z</time></trkpt><trkpt lat="44.1702824" lon="10.3888376"><ele>575.0</ele><time>2026-04-08T07:29:34.952Z</time></trkpt><trkpt lat="44.1703549" lon="10.3888001"><ele>574.5</ele><time>2026-04-08T07:29:37.949Z</time></trkpt><trkpt lat="44.1704296" lon="10.3887784"><ele>574.0</ele><time>2026-04-08T07:29:40.944Z</time></trkpt><trkpt lat="44.1705079" lon="10.3887533"><ele>574.0</ele><time>2026-04-08T07:29:43.955Z</time></trkpt><trkpt lat="44.1705872" lon="10.3887353"><ele>574.0</ele><time>2026-04-08T07:29:46.957Z</time></trkpt><trkpt lat="44.1706662" lon="10.3887177"><ele>574.0</ele><time>2026-04-08T07:29:49.955Z</time></trkpt><trkpt lat="44.1707439" lon="10.3886987"><ele>574.0</ele><time>2026-04-08T07:29:52.959Z</time></trkpt><trkpt lat="44.1708199" lon="10.3886777"><ele>574.0</ele><time>2026-04-08T07:29:55.955Z</time></trkpt><trkpt lat="44.1708959" lon="10.3886546"><ele>574.0</ele><time>2026-04-08T07:29:58.964Z</time></trkpt><trkpt lat="44.170976" lon="10.3886405"><ele>576.0</ele><time>2026-04-08T07:30:01.955Z</time></trkpt><trkpt lat="44.171056" lon="10.3886347"><ele>578.0</ele><time>2026-04-08T07:30:04.968Z</time></trkpt><trkpt lat="44.1711282" lon="10.3886516"><ele>580.0</ele><time>2026-04-08T07:30:07.957Z</time></trkpt><trkpt lat="44.1712025" lon="10.3886946"><ele>582.0</ele><time>2026-04-08T07:30:10.957Z</time></trkpt><trkpt lat="44.1712696" lon="10.3887623"><ele>584.0</ele><time>2026-04-08T07:30:13.963Z</time></trkpt><trkpt lat="44.1713244" lon="10.3888362"><ele>586.0</ele><time>2026-04-08T07:30:16.953Z</time></trkpt><trkpt lat="44.1713745" lon="10.3889258"><ele>588.8333333333334</ele><time>2026-04-08T07:30:19.979Z</time></trkpt><trkpt lat="44.1714252" lon="10.3890169"><ele>591.6666666666667</ele><time>2026-04-08T07:30:22.968Z</time></trkpt><trkpt lat="44.1714738" lon="10.3891018"><ele>594.5</ele><time>2026-04-08T07:30:25.964Z</time></trkpt><trkpt lat="44.1715354" lon="10.3891736"><ele>597.3333333333334</ele><time>2026-04-08T07:30:28.958Z</time></trkpt><trkpt lat="44.1716079" lon="10.3892297"><ele>600.1666666666666</ele><time>2026-04-08T07:30:31.958Z</time></trkpt><trkpt lat="44.1716846" lon="10.3892716"><ele>603.0</ele><time>2026-04-08T07:30:34.97Z</time></trkpt><trkpt lat="44.1717606" lon="10.3893074"><ele>603.0</ele><time>2026-04-08T07:30:37.952Z</time></trkpt><trkpt lat="44.1718368" lon="10.3893382"><ele>603.0</ele><time>2026-04-08T07:30:40.955Z</time></trkpt><trkpt lat="44.1719141" lon="10.3893571"><ele>603.0</ele><time>2026-04-08T07:30:43.955Z</time></trkpt><trkpt lat="44.1719913" lon="10.3893769"><ele>603.0</ele><time>2026-04-08T07:30:46.964Z</time></trkpt><trkpt lat="44.1720725" lon="10.3893936"><ele>603.0</ele><time>2026-04-08T07:30:49.957Z</time></trkpt><trkpt lat="44.1721549" lon="10.3893991"><ele>603.0</ele><time>2026-04-08T07:30:52.954Z</time></trkpt><trkpt lat="44.1722383" lon="10.3893883"><ele>603.0</ele><time>2026-04-08T07:30:55.948Z</time></trkpt><trkpt lat="44.1723156" lon="10.3893464"><ele>603.0</ele><time>2026-04-08T07:30:58.956Z</time></trkpt><trkpt lat="44.1723962" lon="10.3893054"><ele>603.0</ele><time>2026-04-08T07:31:01.96Z</time></trkpt><trkpt lat="44.1724715" lon="10.3892623"><ele>603.0</ele><time>2026-04-08T07:31:04.958Z</time></trkpt><trkpt lat="44.1725487" lon="10.3892317"><ele>603.0</ele><time>2026-04-08T07:31:07.956Z</time></trkpt><trkpt lat="44.1726355" lon="10.3892157"><ele>603.0</ele><time>2026-04-08T07:31:10.951Z</time></trkpt><trkpt lat="44.1727195" lon="10.3892186"><ele>603.1666666666666</ele><time>2026-04-08T07:31:13.955Z</time></trkpt><trkpt lat="44.1727958" lon="10.3892392"><ele>603.3333333333334</ele><time>2026-04-08T07:31:16.961Z</time></trkpt><trkpt lat="44.172878" lon="10.3892675"><ele>603.5</ele><time>2026-04-08T07:31:19.948Z</time></trkpt><trkpt lat="44.172961" lon="10.3893134"><ele>603.6666666666667</ele><time>2026-04-08T07:31:22.96Z</time></trkpt><trkpt lat="44.1730365" lon="10.3893647"><ele>603.8333333333334</ele><time>2026-04-08T07:31:25.965Z</time></trkpt><trkpt lat="44.1731087" lon="10.3894166"><ele>604.0</ele><time>2026-04-08T07:31:28.961Z</time></trkpt><trkpt lat="44.1731778" lon="10.3894733"><ele>604.6666666666667</ele><time>2026-04-08T07:31:31.954Z</time></trkpt><trkpt lat="44.1732586" lon="10.3895229"><ele>605.3333333333334</ele><time>2026-04-08T07:31:34.952Z</time></trkpt><trkpt lat="44.1733461" lon="10.389523"><ele>606.0</ele><time>2026-04-08T07:31:37.963Z</time></trkpt><trkpt lat="44.173424" lon="10.3895027"><ele>606.6666666666666</ele><time>2026-04-08T07:31:40.952Z</time></trkpt><trkpt lat="44.1735049" lon="10.3894758"><ele>607.3333333333333</ele><time>2026-04-08T07:31:43.966Z</time></trkpt><trkpt lat="44.1735867" lon="10.3894489"><ele>608.0</ele><time>2026-04-08T07:31:46.948Z</time></trkpt><trkpt lat="44.1736678" lon="10.3894261"><ele>608.0</ele><time>2026-04-08T07:31:49.958Z</time></trkpt><trkpt lat="44.1737464" lon="10.3894025"><ele>608.0</ele><time>2026-04-08T07:31:52.958Z</time></trkpt><trkpt lat="44.1738285" lon="10.389383"><ele>608.0</ele><time>2026-04-08T07:31:55.961Z</time></trkpt><trkpt lat="44.1739075" lon="10.389348"><ele>608.0</ele><time>2026-04-08T07:31:58.95Z</time></trkpt><trkpt lat="44.1739887" lon="10.3893198"><ele>608.0</ele><time>2026-04-08T07:32:01.959Z</time></trkpt><trkpt lat="44.1740665" lon="10.3892998"><ele>608.0</ele><time>2026-04-08T07:32:04.964Z</time></trkpt><trkpt lat="44.1741423" lon="10.3892765"><ele>609.1666666666666</ele><time>2026-04-08T07:32:07.963Z</time></trkpt><trkpt lat="44.1742231" lon="10.389256"><ele>610.3333333333333</ele><time>2026-04-08T07:32:10.955Z</time></trkpt><trkpt lat="44.1743018" lon="10.3892306"><ele>611.5</ele><time>2026-04-08T07:32:13.957Z</time></trkpt><trkpt lat="44.1743813" lon="10.3892026"><ele>612.6666666666666</ele><time>2026-04-08T07:32:16.955Z</time></trkpt><trkpt lat="44.1744573" lon="10.3891746"><ele>613.8333333333334</ele><time>2026-04-08T07:32:19.953Z</time></trkpt><trkpt lat="44.1745366" lon="10.3891438"><ele>615.0</ele><time>2026-04-08T07:32:22.966Z</time></trkpt><trkpt lat="44.1746203" lon="10.3891148"><ele>615.0</ele><time>2026-04-08T07:32:25.956Z</time></trkpt><trkpt lat="44.1746958" lon="10.3890909"><ele>615.0</ele><time>2026-04-08T07:32:28.954Z</time></trkpt><trkpt lat="44.1747734" lon="10.3890634"><ele>615.0</ele><time>2026-04-08T07:32:31.958Z</time></trkpt><trkpt lat="44.1748496" lon="10.389035"><ele>615.0</ele><time>2026-04-08T07:32:34.962Z</time></trkpt><trkpt lat="44.1749276" lon="10.3890149"><ele>615.0</ele><time>2026-04-08T07:32:37.975Z</time></trkpt><trkpt lat="44.1750106" lon="10.38899"><ele>615.0</ele><time>2026-04-08T07:32:40.955Z</time></trkpt><trkpt lat="44.1750923" lon="10.3889599"><ele>613.3333333333334</ele><time>2026-04-08T07:32:43.956Z</time></trkpt><trkpt lat="44.1751616" lon="10.3889276"><ele>611.6666666666666</ele><time>2026-04-08T07:32:46.95Z</time></trkpt><trkpt lat="44.1752364" lon="10.3888946"><ele>610.0</ele><time>2026-04-08T07:32:49.953Z</time></trkpt><trkpt lat="44.1753185" lon="10.3888689"><ele>608.3333333333333</ele><time>2026-04-08T07:32:52.957Z</time></trkpt><trkpt lat="44.1754004" lon="10.3888408"><ele>606.6666666666666</ele><time>2026-04-08T07:32:55.963Z</time></trkpt><trkpt lat="44.1754749" lon="10.3888185"><ele>605.0</ele><time>2026-04-08T07:32:58.957Z</time></trkpt><trkpt lat="44.1755453" lon="10.3887869"><ele>605.0</ele><time>2026-04-08T07:33:01.948Z</time></trkpt><trkpt lat="44.1756196" lon="10.3887542"><ele>605.0</ele><time>2026-04-08T07:33:04.953Z</time></trkpt><trkpt lat="44.175693" lon="10.3887163"><ele>605.0</ele><time>2026-04-08T07:33:07.966Z</time></trkpt><trkpt lat="44.1757776" lon="10.3886772"><ele>605.0</ele><time>2026-04-08T07:33:10.956Z</time></trkpt><trkpt lat="44.1758584" lon="10.3886347"><ele>605.0</ele><time>2026-04-08T07:33:13.965Z</time></trkpt><trkpt lat="44.1759396" lon="10.3885966"><ele>605.0</ele><time>2026-04-08T07:33:16.958Z</time></trkpt><trkpt lat="44.1760234" lon="10.3885618"><ele>606.3333333333333</ele><time>2026-04-08T07:33:19.956Z</time></trkpt><trkpt lat="44.1761106" lon="10.3885241"><ele>607.6666666666666</ele><time>2026-04-08T07:33:22.96Z</time></trkpt><trkpt lat="44.1761901" lon="10.3884903"><ele>609.0</ele><time>2026-04-08T07:33:25.968Z</time></trkpt><trkpt lat="44.1762741" lon="10.3884485"><ele>610.3333333333334</ele><time>2026-04-08T07:33:28.958Z</time></trkpt><trkpt lat="44.1763511" lon="10.3884151"><ele>611.6666666666667</ele><time>2026-04-08T07:33:31.958Z</time></trkpt><trkpt lat="44.1764288" lon="10.3883811"><ele>613.0</ele><time>2026-04-08T07:33:34.954Z</time></trkpt><trkpt lat="44.1765089" lon="10.3883428"><ele>616.8333333333334</ele><time>2026-04-08T07:33:37.961Z</time></trkpt><trkpt lat="44.1765891" lon="10.3883181"><ele>620.6666666666667</ele><time>2026-04-08T07:33:40.958Z</time></trkpt><trkpt lat="44.176668" lon="10.3882952"><ele>624.5</ele><time>2026-04-08T07:33:43.959Z</time></trkpt><trkpt lat="44.1767444" lon="10.3882761"><ele>628.3333333333334</ele><time>2026-04-08T07:33:46.963Z</time></trkpt><trkpt lat="44.1768265" lon="10.3882562"><ele>632.1666666666666</ele><time>2026-04-08T07:33:49.953Z</time></trkpt><trkpt lat="44.1769015" lon="10.3882397"><ele>636.0</ele><time>2026-04-08T07:33:52.957Z</time></trkpt><trkpt lat="44.1769858" lon="10.3882085"><ele>636.0</ele><time>2026-04-08T07:33:55.957Z</time></trkpt><trkpt lat="44.1770553" lon="10.3881756"><ele>636.0</ele><time>2026-04-08T07:33:58.954Z</time></trkpt><trkpt lat="44.1771358" lon="10.3881293"><ele>636.0</ele><time>2026-04-08T07:34:01.957Z</time></trkpt><trkpt lat="44.1772081" lon="10.388075"><ele>636.0</ele><time>2026-04-08T07:34:04.947Z</time></trkpt><trkpt lat="44.1772763" lon="10.3880163"><ele>636.0</ele><time>2026-04-08T07:34:07.959Z</time></trkpt><trkpt lat="44.1773474" lon="10.3879503"><ele>636.0</ele><time>2026-04-08T07:34:10.959Z</time></trkpt><trkpt lat="44.177428" lon="10.3879045"><ele>633.8333333333334</ele><time>2026-04-08T07:34:13.964Z</time></trkpt><trkpt lat="44.1774932" lon="10.3878484"><ele>631.6666666666666</ele><time>2026-04-08T07:34:16.964Z</time></trkpt><trkpt lat="44.1775604" lon="10.3877959"><ele>629.5</ele><time>2026-04-08T07:34:19.955Z</time></trkpt><trkpt lat="44.1776381" lon="10.3877485"><ele>627.3333333333333</ele><time>2026-04-08T07:34:22.961Z</time></trkpt><trkpt lat="44.1777139" lon="10.3876987"><ele>625.1666666666666</ele><time>2026-04-08T07:34:25.956Z</time></trkpt><trkpt lat="44.1777775" lon="10.387643"><ele>623.0</ele><time>2026-04-08T07:34:28.946Z</time></trkpt><trkpt lat="44.1778485" lon="10.3875898"><ele>623.0</ele><time>2026-04-08T07:34:31.952Z</time></trkpt><trkpt lat="44.1779317" lon="10.387548"><ele>623.0</ele><time>2026-04-08T07:34:34.966Z</time></trkpt><trkpt lat="44.1780023" lon="10.3874905"><ele>623.0</ele><time>2026-04-08T07:34:37.951Z</time></trkpt><trkpt lat="44.1780745" lon="10.3874347"><ele>623.0</ele><time>2026-04-08T07:34:40.963Z</time></trkpt><trkpt lat="44.1781468" lon="10.3873817"><ele>623.0</ele><time>2026-04-08T07:34:43.961Z</time></trkpt><trkpt lat="44.1782193" lon="10.3873197"><ele>623.0</ele><time>2026-04-08T07:34:46.968Z</time></trkpt><trkpt lat="44.1782854" lon="10.3872455"><ele>622.6666666666666</ele><time>2026-04-08T07:34:49.955Z</time></trkpt><trkpt lat="44.1783249" lon="10.387156"><ele>622.3333333333333</ele><time>2026-04-08T07:34:52.957Z</time></trkpt><trkpt lat="44.1783407" lon="10.3870449"><ele>622.0</ele><time>2026-04-08T07:34:55.958Z</time></trkpt><trkpt lat="44.1783424" lon="10.3869393"><ele>621.6666666666666</ele><time>2026-04-08T07:34:58.955Z</time></trkpt><trkpt lat="44.1783385" lon="10.3868419"><ele>621.3333333333334</ele><time>2026-04-08T07:35:01.957Z</time></trkpt><trkpt lat="44.1783344" lon="10.3867391"><ele>621.0</ele><time>2026-04-08T07:35:04.964Z</time></trkpt><trkpt lat="44.1783274" lon="10.3866317"><ele>621.0</ele><time>2026-04-08T07:35:07.965Z</time></trkpt><trkpt lat="44.1783197" lon="10.3865253"><ele>621.0</ele><time>2026-04-08T07:35:10.952Z</time></trkpt><trkpt lat="44.1783095" lon="10.3864203"><ele>621.0</ele><time>2026-04-08T07:35:13.961Z</time></trkpt><trkpt lat="44.1782955" lon="10.3863108"><ele>621.0</ele><time>2026-04-08T07:35:16.953Z</time></trkpt><trkpt lat="44.1782875" lon="10.386207"><ele>621.0</ele><time>2026-04-08T07:35:19.955Z</time></trkpt><trkpt lat="44.178279" lon="10.3861004"><ele>621.0</ele><time>2026-04-08T07:35:22.965Z</time></trkpt><trkpt lat="44.1782622" lon="10.3859933"><ele>621.3333333333334</ele><time>2026-04-08T07:35:25.957Z</time></trkpt><trkpt lat="44.1782382" lon="10.3858884"><ele>621.6666666666666</ele><time>2026-04-08T07:35:28.948Z</time></trkpt><trkpt lat="44.1782022" lon="10.3857913"><ele>622.0</ele><time>2026-04-08T07:35:31.976Z</time></trkpt><trkpt lat="44.1781621" lon="10.3856975"><ele>622.3333333333333</ele><time>2026-04-08T07:35:34.956Z</time></trkpt><trkpt lat="44.1781272" lon="10.3856047"><ele>622.6666666666666</ele><time>2026-04-08T07:35:37.958Z</time></trkpt><trkpt lat="44.1780857" lon="10.3855103"><ele>623.0</ele><time>2026-04-08T07:35:40.96Z</time></trkpt><trkpt lat="44.1780516" lon="10.3854177"><ele>626.0</ele><time>2026-04-08T07:35:43.959Z</time></trkpt><trkpt lat="44.1780152" lon="10.3853358"><ele>629.0</ele><time>2026-04-08T07:35:46.974Z</time></trkpt><trkpt lat="44.1779767" lon="10.3852536"><ele>632.0</ele><time>2026-04-08T07:35:49.967Z</time></trkpt><trkpt lat="44.1779485" lon="10.3851669"><ele>635.0</ele><time>2026-04-08T07:35:52.963Z</time></trkpt><trkpt lat="44.1779094" lon="10.3850643"><ele>638.0</ele><time>2026-04-08T07:35:56.959Z</time></trkpt><trkpt lat="44.1778707" lon="10.3849905"><ele>641.0</ele><time>2026-04-08T07:35:59.955Z</time></trkpt><trkpt lat="44.1778246" lon="10.3849147"><ele>644.0</ele><time>2026-04-08T07:36:02.961Z</time></trkpt><trkpt lat="44.1777649" lon="10.3848382"><ele>644.0</ele><time>2026-04-08T07:36:06.955Z</time></trkpt><trkpt lat="44.1776956" lon="10.3847731"><ele>644.0</ele><time>2026-04-08T07:36:10.963Z</time></trkpt><trkpt lat="44.1776398" lon="10.3847193"><ele>644.0</ele><time>2026-04-08T07:36:13.957Z</time></trkpt><trkpt lat="44.1775878" lon="10.3846643"><ele>644.0</ele><time>2026-04-08T07:36:16.955Z</time></trkpt><trkpt lat="44.1775351" lon="10.3846162"><ele>644.0</ele><time>2026-04-08T07:36:19.961Z</time></trkpt><trkpt lat="44.1774837" lon="10.3845648"><ele>644.0</ele><time>2026-04-08T07:36:22.961Z</time></trkpt><trkpt lat="44.1774334" lon="10.3845061"><ele>644.0</ele><time>2026-04-08T07:36:25.949Z</time></trkpt><trkpt lat="44.177381" lon="10.3844526"><ele>646.0</ele><time>2026-04-08T07:36:28.949Z</time></trkpt><trkpt lat="44.1773151" lon="10.3843802"><ele>648.0</ele><time>2026-04-08T07:36:32.946Z</time></trkpt><trkpt lat="44.1772606" lon="10.3843286"><ele>650.0</ele><time>2026-04-08T07:36:35.95Z</time></trkpt><trkpt lat="44.1772096" lon="10.3842694"><ele>652.0</ele><time>2026-04-08T07:36:38.966Z</time></trkpt><trkpt lat="44.1771568" lon="10.3842166"><ele>654.0</ele><time>2026-04-08T07:36:41.954Z</time></trkpt><trkpt lat="44.1771073" lon="10.3841617"><ele>656.0</ele><time>2026-04-08T07:36:44.966Z</time></trkpt><trkpt lat="44.177043" lon="10.3840903"><ele>658.0</ele><time>2026-04-08T07:36:48.962Z</time></trkpt><trkpt lat="44.1769931" lon="10.3840355"><ele>658.0</ele><time>2026-04-08T07:36:51.949Z</time></trkpt><trkpt lat="44.1769465" lon="10.3839748"><ele>658.0</ele><time>2026-04-08T07:36:54.963Z</time></trkpt><trkpt lat="44.1769214" lon="10.3838678"><ele>658.0</ele><time>2026-04-08T07:36:58.966Z</time></trkpt><trkpt lat="44.1769306" lon="10.3837776"><ele>658.0</ele><time>2026-04-08T07:37:01.951Z</time></trkpt><trkpt lat="44.1769527" lon="10.3836925"><ele>658.0</ele><time>2026-04-08T07:37:04.955Z</time></trkpt><trkpt lat="44.1769787" lon="10.3836034"><ele>658.0</ele><time>2026-04-08T07:37:07.951Z</time></trkpt><trkpt lat="44.1769979" lon="10.3835168"><ele>658.0</ele><time>2026-04-08T07:37:10.962Z</time></trkpt><trkpt lat="44.1770185" lon="10.3834233"><ele>659.0</ele><time>2026-04-08T07:37:13.969Z</time></trkpt><trkpt lat="44.1770395" lon="10.383332"><ele>660.0</ele><time>2026-04-08T07:37:16.957Z</time></trkpt><trkpt lat="44.177054" lon="10.3832441"><ele>661.0</ele><time>2026-04-08T07:37:19.959Z</time></trkpt><trkpt lat="44.1770768" lon="10.3831365"><ele>662.0</ele><time>2026-04-08T07:37:23.962Z</time></trkpt><trkpt lat="44.1770892" lon="10.3830438"><ele>663.0</ele><time>2026-04-08T07:37:26.96Z</time></trkpt><trkpt lat="44.1770916" lon="10.3829503"><ele>664.0</ele><time>2026-04-08T07:37:29.951Z</time></trkpt><trkpt lat="44.1770748" lon="10.3828505"><ele>665.0</ele><time>2026-04-08T07:37:32.96Z</time></trkpt><trkpt lat="44.1770592" lon="10.3827466"><ele>665.7142857142857</ele><time>2026-04-08T07:37:36.965Z</time></trkpt><trkpt lat="44.1770384" lon="10.3826325"><ele>666.4285714285714</ele><time>2026-04-08T07:37:40.966Z</time></trkpt><trkpt lat="44.1770105" lon="10.3825512"><ele>667.1428571428571</ele><time>2026-04-08T07:37:43.968Z</time></trkpt><trkpt lat="44.1769489" lon="10.3824911"><ele>667.8571428571429</ele><time>2026-04-08T07:37:46.962Z</time></trkpt><trkpt lat="44.1768803" lon="10.3824462"><ele>668.5714285714286</ele><time>2026-04-08T07:37:49.955Z</time></trkpt><trkpt lat="44.1768082" lon="10.3824138"><ele>669.2857142857142</ele><time>2026-04-08T07:37:52.962Z</time></trkpt><trkpt lat="44.1767377" lon="10.3823889"><ele>670.0</ele><time>2026-04-08T07:37:55.951Z</time></trkpt><trkpt lat="44.1766744" lon="10.3823516"><ele>669.9999999999999</ele><time>2026-04-08T07:37:58.96Z</time></trkpt><trkpt lat="44.1766176" lon="10.3822949"><ele>670.0</ele><time>2026-04-08T07:38:01.957Z</time></trkpt><trkpt lat="44.1765848" lon="10.3822158"><ele>670.0</ele><time>2026-04-08T07:38:04.961Z</time></trkpt><trkpt lat="44.1765762" lon="10.3821252"><ele>670.0</ele><time>2026-04-08T07:38:07.958Z</time></trkpt><trkpt lat="44.1765933" lon="10.3820387"><ele>670.0</ele><time>2026-04-08T07:38:10.963Z</time></trkpt><trkpt lat="44.1766302" lon="10.38196"><ele>669.9999999999999</ele><time>2026-04-08T07:38:13.962Z</time></trkpt><trkpt lat="44.1766722" lon="10.3818926"><ele>670.0</ele><time>2026-04-08T07:38:16.962Z</time></trkpt><trkpt lat="44.1767318" lon="10.3818082"><ele>670.8571428571428</ele><time>2026-04-08T07:38:20.965Z</time></trkpt><trkpt lat="44.1767827" lon="10.3817429"><ele>671.7142857142857</ele><time>2026-04-08T07:38:23.959Z</time></trkpt><trkpt lat="44.1768205" lon="10.3816634"><ele>672.5714285714286</ele><time>2026-04-08T07:38:26.949Z</time></trkpt><trkpt lat="44.1768544" lon="10.3815757"><ele>673.4285714285713</ele><time>2026-04-08T07:38:29.968Z</time></trkpt><trkpt lat="44.1768873" lon="10.381474"><ele>674.2857142857142</ele><time>2026-04-08T07:38:33.954Z</time></trkpt><trkpt lat="44.1769131" lon="10.3813667"><ele>675.1428571428571</ele><time>2026-04-08T07:38:37.96Z</time></trkpt><trkpt lat="44.1769271" lon="10.3812774"><ele>676.0</ele><time>2026-04-08T07:38:40.967Z</time></trkpt><trkpt lat="44.1769413" lon="10.38119"><ele>676.0</ele><time>2026-04-08T07:38:43.955Z</time></trkpt><trkpt lat="44.176954" lon="10.3811026"><ele>676.0</ele><time>2026-04-08T07:38:46.957Z</time></trkpt><trkpt lat="44.1769626" lon="10.3810139"><ele>676.0</ele><time>2026-04-08T07:38:49.96Z</time></trkpt><trkpt lat="44.1769838" lon="10.3809258"><ele>676.0</ele><time>2026-04-08T07:38:52.958Z</time></trkpt><trkpt lat="44.177006" lon="10.3808344"><ele>676.0</ele><time>2026-04-08T07:38:55.963Z</time></trkpt><trkpt lat="44.1770218" lon="10.3807415"><ele>676.0</ele><time>2026-04-08T07:38:58.959Z</time></trkpt><trkpt lat="44.1770367" lon="10.3806315"><ele>676.0</ele><time>2026-04-08T07:39:02.953Z</time></trkpt><trkpt lat="44.1770568" lon="10.3805229"><ele>676.8571428571429</ele><time>2026-04-08T07:39:06.954Z</time></trkpt><trkpt lat="44.1770551" lon="10.3804325"><ele>677.7142857142857</ele><time>2026-04-08T07:39:09.963Z</time></trkpt><trkpt lat="44.1770419" lon="10.3803186"><ele>678.5714285714286</ele><time>2026-04-08T07:39:13.963Z</time></trkpt><trkpt lat="44.1770235" lon="10.3802305"><ele>679.4285714285714</ele><time>2026-04-08T07:39:16.956Z</time></trkpt><trkpt lat="44.1770067" lon="10.3801436"><ele>680.2857142857143</ele><time>2026-04-08T07:39:19.962Z</time></trkpt><trkpt lat="44.1769932" lon="10.3800519"><ele>681.1428571428571</ele><time>2026-04-08T07:39:22.957Z</time></trkpt><trkpt lat="44.1769702" lon="10.3799598"><ele>682.0</ele><time>2026-04-08T07:39:25.963Z</time></trkpt><trkpt lat="44.1769535" lon="10.379874"><ele>682.0</ele><time>2026-04-08T07:39:28.963Z</time></trkpt><trkpt lat="44.1769391" lon="10.3797789"><ele>682.0</ele><time>2026-04-08T07:39:31.963Z</time></trkpt><trkpt lat="44.1769151" lon="10.3796895"><ele>682.0</ele><time>2026-04-08T07:39:34.958Z</time></trkpt><trkpt lat="44.1768895" lon="10.3796048"><ele>682.0</ele><time>2026-04-08T07:39:37.96Z</time></trkpt><trkpt lat="44.1768558" lon="10.379513"><ele>682.0</ele><time>2026-04-08T07:39:40.962Z</time></trkpt><trkpt lat="44.1768224" lon="10.3794311"><ele>682.0</ele><time>2026-04-08T07:39:43.96Z</time></trkpt><trkpt lat="44.1767858" lon="10.3793475"><ele>682.0</ele><time>2026-04-08T07:39:46.957Z</time></trkpt><trkpt lat="44.1767399" lon="10.3792711"><ele>681.7142857142857</ele><time>2026-04-08T07:39:49.959Z</time></trkpt><trkpt lat="44.1766926" lon="10.3792048"><ele>681.4285714285714</ele><time>2026-04-08T07:39:52.958Z</time></trkpt><trkpt lat="44.1766421" lon="10.3791462"><ele>681.1428571428571</ele><time>2026-04-08T07:39:55.961Z</time></trkpt><trkpt lat="44.1765848" lon="10.3790973"><ele>680.8571428571429</ele><time>2026-04-08T07:39:58.963Z</time></trkpt><trkpt lat="44.1765296" lon="10.3790438"><ele>680.5714285714286</ele><time>2026-04-08T07:40:01.965Z</time></trkpt><trkpt lat="44.1764743" lon="10.378997"><ele>680.2857142857143</ele><time>2026-04-08T07:40:04.963Z</time></trkpt><trkpt lat="44.1764033" lon="10.378942"><ele>680.0</ele><time>2026-04-08T07:40:08.954Z</time></trkpt><trkpt lat="44.1763428" lon="10.3788887"><ele>682.5714285714286</ele><time>2026-04-08T07:40:11.954Z</time></trkpt><trkpt lat="44.1762905" lon="10.3788279"><ele>685.1428571428571</ele><time>2026-04-08T07:40:14.952Z</time></trkpt><trkpt lat="44.1762405" lon="10.3787673"><ele>687.7142857142857</ele><time>2026-04-08T07:40:17.963Z</time></trkpt><trkpt lat="44.1761955" lon="10.3786971"><ele>690.2857142857142</ele><time>2026-04-08T07:40:20.96Z</time></trkpt><trkpt lat="44.1761571" lon="10.3786226"><ele>692.8571428571429</ele><time>2026-04-08T07:40:23.961Z</time></trkpt><trkpt lat="44.1761235" lon="10.3785461"><ele>695.4285714285713</ele><time>2026-04-08T07:40:26.954Z</time></trkpt><trkpt lat="44.1760993" lon="10.3784629"><ele>698.0</ele><time>2026-04-08T07:40:29.965Z</time></trkpt><trkpt lat="44.1760799" lon="10.3783729"><ele>697.9999999999999</ele><time>2026-04-08T07:40:32.959Z</time></trkpt><trkpt lat="44.176061" lon="10.3782851"><ele>698.0</ele><time>2026-04-08T07:40:35.971Z</time></trkpt><trkpt lat="44.1760497" lon="10.378196"><ele>698.0</ele><time>2026-04-08T07:40:38.95Z</time></trkpt><trkpt lat="44.1760414" lon="10.3780876"><ele>698.0</ele><time>2026-04-08T07:40:42.957Z</time></trkpt><trkpt lat="44.1760282" lon="10.3779993"><ele>698.0</ele><time>2026-04-08T07:40:45.961Z</time></trkpt><trkpt lat="44.1760149" lon="10.3779132"><ele>697.9999999999999</ele><time>2026-04-08T07:40:48.964Z</time></trkpt><trkpt lat="44.1760081" lon="10.3778057"><ele>698.0</ele><time>2026-04-08T07:40:52.958Z</time></trkpt><trkpt lat="44.1759977" lon="10.3777142"><ele>698.7142857142857</ele><time>2026-04-08T07:40:55.955Z</time></trkpt><trkpt lat="44.1759927" lon="10.3775986"><ele>699.4285714285714</ele><time>2026-04-08T07:40:59.96Z</time></trkpt><trkpt lat="44.1759791" lon="10.3775108"><ele>700.1428571428571</ele><time>2026-04-08T07:41:02.971Z</time></trkpt><trkpt lat="44.1759733" lon="10.3774104"><ele>700.8571428571429</ele><time>2026-04-08T07:41:05.955Z</time></trkpt><trkpt lat="44.1759629" lon="10.3773136"><ele>701.5714285714286</ele><time>2026-04-08T07:41:08.949Z</time></trkpt><trkpt lat="44.1759529" lon="10.377225"><ele>702.2857142857142</ele><time>2026-04-08T07:41:11.959Z</time></trkpt><trkpt lat="44.1759539" lon="10.3771304"><ele>703.0</ele><time>2026-04-08T07:41:14.964Z</time></trkpt><trkpt lat="44.1759788" lon="10.3770386"><ele>703.0</ele><time>2026-04-08T07:41:17.959Z</time></trkpt><trkpt lat="44.1760366" lon="10.3769872"><ele>703.0</ele><time>2026-04-08T07:41:20.962Z</time></trkpt><trkpt lat="44.1760998" lon="10.3770015"><ele>703.0</ele><time>2026-04-08T07:41:23.968Z</time></trkpt><trkpt lat="44.1761386" lon="10.3770947"><ele>703.0</ele><time>2026-04-08T07:41:27.956Z</time></trkpt><trkpt lat="44.1761446" lon="10.3771972"><ele>703.0</ele><time>2026-04-08T07:41:30.956Z</time></trkpt><trkpt lat="44.1761321" lon="10.3773064"><ele>703.0</ele><time>2026-04-08T07:41:34.956Z</time></trkpt><trkpt lat="44.1761322" lon="10.3774113"><ele>703.0</ele><time>2026-04-08T07:41:38.955Z</time></trkpt><trkpt lat="44.1761437" lon="10.377524"><ele>703.0</ele><time>2026-04-08T07:41:42.963Z</time></trkpt><trkpt lat="44.1761623" lon="10.3776266"><ele>703.0</ele><time>2026-04-08T07:41:46.961Z</time></trkpt><trkpt lat="44.1761869" lon="10.3777147"><ele>703.0</ele><time>2026-04-08T07:41:49.97Z</time></trkpt><trkpt lat="44.1762163" lon="10.3778025"><ele>703.0</ele><time>2026-04-08T07:41:52.975Z</time></trkpt><trkpt lat="44.1762569" lon="10.3778728"><ele>703.0</ele><time>2026-04-08T07:41:55.956Z</time></trkpt><trkpt lat="44.1763125" lon="10.3779457"><ele>703.0</ele><time>2026-04-08T07:41:59.96Z</time></trkpt><trkpt lat="44.1763728" lon="10.3780072"><ele>703.0</ele><time>2026-04-08T07:42:03.952Z</time></trkpt><trkpt lat="44.1764376" lon="10.3780547"><ele>702.2857142857142</ele><time>2026-04-08T07:42:06.958Z</time></trkpt><trkpt lat="44.1765051" lon="10.3780836"><ele>701.5714285714286</ele><time>2026-04-08T07:42:09.961Z</time></trkpt><trkpt lat="44.1765665" lon="10.3781085"><ele>700.8571428571429</ele><time>2026-04-08T07:42:12.955Z</time></trkpt><trkpt lat="44.176651" lon="10.3781083"><ele>700.1428571428571</ele><time>2026-04-08T07:42:16.952Z</time></trkpt><trkpt lat="44.1767321" lon="10.3780892"><ele>699.4285714285714</ele><time>2026-04-08T07:42:20.97Z</time></trkpt><trkpt lat="44.1767976" lon="10.3780638"><ele>698.7142857142857</ele><time>2026-04-08T07:42:23.964Z</time></trkpt><trkpt lat="44.176866" lon="10.3780521"><ele>698.0</ele><time>2026-04-08T07:42:26.947Z</time></trkpt><trkpt lat="44.17694" lon="10.3780199"><ele>701.3333333333333</ele><time>2026-04-08T07:42:29.956Z</time></trkpt><trkpt lat="44.1770156" lon="10.3779958"><ele>704.6666666666666</ele><time>2026-04-08T07:42:33.956Z</time></trkpt><trkpt lat="44.1770866" lon="10.3779843"><ele>708.0</ele><time>2026-04-08T07:42:36.957Z</time></trkpt><trkpt lat="44.1771631" lon="10.3779879"><ele>711.3333333333334</ele><time>2026-04-08T07:42:39.964Z</time></trkpt><trkpt lat="44.1772398" lon="10.3780351"><ele>714.6666666666667</ele><time>2026-04-08T07:42:43.968Z</time></trkpt><trkpt lat="44.177295" lon="10.3780953"><ele>718.0</ele><time>2026-04-08T07:42:46.968Z</time></trkpt><trkpt lat="44.1773466" lon="10.3781625"><ele>720.0</ele><time>2026-04-08T07:42:49.953Z</time></trkpt><trkpt lat="44.177393" lon="10.3782241"><ele>722.0</ele><time>2026-04-08T07:42:52.963Z</time></trkpt><trkpt lat="44.1774415" lon="10.3782951"><ele>724.0</ele><time>2026-04-08T07:42:55.956Z</time></trkpt><trkpt lat="44.1774836" lon="10.3783685"><ele>726.0</ele><time>2026-04-08T07:42:58.969Z</time></trkpt><trkpt lat="44.177528" lon="10.3784409"><ele>728.0</ele><time>2026-04-08T07:43:01.958Z</time></trkpt><trkpt lat="44.1775682" lon="10.378514"><ele>730.0</ele><time>2026-04-08T07:43:04.957Z</time></trkpt><trkpt lat="44.1776052" lon="10.3785882"><ele>732.0</ele><time>2026-04-08T07:43:07.965Z</time></trkpt><trkpt lat="44.1776415" lon="10.3786683"><ele>732.0</ele><time>2026-04-08T07:43:10.96Z</time></trkpt><trkpt lat="44.1776866" lon="10.3787391"><ele>732.0</ele><time>2026-04-08T07:43:13.961Z</time></trkpt><trkpt lat="44.1777257" lon="10.3788137"><ele>732.0</ele><time>2026-04-08T07:43:16.959Z</time></trkpt><trkpt lat="44.177768" lon="10.3788903"><ele>732.0</ele><time>2026-04-08T07:43:19.959Z</time></trkpt><trkpt lat="44.1778076" lon="10.3789667"><ele>732.0</ele><time>2026-04-08T07:43:22.958Z</time></trkpt><trkpt lat="44.1778477" lon="10.3790401"><ele>732.0</ele><time>2026-04-08T07:43:25.955Z</time></trkpt><trkpt lat="44.17789" lon="10.3791071"><ele>732.0</ele><time>2026-04-08T07:43:28.957Z</time></trkpt><trkpt lat="44.1779351" lon="10.379172"><ele>730.4285714285714</ele><time>2026-04-08T07:43:31.965Z</time></trkpt><trkpt lat="44.1779918" lon="10.3792454"><ele>728.8571428571429</ele><time>2026-04-08T07:43:35.963Z</time></trkpt><trkpt lat="44.178049" lon="10.3792949"><ele>727.2857142857142</ele><time>2026-04-08T07:43:38.957Z</time></trkpt><trkpt lat="44.1781048" lon="10.3793462"><ele>725.7142857142858</ele><time>2026-04-08T07:43:41.96Z</time></trkpt><trkpt lat="44.1781706" lon="10.3794005"><ele>724.1428571428571</ele><time>2026-04-08T07:43:45.947Z</time></trkpt><trkpt lat="44.1782419" lon="10.3794469"><ele>722.5714285714286</ele><time>2026-04-08T07:43:49.954Z</time></trkpt><trkpt lat="44.1783092" lon="10.3794982"><ele>721.0</ele><time>2026-04-08T07:43:52.962Z</time></trkpt><trkpt lat="44.1783785" lon="10.3795387"><ele>722.4285714285714</ele><time>2026-04-08T07:43:55.962Z</time></trkpt><trkpt lat="44.1784556" lon="10.3795909"><ele>723.8571428571429</ele><time>2026-04-08T07:43:58.948Z</time></trkpt><trkpt lat="44.1785185" lon="10.3796378"><ele>725.2857142857142</ele><time>2026-04-08T07:44:01.946Z</time></trkpt><trkpt lat="44.1785818" lon="10.3796763"><ele>726.7142857142858</ele><time>2026-04-08T07:44:04.958Z</time></trkpt><trkpt lat="44.1786438" lon="10.3797221"><ele>728.1428571428571</ele><time>2026-04-08T07:44:07.956Z</time></trkpt><trkpt lat="44.1787073" lon="10.3797611"><ele>729.5714285714286</ele><time>2026-04-08T07:44:10.957Z</time></trkpt><trkpt lat="44.1787679" lon="10.379792"><ele>731.0</ele><time>2026-04-08T07:44:13.965Z</time></trkpt><trkpt lat="44.1788264" lon="10.3798284"><ele>731.0</ele><time>2026-04-08T07:44:16.96Z</time></trkpt><trkpt lat="44.1788889" lon="10.3798709"><ele>731.0</ele><time>2026-04-08T07:44:19.96Z</time></trkpt><trkpt lat="44.1789468" lon="10.3799075"><ele>731.0</ele><time>2026-04-08T07:44:22.957Z</time></trkpt><trkpt lat="44.1790102" lon="10.3799448"><ele>731.0</ele><time>2026-04-08T07:44:25.957Z</time></trkpt><trkpt lat="44.1790713" lon="10.3799789"><ele>731.0</ele><time>2026-04-08T07:44:28.955Z</time></trkpt><trkpt lat="44.1791331" lon="10.3800149"><ele>731.0</ele><time>2026-04-08T07:44:31.958Z</time></trkpt><trkpt lat="44.179195" lon="10.3800544"><ele>731.0</ele><time>2026-04-08T07:44:34.953Z</time></trkpt><trkpt lat="44.1792547" lon="10.3800858"><ele>733.5714285714286</ele><time>2026-04-08T07:44:37.946Z</time></trkpt><trkpt lat="44.1793173" lon="10.3801199"><ele>736.1428571428571</ele><time>2026-04-08T07:44:40.959Z</time></trkpt><trkpt lat="44.1793786" lon="10.3801556"><ele>738.7142857142858</ele><time>2026-04-08T07:44:43.946Z</time></trkpt><trkpt lat="44.1794486" lon="10.3801905"><ele>741.2857142857142</ele><time>2026-04-08T07:44:46.955Z</time></trkpt><trkpt lat="44.1795157" lon="10.3802281"><ele>743.8571428571429</ele><time>2026-04-08T07:44:49.948Z</time></trkpt><trkpt lat="44.1795889" lon="10.3802724"><ele>746.4285714285714</ele><time>2026-04-08T07:44:52.953Z</time></trkpt><trkpt lat="44.1796561" lon="10.3803131"><ele>749.0</ele><time>2026-04-08T07:44:55.955Z</time></trkpt><trkpt lat="44.1797171" lon="10.3803675"><ele>749.0</ele><time>2026-04-08T07:44:58.962Z</time></trkpt><trkpt lat="44.1797701" lon="10.3804225"><ele>749.0</ele><time>2026-04-08T07:45:01.927Z</time></trkpt><trkpt lat="44.1798095" lon="10.3804936"><ele>749.0</ele><time>2026-04-08T07:45:04.949Z</time></trkpt><trkpt lat="44.1798543" lon="10.3805881"><ele>749.0</ele><time>2026-04-08T07:45:08.951Z</time></trkpt><trkpt lat="44.1798927" lon="10.3806861"><ele>749.0</ele><time>2026-04-08T07:45:12.959Z</time></trkpt><trkpt lat="44.1799208" lon="10.3807656"><ele>749.0</ele><time>2026-04-08T07:45:15.959Z</time></trkpt><trkpt lat="44.1799563" lon="10.3808513"><ele>749.0</ele><time>2026-04-08T07:45:18.947Z</time></trkpt><trkpt lat="44.1799841" lon="10.3809415"><ele>749.4285714285714</ele><time>2026-04-08T07:45:21.951Z</time></trkpt><trkpt lat="44.1800293" lon="10.3810419"><ele>749.8571428571429</ele><time>2026-04-08T07:45:25.959Z</time></trkpt><trkpt lat="44.1800635" lon="10.3811284"><ele>750.2857142857142</ele><time>2026-04-08T07:45:28.966Z</time></trkpt><trkpt lat="44.1801024" lon="10.3812041"><ele>750.7142857142858</ele><time>2026-04-08T07:45:31.948Z</time></trkpt><trkpt lat="44.1801447" lon="10.3812813"><ele>751.1428571428571</ele><time>2026-04-08T07:45:34.955Z</time></trkpt><trkpt lat="44.1801895" lon="10.3813448"><ele>751.5714285714286</ele><time>2026-04-08T07:45:37.956Z</time></trkpt><trkpt lat="44.1802486" lon="10.3814044"><ele>752.0</ele><time>2026-04-08T07:45:40.959Z</time></trkpt><trkpt lat="44.1803106" lon="10.3814572"><ele>752.0</ele><time>2026-04-08T07:45:43.958Z</time></trkpt><trkpt lat="44.1803703" lon="10.3814998"><ele>752.0</ele><time>2026-04-08T07:45:46.95Z</time></trkpt><trkpt lat="44.1804341" lon="10.3815234"><ele>752.0</ele><time>2026-04-08T07:45:49.952Z</time></trkpt><trkpt lat="44.1804988" lon="10.3815553"><ele>752.0</ele><time>2026-04-08T07:45:52.957Z</time></trkpt><trkpt lat="44.1805614" lon="10.3815939"><ele>752.0</ele><time>2026-04-08T07:45:55.953Z</time></trkpt><trkpt lat="44.1806342" lon="10.3816321"><ele>752.0</ele><time>2026-04-08T07:45:59.948Z</time></trkpt><trkpt lat="44.1807159" lon="10.3816704"><ele>752.0</ele><time>2026-04-08T07:46:03.962Z</time></trkpt><trkpt lat="44.1807828" lon="10.3816881"><ele>754.7142857142857</ele><time>2026-04-08T07:46:06.961Z</time></trkpt><trkpt lat="44.1808512" lon="10.3817136"><ele>757.4285714285713</ele><time>2026-04-08T07:46:09.954Z</time></trkpt><trkpt lat="44.1809167" lon="10.3817415"><ele>760.1428571428571</ele><time>2026-04-08T07:46:12.961Z</time></trkpt><trkpt lat="44.180988" lon="10.3817591"><ele>762.8571428571429</ele><time>2026-04-08T07:46:15.96Z</time></trkpt><trkpt lat="44.1810525" lon="10.3817867"><ele>765.5714285714286</ele><time>2026-04-08T07:46:18.967Z</time></trkpt><trkpt lat="44.1811185" lon="10.3818128"><ele>768.2857142857143</ele><time>2026-04-08T07:46:21.946Z</time></trkpt><trkpt lat="44.1811917" lon="10.3818368"><ele>771.0</ele><time>2026-04-08T07:46:24.951Z</time></trkpt><trkpt lat="44.1812564" lon="10.3818653"><ele>771.0</ele><time>2026-04-08T07:46:27.963Z</time></trkpt><trkpt lat="44.1813214" lon="10.3818917"><ele>771.0</ele><time>2026-04-08T07:46:30.952Z</time></trkpt><trkpt lat="44.1813866" lon="10.3819091"><ele>771.0</ele><time>2026-04-08T07:46:33.959Z</time></trkpt><trkpt lat="44.1814541" lon="10.3819282"><ele>771.0</ele><time>2026-04-08T07:46:36.95Z</time></trkpt><trkpt lat="44.1815326" lon="10.3819685"><ele>771.0</ele><time>2026-04-08T07:46:40.961Z</time></trkpt><trkpt lat="44.1815977" lon="10.3819829"><ele>771.0</ele><time>2026-04-08T07:46:43.966Z</time></trkpt><trkpt lat="44.1816644" lon="10.3819922"><ele>771.0</ele><time>2026-04-08T07:46:46.968Z</time></trkpt><trkpt lat="44.1817324" lon="10.3820033"><ele>773.2857142857143</ele><time>2026-04-08T07:46:49.962Z</time></trkpt><trkpt lat="44.1817967" lon="10.3820207"><ele>775.5714285714286</ele><time>2026-04-08T07:46:52.952Z</time></trkpt><trkpt lat="44.1818755" lon="10.3820261"><ele>777.8571428571429</ele><time>2026-04-08T07:46:56.961Z</time></trkpt><trkpt lat="44.1819548" lon="10.3820246"><ele>780.1428571428571</ele><time>2026-04-08T07:47:00.955Z</time></trkpt><trkpt lat="44.1820345" lon="10.3820237"><ele>782.4285714285713</ele><time>2026-04-08T07:47:04.961Z</time></trkpt><trkpt lat="44.182098" lon="10.3820272"><ele>784.7142857142857</ele><time>2026-04-08T07:47:07.958Z</time></trkpt><trkpt lat="44.182179" lon="10.3820317"><ele>787.0</ele><time>2026-04-08T07:47:11.962Z</time></trkpt><trkpt lat="44.1822264" lon="10.3819713"><ele>787.0</ele><time>2026-04-08T07:47:15.953Z</time></trkpt><trkpt lat="44.1822483" lon="10.3818867"><ele>787.0</ele><time>2026-04-08T07:47:19.966Z</time></trkpt><trkpt lat="44.1822247" lon="10.3817918"><ele>787.0</ele><time>2026-04-08T07:47:24.959Z</time></trkpt><trkpt lat="44.1821526" lon="10.3817832"><ele>787.0</ele><time>2026-04-08T07:47:27.958Z</time></trkpt><trkpt lat="44.1820823" lon="10.3817611"><ele>787.0</ele><time>2026-04-08T07:47:30.957Z</time></trkpt><trkpt lat="44.1820202" lon="10.3817405"><ele>787.0</ele><time>2026-04-08T07:47:33.947Z</time></trkpt><trkpt lat="44.181938" lon="10.3817231"><ele>787.0</ele><time>2026-04-08T07:47:37.95Z</time></trkpt><trkpt lat="44.1818735" lon="10.3817177"><ele>786.9999999999999</ele><time>2026-04-08T07:47:40.951Z</time></trkpt><trkpt lat="44.1817921" lon="10.3817037"><ele>787.0</ele><time>2026-04-08T07:47:44.878Z</time></trkpt><trkpt lat="44.1817073" lon="10.3816821"><ele>787.0</ele><time>2026-04-08T07:47:48.974Z</time></trkpt><trkpt lat="44.1816377" lon="10.3816664"><ele>787.0</ele><time>2026-04-08T07:47:51.967Z</time></trkpt><trkpt lat="44.1815595" lon="10.3816412"><ele>786.9999999999999</ele><time>2026-04-08T07:47:55.964Z</time></trkpt><trkpt lat="44.1814803" lon="10.3815991"><ele>787.0</ele><time>2026-04-08T07:47:59.949Z</time></trkpt><trkpt lat="44.1814193" lon="10.3815353"><ele>786.9999999999999</ele><time>2026-04-08T07:48:03.955Z</time></trkpt><trkpt lat="44.1813596" lon="10.3814564"><ele>787.0</ele><time>2026-04-08T07:48:07.948Z</time></trkpt><trkpt lat="44.1813015" lon="10.3813699"><ele>787.0</ele><time>2026-04-08T07:48:11.963Z</time></trkpt><trkpt lat="44.1812536" lon="10.3813079"><ele>787.0</ele><time>2026-04-08T07:48:14.96Z</time></trkpt><trkpt lat="44.1811964" lon="10.3812248"><ele>786.9999999999999</ele><time>2026-04-08T07:48:18.969Z</time></trkpt><trkpt lat="44.1811356" lon="10.3811422"><ele>787.0</ele><time>2026-04-08T07:48:22.959Z</time></trkpt><trkpt lat="44.1810908" lon="10.3810799"><ele>787.0</ele><time>2026-04-08T07:48:25.957Z</time></trkpt><trkpt lat="44.1810494" lon="10.3810127"><ele>787.0</ele><time>2026-04-08T07:48:28.96Z</time></trkpt><trkpt lat="44.1810061" lon="10.3809158"><ele>787.0</ele><time>2026-04-08T07:48:32.885Z</time></trkpt><trkpt lat="44.1809768" lon="10.38081"><ele>787.0</ele><time>2026-04-08T07:48:36.948Z</time></trkpt><trkpt lat="44.1809727" lon="10.3807014"><ele>787.0</ele><time>2026-04-08T07:48:40.96Z</time></trkpt><trkpt lat="44.1809815" lon="10.3806122"><ele>787.0</ele><time>2026-04-08T07:48:43.96Z</time></trkpt><trkpt lat="44.1809948" lon="10.3805202"><ele>787.0</ele><time>2026-04-08T07:48:46.958Z</time></trkpt><trkpt lat="44.1809992" lon="10.3804238"><ele>788.2857142857142</ele><time>2026-04-08T07:48:49.956Z</time></trkpt><trkpt lat="44.1810002" lon="10.3803325"><ele>789.5714285714286</ele><time>2026-04-08T07:48:52.954Z</time></trkpt><trkpt lat="44.1809963" lon="10.3802369"><ele>790.8571428571429</ele><time>2026-04-08T07:48:55.961Z</time></trkpt><trkpt lat="44.1809876" lon="10.3801487"><ele>792.1428571428571</ele><time>2026-04-08T07:48:58.961Z</time></trkpt><trkpt lat="44.1809736" lon="10.3800565"><ele>793.4285714285714</ele><time>2026-04-08T07:49:01.956Z</time></trkpt><trkpt lat="44.1809467" lon="10.3799588"><ele>794.7142857142857</ele><time>2026-04-08T07:49:04.956Z</time></trkpt><trkpt lat="44.1809105" lon="10.3798703"><ele>796.0</ele><time>2026-04-08T07:49:07.983Z</time></trkpt><trkpt lat="44.1808699" lon="10.3797883"><ele>795.9999999999999</ele><time>2026-04-08T07:49:10.95Z</time></trkpt><trkpt lat="44.1808305" lon="10.3796971"><ele>796.0</ele><time>2026-04-08T07:49:13.966Z</time></trkpt><trkpt lat="44.1807996" lon="10.3796175"><ele>796.0</ele><time>2026-04-08T07:49:16.965Z</time></trkpt><trkpt lat="44.1807436" lon="10.3795344"><ele>796.0</ele><time>2026-04-08T07:49:20.956Z</time></trkpt><trkpt lat="44.1807057" lon="10.3794621"><ele>796.0</ele><time>2026-04-08T07:49:23.948Z</time></trkpt><trkpt lat="44.1806789" lon="10.3793749"><ele>795.9999999999999</ele><time>2026-04-08T07:49:26.958Z</time></trkpt><trkpt lat="44.1806673" lon="10.3792804"><ele>796.0</ele><time>2026-04-08T07:49:29.957Z</time></trkpt><trkpt lat="44.1806726" lon="10.3791815"><ele>797.4285714285713</ele><time>2026-04-08T07:49:32.951Z</time></trkpt><trkpt lat="44.1806903" lon="10.3790858"><ele>798.8571428571429</ele><time>2026-04-08T07:49:35.961Z</time></trkpt><trkpt lat="44.1807114" lon="10.3789949"><ele>800.2857142857142</ele><time>2026-04-08T07:49:38.958Z</time></trkpt><trkpt lat="44.1807305" lon="10.3789083"><ele>801.7142857142857</ele><time>2026-04-08T07:49:41.958Z</time></trkpt><trkpt lat="44.180752" lon="10.3787984"><ele>803.1428571428571</ele><time>2026-04-08T07:49:45.96Z</time></trkpt><trkpt lat="44.1807792" lon="10.3787177"><ele>804.5714285714286</ele><time>2026-04-08T07:49:48.959Z</time></trkpt><trkpt lat="44.1808083" lon="10.3786267"><ele>806.0</ele><time>2026-04-08T07:49:51.98Z</time></trkpt><trkpt lat="44.1808331" lon="10.3785349"><ele>806.0</ele><time>2026-04-08T07:49:54.951Z</time></trkpt><trkpt lat="44.1808499" lon="10.3784351"><ele>806.0</ele><time>2026-04-08T07:49:57.955Z</time></trkpt><trkpt lat="44.1808629" lon="10.3783388"><ele>806.0</ele><time>2026-04-08T07:50:00.959Z</time></trkpt><trkpt lat="44.1808722" lon="10.3782419"><ele>806.0</ele><time>2026-04-08T07:50:03.963Z</time></trkpt><trkpt lat="44.1808757" lon="10.3781471"><ele>806.0</ele><time>2026-04-08T07:50:06.948Z</time></trkpt><trkpt lat="44.1808763" lon="10.378055"><ele>806.0</ele><time>2026-04-08T07:50:09.962Z</time></trkpt><trkpt lat="44.1808735" lon="10.377939"><ele>806.0</ele><time>2026-04-08T07:50:13.958Z</time></trkpt><trkpt lat="44.1808698" lon="10.3778501"><ele>805.8333333333334</ele><time>2026-04-08T07:50:16.959Z</time></trkpt><trkpt lat="44.1808615" lon="10.3777484"><ele>805.6666666666667</ele><time>2026-04-08T07:50:20.963Z</time></trkpt><trkpt lat="44.1808546" lon="10.3776454"><ele>805.5</ele><time>2026-04-08T07:50:24.962Z</time></trkpt><trkpt lat="44.1808486" lon="10.3775305"><ele>805.3333333333333</ele><time>2026-04-08T07:50:28.963Z</time></trkpt><trkpt lat="44.1808427" lon="10.3774336"><ele>805.1666666666666</ele><time>2026-04-08T07:50:32.959Z</time></trkpt><trkpt lat="44.1808417" lon="10.377336"><ele>805.0</ele><time>2026-04-08T07:50:36.956Z</time></trkpt><trkpt lat="44.1808395" lon="10.3772226"><ele>804.2857142857143</ele><time>2026-04-08T07:50:40.961Z</time></trkpt><trkpt lat="44.180836" lon="10.3771115"><ele>803.5714285714286</ele><time>2026-04-08T07:50:44.952Z</time></trkpt><trkpt lat="44.1808376" lon="10.3770233"><ele>802.8571428571429</ele><time>2026-04-08T07:50:47.959Z</time></trkpt><trkpt lat="44.1808495" lon="10.3769273"><ele>802.1428571428571</ele><time>2026-04-08T07:50:50.961Z</time></trkpt><trkpt lat="44.1808786" lon="10.3768437"><ele>801.4285714285714</ele><time>2026-04-08T07:50:53.958Z</time></trkpt><trkpt lat="44.1809292" lon="10.3767784"><ele>800.7142857142858</ele><time>2026-04-08T07:50:56.957Z</time></trkpt><trkpt lat="44.1809861" lon="10.3767337"><ele>800.0</ele><time>2026-04-08T07:50:59.957Z</time></trkpt><trkpt lat="44.181048" lon="10.3767049"><ele>800.0000000000001</ele><time>2026-04-08T07:51:02.96Z</time></trkpt><trkpt lat="44.1811108" lon="10.376686"><ele>800.0</ele><time>2026-04-08T07:51:05.958Z</time></trkpt><trkpt lat="44.1811741" lon="10.3766792"><ele>800.0</ele><time>2026-04-08T07:51:08.948Z</time></trkpt><trkpt lat="44.1812391" lon="10.3766683"><ele>800.0</ele><time>2026-04-08T07:51:11.956Z</time></trkpt><trkpt lat="44.181301" lon="10.3766508"><ele>800.0</ele><time>2026-04-08T07:51:14.956Z</time></trkpt><trkpt lat="44.1813666" lon="10.376638"><ele>800.0000000000001</ele><time>2026-04-08T07:51:17.952Z</time></trkpt><trkpt lat="44.1814301" lon="10.3766328"><ele>800.0</ele><time>2026-04-08T07:51:20.957Z</time></trkpt><trkpt lat="44.1815082" lon="10.3766154"><ele>802.1666666666667</ele><time>2026-04-08T07:51:24.962Z</time></trkpt><trkpt lat="44.181574" lon="10.3766022"><ele>804.3333333333334</ele><time>2026-04-08T07:51:27.961Z</time></trkpt><trkpt lat="44.1816568" lon="10.3765861"><ele>806.5</ele><time>2026-04-08T07:51:31.967Z</time></trkpt><trkpt lat="44.1817336" lon="10.376577"><ele>808.6666666666667</ele><time>2026-04-08T07:51:35.954Z</time></trkpt><trkpt lat="44.1818141" lon="10.376575"><ele>810.8333333333334</ele><time>2026-04-08T07:51:39.964Z</time></trkpt><trkpt lat="44.1818842" lon="10.3765984"><ele>813.0</ele><time>2026-04-08T07:51:43.959Z</time></trkpt><trkpt lat="44.181961" lon="10.3766021"><ele>813.0</ele><time>2026-04-08T07:51:47.947Z</time></trkpt><trkpt lat="44.18204" lon="10.3766199"><ele>813.0</ele><time>2026-04-08T07:51:51.97Z</time></trkpt><trkpt lat="44.1821272" lon="10.3766411"><ele>813.0</ele><time>2026-04-08T07:51:55.949Z</time></trkpt><trkpt lat="44.1822084" lon="10.3766403"><ele>813.0</ele><time>2026-04-08T07:51:59.886Z</time></trkpt><trkpt lat="44.1822895" lon="10.3766622"><ele>813.0</ele><time>2026-04-08T07:52:03.92Z</time></trkpt><trkpt lat="44.1823553" lon="10.3766652"><ele>813.0</ele><time>2026-04-08T07:52:06.964Z</time></trkpt><trkpt lat="44.1824363" lon="10.3766835"><ele>814.5714285714286</ele><time>2026-04-08T07:52:10.953Z</time></trkpt><trkpt lat="44.1825181" lon="10.3767043"><ele>816.1428571428571</ele><time>2026-04-08T07:52:14.955Z</time></trkpt><trkpt lat="44.1825996" lon="10.3767098"><ele>817.7142857142857</ele><time>2026-04-08T07:52:18.957Z</time></trkpt><trkpt lat="44.1826633" lon="10.3767126"><ele>819.2857142857142</ele><time>2026-04-08T07:52:21.96Z</time></trkpt><trkpt lat="44.1827265" lon="10.3767342"><ele>820.8571428571429</ele><time>2026-04-08T07:52:24.958Z</time></trkpt><trkpt lat="44.1828103" lon="10.3767349"><ele>822.4285714285713</ele><time>2026-04-08T07:52:28.95Z</time></trkpt><trkpt lat="44.1828779" lon="10.3767495"><ele>824.0</ele><time>2026-04-08T07:52:31.948Z</time></trkpt><trkpt lat="44.1829427" lon="10.3767588"><ele>823.9999999999999</ele><time>2026-04-08T07:52:34.954Z</time></trkpt><trkpt lat="44.1830226" lon="10.3767697"><ele>824.0</ele><time>2026-04-08T07:52:38.956Z</time></trkpt><trkpt lat="44.183094" lon="10.3768046"><ele>824.0</ele><time>2026-04-08T07:52:42.95Z</time></trkpt><trkpt lat="44.1831757" lon="10.3768255"><ele>824.0</ele><time>2026-04-08T07:52:46.96Z</time></trkpt><trkpt lat="44.1832403" lon="10.3768407"><ele>824.0</ele><time>2026-04-08T07:52:49.961Z</time></trkpt><trkpt lat="44.1833047" lon="10.3768608"><ele>823.9999999999999</ele><time>2026-04-08T07:52:52.956Z</time></trkpt><trkpt lat="44.1833667" lon="10.3768924"><ele>824.0</ele><time>2026-04-08T07:52:55.95Z</time></trkpt><trkpt lat="44.1834228" lon="10.3769366"><ele>825.8571428571428</ele><time>2026-04-08T07:52:59.96Z</time></trkpt><trkpt lat="44.1834863" lon="10.3769569"><ele>827.7142857142857</ele><time>2026-04-08T07:53:02.952Z</time></trkpt><trkpt lat="44.1835463" lon="10.3769902"><ele>829.5714285714286</ele><time>2026-04-08T07:53:05.959Z</time></trkpt><trkpt lat="44.1836273" lon="10.3770006"><ele>831.4285714285713</ele><time>2026-04-08T07:53:09.954Z</time></trkpt><trkpt lat="44.1836917" lon="10.3769364"><ele>833.2857142857143</ele><time>2026-04-08T07:53:13.959Z</time></trkpt><trkpt lat="44.183683" lon="10.3768343"><ele>835.1428571428571</ele><time>2026-04-08T07:53:17.971Z</time></trkpt><trkpt lat="44.1836449" lon="10.3767524"><ele>837.0</ele><time>2026-04-08T07:53:20.969Z</time></trkpt><trkpt lat="44.1836107" lon="10.3766722"><ele>837.0</ele><time>2026-04-08T07:53:23.947Z</time></trkpt><trkpt lat="44.1835603" lon="10.3765925"><ele>837.0</ele><time>2026-04-08T07:53:27.968Z</time></trkpt><trkpt lat="44.1835259" lon="10.3765129"><ele>837.0</ele><time>2026-04-08T07:53:30.956Z</time></trkpt><trkpt lat="44.1834889" lon="10.3764345"><ele>837.0</ele><time>2026-04-08T07:53:33.958Z</time></trkpt><trkpt lat="44.183451" lon="10.3763521"><ele>837.0</ele><time>2026-04-08T07:53:36.96Z</time></trkpt><trkpt lat="44.1834091" lon="10.3762701"><ele>837.0</ele><time>2026-04-08T07:53:39.953Z</time></trkpt><trkpt lat="44.183366" lon="10.376191"><ele>837.0</ele><time>2026-04-08T07:53:42.966Z</time></trkpt><trkpt lat="44.1833258" lon="10.3760944"><ele>836.2857142857143</ele><time>2026-04-08T07:53:46.952Z</time></trkpt><trkpt lat="44.1832927" lon="10.3760173"><ele>835.5714285714287</ele><time>2026-04-08T07:53:49.954Z</time></trkpt><trkpt lat="44.1832678" lon="10.3759356"><ele>834.8571428571429</ele><time>2026-04-08T07:53:52.954Z</time></trkpt><trkpt lat="44.1832307" lon="10.3758479"><ele>834.1428571428571</ele><time>2026-04-08T07:53:55.963Z</time></trkpt><trkpt lat="44.1831961" lon="10.3757582"><ele>833.4285714285714</ele><time>2026-04-08T07:53:58.968Z</time></trkpt><trkpt lat="44.1831588" lon="10.3756736"><ele>832.7142857142857</ele><time>2026-04-08T07:54:01.951Z</time></trkpt><trkpt lat="44.1831185" lon="10.375595"><ele>832.0</ele><time>2026-04-08T07:54:04.953Z</time></trkpt><trkpt lat="44.1830727" lon="10.3755237"><ele>833.1428571428571</ele><time>2026-04-08T07:54:07.95Z</time></trkpt><trkpt lat="44.1830214" lon="10.3754517"><ele>834.2857142857143</ele><time>2026-04-08T07:54:10.976Z</time></trkpt><trkpt lat="44.1829662" lon="10.3753921"><ele>835.4285714285714</ele><time>2026-04-08T07:54:13.964Z</time></trkpt><trkpt lat="44.1829115" lon="10.3753238"><ele>836.5714285714286</ele><time>2026-04-08T07:54:16.958Z</time></trkpt><trkpt lat="44.1828619" lon="10.3752595"><ele>837.7142857142858</ele><time>2026-04-08T07:54:19.968Z</time></trkpt><trkpt lat="44.182811" lon="10.3751949"><ele>838.8571428571429</ele><time>2026-04-08T07:54:22.97Z</time></trkpt><trkpt lat="44.1827608" lon="10.3751304"><ele>840.0</ele><time>2026-04-08T07:54:25.959Z</time></trkpt><trkpt lat="44.1827132" lon="10.3750565"><ele>840.0</ele><time>2026-04-08T07:54:28.962Z</time></trkpt><trkpt lat="44.1826709" lon="10.3749832"><ele>840.0</ele><time>2026-04-08T07:54:31.962Z</time></trkpt><trkpt lat="44.1826271" lon="10.3749142"><ele>840.0</ele><time>2026-04-08T07:54:34.97Z</time></trkpt><trkpt lat="44.1825795" lon="10.374841"><ele>840.0</ele><time>2026-04-08T07:54:37.964Z</time></trkpt><trkpt lat="44.1825321" lon="10.3747635"><ele>840.0</ele><time>2026-04-08T07:54:40.955Z</time></trkpt><trkpt lat="44.1824843" lon="10.3746808"><ele>840.0</ele><time>2026-04-08T07:54:43.956Z</time></trkpt><trkpt lat="44.1824195" lon="10.3745914"><ele>840.0</ele><time>2026-04-08T07:54:46.964Z</time></trkpt><trkpt lat="44.1823648" lon="10.3745099"><ele>836.8</ele><time>2026-04-08T07:54:48.961Z</time></trkpt><trkpt lat="44.1822913" lon="10.3744099"><ele>833.6</ele><time>2026-04-08T07:54:50.959Z</time></trkpt><trkpt lat="44.1822005" lon="10.3743041"><ele>830.4000000000001</ele><time>2026-04-08T07:54:52.971Z</time></trkpt><trkpt lat="44.1821452" lon="10.3741569"><ele>827.2</ele><time>2026-04-08T07:54:54.953Z</time></trkpt><trkpt lat="44.1821453" lon="10.3740556"><ele>824.0</ele><time>2026-04-08T07:54:55.957Z</time></trkpt><trkpt lat="44.1821825" lon="10.373958"><ele>824.0000000000001</ele><time>2026-04-08T07:54:56.963Z</time></trkpt><trkpt lat="44.1822136" lon="10.3738626"><ele>824.0</ele><time>2026-04-08T07:54:57.966Z</time></trkpt><trkpt lat="44.1822496" lon="10.373768"><ele>824.0</ele><time>2026-04-08T07:54:58.952Z</time></trkpt><trkpt lat="44.1822917" lon="10.3736798"><ele>824.0</ele><time>2026-04-08T07:54:59.972Z</time></trkpt><trkpt lat="44.1823252" lon="10.3735807"><ele>824.0000000000001</ele><time>2026-04-08T07:55:00.947Z</time></trkpt><trkpt lat="44.1823516" lon="10.373478"><ele>824.0</ele><time>2026-04-08T07:55:01.961Z</time></trkpt><trkpt lat="44.1823581" lon="10.3733806"><ele>824.5000000000001</ele><time>2026-04-08T07:55:02.972Z</time></trkpt><trkpt lat="44.182351" lon="10.3732859"><ele>825.0</ele><time>2026-04-08T07:55:03.958Z</time></trkpt><trkpt lat="44.1823219" lon="10.3732038"><ele>825.5</ele><time>2026-04-08T07:55:04.963Z</time></trkpt><trkpt lat="44.1822967" lon="10.3731196"><ele>826.0</ele><time>2026-04-08T07:55:05.961Z</time></trkpt><trkpt lat="44.1822744" lon="10.3730256"><ele>826.5000000000001</ele><time>2026-04-08T07:55:06.958Z</time></trkpt><trkpt lat="44.1822617" lon="10.3729395"><ele>827.0</ele><time>2026-04-08T07:55:07.974Z</time></trkpt><trkpt lat="44.1822536" lon="10.3727659"><ele>827.8571428571429</ele><time>2026-04-08T07:55:09.959Z</time></trkpt><trkpt lat="44.18226" lon="10.372676"><ele>828.7142857142857</ele><time>2026-04-08T07:55:10.959Z</time></trkpt><trkpt lat="44.1822714" lon="10.3725802"><ele>829.5714285714286</ele><time>2026-04-08T07:55:11.957Z</time></trkpt><trkpt lat="44.1822658" lon="10.3724842"><ele>830.4285714285714</ele><time>2026-04-08T07:55:12.978Z</time></trkpt><trkpt lat="44.18224" lon="10.3723971"><ele>831.2857142857142</ele><time>2026-04-08T07:55:13.963Z</time></trkpt><trkpt lat="44.1822151" lon="10.3723094"><ele>832.1428571428571</ele><time>2026-04-08T07:55:14.971Z</time></trkpt><trkpt lat="44.1821719" lon="10.3722327"><ele>833.0</ele><time>2026-04-08T07:55:15.955Z</time></trkpt><trkpt lat="44.1821238" lon="10.3721576"><ele>833.4285714285714</ele><time>2026-04-08T07:55:16.967Z</time></trkpt><trkpt lat="44.1820688" lon="10.3720822"><ele>833.8571428571429</ele><time>2026-04-08T07:55:17.957Z</time></trkpt><trkpt lat="44.18201" lon="10.3720283"><ele>834.2857142857142</ele><time>2026-04-08T07:55:18.981Z</time></trkpt><trkpt lat="44.1819473" lon="10.3719818"><ele>834.7142857142858</ele><time>2026-04-08T07:55:19.956Z</time></trkpt><trkpt lat="44.1818825" lon="10.3719643"><ele>835.1428571428571</ele><time>2026-04-08T07:55:20.959Z</time></trkpt><trkpt lat="44.1818126" lon="10.37194"><ele>835.5714285714286</ele><time>2026-04-08T07:55:21.955Z</time></trkpt><trkpt lat="44.181749" lon="10.3719263"><ele>836.0</ele><time>2026-04-08T07:55:22.97Z</time></trkpt><trkpt lat="44.1816832" lon="10.371906"><ele>836.0000000000001</ele><time>2026-04-08T07:55:23.959Z</time></trkpt><trkpt lat="44.1816155" lon="10.3718726"><ele>836.0</ele><time>2026-04-08T07:55:24.958Z</time></trkpt><trkpt lat="44.1815549" lon="10.3718225"><ele>836.0</ele><time>2026-04-08T07:55:25.963Z</time></trkpt><trkpt lat="44.181495" lon="10.371754"><ele>836.0</ele><time>2026-04-08T07:55:26.96Z</time></trkpt><trkpt lat="44.1814418" lon="10.3716678"><ele>836.0000000000001</ele><time>2026-04-08T07:55:27.959Z</time></trkpt><trkpt lat="44.1814081" lon="10.3715792"><ele>836.0</ele><time>2026-04-08T07:55:28.962Z</time></trkpt><trkpt lat="44.1813846" lon="10.3714773"><ele>835.2857142857142</ele><time>2026-04-08T07:55:29.965Z</time></trkpt><trkpt lat="44.1813766" lon="10.3713841"><ele>834.5714285714286</ele><time>2026-04-08T07:55:30.961Z</time></trkpt><trkpt lat="44.1813689" lon="10.3712936"><ele>833.8571428571429</ele><time>2026-04-08T07:55:31.964Z</time></trkpt><trkpt lat="44.1813622" lon="10.371191"><ele>833.1428571428571</ele><time>2026-04-08T07:55:32.963Z</time></trkpt><trkpt lat="44.1813417" lon="10.3710987"><ele>832.4285714285714</ele><time>2026-04-08T07:55:33.975Z</time></trkpt><trkpt lat="44.181297" lon="10.3710267"><ele>831.7142857142857</ele><time>2026-04-08T07:55:34.958Z</time></trkpt><trkpt lat="44.1812109" lon="10.3709634"><ele>831.0</ele><time>2026-04-08T07:55:36.953Z</time></trkpt><trkpt lat="44.1810936" lon="10.37091"><ele>831.0</ele><time>2026-04-08T07:55:38.963Z</time></trkpt><trkpt lat="44.1810084" lon="10.3708581"><ele>831.0</ele><time>2026-04-08T07:55:40.959Z</time></trkpt><trkpt lat="44.18094" lon="10.3708163"><ele>831.0</ele><time>2026-04-08T07:55:42.952Z</time></trkpt><trkpt lat="44.1808759" lon="10.3707589"><ele>831.0</ele><time>2026-04-08T07:55:46.952Z</time></trkpt><trkpt lat="44.1808282" lon="10.3706753"><ele>831.0</ele><time>2026-04-08T07:55:50.953Z</time></trkpt><trkpt lat="44.1807845" lon="10.3705994"><ele>831.0</ele><time>2026-04-08T07:55:55.969Z</time></trkpt><trkpt lat="44.18076" lon="10.3705116"><ele>833.7142857142857</ele><time>2026-04-08T07:56:00.966Z</time></trkpt><trkpt lat="44.1807266" lon="10.3704362"><ele>836.4285714285714</ele><time>2026-04-08T07:56:04.955Z</time></trkpt><trkpt lat="44.180687" lon="10.3703554"><ele>839.1428571428571</ele><time>2026-04-08T07:56:08.964Z</time></trkpt><trkpt lat="44.180628" lon="10.370285"><ele>841.8571428571429</ele><time>2026-04-08T07:56:12.983Z</time></trkpt><trkpt lat="44.1805581" lon="10.3702547"><ele>844.5714285714286</ele><time>2026-04-08T07:56:16.965Z</time></trkpt><trkpt lat="44.1804858" lon="10.3702426"><ele>847.2857142857142</ele><time>2026-04-08T07:56:20.976Z</time></trkpt><trkpt lat="44.1804139" lon="10.3702412"><ele>850.0</ele><time>2026-04-08T07:56:24.965Z</time></trkpt><trkpt lat="44.1803413" lon="10.3702485"><ele>850.0</ele><time>2026-04-08T07:56:28.96Z</time></trkpt><trkpt lat="44.1802709" lon="10.3702534"><ele>850.0</ele><time>2026-04-08T07:56:32.967Z</time></trkpt><trkpt lat="44.1802083" lon="10.3702342"><ele>850.0</ele><time>2026-04-08T07:56:36.976Z</time></trkpt><trkpt lat="44.1801451" lon="10.3701973"><ele>850.0</ele><time>2026-04-08T07:56:40.975Z</time></trkpt><trkpt lat="44.1800803" lon="10.3701982"><ele>850.0</ele><time>2026-04-08T07:56:43.979Z</time></trkpt><trkpt lat="44.1800118" lon="10.3701804"><ele>850.0</ele><time>2026-04-08T07:56:46.957Z</time></trkpt><trkpt lat="44.1799475" lon="10.3701655"><ele>850.0</ele><time>2026-04-08T07:56:50.967Z</time></trkpt><trkpt lat="44.1798726" lon="10.37018"><ele>849.7142857142857</ele><time>2026-04-08T07:56:55.968Z</time></trkpt><trkpt lat="44.1797896" lon="10.3701749"><ele>849.4285714285713</ele><time>2026-04-08T07:57:00.956Z</time></trkpt><trkpt lat="44.1797167" lon="10.3701359"><ele>849.1428571428571</ele><time>2026-04-08T07:57:04.965Z</time></trkpt><trkpt lat="44.1796536" lon="10.3700952"><ele>848.8571428571429</ele><time>2026-04-08T07:57:08.966Z</time></trkpt><trkpt lat="44.1795965" lon="10.3700485"><ele>848.5714285714286</ele><time>2026-04-08T07:57:12.953Z</time></trkpt><trkpt lat="44.1795228" lon="10.3700226"><ele>848.2857142857143</ele><time>2026-04-08T07:57:16.977Z</time></trkpt><trkpt lat="44.1794554" lon="10.3699825"><ele>848.0</ele><time>2026-04-08T07:57:20.974Z</time></trkpt><trkpt lat="44.1793849" lon="10.3699576"><ele>848.0</ele><time>2026-04-08T07:57:24.957Z</time></trkpt><trkpt lat="44.179319" lon="10.3699544"><ele>848.0</ele><time>2026-04-08T07:57:28.973Z</time></trkpt><trkpt lat="44.1792472" lon="10.369938"><ele>848.0</ele><time>2026-04-08T07:57:32.946Z</time></trkpt><trkpt lat="44.1791779" lon="10.3699218"><ele>848.0</ele><time>2026-04-08T07:57:36.966Z</time></trkpt><trkpt lat="44.1791016" lon="10.3698904"><ele>848.0</ele><time>2026-04-08T07:57:41.948Z</time></trkpt><trkpt lat="44.1790331" lon="10.3698528"><ele>848.0</ele><time>2026-04-08T07:57:45.955Z</time></trkpt><trkpt lat="44.1789584" lon="10.3698189"><ele>848.0</ele><time>2026-04-08T07:57:49.961Z</time></trkpt><trkpt lat="44.1788903" lon="10.369777"><ele>847.5000000000001</ele><time>2026-04-08T07:57:53.961Z</time></trkpt><trkpt lat="44.1788454" lon="10.3697086"><ele>847.0</ele><time>2026-04-08T07:57:57.973Z</time></trkpt><trkpt lat="44.1787835" lon="10.3696275"><ele>846.5</ele><time>2026-04-08T07:58:00.97Z</time></trkpt><trkpt lat="44.1786971" lon="10.3695238"><ele>846.0</ele><time>2026-04-08T07:58:02.96Z</time></trkpt><trkpt lat="44.1786338" lon="10.3694709"><ele>845.5000000000001</ele><time>2026-04-08T07:58:03.964Z</time></trkpt><trkpt lat="44.1785687" lon="10.3694489"><ele>845.0</ele><time>2026-04-08T07:58:04.946Z</time></trkpt><trkpt lat="44.1784885" lon="10.3694536"><ele>844.6666666666667</ele><time>2026-04-08T07:58:05.959Z</time></trkpt><trkpt lat="44.1784127" lon="10.3694596"><ele>844.3333333333334</ele><time>2026-04-08T07:58:06.96Z</time></trkpt><trkpt lat="44.1783351" lon="10.3694503"><ele>844.0</ele><time>2026-04-08T07:58:07.958Z</time></trkpt><trkpt lat="44.178248" lon="10.369445"><ele>843.6666666666667</ele><time>2026-04-08T07:58:08.967Z</time></trkpt><trkpt lat="44.1781663" lon="10.3694425"><ele>843.3333333333334</ele><time>2026-04-08T07:58:09.961Z</time></trkpt><trkpt lat="44.1780971" lon="10.3694412"><ele>843.0</ele><time>2026-04-08T07:58:10.953Z</time></trkpt><trkpt lat="44.1779868" lon="10.369451"><ele>840.75</ele><time>2026-04-08T07:58:12.949Z</time></trkpt><trkpt lat="44.1778775" lon="10.3694449"><ele>838.5</ele><time>2026-04-08T07:58:14.955Z</time></trkpt><trkpt lat="44.1777518" lon="10.3694506"><ele>836.25</ele><time>2026-04-08T07:58:16.977Z</time></trkpt><trkpt lat="44.1776408" lon="10.3694511"><ele>834.0</ele><time>2026-04-08T07:58:18.963Z</time></trkpt><trkpt lat="44.1775502" lon="10.3693702"><ele>834.0</ele><time>2026-04-08T07:58:20.968Z</time></trkpt><trkpt lat="44.1774508" lon="10.3693072"><ele>834.0</ele><time>2026-04-08T07:58:22.964Z</time></trkpt><trkpt lat="44.1773725" lon="10.3692747"><ele>834.0</ele><time>2026-04-08T07:58:24.967Z</time></trkpt><trkpt lat="44.1772844" lon="10.3692951"><ele>834.0</ele><time>2026-04-08T07:58:26.948Z</time></trkpt><trkpt lat="44.1771955" lon="10.3692814"><ele>834.0</ele><time>2026-04-08T07:58:28.956Z</time></trkpt><trkpt lat="44.1771023" lon="10.369282"><ele>832.3333333333334</ele><time>2026-04-08T07:58:30.95Z</time></trkpt><trkpt lat="44.17703" lon="10.3692707"><ele>830.6666666666667</ele><time>2026-04-08T07:58:32.962Z</time></trkpt><trkpt lat="44.1769649" lon="10.3692073"><ele>829.0</ele><time>2026-04-08T07:58:34.951Z</time></trkpt><trkpt lat="44.1769236" lon="10.3691218"><ele>827.3333333333334</ele><time>2026-04-08T07:58:36.965Z</time></trkpt><trkpt lat="44.1768461" lon="10.3690887"><ele>825.6666666666667</ele><time>2026-04-08T07:58:38.978Z</time></trkpt><trkpt lat="44.1767791" lon="10.3691011"><ele>824.0</ele><time>2026-04-08T07:58:39.958Z</time></trkpt><trkpt lat="44.1766648" lon="10.369089"><ele>824.0000000000001</ele><time>2026-04-08T07:58:41.966Z</time></trkpt><trkpt lat="44.1765661" lon="10.3690573"><ele>824.0</ele><time>2026-04-08T07:58:43.963Z</time></trkpt><trkpt lat="44.1764834" lon="10.3689983"><ele>824.0</ele><time>2026-04-08T07:58:45.973Z</time></trkpt><trkpt lat="44.1764163" lon="10.3689327"><ele>824.0</ele><time>2026-04-08T07:58:47.948Z</time></trkpt><trkpt lat="44.1763893" lon="10.3688252"><ele>824.0000000000001</ele><time>2026-04-08T07:58:49.948Z</time></trkpt><trkpt lat="44.1763837" lon="10.3687222"><ele>824.0</ele><time>2026-04-08T07:58:51.948Z</time></trkpt><trkpt lat="44.1764037" lon="10.368622"><ele>822.9999999999999</ele><time>2026-04-08T07:58:53.958Z</time></trkpt><trkpt lat="44.1764607" lon="10.3685502"><ele>822.0</ele><time>2026-04-08T07:58:55.955Z</time></trkpt><trkpt lat="44.1765137" lon="10.368493"><ele>821.0</ele><time>2026-04-08T07:58:56.95Z</time></trkpt><trkpt lat="44.1765745" lon="10.368456"><ele>820.0</ele><time>2026-04-08T07:58:57.964Z</time></trkpt><trkpt lat="44.176635" lon="10.368428"><ele>819.0</ele><time>2026-04-08T07:58:58.956Z</time></trkpt><trkpt lat="44.1767017" lon="10.3683988"><ele>817.9999999999999</ele><time>2026-04-08T07:58:59.984Z</time></trkpt><trkpt lat="44.1767714" lon="10.3683703"><ele>817.0</ele><time>2026-04-08T07:59:00.96Z</time></trkpt><trkpt lat="44.1768508" lon="10.3683505"><ele>816.9999999999999</ele><time>2026-04-08T07:59:01.963Z</time></trkpt><trkpt lat="44.1769291" lon="10.3683388"><ele>817.0</ele><time>2026-04-08T07:59:02.958Z</time></trkpt><trkpt lat="44.1770118" lon="10.3683314"><ele>817.0</ele><time>2026-04-08T07:59:03.962Z</time></trkpt><trkpt lat="44.1770908" lon="10.3682983"><ele>817.0</ele><time>2026-04-08T07:59:04.965Z</time></trkpt><trkpt lat="44.1771792" lon="10.3682349"><ele>816.9999999999999</ele><time>2026-04-08T07:59:06.957Z</time></trkpt><trkpt lat="44.1771851" lon="10.3681238"><ele>817.0</ele><time>2026-04-08T07:59:09.948Z</time></trkpt><trkpt lat="44.1771207" lon="10.368099"><ele>816.9999999999999</ele><time>2026-04-08T07:59:13.952Z</time></trkpt><trkpt lat="44.177057" lon="10.3680908"><ele>817.0</ele><time>2026-04-08T07:59:18.959Z</time></trkpt><trkpt lat="44.1769882" lon="10.3680595"><ele>817.0</ele><time>2026-04-08T07:59:23.958Z</time></trkpt><trkpt lat="44.1769234" lon="10.3680279"><ele>817.0</ele><time>2026-04-08T07:59:27.963Z</time></trkpt><trkpt lat="44.1768695" lon="10.3679801"><ele>817.0</ele><time>2026-04-08T07:59:37.954Z</time></trkpt><trkpt lat="44.1768162" lon="10.3678972"><ele>816.9999999999999</ele><time>2026-04-08T07:59:58.945Z</time></trkpt><trkpt lat="44.1767769" lon="10.367825"><ele>817.0</ele><time>2026-04-08T08:00:11.948Z</time></trkpt><trkpt lat="44.1767271" lon="10.3677491"><ele>817.5714285714286</ele><time>2026-04-08T08:00:16.953Z</time></trkpt><trkpt lat="44.1766863" lon="10.3676613"><ele>818.1428571428571</ele><time>2026-04-08T08:00:21.957Z</time></trkpt><trkpt lat="44.1766596" lon="10.3675709"><ele>818.7142857142858</ele><time>2026-04-08T08:00:26.946Z</time></trkpt><trkpt lat="44.1766316" lon="10.3674806"><ele>819.2857142857142</ele><time>2026-04-08T08:00:31.96Z</time></trkpt><trkpt lat="44.1766257" lon="10.3673804"><ele>819.8571428571429</ele><time>2026-04-08T08:00:36.965Z</time></trkpt><trkpt lat="44.1766292" lon="10.3672864"><ele>820.4285714285714</ele><time>2026-04-08T08:00:40.958Z</time></trkpt><trkpt lat="44.1766301" lon="10.367177"><ele>821.0</ele><time>2026-04-08T08:00:45.97Z</time></trkpt><trkpt lat="44.1766247" lon="10.3670686"><ele>820.7142857142858</ele><time>2026-04-08T08:00:50.954Z</time></trkpt><trkpt lat="44.1766153" lon="10.3669698"><ele>820.4285714285714</ele><time>2026-04-08T08:00:54.95Z</time></trkpt><trkpt lat="44.176583" lon="10.3668764"><ele>820.1428571428571</ele><time>2026-04-08T08:00:59.946Z</time></trkpt><trkpt lat="44.1765389" lon="10.3667764"><ele>819.8571428571429</ele><time>2026-04-08T08:01:04.963Z</time></trkpt><trkpt lat="44.1764943" lon="10.3666957"><ele>819.5714285714286</ele><time>2026-04-08T08:01:08.959Z</time></trkpt><trkpt lat="44.1764663" lon="10.3666159"><ele>819.2857142857143</ele><time>2026-04-08T08:01:13.955Z</time></trkpt><trkpt lat="44.1764411" lon="10.3665325"><ele>819.0</ele><time>2026-04-08T08:01:19.956Z</time></trkpt><trkpt lat="44.1764203" lon="10.366442"><ele>819.0</ele><time>2026-04-08T08:01:23.953Z</time></trkpt><trkpt lat="44.1764143" lon="10.3663483"><ele>819.0</ele><time>2026-04-08T08:01:25.957Z</time></trkpt><trkpt lat="44.1764231" lon="10.3661873"><ele>819.0</ele><time>2026-04-08T08:01:27.954Z</time></trkpt><trkpt lat="44.1764243" lon="10.3660928"><ele>819.0</ele><time>2026-04-08T08:01:28.97Z</time></trkpt><trkpt lat="44.1764263" lon="10.3660018"><ele>819.0</ele><time>2026-04-08T08:01:29.951Z</time></trkpt><trkpt lat="44.1764243" lon="10.3659002"><ele>819.0</ele><time>2026-04-08T08:01:30.96Z</time></trkpt><trkpt lat="44.1764277" lon="10.3657397"><ele>819.0</ele><time>2026-04-08T08:01:32.959Z</time></trkpt><trkpt lat="44.1764392" lon="10.3656323"><ele>819.0</ele><time>2026-04-08T08:01:34.95Z</time></trkpt><trkpt lat="44.1763721" lon="10.3655877"><ele>819.0</ele><time>2026-04-08T08:01:36.952Z</time></trkpt><trkpt lat="44.17629" lon="10.3655835"><ele>819.0</ele><time>2026-04-08T08:01:38.959Z</time></trkpt><trkpt lat="44.1762237" lon="10.3655879"><ele>819.0</ele><time>2026-04-08T08:01:40.961Z</time></trkpt><trkpt lat="44.1761536" lon="10.3655926"><ele>819.0</ele><time>2026-04-08T08:01:42.959Z</time></trkpt><trkpt lat="44.1760689" lon="10.3656031"><ele>819.0</ele><time>2026-04-08T08:01:45.961Z</time></trkpt><trkpt lat="44.1759743" lon="10.365582"><ele>819.0</ele><time>2026-04-08T08:01:48.959Z</time></trkpt><trkpt lat="44.1758757" lon="10.3655789"><ele>819.0</ele><time>2026-04-08T08:01:51.961Z</time></trkpt><trkpt lat="44.1757947" lon="10.3656751"><ele>819.0</ele><time>2026-04-08T08:01:53.968Z</time></trkpt><trkpt lat="44.1757004" lon="10.3657284"><ele>819.0</ele><time>2026-04-08T08:01:55.961Z</time></trkpt><trkpt lat="44.1755888" lon="10.3657052"><ele>818.2</ele><time>2026-04-08T08:01:57.971Z</time></trkpt><trkpt lat="44.1754731" lon="10.3656376"><ele>817.4000000000001</ele><time>2026-04-08T08:01:59.966Z</time></trkpt><trkpt lat="44.1754109" lon="10.3656105"><ele>816.6</ele><time>2026-04-08T08:02:00.96Z</time></trkpt><trkpt lat="44.1753379" lon="10.3655709"><ele>815.8</ele><time>2026-04-08T08:02:01.965Z</time></trkpt><trkpt lat="44.1752766" lon="10.3655329"><ele>815.0</ele><time>2026-04-08T08:02:02.96Z</time></trkpt><trkpt lat="44.1751489" lon="10.3654559"><ele>815.0000000000001</ele><time>2026-04-08T08:02:04.966Z</time></trkpt><trkpt lat="44.175083" lon="10.3654206"><ele>815.0</ele><time>2026-04-08T08:02:05.959Z</time></trkpt><trkpt lat="44.1750215" lon="10.3653697"><ele>815.0</ele><time>2026-04-08T08:02:06.972Z</time></trkpt><trkpt lat="44.174981" lon="10.3652953"><ele>815.0</ele><time>2026-04-08T08:02:07.98Z</time></trkpt><trkpt lat="44.1748745" lon="10.3652464"><ele>815.0000000000001</ele><time>2026-04-08T08:02:09.962Z</time></trkpt><trkpt lat="44.174774" lon="10.3651792"><ele>815.0</ele><time>2026-04-08T08:02:11.959Z</time></trkpt><trkpt lat="44.1746891" lon="10.3650941"><ele>811.2</ele><time>2026-04-08T08:02:13.972Z</time></trkpt><trkpt lat="44.1746197" lon="10.3649775"><ele>807.4</ele><time>2026-04-08T08:02:15.961Z</time></trkpt><trkpt lat="44.1745906" lon="10.3648617"><ele>803.5999999999999</ele><time>2026-04-08T08:02:18.958Z</time></trkpt><trkpt lat="44.174585" lon="10.3647665"><ele>799.8</ele><time>2026-04-08T08:02:21.981Z</time></trkpt><trkpt lat="44.1744893" lon="10.3647488"><ele>796.0</ele><time>2026-04-08T08:02:23.955Z</time></trkpt><trkpt lat="44.1743899" lon="10.3648016"><ele>796.0</ele><time>2026-04-08T08:02:25.959Z</time></trkpt><trkpt lat="44.174318" lon="10.364819"><ele>796.0</ele><time>2026-04-08T08:02:26.971Z</time></trkpt><trkpt lat="44.1741989" lon="10.3648824"><ele>796.0</ele><time>2026-04-08T08:02:28.963Z</time></trkpt><trkpt lat="44.1741379" lon="10.3649125"><ele>796.0</ele><time>2026-04-08T08:02:29.968Z</time></trkpt><trkpt lat="44.174027" lon="10.3649571"><ele>796.0</ele><time>2026-04-08T08:02:31.962Z</time></trkpt><trkpt lat="44.1739398" lon="10.3649595"><ele>794.1666666666666</ele><time>2026-04-08T08:02:33.96Z</time></trkpt><trkpt lat="44.1738613" lon="10.364951"><ele>792.3333333333333</ele><time>2026-04-08T08:02:35.961Z</time></trkpt><trkpt lat="44.1737978" lon="10.3649283"><ele>790.5</ele><time>2026-04-08T08:02:37.965Z</time></trkpt><trkpt lat="44.1737254" lon="10.3648946"><ele>788.6666666666667</ele><time>2026-04-08T08:02:39.949Z</time></trkpt><trkpt lat="44.1736615" lon="10.3648344"><ele>786.8333333333334</ele><time>2026-04-08T08:02:41.961Z</time></trkpt><trkpt lat="44.1735842" lon="10.3647786"><ele>785.0</ele><time>2026-04-08T08:02:43.952Z</time></trkpt><trkpt lat="44.1735252" lon="10.364741"><ele>786.8</ele><time>2026-04-08T08:02:44.948Z</time></trkpt><trkpt lat="44.1734223" lon="10.3646511"><ele>788.6</ele><time>2026-04-08T08:02:46.964Z</time></trkpt><trkpt lat="44.1733212" lon="10.364556"><ele>790.4000000000001</ele><time>2026-04-08T08:02:48.957Z</time></trkpt><trkpt lat="44.1732605" lon="10.3644425"><ele>792.2</ele><time>2026-04-08T08:02:50.956Z</time></trkpt><trkpt lat="44.1732366" lon="10.3643017"><ele>794.0</ele><time>2026-04-08T08:02:52.958Z</time></trkpt><trkpt lat="44.1732327" lon="10.3641634"><ele>794.0000000000001</ele><time>2026-04-08T08:02:54.961Z</time></trkpt><trkpt lat="44.1732238" lon="10.3640154"><ele>794.0</ele><time>2026-04-08T08:02:56.958Z</time></trkpt><trkpt lat="44.1732311" lon="10.3638764"><ele>794.0</ele><time>2026-04-08T08:02:58.972Z</time></trkpt><trkpt lat="44.1732668" lon="10.3637864"><ele>794.0</ele><time>2026-04-08T08:03:00.973Z</time></trkpt><trkpt lat="44.1733186" lon="10.3637134"><ele>794.0000000000001</ele><time>2026-04-08T08:03:03.962Z</time></trkpt><trkpt lat="44.1733733" lon="10.3636567"><ele>794.0</ele><time>2026-04-08T08:03:09.959Z</time></trkpt><trkpt lat="44.1734438" lon="10.363649"><ele>793.7142857142857</ele><time>2026-04-08T08:03:15.956Z</time></trkpt><trkpt lat="44.1735216" lon="10.3636287"><ele>793.4285714285713</ele><time>2026-04-08T08:03:20.95Z</time></trkpt><trkpt lat="44.1735826" lon="10.3635529"><ele>793.1428571428571</ele><time>2026-04-08T08:03:24.959Z</time></trkpt><trkpt lat="44.1736305" lon="10.363476"><ele>792.8571428571429</ele><time>2026-04-08T08:03:28.96Z</time></trkpt><trkpt lat="44.1736581" lon="10.3633942"><ele>792.5714285714286</ele><time>2026-04-08T08:03:33.951Z</time></trkpt><trkpt lat="44.1736697" lon="10.3633063"><ele>792.2857142857143</ele><time>2026-04-08T08:03:38.973Z</time></trkpt><trkpt lat="44.1736949" lon="10.3632215"><ele>792.0</ele><time>2026-04-08T08:03:42.957Z</time></trkpt><trkpt lat="44.1737327" lon="10.3631451"><ele>792.0</ele><time>2026-04-08T08:03:46.967Z</time></trkpt><trkpt lat="44.1737705" lon="10.3630724"><ele>792.0</ele><time>2026-04-08T08:03:50.951Z</time></trkpt><trkpt lat="44.1737979" lon="10.3629874"><ele>792.0</ele><time>2026-04-08T08:03:54.961Z</time></trkpt><trkpt lat="44.1738364" lon="10.3629132"><ele>792.0</ele><time>2026-04-08T08:03:58.96Z</time></trkpt><trkpt lat="44.1738883" lon="10.3628478"><ele>792.0</ele><time>2026-04-08T08:04:03.962Z</time></trkpt><trkpt lat="44.1739462" lon="10.3628099"><ele>792.0</ele><time>2026-04-08T08:04:08.956Z</time></trkpt><trkpt lat="44.1740183" lon="10.3628011"><ele>792.0</ele><time>2026-04-08T08:04:13.958Z</time></trkpt><trkpt lat="44.1740891" lon="10.3628055"><ele>792.5714285714286</ele><time>2026-04-08T08:04:19.967Z</time></trkpt><trkpt lat="44.1741582" lon="10.3628245"><ele>793.1428571428571</ele><time>2026-04-08T08:04:24.962Z</time></trkpt><trkpt lat="44.1742205" lon="10.3628826"><ele>793.7142857142857</ele><time>2026-04-08T08:04:29.96Z</time></trkpt><trkpt lat="44.1742889" lon="10.3629049"><ele>794.2857142857142</ele><time>2026-04-08T08:04:34.959Z</time></trkpt><trkpt lat="44.1743436" lon="10.3628479"><ele>794.8571428571429</ele><time>2026-04-08T08:04:38.962Z</time></trkpt><trkpt lat="44.1743957" lon="10.3627936"><ele>795.4285714285713</ele><time>2026-04-08T08:04:42.954Z</time></trkpt><trkpt lat="44.1744471" lon="10.3627266"><ele>796.0</ele><time>2026-04-08T08:04:46.967Z</time></trkpt><trkpt lat="44.1744918" lon="10.3626572"><ele>795.9999999999999</ele><time>2026-04-08T08:04:50.96Z</time></trkpt><trkpt lat="44.174556" lon="10.3626267"><ele>796.0</ele><time>2026-04-08T08:04:55.953Z</time></trkpt><trkpt lat="44.174625" lon="10.3626176"><ele>796.0</ele><time>2026-04-08T08:05:00.967Z</time></trkpt><trkpt lat="44.1747012" lon="10.362619"><ele>796.0</ele><time>2026-04-08T08:05:05.97Z</time></trkpt><trkpt lat="44.1747791" lon="10.3626178"><ele>796.0</ele><time>2026-04-08T08:05:10.958Z</time></trkpt><trkpt lat="44.1748542" lon="10.3626277"><ele>795.9999999999999</ele><time>2026-04-08T08:05:15.959Z</time></trkpt><trkpt lat="44.174923" lon="10.362619"><ele>796.0</ele><time>2026-04-08T08:05:20.962Z</time></trkpt><trkpt lat="44.1749924" lon="10.3625904"><ele>797.7142857142857</ele><time>2026-04-08T08:05:26.954Z</time></trkpt><trkpt lat="44.1750536" lon="10.3625519"><ele>799.4285714285714</ele><time>2026-04-08T08:05:30.967Z</time></trkpt><trkpt lat="44.1751148" lon="10.3625248"><ele>801.1428571428571</ele><time>2026-04-08T08:05:34.95Z</time></trkpt><trkpt lat="44.1751844" lon="10.3624864"><ele>802.8571428571429</ele><time>2026-04-08T08:05:39.964Z</time></trkpt><trkpt lat="44.175252" lon="10.3624614"><ele>804.5714285714286</ele><time>2026-04-08T08:05:43.955Z</time></trkpt><trkpt lat="44.1753178" lon="10.3624168"><ele>806.2857142857142</ele><time>2026-04-08T08:05:48.959Z</time></trkpt><trkpt lat="44.1753819" lon="10.3623453"><ele>808.0</ele><time>2026-04-08T08:05:53.956Z</time></trkpt><trkpt lat="44.1754386" lon="10.3622941"><ele>808.0</ele><time>2026-04-08T08:05:57.954Z</time></trkpt><trkpt lat="44.1755001" lon="10.3622486"><ele>808.0</ele><time>2026-04-08T08:06:02.961Z</time></trkpt><trkpt lat="44.1755586" lon="10.3622076"><ele>808.0</ele><time>2026-04-08T08:06:07.964Z</time></trkpt><trkpt lat="44.1756211" lon="10.3621913"><ele>808.0</ele><time>2026-04-08T08:06:11.958Z</time></trkpt><trkpt lat="44.1756945" lon="10.362173"><ele>808.0</ele><time>2026-04-08T08:06:16.958Z</time></trkpt><trkpt lat="44.1757606" lon="10.3621747"><ele>808.0</ele><time>2026-04-08T08:06:21.953Z</time></trkpt><trkpt lat="44.1758335" lon="10.3621896"><ele>808.0</ele><time>2026-04-08T08:06:26.954Z</time></trkpt><trkpt lat="44.1759033" lon="10.3621733"><ele>809.5714285714286</ele><time>2026-04-08T08:06:31.964Z</time></trkpt><trkpt lat="44.1759529" lon="10.3621133"><ele>811.1428571428571</ele><time>2026-04-08T08:06:35.958Z</time></trkpt><trkpt lat="44.1759836" lon="10.3620304"><ele>812.7142857142858</ele><time>2026-04-08T08:06:40.962Z</time></trkpt><trkpt lat="44.1759705" lon="10.3619221"><ele>814.2857142857142</ele><time>2026-04-08T08:06:45.954Z</time></trkpt><trkpt lat="44.1759501" lon="10.3618354"><ele>815.8571428571429</ele><time>2026-04-08T08:06:49.966Z</time></trkpt><trkpt lat="44.1759242" lon="10.3617491"><ele>817.4285714285714</ele><time>2026-04-08T08:06:54.958Z</time></trkpt><trkpt lat="44.1758715" lon="10.3616726"><ele>819.0</ele><time>2026-04-08T08:06:57.963Z</time></trkpt><trkpt lat="44.1757993" lon="10.361554"><ele>819.0</ele><time>2026-04-08T08:07:00.964Z</time></trkpt><trkpt lat="44.175755" lon="10.3614297"><ele>819.0</ele><time>2026-04-08T08:07:02.955Z</time></trkpt><trkpt lat="44.1757228" lon="10.3612564"><ele>819.0</ele><time>2026-04-08T08:07:04.956Z</time></trkpt><trkpt lat="44.1756647" lon="10.3611394"><ele>819.0</ele><time>2026-04-08T08:07:06.96Z</time></trkpt><trkpt lat="44.1755864" lon="10.3611147"><ele>819.0</ele><time>2026-04-08T08:07:08.961Z</time></trkpt><trkpt lat="44.1755143" lon="10.361077"><ele>817.0</ele><time>2026-04-08T08:07:10.975Z</time></trkpt><trkpt lat="44.1754557" lon="10.361035"><ele>815.0</ele><time>2026-04-08T08:07:14.953Z</time></trkpt><trkpt lat="44.1753987" lon="10.3609759"><ele>813.0</ele><time>2026-04-08T08:07:19.961Z</time></trkpt><trkpt lat="44.1753381" lon="10.3609167"><ele>811.0</ele><time>2026-04-08T08:07:22.964Z</time></trkpt><trkpt lat="44.1752637" lon="10.3608474"><ele>809.0</ele><time>2026-04-08T08:07:25.952Z</time></trkpt><trkpt lat="44.1751826" lon="10.3607752"><ele>807.0</ele><time>2026-04-08T08:07:27.966Z</time></trkpt><trkpt lat="44.1751157" lon="10.3606687"><ele>807.0</ele><time>2026-04-08T08:07:29.957Z</time></trkpt><trkpt lat="44.1750298" lon="10.3605934"><ele>807.0</ele><time>2026-04-08T08:07:31.973Z</time></trkpt><trkpt lat="44.1749256" lon="10.3605419"><ele>807.0</ele><time>2026-04-08T08:07:33.967Z</time></trkpt><trkpt lat="44.1748271" lon="10.3604961"><ele>807.0</ele><time>2026-04-08T08:07:35.977Z</time></trkpt><trkpt lat="44.1747348" lon="10.3604759"><ele>807.0</ele><time>2026-04-08T08:07:37.96Z</time></trkpt><trkpt lat="44.1746284" lon="10.3604861"><ele>806.8</ele><time>2026-04-08T08:07:39.971Z</time></trkpt><trkpt lat="44.1745358" lon="10.3605302"><ele>806.6</ele><time>2026-04-08T08:07:41.956Z</time></trkpt><trkpt lat="44.1744376" lon="10.3605454"><ele>806.4</ele><time>2026-04-08T08:07:43.978Z</time></trkpt><trkpt lat="44.1743195" lon="10.3605643"><ele>806.1999999999999</ele><time>2026-04-08T08:07:45.957Z</time></trkpt><trkpt lat="44.1742123" lon="10.360542"><ele>806.0</ele><time>2026-04-08T08:07:47.957Z</time></trkpt><trkpt lat="44.1741175" lon="10.3604968"><ele>806.0</ele><time>2026-04-08T08:07:49.957Z</time></trkpt><trkpt lat="44.1740312" lon="10.3604749"><ele>806.0</ele><time>2026-04-08T08:07:51.963Z</time></trkpt><trkpt lat="44.173927" lon="10.3604718"><ele>806.0</ele><time>2026-04-08T08:07:53.978Z</time></trkpt><trkpt lat="44.1738019" lon="10.3604322"><ele>806.0</ele><time>2026-04-08T08:07:55.968Z</time></trkpt><trkpt lat="44.1736694" lon="10.3604265"><ele>805.0</ele><time>2026-04-08T08:07:57.975Z</time></trkpt><trkpt lat="44.1736009" lon="10.3604266"><ele>804.0</ele><time>2026-04-08T08:07:58.996Z</time></trkpt><trkpt lat="44.1735373" lon="10.3604213"><ele>803.0</ele><time>2026-04-08T08:07:59.956Z</time></trkpt><trkpt lat="44.173463" lon="10.3604353"><ele>802.0</ele><time>2026-04-08T08:08:00.962Z</time></trkpt><trkpt lat="44.1733863" lon="10.3604513"><ele>801.0</ele><time>2026-04-08T08:08:01.975Z</time></trkpt><trkpt lat="44.1733136" lon="10.360464"><ele>800.0</ele><time>2026-04-08T08:08:02.96Z</time></trkpt><trkpt lat="44.1732431" lon="10.36047"><ele>799.0</ele><time>2026-04-08T08:08:03.973Z</time></trkpt><trkpt lat="44.1731675" lon="10.3604667"><ele>799.0</ele><time>2026-04-08T08:08:04.958Z</time></trkpt><trkpt lat="44.1730515" lon="10.3604602"><ele>799.0</ele><time>2026-04-08T08:08:06.965Z</time></trkpt><trkpt lat="44.1729985" lon="10.3605768"><ele>799.0</ele><time>2026-04-08T08:08:08.96Z</time></trkpt><trkpt lat="44.1729249" lon="10.3606446"><ele>799.0</ele><time>2026-04-08T08:08:10.966Z</time></trkpt><trkpt lat="44.1728491" lon="10.3606469"><ele>799.0</ele><time>2026-04-08T08:08:12.955Z</time></trkpt><trkpt lat="44.1727678" lon="10.3606524"><ele>799.0</ele><time>2026-04-08T08:08:14.974Z</time></trkpt><trkpt lat="44.1726907" lon="10.3606359"><ele>799.0</ele><time>2026-04-08T08:08:16.958Z</time></trkpt><trkpt lat="44.1726215" lon="10.3606366"><ele>799.0</ele><time>2026-04-08T08:08:18.954Z</time></trkpt><trkpt lat="44.1725391" lon="10.3606245"><ele>799.0</ele><time>2026-04-08T08:08:21.949Z</time></trkpt><trkpt lat="44.1724752" lon="10.3605968"><ele>799.0</ele><time>2026-04-08T08:08:24.965Z</time></trkpt><trkpt lat="44.1724093" lon="10.3605583"><ele>799.0</ele><time>2026-04-08T08:08:28.959Z</time></trkpt><trkpt lat="44.1723472" lon="10.3604932"><ele>799.0</ele><time>2026-04-08T08:08:33.956Z</time></trkpt><trkpt lat="44.1722912" lon="10.3604447"><ele>799.5714285714286</ele><time>2026-04-08T08:08:37.882Z</time></trkpt><trkpt lat="44.172232" lon="10.3603845"><ele>800.1428571428571</ele><time>2026-04-08T08:08:41.965Z</time></trkpt><trkpt lat="44.1721663" lon="10.3603334"><ele>800.7142857142857</ele><time>2026-04-08T08:08:46.952Z</time></trkpt><trkpt lat="44.1721174" lon="10.3602687"><ele>801.2857142857142</ele><time>2026-04-08T08:08:50.965Z</time></trkpt><trkpt lat="44.172059" lon="10.3602109"><ele>801.8571428571429</ele><time>2026-04-08T08:08:55.959Z</time></trkpt><trkpt lat="44.1720043" lon="10.3601622"><ele>802.4285714285713</ele><time>2026-04-08T08:09:00.958Z</time></trkpt><trkpt lat="44.1719407" lon="10.3601166"><ele>803.0</ele><time>2026-04-08T08:09:06.955Z</time></trkpt><trkpt lat="44.1718941" lon="10.3600406"><ele>802.9999999999999</ele><time>2026-04-08T08:09:12.961Z</time></trkpt><trkpt lat="44.1719189" lon="10.3599479"><ele>803.0</ele><time>2026-04-08T08:09:17.97Z</time></trkpt><trkpt lat="44.1719583" lon="10.359873"><ele>803.0</ele><time>2026-04-08T08:09:22.952Z</time></trkpt><trkpt lat="44.1719943" lon="10.359799"><ele>803.0</ele><time>2026-04-08T08:09:26.955Z</time></trkpt><trkpt lat="44.1720137" lon="10.3597153"><ele>803.0</ele><time>2026-04-08T08:09:30.956Z</time></trkpt><trkpt lat="44.1720283" lon="10.3596165"><ele>802.9999999999999</ele><time>2026-04-08T08:09:34.955Z</time></trkpt><trkpt lat="44.1720251" lon="10.3595237"><ele>803.0</ele><time>2026-04-08T08:09:38.966Z</time></trkpt><trkpt lat="44.1719979" lon="10.3594235"><ele>803.5714285714286</ele><time>2026-04-08T08:09:42.955Z</time></trkpt><trkpt lat="44.1719465" lon="10.3593492"><ele>804.1428571428571</ele><time>2026-04-08T08:09:46.959Z</time></trkpt><trkpt lat="44.1718713" lon="10.3593323"><ele>804.7142857142858</ele><time>2026-04-08T08:09:51.955Z</time></trkpt><trkpt lat="44.1718128" lon="10.3592747"><ele>805.2857142857142</ele><time>2026-04-08T08:09:56.963Z</time></trkpt><trkpt lat="44.1717544" lon="10.3592248"><ele>805.8571428571429</ele><time>2026-04-08T08:10:01.948Z</time></trkpt><trkpt lat="44.1716825" lon="10.3592435"><ele>806.4285714285714</ele><time>2026-04-08T08:10:06.962Z</time></trkpt><trkpt lat="44.1716136" lon="10.3592139"><ele>807.0</ele><time>2026-04-08T08:10:10.957Z</time></trkpt><trkpt lat="44.1715456" lon="10.3591998"><ele>805.1666666666666</ele><time>2026-04-08T08:10:15.958Z</time></trkpt><trkpt lat="44.1714825" lon="10.3592275"><ele>803.3333333333333</ele><time>2026-04-08T08:10:20.953Z</time></trkpt><trkpt lat="44.1713977" lon="10.3592651"><ele>801.5</ele><time>2026-04-08T08:10:23.959Z</time></trkpt><trkpt lat="44.1713514" lon="10.3593598"><ele>799.6666666666666</ele><time>2026-04-08T08:10:26.951Z</time></trkpt><trkpt lat="44.1713132" lon="10.3594503"><ele>797.8333333333333</ele><time>2026-04-08T08:10:29.962Z</time></trkpt><trkpt lat="44.1712579" lon="10.3595479"><ele>796.0</ele><time>2026-04-08T08:10:32.955Z</time></trkpt><trkpt lat="44.1711962" lon="10.3596093"><ele>795.9999999999999</ele><time>2026-04-08T08:10:35.955Z</time></trkpt><trkpt lat="44.1711217" lon="10.3596581"><ele>796.0</ele><time>2026-04-08T08:10:38.952Z</time></trkpt><trkpt lat="44.1710343" lon="10.3596916"><ele>796.0</ele><time>2026-04-08T08:10:41.958Z</time></trkpt><trkpt lat="44.1709741" lon="10.3597671"><ele>796.0</ele><time>2026-04-08T08:10:42.97Z</time></trkpt><trkpt lat="44.1708949" lon="10.3598639"><ele>795.9999999999999</ele><time>2026-04-08T08:10:44.958Z</time></trkpt><trkpt lat="44.1708292" lon="10.3599435"><ele>796.0</ele><time>2026-04-08T08:10:46.956Z</time></trkpt><trkpt lat="44.1707751" lon="10.3600053"><ele>795.5714285714286</ele><time>2026-04-08T08:10:47.971Z</time></trkpt><trkpt lat="44.1707412" lon="10.3600864"><ele>795.1428571428571</ele><time>2026-04-08T08:10:48.969Z</time></trkpt><trkpt lat="44.1706812" lon="10.3601544"><ele>794.7142857142858</ele><time>2026-04-08T08:10:49.967Z</time></trkpt><trkpt lat="44.1706297" lon="10.3602137"><ele>794.2857142857142</ele><time>2026-04-08T08:10:50.96Z</time></trkpt><trkpt lat="44.1705782" lon="10.36027"><ele>793.8571428571429</ele><time>2026-04-08T08:10:51.968Z</time></trkpt><trkpt lat="44.1705136" lon="10.3603444"><ele>793.4285714285714</ele><time>2026-04-08T08:10:53.956Z</time></trkpt><trkpt lat="44.1704553" lon="10.3604061"><ele>793.0</ele><time>2026-04-08T08:10:58.963Z</time></trkpt><trkpt lat="44.1703877" lon="10.3604156"><ele>792.4285714285714</ele><time>2026-04-08T08:11:03.968Z</time></trkpt><trkpt lat="44.1703161" lon="10.3604208"><ele>791.8571428571429</ele><time>2026-04-08T08:11:08.965Z</time></trkpt><trkpt lat="44.170242" lon="10.3604316"><ele>791.2857142857142</ele><time>2026-04-08T08:11:12.959Z</time></trkpt><trkpt lat="44.1701725" lon="10.3604617"><ele>790.7142857142858</ele><time>2026-04-08T08:11:17.958Z</time></trkpt><trkpt lat="44.1700948" lon="10.3604829"><ele>790.1428571428571</ele><time>2026-04-08T08:11:22.951Z</time></trkpt><trkpt lat="44.1700302" lon="10.3604695"><ele>789.5714285714286</ele><time>2026-04-08T08:11:26.963Z</time></trkpt><trkpt lat="44.1699692" lon="10.3604318"><ele>789.0</ele><time>2026-04-08T08:11:30.956Z</time></trkpt><trkpt lat="44.1699148" lon="10.3603651"><ele>787.7142857142857</ele><time>2026-04-08T08:11:34.956Z</time></trkpt><trkpt lat="44.1698577" lon="10.360324"><ele>786.4285714285714</ele><time>2026-04-08T08:11:37.963Z</time></trkpt><trkpt lat="44.1698046" lon="10.3602747"><ele>785.1428571428571</ele><time>2026-04-08T08:11:40.965Z</time></trkpt><trkpt lat="44.1697604" lon="10.3601886"><ele>783.8571428571429</ele><time>2026-04-08T08:11:43.968Z</time></trkpt><trkpt lat="44.1696766" lon="10.3601888"><ele>782.5714285714286</ele><time>2026-04-08T08:11:46.96Z</time></trkpt><trkpt lat="44.1696212" lon="10.3602438"><ele>781.2857142857142</ele><time>2026-04-08T08:11:49.968Z</time></trkpt><trkpt lat="44.1695438" lon="10.36023"><ele>780.0</ele><time>2026-04-08T08:11:52.962Z</time></trkpt><trkpt lat="44.1694807" lon="10.3602225"><ele>780.0</ele><time>2026-04-08T08:11:54.965Z</time></trkpt><trkpt lat="44.1694092" lon="10.360221"><ele>780.0</ele><time>2026-04-08T08:11:56.972Z</time></trkpt><trkpt lat="44.1693261" lon="10.3601872"><ele>780.0</ele><time>2026-04-08T08:12:00.945Z</time></trkpt><trkpt lat="44.169261" lon="10.3602112"><ele>780.0</ele><time>2026-04-08T08:12:02.96Z</time></trkpt><trkpt lat="44.169201" lon="10.3602891"><ele>780.0</ele><time>2026-04-08T08:12:05.95Z</time></trkpt><trkpt lat="44.1691345" lon="10.360331"><ele>780.0</ele><time>2026-04-08T08:12:08.964Z</time></trkpt><trkpt lat="44.1690645" lon="10.3603382"><ele>775.6</ele><time>2026-04-08T08:12:10.949Z</time></trkpt><trkpt lat="44.1689898" lon="10.3603157"><ele>771.2</ele><time>2026-04-08T08:12:12.954Z</time></trkpt><trkpt lat="44.1688679" lon="10.3603493"><ele>766.8</ele><time>2026-04-08T08:12:14.964Z</time></trkpt><trkpt lat="44.1687719" lon="10.3603479"><ele>762.4</ele><time>2026-04-08T08:12:16.962Z</time></trkpt><trkpt lat="44.1686748" lon="10.3603484"><ele>758.0</ele><time>2026-04-08T08:12:18.966Z</time></trkpt><trkpt lat="44.1685988" lon="10.3603974"><ele>758.0</ele><time>2026-04-08T08:12:20.976Z</time></trkpt><trkpt lat="44.1685306" lon="10.3604459"><ele>758.0</ele><time>2026-04-08T08:12:22.96Z</time></trkpt><trkpt lat="44.1684167" lon="10.360475"><ele>758.0</ele><time>2026-04-08T08:12:24.962Z</time></trkpt><trkpt lat="44.1683037" lon="10.3604225"><ele>758.0</ele><time>2026-04-08T08:12:26.965Z</time></trkpt><trkpt lat="44.1682359" lon="10.3604159"><ele>758.0</ele><time>2026-04-08T08:12:28.97Z</time></trkpt><trkpt lat="44.1681606" lon="10.3604555"><ele>755.8333333333333</ele><time>2026-04-08T08:12:30.956Z</time></trkpt><trkpt lat="44.1680808" lon="10.360494"><ele>753.6666666666666</ele><time>2026-04-08T08:12:32.958Z</time></trkpt><trkpt lat="44.1679741" lon="10.3604748"><ele>751.5</ele><time>2026-04-08T08:12:34.963Z</time></trkpt><trkpt lat="44.1678936" lon="10.3604679"><ele>749.3333333333334</ele><time>2026-04-08T08:12:36.964Z</time></trkpt><trkpt lat="44.1678165" lon="10.3605112"><ele>747.1666666666667</ele><time>2026-04-08T08:12:39.956Z</time></trkpt><trkpt lat="44.1677656" lon="10.3605953"><ele>745.0</ele><time>2026-04-08T08:12:43.961Z</time></trkpt><trkpt lat="44.1677144" lon="10.3607085"><ele>745.0</ele><time>2026-04-08T08:12:46.952Z</time></trkpt><trkpt lat="44.167647" lon="10.3607548"><ele>745.0</ele><time>2026-04-08T08:12:48.96Z</time></trkpt><trkpt lat="44.1675778" lon="10.3607959"><ele>745.0</ele><time>2026-04-08T08:12:50.975Z</time></trkpt><trkpt lat="44.1675039" lon="10.3608594"><ele>745.0</ele><time>2026-04-08T08:12:52.974Z</time></trkpt><trkpt lat="44.1674163" lon="10.3609028"><ele>745.0</ele><time>2026-04-08T08:12:54.978Z</time></trkpt><trkpt lat="44.1673296" lon="10.3609452"><ele>745.0</ele><time>2026-04-08T08:12:56.958Z</time></trkpt><trkpt lat="44.1672502" lon="10.3609648"><ele>740.6666666666667</ele><time>2026-04-08T08:12:58.953Z</time></trkpt><trkpt lat="44.1671631" lon="10.3609962"><ele>736.3333333333334</ele><time>2026-04-08T08:13:01.959Z</time></trkpt><trkpt lat="44.1671039" lon="10.3610683"><ele>732.0</ele><time>2026-04-08T08:13:04.962Z</time></trkpt><trkpt lat="44.1670919" lon="10.3611797"><ele>727.6666666666666</ele><time>2026-04-08T08:13:06.964Z</time></trkpt><trkpt lat="44.1670949" lon="10.3613085"><ele>723.3333333333333</ele><time>2026-04-08T08:13:08.966Z</time></trkpt><trkpt lat="44.1671627" lon="10.361424"><ele>719.0</ele><time>2026-04-08T08:13:10.954Z</time></trkpt><trkpt lat="44.1672137" lon="10.3615235"><ele>719.0</ele><time>2026-04-08T08:13:13.963Z</time></trkpt><trkpt lat="44.1672254" lon="10.3616517"><ele>719.0</ele><time>2026-04-08T08:13:16.967Z</time></trkpt><trkpt lat="44.167247" lon="10.3617669"><ele>719.0</ele><time>2026-04-08T08:13:18.959Z</time></trkpt><trkpt lat="44.1673235" lon="10.3618249"><ele>719.0</ele><time>2026-04-08T08:13:22.959Z</time></trkpt><trkpt lat="44.1673507" lon="10.3619145"><ele>719.0</ele><time>2026-04-08T08:13:25.952Z</time></trkpt><trkpt lat="44.1673174" lon="10.362007"><ele>719.0</ele><time>2026-04-08T08:13:30.965Z</time></trkpt><trkpt lat="44.1672805" lon="10.3621084"><ele>718.8333333333333</ele><time>2026-04-08T08:13:33.954Z</time></trkpt><trkpt lat="44.1672271" lon="10.3622076"><ele>718.6666666666666</ele><time>2026-04-08T08:13:35.971Z</time></trkpt><trkpt lat="44.1672207" lon="10.3623066"><ele>718.5</ele><time>2026-04-08T08:13:38.964Z</time></trkpt><trkpt lat="44.1671892" lon="10.3624013"><ele>718.3333333333334</ele><time>2026-04-08T08:13:42.95Z</time></trkpt><trkpt lat="44.1671339" lon="10.3624725"><ele>718.1666666666667</ele><time>2026-04-08T08:13:44.955Z</time></trkpt><trkpt lat="44.1670739" lon="10.3625461"><ele>718.0</ele><time>2026-04-08T08:13:46.957Z</time></trkpt><trkpt lat="44.1669997" lon="10.3626014"><ele>718.0</ele><time>2026-04-08T08:13:49.962Z</time></trkpt><trkpt lat="44.1669737" lon="10.3626832"><ele>718.0</ele><time>2026-04-08T08:13:52.958Z</time></trkpt><trkpt lat="44.1669301" lon="10.3627733"><ele>718.0</ele><time>2026-04-08T08:13:56.968Z</time></trkpt><trkpt lat="44.1668631" lon="10.3628219"><ele>718.0</ele><time>2026-04-08T08:13:58.957Z</time></trkpt><trkpt lat="44.1667859" lon="10.3628953"><ele>718.0</ele><time>2026-04-08T08:14:00.963Z</time></trkpt><trkpt lat="44.1667129" lon="10.3629179"><ele>718.0</ele><time>2026-04-08T08:14:04.957Z</time></trkpt><trkpt lat="44.166634" lon="10.3629605"><ele>719.0</ele><time>2026-04-08T08:14:07.969Z</time></trkpt><trkpt lat="44.1665987" lon="10.3630425"><ele>720.0</ele><time>2026-04-08T08:14:09.967Z</time></trkpt><trkpt lat="44.1665431" lon="10.3631346"><ele>721.0</ele><time>2026-04-08T08:14:12.952Z</time></trkpt><trkpt lat="44.1664604" lon="10.3631646"><ele>722.0</ele><time>2026-04-08T08:14:16.961Z</time></trkpt><trkpt lat="44.1664126" lon="10.3632382"><ele>723.0</ele><time>2026-04-08T08:14:19.963Z</time></trkpt><trkpt lat="44.1663519" lon="10.3633189"><ele>724.0</ele><time>2026-04-08T08:14:22.955Z</time></trkpt><trkpt lat="44.1662796" lon="10.3633707"><ele>720.7142857142857</ele><time>2026-04-08T08:14:26.954Z</time></trkpt><trkpt lat="44.1662071" lon="10.3633899"><ele>717.4285714285713</ele><time>2026-04-08T08:14:29.997Z</time></trkpt><trkpt lat="44.1661352" lon="10.3634032"><ele>714.1428571428571</ele><time>2026-04-08T08:14:32.964Z</time></trkpt><trkpt lat="44.1661073" lon="10.3634868"><ele>710.8571428571429</ele><time>2026-04-08T08:14:34.953Z</time></trkpt><trkpt lat="44.1661014" lon="10.3636087"><ele>707.5714285714286</ele><time>2026-04-08T08:14:36.951Z</time></trkpt><trkpt lat="44.1661176" lon="10.3637138"><ele>704.2857142857143</ele><time>2026-04-08T08:14:37.953Z</time></trkpt><trkpt lat="44.1661314" lon="10.3638057"><ele>701.0</ele><time>2026-04-08T08:14:38.969Z</time></trkpt><trkpt lat="44.166116" lon="10.3639"><ele>700.6666666666666</ele><time>2026-04-08T08:14:39.952Z</time></trkpt><trkpt lat="44.1661015" lon="10.3639861"><ele>700.3333333333333</ele><time>2026-04-08T08:14:40.954Z</time></trkpt><trkpt lat="44.1660845" lon="10.3641192"><ele>700.0</ele><time>2026-04-08T08:14:42.965Z</time></trkpt><trkpt lat="44.1660714" lon="10.3642415"><ele>699.6666666666666</ele><time>2026-04-08T08:14:45.955Z</time></trkpt><trkpt lat="44.1660705" lon="10.3643309"><ele>699.3333333333334</ele><time>2026-04-08T08:14:47.979Z</time></trkpt><trkpt lat="44.1660687" lon="10.3644273"><ele>699.0</ele><time>2026-04-08T08:14:50.967Z</time></trkpt><trkpt lat="44.1660803" lon="10.3645386"><ele>699.0</ele><time>2026-04-08T08:14:53.956Z</time></trkpt><trkpt lat="44.1661237" lon="10.364619"><ele>699.0</ele><time>2026-04-08T08:14:57.967Z</time></trkpt><trkpt lat="44.1661512" lon="10.364701"><ele>699.0</ele><time>2026-04-08T08:15:01.953Z</time></trkpt><trkpt lat="44.1661334" lon="10.3648378"><ele>699.0</ele><time>2026-04-08T08:15:04.964Z</time></trkpt><trkpt lat="44.1661302" lon="10.3649455"><ele>699.0</ele><time>2026-04-08T08:15:06.959Z</time></trkpt><trkpt lat="44.1661447" lon="10.365051"><ele>699.0</ele><time>2026-04-08T08:15:08.968Z</time></trkpt><trkpt lat="44.1661775" lon="10.3651345"><ele>698.4000000000001</ele><time>2026-04-08T08:15:10.967Z</time></trkpt><trkpt lat="44.16617" lon="10.3652483"><ele>697.8</ele><time>2026-04-08T08:15:14.953Z</time></trkpt><trkpt lat="44.1661535" lon="10.3653387"><ele>697.2</ele><time>2026-04-08T08:15:17.952Z</time></trkpt><trkpt lat="44.1661308" lon="10.3654646"><ele>696.5999999999999</ele><time>2026-04-08T08:15:20.945Z</time></trkpt><trkpt lat="44.166091" lon="10.3655707"><ele>696.0</ele><time>2026-04-08T08:15:21.945Z</time></trkpt><trkpt lat="44.1660422" lon="10.3657516"><ele>695.6666666666666</ele><time>2026-04-08T08:15:23.948Z</time></trkpt><trkpt lat="44.1659724" lon="10.3659105"><ele>695.3333333333334</ele><time>2026-04-08T08:15:25.956Z</time></trkpt><trkpt lat="44.1659327" lon="10.3660292"><ele>695.0</ele><time>2026-04-08T08:15:27.949Z</time></trkpt><trkpt lat="44.1659319" lon="10.3661205"><ele>694.6666666666667</ele><time>2026-04-08T08:15:31.955Z</time></trkpt><trkpt lat="44.1658777" lon="10.3661913"><ele>694.3333333333334</ele><time>2026-04-08T08:15:36.966Z</time></trkpt><trkpt lat="44.1658066" lon="10.3662288"><ele>694.0</ele><time>2026-04-08T08:15:39.954Z</time></trkpt><trkpt lat="44.1658027" lon="10.3661217"><ele>694.0</ele><time>2026-04-08T08:15:43.947Z</time></trkpt><trkpt lat="44.1658243" lon="10.3660387"><ele>694.0</ele><time>2026-04-08T08:15:45.96Z</time></trkpt><trkpt lat="44.1658311" lon="10.3658979"><ele>694.0</ele><time>2026-04-08T08:15:47.958Z</time></trkpt><trkpt lat="44.1658221" lon="10.3657541"><ele>694.0</ele><time>2026-04-08T08:15:49.964Z</time></trkpt><trkpt lat="44.1658071" lon="10.3656029"><ele>694.0</ele><time>2026-04-08T08:15:51.953Z</time></trkpt><trkpt lat="44.1657727" lon="10.3654551"><ele>690.6</ele><time>2026-04-08T08:15:53.96Z</time></trkpt><trkpt lat="44.1656948" lon="10.3653324"><ele>687.2</ele><time>2026-04-08T08:15:55.958Z</time></trkpt><trkpt lat="44.1656153" lon="10.3652073"><ele>683.8000000000001</ele><time>2026-04-08T08:15:57.952Z</time></trkpt><trkpt lat="44.165563" lon="10.3651386"><ele>680.4000000000001</ele><time>2026-04-08T08:15:58.954Z</time></trkpt><trkpt lat="44.165473" lon="10.3650358"><ele>677.0</ele><time>2026-04-08T08:16:00.952Z</time></trkpt><trkpt lat="44.1653568" lon="10.365006"><ele>677.0</ele><time>2026-04-08T08:16:02.964Z</time></trkpt><trkpt lat="44.1652335" lon="10.3650262"><ele>677.0</ele><time>2026-04-08T08:16:04.957Z</time></trkpt><trkpt lat="44.1651677" lon="10.3650354"><ele>677.0</ele><time>2026-04-08T08:16:05.951Z</time></trkpt><trkpt lat="44.165075" lon="10.3650643"><ele>677.0</ele><time>2026-04-08T08:16:07.96Z</time></trkpt><trkpt lat="44.1649834" lon="10.3650369"><ele>677.0</ele><time>2026-04-08T08:16:09.951Z</time></trkpt><trkpt lat="44.1649262" lon="10.3649437"><ele>677.0</ele><time>2026-04-08T08:16:11.961Z</time></trkpt><trkpt lat="44.1649004" lon="10.3648126"><ele>677.0</ele><time>2026-04-08T08:16:13.955Z</time></trkpt><trkpt lat="44.1649131" lon="10.3646829"><ele>677.0</ele><time>2026-04-08T08:16:15.952Z</time></trkpt><trkpt lat="44.164968" lon="10.3645442"><ele>677.0</ele><time>2026-04-08T08:16:17.959Z</time></trkpt><trkpt lat="44.1650082" lon="10.3644613"><ele>677.0</ele><time>2026-04-08T08:16:18.987Z</time></trkpt><trkpt lat="44.1650348" lon="10.36437"><ele>677.0</ele><time>2026-04-08T08:16:19.95Z</time></trkpt><trkpt lat="44.1650481" lon="10.364272"><ele>677.0</ele><time>2026-04-08T08:16:20.958Z</time></trkpt><trkpt lat="44.1650496" lon="10.3641648"><ele>677.0</ele><time>2026-04-08T08:16:21.954Z</time></trkpt><trkpt lat="44.1650506" lon="10.3640586"><ele>677.0</ele><time>2026-04-08T08:16:22.962Z</time></trkpt><trkpt lat="44.1650239" lon="10.3639378"><ele>677.0</ele><time>2026-04-08T08:16:23.959Z</time></trkpt><trkpt lat="44.1650133" lon="10.3638274"><ele>677.0</ele><time>2026-04-08T08:16:24.974Z</time></trkpt><trkpt lat="44.1650008" lon="10.3637077"><ele>677.0</ele><time>2026-04-08T08:16:25.957Z</time></trkpt><trkpt lat="44.1649872" lon="10.3636088"><ele>676.4000000000001</ele><time>2026-04-08T08:16:26.957Z</time></trkpt><trkpt lat="44.1649747" lon="10.3634362"><ele>675.8000000000001</ele><time>2026-04-08T08:16:28.968Z</time></trkpt><trkpt lat="44.1649788" lon="10.3633368"><ele>675.2</ele><time>2026-04-08T08:16:29.973Z</time></trkpt><trkpt lat="44.1650295" lon="10.3631697"><ele>674.6</ele><time>2026-04-08T08:16:31.962Z</time></trkpt><trkpt lat="44.1650601" lon="10.3630821"><ele>674.0</ele><time>2026-04-08T08:16:32.958Z</time></trkpt><trkpt lat="44.1650782" lon="10.3629903"><ele>673.3333333333333</ele><time>2026-04-08T08:16:33.962Z</time></trkpt><trkpt lat="44.1651077" lon="10.3629002"><ele>672.6666666666666</ele><time>2026-04-08T08:16:34.962Z</time></trkpt><trkpt lat="44.165139" lon="10.3628227"><ele>672.0</ele><time>2026-04-08T08:16:35.964Z</time></trkpt><trkpt lat="44.1651799" lon="10.3627466"><ele>671.3333333333334</ele><time>2026-04-08T08:16:36.95Z</time></trkpt><trkpt lat="44.1652236" lon="10.3626037"><ele>670.6666666666667</ele><time>2026-04-08T08:16:38.961Z</time></trkpt><trkpt lat="44.1652013" lon="10.3624716"><ele>670.0</ele><time>2026-04-08T08:16:40.965Z</time></trkpt><trkpt lat="44.1651252" lon="10.3623918"><ele>670.0</ele><time>2026-04-08T08:16:42.965Z</time></trkpt><trkpt lat="44.1650376" lon="10.3623694"><ele>670.0</ele><time>2026-04-08T08:16:44.957Z</time></trkpt><trkpt lat="44.164949" lon="10.3623123"><ele>670.0</ele><time>2026-04-08T08:16:46.96Z</time></trkpt><trkpt lat="44.1648854" lon="10.362186"><ele>670.0</ele><time>2026-04-08T08:16:48.964Z</time></trkpt><trkpt lat="44.1648664" lon="10.3620145"><ele>670.0</ele><time>2026-04-08T08:16:50.967Z</time></trkpt><trkpt lat="44.1648481" lon="10.3619305"><ele>669.4285714285713</ele><time>2026-04-08T08:16:51.973Z</time></trkpt><trkpt lat="44.1648417" lon="10.3618353"><ele>668.8571428571429</ele><time>2026-04-08T08:16:52.96Z</time></trkpt><trkpt lat="44.1648439" lon="10.3617398"><ele>668.2857142857142</ele><time>2026-04-08T08:16:53.964Z</time></trkpt><trkpt lat="44.1648716" lon="10.3616307"><ele>667.7142857142857</ele><time>2026-04-08T08:16:54.966Z</time></trkpt><trkpt lat="44.1648852" lon="10.3615255"><ele>667.1428571428571</ele><time>2026-04-08T08:16:55.964Z</time></trkpt><trkpt lat="44.1649043" lon="10.3614255"><ele>666.5714285714286</ele><time>2026-04-08T08:16:56.972Z</time></trkpt><trkpt lat="44.1649183" lon="10.3613342"><ele>666.0</ele><time>2026-04-08T08:16:57.961Z</time></trkpt><trkpt lat="44.164995" lon="10.3611862"><ele>662.8333333333334</ele><time>2026-04-08T08:16:59.965Z</time></trkpt><trkpt lat="44.1650386" lon="10.3611124"><ele>659.6666666666666</ele><time>2026-04-08T08:17:00.96Z</time></trkpt><trkpt lat="44.165093" lon="10.3609715"><ele>656.5</ele><time>2026-04-08T08:17:02.961Z</time></trkpt><trkpt lat="44.1651036" lon="10.3608805"><ele>653.3333333333333</ele><time>2026-04-08T08:17:03.965Z</time></trkpt><trkpt lat="44.1651102" lon="10.3607876"><ele>650.1666666666666</ele><time>2026-04-08T08:17:04.963Z</time></trkpt><trkpt lat="44.1651304" lon="10.3607025"><ele>647.0</ele><time>2026-04-08T08:17:05.962Z</time></trkpt><trkpt lat="44.165201" lon="10.3605978"><ele>644.1666666666666</ele><time>2026-04-08T08:17:07.979Z</time></trkpt><trkpt lat="44.165293" lon="10.3605226"><ele>641.3333333333333</ele><time>2026-04-08T08:17:09.969Z</time></trkpt><trkpt lat="44.1653661" lon="10.3604146"><ele>638.5</ele><time>2026-04-08T08:17:11.972Z</time></trkpt><trkpt lat="44.1653979" lon="10.3603381"><ele>635.6666666666666</ele><time>2026-04-08T08:17:12.962Z</time></trkpt><trkpt lat="44.1654292" lon="10.3602594"><ele>632.8333333333334</ele><time>2026-04-08T08:17:13.969Z</time></trkpt><trkpt lat="44.1654406" lon="10.3601458"><ele>630.0</ele><time>2026-04-08T08:17:14.979Z</time></trkpt><trkpt lat="44.1654581" lon="10.3600584"><ele>630.0</ele><time>2026-04-08T08:17:15.955Z</time></trkpt><trkpt lat="44.1654531" lon="10.359965"><ele>630.0</ele><time>2026-04-08T08:17:16.96Z</time></trkpt><trkpt lat="44.1654499" lon="10.3598621"><ele>630.0</ele><time>2026-04-08T08:17:17.957Z</time></trkpt><trkpt lat="44.1654513" lon="10.3597619"><ele>630.0</ele><time>2026-04-08T08:17:18.97Z</time></trkpt><trkpt lat="44.1654618" lon="10.3596103"><ele>630.0</ele><time>2026-04-08T08:17:20.964Z</time></trkpt><trkpt lat="44.1654378" lon="10.3594922"><ele>630.0</ele><time>2026-04-08T08:17:22.956Z</time></trkpt><trkpt lat="44.1653766" lon="10.3594633"><ele>630.0</ele><time>2026-04-08T08:17:24.976Z</time></trkpt><trkpt lat="44.1653249" lon="10.3595387"><ele>630.0</ele><time>2026-04-08T08:17:26.96Z</time></trkpt><trkpt lat="44.1653156" lon="10.3596552"><ele>630.0</ele><time>2026-04-08T08:17:28.958Z</time></trkpt><trkpt lat="44.1653078" lon="10.3598001"><ele>630.0</ele><time>2026-04-08T08:17:30.962Z</time></trkpt><trkpt lat="44.1652688" lon="10.3598894"><ele>630.0</ele><time>2026-04-08T08:17:31.954Z</time></trkpt><trkpt lat="44.1652423" lon="10.3599717"><ele>630.0</ele><time>2026-04-08T08:17:32.956Z</time></trkpt><trkpt lat="44.1652072" lon="10.3600483"><ele>630.0</ele><time>2026-04-08T08:17:33.962Z</time></trkpt><trkpt lat="44.1651662" lon="10.3601184"><ele>630.0</ele><time>2026-04-08T08:17:34.967Z</time></trkpt><trkpt lat="44.1651183" lon="10.3601783"><ele>630.0</ele><time>2026-04-08T08:17:35.96Z</time></trkpt><trkpt lat="44.1650384" lon="10.3603087"><ele>630.0</ele><time>2026-04-08T08:17:37.956Z</time></trkpt><trkpt lat="44.1649669" lon="10.3604356"><ele>630.0</ele><time>2026-04-08T08:17:39.959Z</time></trkpt><trkpt lat="44.1648861" lon="10.3605393"><ele>627.1666666666666</ele><time>2026-04-08T08:17:41.96Z</time></trkpt><trkpt lat="44.1648213" lon="10.3606412"><ele>624.3333333333334</ele><time>2026-04-08T08:17:43.963Z</time></trkpt><trkpt lat="44.1647894" lon="10.3607189"><ele>621.5</ele><time>2026-04-08T08:17:44.972Z</time></trkpt><trkpt lat="44.1647042" lon="10.3608509"><ele>618.6666666666667</ele><time>2026-04-08T08:17:46.961Z</time></trkpt><trkpt lat="44.1646652" lon="10.3609312"><ele>615.8333333333334</ele><time>2026-04-08T08:17:47.958Z</time></trkpt><trkpt lat="44.1646146" lon="10.3609984"><ele>613.0</ele><time>2026-04-08T08:17:48.963Z</time></trkpt><trkpt lat="44.1645514" lon="10.3610543"><ele>613.0</ele><time>2026-04-08T08:17:49.955Z</time></trkpt><trkpt lat="44.1644892" lon="10.3611096"><ele>613.0</ele><time>2026-04-08T08:17:50.958Z</time></trkpt><trkpt lat="44.1644313" lon="10.361154"><ele>613.0</ele><time>2026-04-08T08:17:51.953Z</time></trkpt><trkpt lat="44.1643736" lon="10.3611958"><ele>613.0</ele><time>2026-04-08T08:17:52.958Z</time></trkpt><trkpt lat="44.1642602" lon="10.3612588"><ele>613.0</ele><time>2026-04-08T08:17:54.963Z</time></trkpt><trkpt lat="44.164161" lon="10.3613215"><ele>613.0</ele><time>2026-04-08T08:17:56.955Z</time></trkpt><trkpt lat="44.1640617" lon="10.3613838"><ele>611.1999999999999</ele><time>2026-04-08T08:17:58.951Z</time></trkpt><trkpt lat="44.1639794" lon="10.3614984"><ele>609.4</ele><time>2026-04-08T08:18:00.954Z</time></trkpt><trkpt lat="44.1639474" lon="10.3615743"><ele>607.5999999999999</ele><time>2026-04-08T08:18:01.972Z</time></trkpt><trkpt lat="44.1639146" lon="10.3617379"><ele>605.8</ele><time>2026-04-08T08:18:03.962Z</time></trkpt><trkpt lat="44.1639062" lon="10.3618903"><ele>604.0</ele><time>2026-04-08T08:18:05.962Z</time></trkpt><trkpt lat="44.1639091" lon="10.3619793"><ele>604.0</ele><time>2026-04-08T08:18:06.956Z</time></trkpt><trkpt lat="44.1638954" lon="10.3621497"><ele>604.0</ele><time>2026-04-08T08:18:08.968Z</time></trkpt><trkpt lat="44.1638757" lon="10.3622874"><ele>604.0</ele><time>2026-04-08T08:18:10.962Z</time></trkpt><trkpt lat="44.1638293" lon="10.3623847"><ele>604.0</ele><time>2026-04-08T08:18:12.956Z</time></trkpt><trkpt lat="44.1637524" lon="10.3624151"><ele>604.0</ele><time>2026-04-08T08:18:14.967Z</time></trkpt><trkpt lat="44.1637005" lon="10.3623496"><ele>604.0</ele><time>2026-04-08T08:18:16.952Z</time></trkpt><trkpt lat="44.1636755" lon="10.3622216"><ele>604.0</ele><time>2026-04-08T08:18:18.97Z</time></trkpt><trkpt lat="44.1636253" lon="10.362104"><ele>604.0</ele><time>2026-04-08T08:18:20.954Z</time></trkpt><trkpt lat="44.1635562" lon="10.3620128"><ele>604.0</ele><time>2026-04-08T08:18:22.957Z</time></trkpt><trkpt lat="44.1635054" lon="10.3618971"><ele>604.0</ele><time>2026-04-08T08:18:24.964Z</time></trkpt><trkpt lat="44.1635208" lon="10.3618044"><ele>604.0</ele><time>2026-04-08T08:18:26.951Z</time></trkpt><trkpt lat="44.1635168" lon="10.361677"><ele>604.0</ele><time>2026-04-08T08:18:28.948Z</time></trkpt><trkpt lat="44.1634545" lon="10.3615884"><ele>604.0</ele><time>2026-04-08T08:18:30.956Z</time></trkpt><trkpt lat="44.1633907" lon="10.3616127"><ele>604.0</ele><time>2026-04-08T08:18:32.957Z</time></trkpt><trkpt lat="44.1633595" lon="10.3617511"><ele>604.0</ele><time>2026-04-08T08:18:34.964Z</time></trkpt><trkpt lat="44.1633451" lon="10.3618858"><ele>604.0</ele><time>2026-04-08T08:18:36.951Z</time></trkpt><trkpt lat="44.1632757" lon="10.3619182"><ele>604.0</ele><time>2026-04-08T08:18:38.959Z</time></trkpt><trkpt lat="44.163214" lon="10.3618749"><ele>604.0</ele><time>2026-04-08T08:18:40.947Z</time></trkpt><trkpt lat="44.1631974" lon="10.3617633"><ele>604.0</ele><time>2026-04-08T08:18:42.951Z</time></trkpt><trkpt lat="44.1631802" lon="10.3616065"><ele>604.0</ele><time>2026-04-08T08:18:44.961Z</time></trkpt><trkpt lat="44.163142" lon="10.3614551"><ele>604.0</ele><time>2026-04-08T08:18:46.957Z</time></trkpt><trkpt lat="44.1630901" lon="10.3613473"><ele>600.0</ele><time>2026-04-08T08:18:48.954Z</time></trkpt><trkpt lat="44.1630837" lon="10.3612194"><ele>596.0</ele><time>2026-04-08T08:18:50.949Z</time></trkpt><trkpt lat="44.1631416" lon="10.3610859"><ele>592.0</ele><time>2026-04-08T08:18:52.97Z</time></trkpt><trkpt lat="44.1631921" lon="10.3610191"><ele>588.0</ele><time>2026-04-08T08:18:53.961Z</time></trkpt><trkpt lat="44.1632532" lon="10.3609598"><ele>584.0</ele><time>2026-04-08T08:18:54.953Z</time></trkpt><trkpt lat="44.1633659" lon="10.360906"><ele>584.0</ele><time>2026-04-08T08:18:56.959Z</time></trkpt><trkpt lat="44.1634233" lon="10.3608595"><ele>584.0</ele><time>2026-04-08T08:18:57.951Z</time></trkpt><trkpt lat="44.1634983" lon="10.3608127"><ele>584.0</ele><time>2026-04-08T08:18:58.967Z</time></trkpt><trkpt lat="44.1635698" lon="10.3607677"><ele>584.0</ele><time>2026-04-08T08:18:59.96Z</time></trkpt><trkpt lat="44.1636369" lon="10.3607135"><ele>584.0</ele><time>2026-04-08T08:19:00.963Z</time></trkpt><trkpt lat="44.1637013" lon="10.3606169"><ele>584.0</ele><time>2026-04-08T08:19:01.962Z</time></trkpt><trkpt lat="44.1637573" lon="10.3605214"><ele>580.5</ele><time>2026-04-08T08:19:02.956Z</time></trkpt><trkpt lat="44.1638132" lon="10.3604356"><ele>577.0</ele><time>2026-04-08T08:19:03.959Z</time></trkpt><trkpt lat="44.1638632" lon="10.3603462"><ele>573.5</ele><time>2026-04-08T08:19:04.969Z</time></trkpt><trkpt lat="44.1639101" lon="10.3602658"><ele>570.0</ele><time>2026-04-08T08:19:05.955Z</time></trkpt><trkpt lat="44.1639448" lon="10.360184"><ele>566.5</ele><time>2026-04-08T08:19:06.959Z</time></trkpt><trkpt lat="44.1639633" lon="10.3600258"><ele>563.0</ele><time>2026-04-08T08:19:08.974Z</time></trkpt><trkpt lat="44.1639478" lon="10.3599336"><ele>563.0</ele><time>2026-04-08T08:19:09.964Z</time></trkpt><trkpt lat="44.16391" lon="10.3597685"><ele>563.0</ele><time>2026-04-08T08:19:11.965Z</time></trkpt><trkpt lat="44.1639168" lon="10.3596792"><ele>563.0</ele><time>2026-04-08T08:19:12.971Z</time></trkpt><trkpt lat="44.1639326" lon="10.3595866"><ele>563.0</ele><time>2026-04-08T08:19:13.954Z</time></trkpt><trkpt lat="44.1639549" lon="10.3594821"><ele>563.0</ele><time>2026-04-08T08:19:14.972Z</time></trkpt><trkpt lat="44.1639822" lon="10.3593674"><ele>563.0</ele><time>2026-04-08T08:19:15.96Z</time></trkpt><trkpt lat="44.1639977" lon="10.3592526"><ele>563.8333333333333</ele><time>2026-04-08T08:19:16.952Z</time></trkpt><trkpt lat="44.1640122" lon="10.3591416"><ele>564.6666666666666</ele><time>2026-04-08T08:19:17.96Z</time></trkpt><trkpt lat="44.1640279" lon="10.3590319"><ele>565.5</ele><time>2026-04-08T08:19:18.963Z</time></trkpt><trkpt lat="44.1640485" lon="10.3589281"><ele>566.3333333333334</ele><time>2026-04-08T08:19:19.972Z</time></trkpt><trkpt lat="44.1640619" lon="10.3588184"><ele>567.1666666666667</ele><time>2026-04-08T08:19:20.965Z</time></trkpt><trkpt lat="44.1640882" lon="10.3587114"><ele>568.0</ele><time>2026-04-08T08:19:21.963Z</time></trkpt><trkpt lat="44.1641099" lon="10.3586083"><ele>568.0</ele><time>2026-04-08T08:19:22.959Z</time></trkpt><trkpt lat="44.1641346" lon="10.3585172"><ele>568.0</ele><time>2026-04-08T08:19:23.969Z</time></trkpt><trkpt lat="44.164157" lon="10.3584257"><ele>568.0</ele><time>2026-04-08T08:19:24.963Z</time></trkpt><trkpt lat="44.1641601" lon="10.3582433"><ele>568.0</ele><time>2026-04-08T08:19:26.971Z</time></trkpt><trkpt lat="44.1641687" lon="10.3581539"><ele>568.0</ele><time>2026-04-08T08:19:27.956Z</time></trkpt><trkpt lat="44.1641756" lon="10.3580377"><ele>568.0</ele><time>2026-04-08T08:19:28.965Z</time></trkpt><trkpt lat="44.1641894" lon="10.3579213"><ele>566.8333333333334</ele><time>2026-04-08T08:19:29.967Z</time></trkpt><trkpt lat="44.1642027" lon="10.3578001"><ele>565.6666666666667</ele><time>2026-04-08T08:19:30.965Z</time></trkpt><trkpt lat="44.1642167" lon="10.3576851"><ele>564.5</ele><time>2026-04-08T08:19:31.968Z</time></trkpt><trkpt lat="44.1642351" lon="10.3575932"><ele>563.3333333333334</ele><time>2026-04-08T08:19:32.958Z</time></trkpt><trkpt lat="44.1642337" lon="10.3574927"><ele>562.1666666666666</ele><time>2026-04-08T08:19:33.957Z</time></trkpt><trkpt lat="44.1642147" lon="10.357402"><ele>561.0</ele><time>2026-04-08T08:19:34.965Z</time></trkpt><trkpt lat="44.16418" lon="10.3573159"><ele>561.0</ele><time>2026-04-08T08:19:35.978Z</time></trkpt><trkpt lat="44.1641296" lon="10.3572463"><ele>561.0</ele><time>2026-04-08T08:19:36.955Z</time></trkpt><trkpt lat="44.1640762" lon="10.3571906"><ele>561.0</ele><time>2026-04-08T08:19:37.96Z</time></trkpt><trkpt lat="44.1640057" lon="10.3570927"><ele>561.0</ele><time>2026-04-08T08:19:39.955Z</time></trkpt><trkpt lat="44.163979" lon="10.3569962"><ele>561.0</ele><time>2026-04-08T08:19:41.957Z</time></trkpt><trkpt lat="44.1640188" lon="10.3569076"><ele>561.0</ele><time>2026-04-08T08:19:43.976Z</time></trkpt><trkpt lat="44.1641002" lon="10.3568287"><ele>558.6666666666666</ele><time>2026-04-08T08:19:45.969Z</time></trkpt><trkpt lat="44.1642002" lon="10.3567371"><ele>556.3333333333334</ele><time>2026-04-08T08:19:47.954Z</time></trkpt><trkpt lat="44.1642568" lon="10.356686"><ele>554.0</ele><time>2026-04-08T08:19:48.953Z</time></trkpt><trkpt lat="44.1643168" lon="10.3566259"><ele>551.6666666666667</ele><time>2026-04-08T08:19:49.953Z</time></trkpt><trkpt lat="44.1643816" lon="10.3565671"><ele>549.3333333333334</ele><time>2026-04-08T08:19:50.973Z</time></trkpt><trkpt lat="44.1644473" lon="10.356495"><ele>547.0</ele><time>2026-04-08T08:19:51.963Z</time></trkpt><trkpt lat="44.1645173" lon="10.3564316"><ele>547.0</ele><time>2026-04-08T08:19:52.959Z</time></trkpt><trkpt lat="44.1645775" lon="10.3563762"><ele>547.0</ele><time>2026-04-08T08:19:53.978Z</time></trkpt><trkpt lat="44.1646332" lon="10.3563276"><ele>547.0</ele><time>2026-04-08T08:19:54.953Z</time></trkpt><trkpt lat="44.1646888" lon="10.3562819"><ele>547.0</ele><time>2026-04-08T08:19:55.959Z</time></trkpt><trkpt lat="44.164774" lon="10.3561919"><ele>547.0</ele><time>2026-04-08T08:19:57.954Z</time></trkpt><trkpt lat="44.1647899" lon="10.3560945"><ele>547.0</ele><time>2026-04-08T08:19:59.954Z</time></trkpt><trkpt lat="44.164724" lon="10.35603"><ele>544.0</ele><time>2026-04-08T08:20:01.954Z</time></trkpt><trkpt lat="44.1646606" lon="10.3560566"><ele>541.0</ele><time>2026-04-08T08:20:03.954Z</time></trkpt><trkpt lat="44.1645858" lon="10.3561034"><ele>538.0</ele><time>2026-04-08T08:20:05.948Z</time></trkpt><trkpt lat="44.1644775" lon="10.3561577"><ele>535.0</ele><time>2026-04-08T08:20:07.958Z</time></trkpt><trkpt lat="44.1644188" lon="10.3561908"><ele>532.0</ele><time>2026-04-08T08:20:08.965Z</time></trkpt><trkpt lat="44.1643516" lon="10.3562165"><ele>529.0</ele><time>2026-04-08T08:20:09.957Z</time></trkpt><trkpt lat="44.1642738" lon="10.3562479"><ele>529.0</ele><time>2026-04-08T08:20:10.965Z</time></trkpt><trkpt lat="44.1641948" lon="10.3562752"><ele>529.0</ele><time>2026-04-08T08:20:11.959Z</time></trkpt><trkpt lat="44.1641195" lon="10.3562914"><ele>529.0</ele><time>2026-04-08T08:20:12.963Z</time></trkpt><trkpt lat="44.16405" lon="10.3562885"><ele>529.0</ele><time>2026-04-08T08:20:13.977Z</time></trkpt><trkpt lat="44.1639479" lon="10.3562069"><ele>529.0</ele><time>2026-04-08T08:20:15.965Z</time></trkpt><trkpt lat="44.163911" lon="10.35613"><ele>529.0</ele><time>2026-04-08T08:20:16.959Z</time></trkpt><trkpt lat="44.1638762" lon="10.356048"><ele>529.0</ele><time>2026-04-08T08:20:17.966Z</time></trkpt><trkpt lat="44.1638462" lon="10.3559577"><ele>529.0</ele><time>2026-04-08T08:20:18.964Z</time></trkpt><trkpt lat="44.1638435" lon="10.3558626"><ele>529.0</ele><time>2026-04-08T08:20:19.96Z</time></trkpt><trkpt lat="44.1638663" lon="10.3557763"><ele>529.0</ele><time>2026-04-08T08:20:20.959Z</time></trkpt><trkpt lat="44.1639162" lon="10.3556971"><ele>529.0</ele><time>2026-04-08T08:20:21.958Z</time></trkpt><trkpt lat="44.163982" lon="10.3556311"><ele>529.0</ele><time>2026-04-08T08:20:22.959Z</time></trkpt><trkpt lat="44.1640543" lon="10.3555623"><ele>526.3333333333334</ele><time>2026-04-08T08:20:23.961Z</time></trkpt><trkpt lat="44.1641278" lon="10.355492"><ele>523.6666666666667</ele><time>2026-04-08T08:20:24.953Z</time></trkpt><trkpt lat="44.1641814" lon="10.3553964"><ele>521.0</ele><time>2026-04-08T08:20:25.962Z</time></trkpt><trkpt lat="44.1642238" lon="10.355291"><ele>518.3333333333334</ele><time>2026-04-08T08:20:26.969Z</time></trkpt><trkpt lat="44.164254" lon="10.3551934"><ele>515.6666666666666</ele><time>2026-04-08T08:20:27.953Z</time></trkpt><trkpt lat="44.1642728" lon="10.3551004"><ele>513.0</ele><time>2026-04-08T08:20:28.959Z</time></trkpt><trkpt lat="44.1642963" lon="10.3549906"><ele>513.0</ele><time>2026-04-08T08:20:29.953Z</time></trkpt><trkpt lat="44.1643271" lon="10.3548752"><ele>513.0</ele><time>2026-04-08T08:20:30.954Z</time></trkpt><trkpt lat="44.1643575" lon="10.3547705"><ele>513.0</ele><time>2026-04-08T08:20:31.963Z</time></trkpt><trkpt lat="44.1643971" lon="10.3546884"><ele>513.0</ele><time>2026-04-08T08:20:32.966Z</time></trkpt><trkpt lat="44.1644442" lon="10.3546207"><ele>513.0</ele><time>2026-04-08T08:20:33.955Z</time></trkpt><trkpt lat="44.1645174" lon="10.354595"><ele>513.0</ele><time>2026-04-08T08:20:34.972Z</time></trkpt><trkpt lat="44.1645936" lon="10.3545754"><ele>513.0</ele><time>2026-04-08T08:20:35.963Z</time></trkpt><trkpt lat="44.1646731" lon="10.3545462"><ele>513.0</ele><time>2026-04-08T08:20:36.958Z</time></trkpt><trkpt lat="44.164747" lon="10.3545015"><ele>513.0</ele><time>2026-04-08T08:20:37.954Z</time></trkpt><trkpt lat="44.1647982" lon="10.3544402"><ele>513.0</ele><time>2026-04-08T08:20:38.956Z</time></trkpt><trkpt lat="44.1648435" lon="10.3543648"><ele>513.0</ele><time>2026-04-08T08:20:39.956Z</time></trkpt><trkpt lat="44.1648725" lon="10.3542821"><ele>513.0</ele><time>2026-04-08T08:20:40.959Z</time></trkpt><trkpt lat="44.1648756" lon="10.3541249"><ele>510.3333333333333</ele><time>2026-04-08T08:20:42.974Z</time></trkpt><trkpt lat="44.1648165" lon="10.3540234"><ele>507.66666666666663</ele><time>2026-04-08T08:20:44.96Z</time></trkpt><trkpt lat="44.1647412" lon="10.3539724"><ele>505.0</ele><time>2026-04-08T08:20:46.953Z</time></trkpt><trkpt lat="44.1646725" lon="10.3539357"><ele>502.3333333333333</ele><time>2026-04-08T08:20:48.953Z</time></trkpt><trkpt lat="44.1646069" lon="10.3538872"><ele>499.66666666666663</ele><time>2026-04-08T08:20:50.952Z</time></trkpt><trkpt lat="44.164546" lon="10.3538071"><ele>497.0</ele><time>2026-04-08T08:20:53.95Z</time></trkpt><trkpt lat="44.1644768" lon="10.3537834"><ele>496.99999999999994</ele><time>2026-04-08T08:20:57.957Z</time></trkpt><trkpt lat="44.1644182" lon="10.3538365"><ele>497.0</ele><time>2026-04-08T08:21:00.952Z</time></trkpt><trkpt lat="44.1643621" lon="10.3539139"><ele>497.0</ele><time>2026-04-08T08:21:03.951Z</time></trkpt><trkpt lat="44.1643028" lon="10.3539992"><ele>497.0</ele><time>2026-04-08T08:21:06.956Z</time></trkpt><trkpt lat="44.1642344" lon="10.3540822"><ele>496.99999999999994</ele><time>2026-04-08T08:21:09.954Z</time></trkpt><trkpt lat="44.1641826" lon="10.3541386"><ele>497.0</ele><time>2026-04-08T08:21:11.968Z</time></trkpt><trkpt lat="44.1641204" lon="10.3541872"><ele>497.0</ele><time>2026-04-08T08:21:13.96Z</time></trkpt><trkpt lat="44.1640512" lon="10.3542331"><ele>497.0</ele><time>2026-04-08T08:21:15.96Z</time></trkpt><trkpt lat="44.1639809" lon="10.3542712"><ele>497.0</ele><time>2026-04-08T08:21:17.953Z</time></trkpt><trkpt lat="44.1639036" lon="10.3542921"><ele>497.0</ele><time>2026-04-08T08:21:19.961Z</time></trkpt><trkpt lat="44.1638298" lon="10.3543017"><ele>497.0</ele><time>2026-04-08T08:21:21.961Z</time></trkpt><trkpt lat="44.1637633" lon="10.3543223"><ele>497.0</ele><time>2026-04-08T08:21:23.96Z</time></trkpt><trkpt lat="44.163696" lon="10.3543394"><ele>497.0</ele><time>2026-04-08T08:21:25.97Z</time></trkpt><trkpt lat="44.1636037" lon="10.3543609"><ele>496.8333333333333</ele><time>2026-04-08T08:21:28.96Z</time></trkpt><trkpt lat="44.1635133" lon="10.3543688"><ele>496.66666666666663</ele><time>2026-04-08T08:21:31.964Z</time></trkpt><trkpt lat="44.1634228" lon="10.354381"><ele>496.5</ele><time>2026-04-08T08:21:34.958Z</time></trkpt><trkpt lat="44.1633354" lon="10.3543952"><ele>496.33333333333337</ele><time>2026-04-08T08:21:37.959Z</time></trkpt><trkpt lat="44.1632539" lon="10.3544127"><ele>496.1666666666667</ele><time>2026-04-08T08:21:40.959Z</time></trkpt><trkpt lat="44.1631611" lon="10.354429"><ele>496.0</ele><time>2026-04-08T08:21:43.961Z</time></trkpt><trkpt lat="44.1630982" lon="10.3544376"><ele>495.8571428571429</ele><time>2026-04-08T08:21:45.959Z</time></trkpt><trkpt lat="44.1630069" lon="10.3544605"><ele>495.7142857142858</ele><time>2026-04-08T08:21:48.966Z</time></trkpt><trkpt lat="44.1629427" lon="10.3544744"><ele>495.57142857142856</ele><time>2026-04-08T08:21:50.968Z</time></trkpt><trkpt lat="44.1628795" lon="10.3544789"><ele>495.42857142857144</ele><time>2026-04-08T08:21:52.961Z</time></trkpt><trkpt lat="44.1628163" lon="10.3544913"><ele>495.2857142857143</ele><time>2026-04-08T08:21:54.951Z</time></trkpt><trkpt lat="44.1627528" lon="10.354501"><ele>495.1428571428571</ele><time>2026-04-08T08:21:56.964Z</time></trkpt><trkpt lat="44.1626831" lon="10.3545093"><ele>494.99999999999994</ele><time>2026-04-08T08:21:58.958Z</time></trkpt><trkpt lat="44.1626157" lon="10.3545154"><ele>494.99999999999994</ele><time>2026-04-08T08:22:00.963Z</time></trkpt><trkpt lat="44.1625475" lon="10.3545145"><ele>495.0</ele><time>2026-04-08T08:22:02.956Z</time></trkpt><trkpt lat="44.1624775" lon="10.3545191"><ele>494.99999999999994</ele><time>2026-04-08T08:22:04.962Z</time></trkpt><trkpt lat="44.1624083" lon="10.3545203"><ele>494.99999999999994</ele><time>2026-04-08T08:22:06.961Z</time></trkpt><trkpt lat="44.1623455" lon="10.3545064"><ele>495.0</ele><time>2026-04-08T08:22:08.964Z</time></trkpt><trkpt lat="44.1622601" lon="10.3544652"><ele>494.99999999999994</ele><time>2026-04-08T08:22:11.962Z</time></trkpt><trkpt lat="44.1621809" lon="10.3544189"><ele>494.99999999999994</ele><time>2026-04-08T08:22:14.959Z</time></trkpt><trkpt lat="44.1620986" lon="10.3543554"><ele>496.1428571428571</ele><time>2026-04-08T08:22:17.97Z</time></trkpt><trkpt lat="44.1620427" lon="10.3543065"><ele>497.2857142857143</ele><time>2026-04-08T08:22:19.973Z</time></trkpt><trkpt lat="44.1619855" lon="10.3542528"><ele>498.42857142857144</ele><time>2026-04-08T08:22:21.961Z</time></trkpt><trkpt lat="44.1619287" lon="10.35419"><ele>499.57142857142856</ele><time>2026-04-08T08:22:23.965Z</time></trkpt><trkpt lat="44.1618678" lon="10.3541294"><ele>500.7142857142858</ele><time>2026-04-08T08:22:25.962Z</time></trkpt><trkpt lat="44.1618049" lon="10.3540685"><ele>501.8571428571429</ele><time>2026-04-08T08:22:27.956Z</time></trkpt><trkpt lat="44.1617405" lon="10.3539997"><ele>503.0</ele><time>2026-04-08T08:22:29.964Z</time></trkpt><trkpt lat="44.1616759" lon="10.3539303"><ele>500.8571428571429</ele><time>2026-04-08T08:22:31.949Z</time></trkpt><trkpt lat="44.1616192" lon="10.3538672"><ele>498.7142857142858</ele><time>2026-04-08T08:22:33.96Z</time></trkpt><trkpt lat="44.1615613" lon="10.3538017"><ele>496.57142857142856</ele><time>2026-04-08T08:22:35.954Z</time></trkpt><trkpt lat="44.161504" lon="10.3537423"><ele>494.42857142857144</ele><time>2026-04-08T08:22:37.954Z</time></trkpt><trkpt lat="44.1614469" lon="10.3536823"><ele>492.2857142857143</ele><time>2026-04-08T08:22:39.959Z</time></trkpt><trkpt lat="44.1613897" lon="10.3536188"><ele>490.1428571428571</ele><time>2026-04-08T08:22:41.977Z</time></trkpt><trkpt lat="44.1613256" lon="10.353575"><ele>487.99999999999994</ele><time>2026-04-08T08:22:43.961Z</time></trkpt><trkpt lat="44.1612564" lon="10.353552"><ele>487.99999999999994</ele><time>2026-04-08T08:22:45.965Z</time></trkpt><trkpt lat="44.1611856" lon="10.353533"><ele>488.0</ele><time>2026-04-08T08:22:47.964Z</time></trkpt><trkpt lat="44.1611174" lon="10.3535284"><ele>487.99999999999994</ele><time>2026-04-08T08:22:49.961Z</time></trkpt><trkpt lat="44.1610524" lon="10.353554"><ele>487.99999999999994</ele><time>2026-04-08T08:22:51.971Z</time></trkpt><trkpt lat="44.160993" lon="10.3536071"><ele>488.0</ele><time>2026-04-08T08:22:53.948Z</time></trkpt><trkpt lat="44.1609434" lon="10.3536763"><ele>487.99999999999994</ele><time>2026-04-08T08:22:55.949Z</time></trkpt><trkpt lat="44.160904" lon="10.3537551"><ele>487.99999999999994</ele><time>2026-04-08T08:22:57.952Z</time></trkpt><trkpt lat="44.1608599" lon="10.3538312"><ele>486.59999999999997</ele><time>2026-04-08T08:22:59.982Z</time></trkpt><trkpt lat="44.1608123" lon="10.3539205"><ele>485.19999999999993</ele><time>2026-04-08T08:23:01.961Z</time></trkpt><trkpt lat="44.1607645" lon="10.3540353"><ele>483.8</ele><time>2026-04-08T08:23:03.964Z</time></trkpt><trkpt lat="44.1607104" lon="10.354156"><ele>482.4</ele><time>2026-04-08T08:23:05.951Z</time></trkpt><trkpt lat="44.1606511" lon="10.3542801"><ele>481.0</ele><time>2026-04-08T08:23:07.963Z</time></trkpt><trkpt lat="44.160611" lon="10.3544266"><ele>480.99999999999994</ele><time>2026-04-08T08:23:09.955Z</time></trkpt><trkpt lat="44.1606084" lon="10.354595"><ele>481.0</ele><time>2026-04-08T08:23:11.969Z</time></trkpt><trkpt lat="44.1606223" lon="10.3546806"><ele>480.99999999999994</ele><time>2026-04-08T08:23:12.96Z</time></trkpt><trkpt lat="44.1606434" lon="10.3547641"><ele>480.99999999999994</ele><time>2026-04-08T08:23:13.986Z</time></trkpt><trkpt lat="44.1606813" lon="10.3548422"><ele>481.0</ele><time>2026-04-08T08:23:14.966Z</time></trkpt><trkpt lat="44.1607274" lon="10.3549147"><ele>480.99999999999994</ele><time>2026-04-08T08:23:15.967Z</time></trkpt><trkpt lat="44.1607766" lon="10.3549728"><ele>480.99999999999994</ele><time>2026-04-08T08:23:16.964Z</time></trkpt><trkpt lat="44.1608257" lon="10.3550342"><ele>483.20000000000005</ele><time>2026-04-08T08:23:17.958Z</time></trkpt><trkpt lat="44.1609187" lon="10.3551566"><ele>485.40000000000003</ele><time>2026-04-08T08:23:19.978Z</time></trkpt><trkpt lat="44.1610106" lon="10.3552632"><ele>487.6</ele><time>2026-04-08T08:23:21.963Z</time></trkpt><trkpt lat="44.1611052" lon="10.3553849"><ele>489.8</ele><time>2026-04-08T08:23:23.972Z</time></trkpt><trkpt lat="44.1611551" lon="10.3554464"><ele>492.0</ele><time>2026-04-08T08:23:24.954Z</time></trkpt><trkpt lat="44.1612066" lon="10.3555158"><ele>490.7142857142858</ele><time>2026-04-08T08:23:25.955Z</time></trkpt><trkpt lat="44.1612591" lon="10.3555814"><ele>489.42857142857144</ele><time>2026-04-08T08:23:26.975Z</time></trkpt><trkpt lat="44.1613097" lon="10.3556503"><ele>488.14285714285717</ele><time>2026-04-08T08:23:27.958Z</time></trkpt><trkpt lat="44.1613562" lon="10.3557283"><ele>486.8571428571429</ele><time>2026-04-08T08:23:28.962Z</time></trkpt><trkpt lat="44.1613991" lon="10.3558109"><ele>485.57142857142856</ele><time>2026-04-08T08:23:29.968Z</time></trkpt><trkpt lat="44.1614231" lon="10.3559126"><ele>484.2857142857143</ele><time>2026-04-08T08:23:30.959Z</time></trkpt><trkpt lat="44.1614256" lon="10.3560188"><ele>483.0</ele><time>2026-04-08T08:23:31.961Z</time></trkpt><trkpt lat="44.1614101" lon="10.3561225"><ele>483.0</ele><time>2026-04-08T08:23:32.964Z</time></trkpt><trkpt lat="44.161387" lon="10.3562202"><ele>483.0</ele><time>2026-04-08T08:23:33.974Z</time></trkpt><trkpt lat="44.1613598" lon="10.3563144"><ele>483.0</ele><time>2026-04-08T08:23:34.965Z</time></trkpt><trkpt lat="44.1613332" lon="10.3564028"><ele>483.0</ele><time>2026-04-08T08:23:35.971Z</time></trkpt><trkpt lat="44.1613026" lon="10.3564934"><ele>483.0</ele><time>2026-04-08T08:23:36.965Z</time></trkpt><trkpt lat="44.1612763" lon="10.3565858"><ele>483.0</ele><time>2026-04-08T08:23:37.97Z</time></trkpt><trkpt lat="44.16125" lon="10.3566794"><ele>483.0</ele><time>2026-04-08T08:23:38.96Z</time></trkpt><trkpt lat="44.1612271" lon="10.3567721"><ele>483.0</ele><time>2026-04-08T08:23:39.971Z</time></trkpt><trkpt lat="44.1611996" lon="10.356866"><ele>483.0</ele><time>2026-04-08T08:23:40.96Z</time></trkpt><trkpt lat="44.1611723" lon="10.3569537"><ele>483.0</ele><time>2026-04-08T08:23:41.96Z</time></trkpt><trkpt lat="44.1611461" lon="10.3570468"><ele>483.0</ele><time>2026-04-08T08:23:42.967Z</time></trkpt><trkpt lat="44.1611238" lon="10.3571366"><ele>483.0</ele><time>2026-04-08T08:23:43.951Z</time></trkpt><trkpt lat="44.1611019" lon="10.3572263"><ele>483.0</ele><time>2026-04-08T08:23:44.959Z</time></trkpt><trkpt lat="44.1610795" lon="10.3573113"><ele>483.0</ele><time>2026-04-08T08:23:45.962Z</time></trkpt><trkpt lat="44.1610598" lon="10.3573994"><ele>483.0</ele><time>2026-04-08T08:23:46.966Z</time></trkpt><trkpt lat="44.1610344" lon="10.3574855"><ele>483.0</ele><time>2026-04-08T08:23:47.96Z</time></trkpt><trkpt lat="44.1610037" lon="10.357574"><ele>483.0</ele><time>2026-04-08T08:23:48.96Z</time></trkpt><trkpt lat="44.1609691" lon="10.357666"><ele>483.0</ele><time>2026-04-08T08:23:49.966Z</time></trkpt><trkpt lat="44.1609332" lon="10.3577557"><ele>483.0</ele><time>2026-04-08T08:23:50.978Z</time></trkpt><trkpt lat="44.1608916" lon="10.3578454"><ele>483.0</ele><time>2026-04-08T08:23:51.972Z</time></trkpt><trkpt lat="44.1608449" lon="10.3579337"><ele>483.0</ele><time>2026-04-08T08:23:52.969Z</time></trkpt><trkpt lat="44.1607954" lon="10.358024"><ele>483.1666666666667</ele><time>2026-04-08T08:23:53.962Z</time></trkpt><trkpt lat="44.1607432" lon="10.3581084"><ele>483.33333333333337</ele><time>2026-04-08T08:23:54.98Z</time></trkpt><trkpt lat="44.1606964" lon="10.3581947"><ele>483.5</ele><time>2026-04-08T08:23:55.963Z</time></trkpt><trkpt lat="44.1606464" lon="10.3582793"><ele>483.6666666666667</ele><time>2026-04-08T08:23:56.964Z</time></trkpt><trkpt lat="44.160595" lon="10.3583634"><ele>483.83333333333337</ele><time>2026-04-08T08:23:57.962Z</time></trkpt><trkpt lat="44.1605408" lon="10.3584449"><ele>484.0</ele><time>2026-04-08T08:23:58.968Z</time></trkpt><trkpt lat="44.160489" lon="10.3585285"><ele>482.6666666666667</ele><time>2026-04-08T08:23:59.971Z</time></trkpt><trkpt lat="44.1604373" lon="10.3586072"><ele>481.33333333333337</ele><time>2026-04-08T08:24:00.968Z</time></trkpt><trkpt lat="44.1603865" lon="10.3586866"><ele>480.0</ele><time>2026-04-08T08:24:01.954Z</time></trkpt><trkpt lat="44.1603341" lon="10.3587661"><ele>478.66666666666663</ele><time>2026-04-08T08:24:02.964Z</time></trkpt><trkpt lat="44.1602837" lon="10.358849"><ele>477.3333333333333</ele><time>2026-04-08T08:24:03.973Z</time></trkpt><trkpt lat="44.160231" lon="10.3589331"><ele>476.0</ele><time>2026-04-08T08:24:04.962Z</time></trkpt><trkpt lat="44.1601805" lon="10.3590144"><ele>475.99999999999994</ele><time>2026-04-08T08:24:05.967Z</time></trkpt><trkpt lat="44.1601283" lon="10.3590952"><ele>476.0</ele><time>2026-04-08T08:24:06.967Z</time></trkpt><trkpt lat="44.1600702" lon="10.3591752"><ele>476.0</ele><time>2026-04-08T08:24:07.962Z</time></trkpt><trkpt lat="44.1600118" lon="10.3592455"><ele>476.0</ele><time>2026-04-08T08:24:08.96Z</time></trkpt><trkpt lat="44.1599457" lon="10.3593087"><ele>475.99999999999994</ele><time>2026-04-08T08:24:09.96Z</time></trkpt><trkpt lat="44.1598763" lon="10.3593671"><ele>476.0</ele><time>2026-04-08T08:24:10.962Z</time></trkpt><trkpt lat="44.1598061" lon="10.3594149"><ele>473.3333333333333</ele><time>2026-04-08T08:24:11.967Z</time></trkpt><trkpt lat="44.1597296" lon="10.3594475"><ele>470.66666666666663</ele><time>2026-04-08T08:24:12.969Z</time></trkpt><trkpt lat="44.1596525" lon="10.3594816"><ele>468.0</ele><time>2026-04-08T08:24:13.968Z</time></trkpt><trkpt lat="44.1595744" lon="10.3595091"><ele>465.33333333333337</ele><time>2026-04-08T08:24:14.963Z</time></trkpt><trkpt lat="44.1594973" lon="10.3595379"><ele>462.6666666666667</ele><time>2026-04-08T08:24:15.968Z</time></trkpt><trkpt lat="44.1594194" lon="10.3595653"><ele>460.0</ele><time>2026-04-08T08:24:16.97Z</time></trkpt><trkpt lat="44.1593391" lon="10.3596004"><ele>460.00000000000006</ele><time>2026-04-08T08:24:17.962Z</time></trkpt><trkpt lat="44.159262" lon="10.3596385"><ele>460.0</ele><time>2026-04-08T08:24:18.954Z</time></trkpt><trkpt lat="44.1591804" lon="10.3596691"><ele>460.0</ele><time>2026-04-08T08:24:19.968Z</time></trkpt><trkpt lat="44.1590995" lon="10.3596956"><ele>460.0</ele><time>2026-04-08T08:24:20.962Z</time></trkpt><trkpt lat="44.1590167" lon="10.3597255"><ele>460.00000000000006</ele><time>2026-04-08T08:24:21.967Z</time></trkpt><trkpt lat="44.1589356" lon="10.3597582"><ele>460.0</ele><time>2026-04-08T08:24:22.963Z</time></trkpt><trkpt lat="44.158853" lon="10.3597859"><ele>460.33333333333337</ele><time>2026-04-08T08:24:23.965Z</time></trkpt><trkpt lat="44.1587677" lon="10.3598149"><ele>460.6666666666667</ele><time>2026-04-08T08:24:24.971Z</time></trkpt><trkpt lat="44.1586857" lon="10.3598479"><ele>461.0</ele><time>2026-04-08T08:24:25.969Z</time></trkpt><trkpt lat="44.1586029" lon="10.3598806"><ele>461.33333333333337</ele><time>2026-04-08T08:24:26.972Z</time></trkpt><trkpt lat="44.1585208" lon="10.3599101"><ele>461.6666666666667</ele><time>2026-04-08T08:24:27.961Z</time></trkpt><trkpt lat="44.1584355" lon="10.3599462"><ele>462.0</ele><time>2026-04-08T08:24:28.964Z</time></trkpt><trkpt lat="44.1583534" lon="10.3600048"><ele>462.0</ele><time>2026-04-08T08:24:29.963Z</time></trkpt><trkpt lat="44.1582953" lon="10.3600958"><ele>462.00000000000006</ele><time>2026-04-08T08:24:30.969Z</time></trkpt><trkpt lat="44.158249" lon="10.3602024"><ele>462.00000000000006</ele><time>2026-04-08T08:24:31.958Z</time></trkpt><trkpt lat="44.1582179" lon="10.3603205"><ele>462.0</ele><time>2026-04-08T08:24:32.958Z</time></trkpt><trkpt lat="44.1582005" lon="10.3604441"><ele>462.0</ele><time>2026-04-08T08:24:33.96Z</time></trkpt><trkpt lat="44.1581786" lon="10.3605704"><ele>459.40000000000003</ele><time>2026-04-08T08:24:34.96Z</time></trkpt><trkpt lat="44.1581557" lon="10.360699"><ele>456.80000000000007</ele><time>2026-04-08T08:24:35.973Z</time></trkpt><trkpt lat="44.158131" lon="10.3608244"><ele>454.2</ele><time>2026-04-08T08:24:36.967Z</time></trkpt><trkpt lat="44.1581049" lon="10.3609497"><ele>451.6</ele><time>2026-04-08T08:24:37.96Z</time></trkpt><trkpt lat="44.1580771" lon="10.3610728"><ele>449.0</ele><time>2026-04-08T08:24:38.962Z</time></trkpt><trkpt lat="44.1580448" lon="10.3612008"><ele>449.0</ele><time>2026-04-08T08:24:39.968Z</time></trkpt><trkpt lat="44.1580041" lon="10.3613163"><ele>449.0</ele><time>2026-04-08T08:24:40.97Z</time></trkpt><trkpt lat="44.1579512" lon="10.3614188"><ele>449.0</ele><time>2026-04-08T08:24:41.963Z</time></trkpt><trkpt lat="44.1578904" lon="10.3615154"><ele>449.0</ele><time>2026-04-08T08:24:42.964Z</time></trkpt><trkpt lat="44.1578232" lon="10.361608"><ele>449.0</ele><time>2026-04-08T08:24:43.978Z</time></trkpt><trkpt lat="44.1577574" lon="10.3616936"><ele>450.4</ele><time>2026-04-08T08:24:44.967Z</time></trkpt><trkpt lat="44.1576888" lon="10.3617832"><ele>451.79999999999995</ele><time>2026-04-08T08:24:45.967Z</time></trkpt><trkpt lat="44.1576213" lon="10.3618708"><ele>453.20000000000005</ele><time>2026-04-08T08:24:46.952Z</time></trkpt><trkpt lat="44.157554" lon="10.361957"><ele>454.6</ele><time>2026-04-08T08:24:47.964Z</time></trkpt><trkpt lat="44.1574826" lon="10.3620484"><ele>456.0</ele><time>2026-04-08T08:24:48.963Z</time></trkpt><trkpt lat="44.1574107" lon="10.3621337"><ele>455.20000000000005</ele><time>2026-04-08T08:24:49.954Z</time></trkpt><trkpt lat="44.1573343" lon="10.3622075"><ele>454.40000000000003</ele><time>2026-04-08T08:24:50.961Z</time></trkpt><trkpt lat="44.1572499" lon="10.3622602"><ele>453.6</ele><time>2026-04-08T08:24:51.953Z</time></trkpt><trkpt lat="44.1571604" lon="10.3622863"><ele>452.8</ele><time>2026-04-08T08:24:52.965Z</time></trkpt><trkpt lat="44.1570709" lon="10.3622849"><ele>452.0</ele><time>2026-04-08T08:24:53.968Z</time></trkpt><trkpt lat="44.1569824" lon="10.3622702"><ele>452.0</ele><time>2026-04-08T08:24:54.958Z</time></trkpt><trkpt lat="44.1568879" lon="10.3622613"><ele>452.00000000000006</ele><time>2026-04-08T08:24:55.967Z</time></trkpt><trkpt lat="44.1567963" lon="10.3622784"><ele>452.00000000000006</ele><time>2026-04-08T08:24:56.96Z</time></trkpt><trkpt lat="44.156711" lon="10.3623275"><ele>452.0</ele><time>2026-04-08T08:24:57.965Z</time></trkpt><trkpt lat="44.1566349" lon="10.3624112"><ele>452.0</ele><time>2026-04-08T08:24:58.954Z</time></trkpt><trkpt lat="44.1565792" lon="10.3625174"><ele>452.0</ele><time>2026-04-08T08:24:59.969Z</time></trkpt><trkpt lat="44.1565419" lon="10.3626471"><ele>452.00000000000006</ele><time>2026-04-08T08:25:00.963Z</time></trkpt><trkpt lat="44.1565118" lon="10.3627769"><ele>452.00000000000006</ele><time>2026-04-08T08:25:01.974Z</time></trkpt><trkpt lat="44.1564812" lon="10.3629189"><ele>452.0</ele><time>2026-04-08T08:25:02.964Z</time></trkpt><trkpt lat="44.1564488" lon="10.3630655"><ele>452.0</ele><time>2026-04-08T08:25:03.959Z</time></trkpt><trkpt lat="44.1564211" lon="10.3632108"><ele>449.0</ele><time>2026-04-08T08:25:04.962Z</time></trkpt><trkpt lat="44.1563913" lon="10.3633528"><ele>446.00000000000006</ele><time>2026-04-08T08:25:05.959Z</time></trkpt><trkpt lat="44.1563617" lon="10.3634942"><ele>443.00000000000006</ele><time>2026-04-08T08:25:06.959Z</time></trkpt><trkpt lat="44.1563327" lon="10.3636324"><ele>440.0</ele><time>2026-04-08T08:25:07.957Z</time></trkpt><trkpt lat="44.1563041" lon="10.3637699"><ele>437.0</ele><time>2026-04-08T08:25:08.966Z</time></trkpt><trkpt lat="44.1562774" lon="10.3639029"><ele>436.49999999999994</ele><time>2026-04-08T08:25:09.963Z</time></trkpt><trkpt lat="44.1562536" lon="10.364032"><ele>436.0</ele><time>2026-04-08T08:25:10.965Z</time></trkpt><trkpt lat="44.1562338" lon="10.3641529"><ele>435.5</ele><time>2026-04-08T08:25:11.973Z</time></trkpt><trkpt lat="44.1562144" lon="10.3642697"><ele>435.0</ele><time>2026-04-08T08:25:12.96Z</time></trkpt><trkpt lat="44.1561983" lon="10.3643852"><ele>434.49999999999994</ele><time>2026-04-08T08:25:13.967Z</time></trkpt><trkpt lat="44.1561952" lon="10.3644986"><ele>434.0</ele><time>2026-04-08T08:25:14.959Z</time></trkpt><trkpt lat="44.1562034" lon="10.3646069"><ele>434.16666666666663</ele><time>2026-04-08T08:25:15.97Z</time></trkpt><trkpt lat="44.1562245" lon="10.3647152"><ele>434.3333333333333</ele><time>2026-04-08T08:25:16.959Z</time></trkpt><trkpt lat="44.1562607" lon="10.3648147"><ele>434.5</ele><time>2026-04-08T08:25:17.959Z</time></trkpt><trkpt lat="44.1563086" lon="10.364905"><ele>434.66666666666663</ele><time>2026-04-08T08:25:18.958Z</time></trkpt><trkpt lat="44.1563623" lon="10.3649894"><ele>434.8333333333333</ele><time>2026-04-08T08:25:19.951Z</time></trkpt><trkpt lat="44.1564112" lon="10.3650811"><ele>435.0</ele><time>2026-04-08T08:25:20.974Z</time></trkpt><trkpt lat="44.156442" lon="10.3651896"><ele>435.0</ele><time>2026-04-08T08:25:21.955Z</time></trkpt><trkpt lat="44.1564523" lon="10.3653077"><ele>435.0</ele><time>2026-04-08T08:25:22.962Z</time></trkpt><trkpt lat="44.156436" lon="10.3654234"><ele>435.0</ele><time>2026-04-08T08:25:23.958Z</time></trkpt><trkpt lat="44.1564014" lon="10.3655301"><ele>435.0</ele><time>2026-04-08T08:25:24.955Z</time></trkpt><trkpt lat="44.1563606" lon="10.3656177"><ele>435.0</ele><time>2026-04-08T08:25:25.957Z</time></trkpt><trkpt lat="44.1563199" lon="10.3656994"><ele>435.0</ele><time>2026-04-08T08:25:26.959Z</time></trkpt><trkpt lat="44.1562824" lon="10.3657795"><ele>435.6</ele><time>2026-04-08T08:25:27.965Z</time></trkpt><trkpt lat="44.1562068" lon="10.3659074"><ele>436.2</ele><time>2026-04-08T08:25:29.961Z</time></trkpt><trkpt lat="44.1561054" lon="10.3659917"><ele>436.79999999999995</ele><time>2026-04-08T08:25:31.96Z</time></trkpt><trkpt lat="44.1559851" lon="10.3660252"><ele>437.4</ele><time>2026-04-08T08:25:33.963Z</time></trkpt><trkpt lat="44.1559192" lon="10.3660201"><ele>438.0</ele><time>2026-04-08T08:25:34.954Z</time></trkpt><trkpt lat="44.1558559" lon="10.3660089"><ele>438.0</ele><time>2026-04-08T08:25:35.952Z</time></trkpt><trkpt lat="44.1557926" lon="10.3659997"><ele>438.0</ele><time>2026-04-08T08:25:36.961Z</time></trkpt><trkpt lat="44.1557213" lon="10.3659913"><ele>438.0</ele><time>2026-04-08T08:25:37.961Z</time></trkpt><trkpt lat="44.1556557" lon="10.3659966"><ele>438.0</ele><time>2026-04-08T08:25:38.977Z</time></trkpt><trkpt lat="44.1555875" lon="10.3660281"><ele>438.0</ele><time>2026-04-08T08:25:39.966Z</time></trkpt><trkpt lat="44.1555221" lon="10.3660781"><ele>438.0</ele><time>2026-04-08T08:25:40.971Z</time></trkpt><trkpt lat="44.1554578" lon="10.3661376"><ele>438.0</ele><time>2026-04-08T08:25:41.956Z</time></trkpt><trkpt lat="44.1554003" lon="10.366206"><ele>438.3333333333333</ele><time>2026-04-08T08:25:42.962Z</time></trkpt><trkpt lat="44.1553416" lon="10.3662826"><ele>438.66666666666663</ele><time>2026-04-08T08:25:43.969Z</time></trkpt><trkpt lat="44.1552846" lon="10.3663628"><ele>439.0</ele><time>2026-04-08T08:25:44.966Z</time></trkpt><trkpt lat="44.155232" lon="10.3664455"><ele>439.3333333333333</ele><time>2026-04-08T08:25:45.972Z</time></trkpt><trkpt lat="44.1551819" lon="10.3665329"><ele>439.66666666666663</ele><time>2026-04-08T08:25:46.96Z</time></trkpt><trkpt lat="44.155129" lon="10.36661"><ele>440.0</ele><time>2026-04-08T08:25:47.96Z</time></trkpt><trkpt lat="44.1550609" lon="10.3666787"><ele>439.99999999999994</ele><time>2026-04-08T08:25:48.979Z</time></trkpt><trkpt lat="44.1549896" lon="10.3667292"><ele>440.0</ele><time>2026-04-08T08:25:49.957Z</time></trkpt><trkpt lat="44.1549111" lon="10.3667527"><ele>440.0</ele><time>2026-04-08T08:25:50.987Z</time></trkpt><trkpt lat="44.1548297" lon="10.366764"><ele>440.0</ele><time>2026-04-08T08:25:51.965Z</time></trkpt><trkpt lat="44.1547533" lon="10.3667486"><ele>439.99999999999994</ele><time>2026-04-08T08:25:52.967Z</time></trkpt><trkpt lat="44.1546748" lon="10.3667194"><ele>440.0</ele><time>2026-04-08T08:25:53.975Z</time></trkpt><trkpt lat="44.1546017" lon="10.3666824"><ele>440.49999999999994</ele><time>2026-04-08T08:25:54.959Z</time></trkpt><trkpt lat="44.1545297" lon="10.3666414"><ele>441.0</ele><time>2026-04-08T08:25:55.963Z</time></trkpt><trkpt lat="44.1544603" lon="10.3665944"><ele>441.5</ele><time>2026-04-08T08:25:56.978Z</time></trkpt><trkpt lat="44.1543906" lon="10.3665488"><ele>442.0</ele><time>2026-04-08T08:25:57.96Z</time></trkpt><trkpt lat="44.1543179" lon="10.366507"><ele>442.49999999999994</ele><time>2026-04-08T08:25:58.967Z</time></trkpt><trkpt lat="44.1542402" lon="10.3664733"><ele>443.0</ele><time>2026-04-08T08:25:59.957Z</time></trkpt><trkpt lat="44.1541645" lon="10.366445"><ele>442.99999999999994</ele><time>2026-04-08T08:26:00.964Z</time></trkpt><trkpt lat="44.1540903" lon="10.3664224"><ele>443.0</ele><time>2026-04-08T08:26:01.965Z</time></trkpt><trkpt lat="44.1540138" lon="10.3664042"><ele>443.0</ele><time>2026-04-08T08:26:02.966Z</time></trkpt><trkpt lat="44.1539358" lon="10.3663888"><ele>443.0</ele><time>2026-04-08T08:26:03.958Z</time></trkpt><trkpt lat="44.1538641" lon="10.3663761"><ele>442.99999999999994</ele><time>2026-04-08T08:26:04.961Z</time></trkpt><trkpt lat="44.1537917" lon="10.3663658"><ele>443.0</ele><time>2026-04-08T08:26:05.958Z</time></trkpt><trkpt lat="44.1537193" lon="10.3663521"><ele>439.14285714285717</ele><time>2026-04-08T08:26:06.963Z</time></trkpt><trkpt lat="44.153651" lon="10.366346"><ele>435.28571428571433</ele><time>2026-04-08T08:26:07.968Z</time></trkpt><trkpt lat="44.1535819" lon="10.3663479"><ele>431.42857142857144</ele><time>2026-04-08T08:26:08.966Z</time></trkpt><trkpt lat="44.1535129" lon="10.3663462"><ele>427.57142857142856</ele><time>2026-04-08T08:26:09.97Z</time></trkpt><trkpt lat="44.153446" lon="10.36634"><ele>423.7142857142857</ele><time>2026-04-08T08:26:10.962Z</time></trkpt><trkpt lat="44.1533775" lon="10.3663405"><ele>419.85714285714283</ele><time>2026-04-08T08:26:11.963Z</time></trkpt><trkpt lat="44.1533078" lon="10.3663347"><ele>416.0</ele><time>2026-04-08T08:26:12.962Z</time></trkpt><trkpt lat="44.1532438" lon="10.3663342"><ele>415.8</ele><time>2026-04-08T08:26:13.963Z</time></trkpt><trkpt lat="44.1531182" lon="10.3663235"><ele>415.6</ele><time>2026-04-08T08:26:15.974Z</time></trkpt><trkpt lat="44.1529925" lon="10.3663152"><ele>415.4</ele><time>2026-04-08T08:26:17.96Z</time></trkpt><trkpt lat="44.1528714" lon="10.3663044"><ele>415.2</ele><time>2026-04-08T08:26:19.958Z</time></trkpt><trkpt lat="44.1528076" lon="10.3662996"><ele>415.0</ele><time>2026-04-08T08:26:20.968Z</time></trkpt><trkpt lat="44.1526836" lon="10.3662907"><ele>415.0</ele><time>2026-04-08T08:26:22.963Z</time></trkpt><trkpt lat="44.1525672" lon="10.3662853"><ele>415.0</ele><time>2026-04-08T08:26:24.969Z</time></trkpt><trkpt lat="44.1524551" lon="10.3663054"><ele>415.0</ele><time>2026-04-08T08:26:26.97Z</time></trkpt><trkpt lat="44.1523468" lon="10.3663571"><ele>415.0</ele><time>2026-04-08T08:26:28.963Z</time></trkpt><trkpt lat="44.152248" lon="10.3664335"><ele>419.25</ele><time>2026-04-08T08:26:30.974Z</time></trkpt><trkpt lat="44.1521591" lon="10.366529"><ele>423.5</ele><time>2026-04-08T08:26:32.963Z</time></trkpt><trkpt lat="44.1520791" lon="10.3666384"><ele>427.75</ele><time>2026-04-08T08:26:34.975Z</time></trkpt><trkpt lat="44.1519721" lon="10.3667124"><ele>432.0</ele><time>2026-04-08T08:26:36.961Z</time></trkpt><trkpt lat="44.1518509" lon="10.3667543"><ele>432.0</ele><time>2026-04-08T08:26:38.962Z</time></trkpt><trkpt lat="44.151732" lon="10.3667629"><ele>432.0</ele><time>2026-04-08T08:26:40.969Z</time></trkpt><trkpt lat="44.1516172" lon="10.366773"><ele>432.0</ele><time>2026-04-08T08:26:42.959Z</time></trkpt><trkpt lat="44.1514949" lon="10.3667926"><ele>432.0</ele><time>2026-04-08T08:26:44.964Z</time></trkpt><trkpt lat="44.151368" lon="10.3668224"><ele>429.40000000000003</ele><time>2026-04-08T08:26:46.962Z</time></trkpt><trkpt lat="44.1513009" lon="10.3668459"><ele>426.80000000000007</ele><time>2026-04-08T08:26:47.961Z</time></trkpt><trkpt lat="44.1511801" lon="10.3669044"><ele>424.2</ele><time>2026-04-08T08:26:49.962Z</time></trkpt><trkpt lat="44.1511228" lon="10.3669424"><ele>421.6</ele><time>2026-04-08T08:26:50.964Z</time></trkpt><trkpt lat="44.1510141" lon="10.3670187"><ele>419.0</ele><time>2026-04-08T08:26:52.967Z</time></trkpt><trkpt lat="44.1509024" lon="10.367105"><ele>418.99999999999994</ele><time>2026-04-08T08:26:54.975Z</time></trkpt><trkpt lat="44.1507864" lon="10.367166"><ele>419.0</ele><time>2026-04-08T08:26:56.971Z</time></trkpt><trkpt lat="44.1507208" lon="10.3671853"><ele>419.0</ele><time>2026-04-08T08:26:57.963Z</time></trkpt><trkpt lat="44.1506527" lon="10.3671898"><ele>419.0</ele><time>2026-04-08T08:26:58.972Z</time></trkpt><trkpt lat="44.1505814" lon="10.3671731"><ele>418.99999999999994</ele><time>2026-04-08T08:26:59.961Z</time></trkpt><trkpt lat="44.1505099" lon="10.367153"><ele>419.0</ele><time>2026-04-08T08:27:00.966Z</time></trkpt><trkpt lat="44.1504441" lon="10.3671448"><ele>417.79999999999995</ele><time>2026-04-08T08:27:01.953Z</time></trkpt><trkpt lat="44.1503791" lon="10.3671425"><ele>416.59999999999997</ele><time>2026-04-08T08:27:02.971Z</time></trkpt><trkpt lat="44.1503152" lon="10.3671521"><ele>415.4</ele><time>2026-04-08T08:27:03.953Z</time></trkpt><trkpt lat="44.1501998" lon="10.3671856"><ele>414.2</ele><time>2026-04-08T08:27:05.971Z</time></trkpt><trkpt lat="44.1500929" lon="10.3672302"><ele>413.0</ele><time>2026-04-08T08:27:07.971Z</time></trkpt><trkpt lat="44.14999" lon="10.367275"><ele>414.3333333333333</ele><time>2026-04-08T08:27:09.967Z</time></trkpt><trkpt lat="44.1498995" lon="10.3673163"><ele>415.66666666666663</ele><time>2026-04-08T08:27:11.962Z</time></trkpt><trkpt lat="44.1498222" lon="10.3673541"><ele>417.0</ele><time>2026-04-08T08:27:13.958Z</time></trkpt><trkpt lat="44.1497496" lon="10.3673897"><ele>418.33333333333337</ele><time>2026-04-08T08:27:15.97Z</time></trkpt><trkpt lat="44.1496781" lon="10.3674188"><ele>419.6666666666667</ele><time>2026-04-08T08:27:17.961Z</time></trkpt><trkpt lat="44.1496096" lon="10.367459"><ele>421.0</ele><time>2026-04-08T08:27:19.961Z</time></trkpt><trkpt lat="44.1495407" lon="10.3674978"><ele>421.00000000000006</ele><time>2026-04-08T08:27:21.957Z</time></trkpt><trkpt lat="44.1494664" lon="10.3675331"><ele>421.0</ele><time>2026-04-08T08:27:23.977Z</time></trkpt><trkpt lat="44.149391" lon="10.3675699"><ele>421.0</ele><time>2026-04-08T08:27:25.969Z</time></trkpt><trkpt lat="44.1493177" lon="10.3676043"><ele>421.0</ele><time>2026-04-08T08:27:27.954Z</time></trkpt><trkpt lat="44.1492393" lon="10.3676436"><ele>421.00000000000006</ele><time>2026-04-08T08:27:29.958Z</time></trkpt><trkpt lat="44.149162" lon="10.3676822"><ele>421.0</ele><time>2026-04-08T08:27:31.962Z</time></trkpt><trkpt lat="44.1490827" lon="10.3677133"><ele>419.50000000000006</ele><time>2026-04-08T08:27:33.958Z</time></trkpt><trkpt lat="44.1490053" lon="10.3677477"><ele>418.0</ele><time>2026-04-08T08:27:35.957Z</time></trkpt><trkpt lat="44.1489269" lon="10.3677864"><ele>416.5</ele><time>2026-04-08T08:27:37.955Z</time></trkpt><trkpt lat="44.1488512" lon="10.3678312"><ele>415.0</ele><time>2026-04-08T08:27:39.949Z</time></trkpt><trkpt lat="44.1487905" lon="10.3679025"><ele>413.50000000000006</ele><time>2026-04-08T08:27:41.951Z</time></trkpt><trkpt lat="44.1487628" lon="10.3680038"><ele>412.0</ele><time>2026-04-08T08:27:43.962Z</time></trkpt><trkpt lat="44.1487531" lon="10.368111"><ele>412.00000000000006</ele><time>2026-04-08T08:27:45.957Z</time></trkpt><trkpt lat="44.1487543" lon="10.3682211"><ele>412.0</ele><time>2026-04-08T08:27:47.969Z</time></trkpt><trkpt lat="44.1487575" lon="10.3683381"><ele>412.0</ele><time>2026-04-08T08:27:49.959Z</time></trkpt><trkpt lat="44.1487624" lon="10.3684553"><ele>412.0</ele><time>2026-04-08T08:27:51.968Z</time></trkpt><trkpt lat="44.1487625" lon="10.3685673"><ele>412.00000000000006</ele><time>2026-04-08T08:27:53.971Z</time></trkpt><trkpt lat="44.1487603" lon="10.3686838"><ele>412.0</ele><time>2026-04-08T08:27:55.961Z</time></trkpt><trkpt lat="44.1487597" lon="10.3688009"><ele>413.1666666666667</ele><time>2026-04-08T08:27:57.964Z</time></trkpt><trkpt lat="44.1487598" lon="10.3689175"><ele>414.33333333333337</ele><time>2026-04-08T08:27:59.957Z</time></trkpt><trkpt lat="44.1487604" lon="10.3690349"><ele>415.5</ele><time>2026-04-08T08:28:01.968Z</time></trkpt><trkpt lat="44.1487593" lon="10.3691493"><ele>416.66666666666663</ele><time>2026-04-08T08:28:03.971Z</time></trkpt><trkpt lat="44.1487409" lon="10.3692589"><ele>417.8333333333333</ele><time>2026-04-08T08:28:05.961Z</time></trkpt><trkpt lat="44.1487142" lon="10.3693657"><ele>419.0</ele><time>2026-04-08T08:28:07.966Z</time></trkpt><trkpt lat="44.1486776" lon="10.3694675"><ele>418.99999999999994</ele><time>2026-04-08T08:28:09.961Z</time></trkpt><trkpt lat="44.1486301" lon="10.3695648"><ele>419.0</ele><time>2026-04-08T08:28:11.959Z</time></trkpt><trkpt lat="44.1485751" lon="10.3696555"><ele>419.0</ele><time>2026-04-08T08:28:13.961Z</time></trkpt><trkpt lat="44.1485165" lon="10.3697312"><ele>419.0</ele><time>2026-04-08T08:28:15.957Z</time></trkpt><trkpt lat="44.148447" lon="10.36979"><ele>418.99999999999994</ele><time>2026-04-08T08:28:17.962Z</time></trkpt><trkpt lat="44.1483723" lon="10.3698456"><ele>419.0</ele><time>2026-04-08T08:28:19.966Z</time></trkpt><trkpt lat="44.1482967" lon="10.3698913"><ele>419.0</ele><time>2026-04-08T08:28:21.964Z</time></trkpt><trkpt lat="44.1481918" lon="10.3699309"><ele>419.0</ele><time>2026-04-08T08:28:23.971Z</time></trkpt><trkpt lat="44.1481001" lon="10.3699572"><ele>419.0</ele><time>2026-04-08T08:28:25.968Z</time></trkpt><trkpt lat="44.1480125" lon="10.3699811"><ele>419.0</ele><time>2026-04-08T08:28:27.97Z</time></trkpt><trkpt lat="44.1479255" lon="10.3700064"><ele>419.0</ele><time>2026-04-08T08:28:29.958Z</time></trkpt><trkpt lat="44.1478405" lon="10.3700383"><ele>418.99999999999994</ele><time>2026-04-08T08:28:31.966Z</time></trkpt><trkpt lat="44.1477583" lon="10.3700758"><ele>419.0</ele><time>2026-04-08T08:28:33.959Z</time></trkpt><trkpt lat="44.1476787" lon="10.3701183"><ele>419.0</ele><time>2026-04-08T08:28:35.96Z</time></trkpt><trkpt lat="44.1476042" lon="10.3701676"><ele>419.0</ele><time>2026-04-08T08:28:37.978Z</time></trkpt><trkpt lat="44.1475313" lon="10.3702239"><ele>418.99999999999994</ele><time>2026-04-08T08:28:39.966Z</time></trkpt><trkpt lat="44.1474599" lon="10.3702859"><ele>419.0</ele><time>2026-04-08T08:28:41.982Z</time></trkpt><trkpt lat="44.1473927" lon="10.370363"><ele>418.16666666666663</ele><time>2026-04-08T08:28:43.958Z</time></trkpt><trkpt lat="44.1473182" lon="10.3704361"><ele>417.3333333333333</ele><time>2026-04-08T08:28:45.96Z</time></trkpt><trkpt lat="44.1472485" lon="10.3705108"><ele>416.5</ele><time>2026-04-08T08:28:47.962Z</time></trkpt><trkpt lat="44.1471782" lon="10.3705896"><ele>415.66666666666663</ele><time>2026-04-08T08:28:49.966Z</time></trkpt><trkpt lat="44.1471156" lon="10.3706849"><ele>414.8333333333333</ele><time>2026-04-08T08:28:51.963Z</time></trkpt><trkpt lat="44.1470606" lon="10.370777"><ele>414.0</ele><time>2026-04-08T08:28:53.975Z</time></trkpt><trkpt lat="44.1470087" lon="10.3708821"><ele>414.0</ele><time>2026-04-08T08:28:55.957Z</time></trkpt><trkpt lat="44.1469641" lon="10.3709916"><ele>414.0</ele><time>2026-04-08T08:28:57.969Z</time></trkpt><trkpt lat="44.1469264" lon="10.3711079"><ele>414.0</ele><time>2026-04-08T08:28:59.967Z</time></trkpt><trkpt lat="44.1468957" lon="10.3712258"><ele>414.0</ele><time>2026-04-08T08:29:01.969Z</time></trkpt><trkpt lat="44.1468724" lon="10.3713508"><ele>414.0</ele><time>2026-04-08T08:29:03.968Z</time></trkpt><trkpt lat="44.1468465" lon="10.3714749"><ele>414.79999999999995</ele><time>2026-04-08T08:29:05.96Z</time></trkpt><trkpt lat="44.1468318" lon="10.3715988"><ele>415.59999999999997</ele><time>2026-04-08T08:29:07.96Z</time></trkpt><trkpt lat="44.146826" lon="10.3717286"><ele>416.4</ele><time>2026-04-08T08:29:09.969Z</time></trkpt><trkpt lat="44.1468143" lon="10.3718584"><ele>417.2</ele><time>2026-04-08T08:29:11.969Z</time></trkpt><trkpt lat="44.146824" lon="10.3719843"><ele>418.0</ele><time>2026-04-08T08:29:13.971Z</time></trkpt><trkpt lat="44.146842" lon="10.3721244"><ele>418.0</ele><time>2026-04-08T08:29:15.963Z</time></trkpt><trkpt lat="44.1468547" lon="10.3722688"><ele>418.0</ele><time>2026-04-08T08:29:17.961Z</time></trkpt><trkpt lat="44.1468642" lon="10.3724182"><ele>418.0</ele><time>2026-04-08T08:29:19.956Z</time></trkpt><trkpt lat="44.1468684" lon="10.3725621"><ele>418.0</ele><time>2026-04-08T08:29:21.965Z</time></trkpt><trkpt lat="44.1468437" lon="10.3726881"><ele>418.0</ele><time>2026-04-08T08:29:23.965Z</time></trkpt><trkpt lat="44.1467823" lon="10.3727883"><ele>418.0</ele><time>2026-04-08T08:29:25.963Z</time></trkpt><trkpt lat="44.1466874" lon="10.3728635"><ele>418.0</ele><time>2026-04-08T08:29:27.963Z</time></trkpt><trkpt lat="44.1465823" lon="10.372893"><ele>418.0</ele><time>2026-04-08T08:29:29.969Z</time></trkpt><trkpt lat="44.1464693" lon="10.3728828"><ele>418.0</ele><time>2026-04-08T08:29:31.96Z</time></trkpt><trkpt lat="44.1463556" lon="10.3728584"><ele>418.0</ele><time>2026-04-08T08:29:33.962Z</time></trkpt><trkpt lat="44.1462485" lon="10.3728087"><ele>417.0</ele><time>2026-04-08T08:29:35.958Z</time></trkpt><trkpt lat="44.1461347" lon="10.3727606"><ele>416.0</ele><time>2026-04-08T08:29:37.974Z</time></trkpt><trkpt lat="44.1460294" lon="10.3727266"><ele>415.0</ele><time>2026-04-08T08:29:39.973Z</time></trkpt><trkpt lat="44.1459355" lon="10.372683"><ele>414.0</ele><time>2026-04-08T08:29:41.965Z</time></trkpt><trkpt lat="44.1458435" lon="10.3726349"><ele>413.0</ele><time>2026-04-08T08:29:43.963Z</time></trkpt><trkpt lat="44.1457509" lon="10.3726163"><ele>411.0</ele><time>2026-04-08T08:29:45.954Z</time></trkpt><trkpt lat="44.145662" lon="10.3726665"><ele>409.0</ele><time>2026-04-08T08:29:47.963Z</time></trkpt><trkpt lat="44.1455888" lon="10.3727468"><ele>407.0</ele><time>2026-04-08T08:29:49.97Z</time></trkpt><trkpt lat="44.1455101" lon="10.3728132"><ele>405.0</ele><time>2026-04-08T08:29:51.963Z</time></trkpt><trkpt lat="44.1454323" lon="10.3728867"><ele>403.0</ele><time>2026-04-08T08:29:53.971Z</time></trkpt><trkpt lat="44.1453563" lon="10.3729572"><ele>405.00000000000006</ele><time>2026-04-08T08:29:55.968Z</time></trkpt><trkpt lat="44.1452818" lon="10.3730244"><ele>407.0</ele><time>2026-04-08T08:29:57.953Z</time></trkpt><trkpt lat="44.1452148" lon="10.3730926"><ele>409.0</ele><time>2026-04-08T08:29:59.954Z</time></trkpt><trkpt lat="44.1451408" lon="10.3731514"><ele>411.0</ele><time>2026-04-08T08:30:01.97Z</time></trkpt><trkpt lat="44.1450654" lon="10.3732142"><ele>413.00000000000006</ele><time>2026-04-08T08:30:03.957Z</time></trkpt><trkpt lat="44.1449924" lon="10.3732752"><ele>415.0</ele><time>2026-04-08T08:30:05.958Z</time></trkpt><trkpt lat="44.1449264" lon="10.373338"><ele>414.00000000000006</ele><time>2026-04-08T08:30:07.965Z</time></trkpt><trkpt lat="44.1448608" lon="10.3734031"><ele>413.0</ele><time>2026-04-08T08:30:09.963Z</time></trkpt><trkpt lat="44.1447905" lon="10.373464"><ele>412.0</ele><time>2026-04-08T08:30:11.968Z</time></trkpt><trkpt lat="44.1447198" lon="10.373522"><ele>411.0</ele><time>2026-04-08T08:30:13.963Z</time></trkpt><trkpt lat="44.144651" lon="10.3735837"><ele>410.00000000000006</ele><time>2026-04-08T08:30:15.967Z</time></trkpt><trkpt lat="44.1445829" lon="10.3736443"><ele>409.0</ele><time>2026-04-08T08:30:17.964Z</time></trkpt><trkpt lat="44.1445144" lon="10.3737037"><ele>409.00000000000006</ele><time>2026-04-08T08:30:19.957Z</time></trkpt><trkpt lat="44.1444477" lon="10.3737634"><ele>409.0</ele><time>2026-04-08T08:30:21.967Z</time></trkpt><trkpt lat="44.1443773" lon="10.3738162"><ele>409.0</ele><time>2026-04-08T08:30:23.96Z</time></trkpt><trkpt lat="44.1443049" lon="10.3738745"><ele>409.0</ele><time>2026-04-08T08:30:25.961Z</time></trkpt><trkpt lat="44.1442216" lon="10.3739228"><ele>409.00000000000006</ele><time>2026-04-08T08:30:27.96Z</time></trkpt><trkpt lat="44.1441216" lon="10.3739619"><ele>409.0</ele><time>2026-04-08T08:30:29.95Z</time></trkpt><trkpt lat="44.1440152" lon="10.3740038"><ele>410.5</ele><time>2026-04-08T08:30:31.951Z</time></trkpt><trkpt lat="44.1439034" lon="10.3740191"><ele>412.0</ele><time>2026-04-08T08:30:33.957Z</time></trkpt><trkpt lat="44.1437844" lon="10.3740108"><ele>413.5</ele><time>2026-04-08T08:30:35.948Z</time></trkpt><trkpt lat="44.1436708" lon="10.3739817"><ele>415.0</ele><time>2026-04-08T08:30:37.949Z</time></trkpt><trkpt lat="44.1435584" lon="10.3739242"><ele>415.0</ele><time>2026-04-08T08:30:39.95Z</time></trkpt><trkpt lat="44.1434507" lon="10.3738612"><ele>415.0</ele><time>2026-04-08T08:30:41.953Z</time></trkpt><trkpt lat="44.143351" lon="10.3737898"><ele>415.0</ele><time>2026-04-08T08:30:43.956Z</time></trkpt><trkpt lat="44.1432551" lon="10.3737247"><ele>415.0</ele><time>2026-04-08T08:30:45.951Z</time></trkpt><trkpt lat="44.1431636" lon="10.3736608"><ele>415.0</ele><time>2026-04-08T08:30:47.954Z</time></trkpt><trkpt lat="44.1430814" lon="10.3736032"><ele>414.50000000000006</ele><time>2026-04-08T08:30:49.959Z</time></trkpt><trkpt lat="44.1430003" lon="10.3735718"><ele>414.0</ele><time>2026-04-08T08:30:51.956Z</time></trkpt><trkpt lat="44.142921" lon="10.3735774"><ele>413.5</ele><time>2026-04-08T08:30:53.967Z</time></trkpt><trkpt lat="44.1428483" lon="10.3736113"><ele>413.0</ele><time>2026-04-08T08:30:55.953Z</time></trkpt><trkpt lat="44.142787" lon="10.3736699"><ele>412.50000000000006</ele><time>2026-04-08T08:30:57.951Z</time></trkpt><trkpt lat="44.1427362" lon="10.3737436"><ele>412.0</ele><time>2026-04-08T08:30:59.958Z</time></trkpt><trkpt lat="44.1426949" lon="10.373834"><ele>411.6</ele><time>2026-04-08T08:31:01.966Z</time></trkpt><trkpt lat="44.1426591" lon="10.3739404"><ele>411.20000000000005</ele><time>2026-04-08T08:31:03.966Z</time></trkpt><trkpt lat="44.1426271" lon="10.3740587"><ele>410.8</ele><time>2026-04-08T08:31:05.955Z</time></trkpt><trkpt lat="44.1425818" lon="10.3741909"><ele>410.4</ele><time>2026-04-08T08:31:07.955Z</time></trkpt><trkpt lat="44.1425487" lon="10.3743134"><ele>410.0</ele><time>2026-04-08T08:31:09.962Z</time></trkpt><trkpt lat="44.1425084" lon="10.3744383"><ele>410.0</ele><time>2026-04-08T08:31:11.955Z</time></trkpt><trkpt lat="44.1424703" lon="10.3745608"><ele>410.0</ele><time>2026-04-08T08:31:13.949Z</time></trkpt><trkpt lat="44.1424358" lon="10.3746818"><ele>410.0</ele><time>2026-04-08T08:31:15.959Z</time></trkpt><trkpt lat="44.1423972" lon="10.3748108"><ele>410.0</ele><time>2026-04-08T08:31:17.955Z</time></trkpt><trkpt lat="44.1423545" lon="10.3749354"><ele>410.0</ele><time>2026-04-08T08:31:19.962Z</time></trkpt><trkpt lat="44.1423184" lon="10.3750622"><ele>407.0</ele><time>2026-04-08T08:31:21.958Z</time></trkpt><trkpt lat="44.1422872" lon="10.3751872"><ele>404.0</ele><time>2026-04-08T08:31:23.963Z</time></trkpt><trkpt lat="44.1422659" lon="10.375327"><ele>401.0</ele><time>2026-04-08T08:31:25.961Z</time></trkpt><trkpt lat="44.1422588" lon="10.3754853"><ele>398.0</ele><time>2026-04-08T08:31:27.959Z</time></trkpt><trkpt lat="44.1422518" lon="10.3756562"><ele>395.0</ele><time>2026-04-08T08:31:29.954Z</time></trkpt><trkpt lat="44.1422513" lon="10.3758282"><ele>395.0</ele><time>2026-04-08T08:31:31.963Z</time></trkpt><trkpt lat="44.1422353" lon="10.3759944"><ele>395.0</ele><time>2026-04-08T08:31:33.957Z</time></trkpt><trkpt lat="44.1422117" lon="10.3761577"><ele>395.0</ele><time>2026-04-08T08:31:35.96Z</time></trkpt><trkpt lat="44.1421799" lon="10.3763232"><ele>395.0</ele><time>2026-04-08T08:31:37.965Z</time></trkpt><trkpt lat="44.1421374" lon="10.3764816"><ele>395.66666666666663</ele><time>2026-04-08T08:31:39.969Z</time></trkpt><trkpt lat="44.1421097" lon="10.3765654"><ele>396.3333333333333</ele><time>2026-04-08T08:31:40.967Z</time></trkpt><trkpt lat="44.1420763" lon="10.3766459"><ele>397.0</ele><time>2026-04-08T08:31:41.956Z</time></trkpt><trkpt lat="44.1420466" lon="10.3767266"><ele>397.66666666666663</ele><time>2026-04-08T08:31:42.978Z</time></trkpt><trkpt lat="44.1420165" lon="10.3768045"><ele>398.3333333333333</ele><time>2026-04-08T08:31:43.955Z</time></trkpt><trkpt lat="44.1419546" lon="10.3769522"><ele>399.0</ele><time>2026-04-08T08:31:45.967Z</time></trkpt><trkpt lat="44.1418845" lon="10.3771015"><ele>399.0</ele><time>2026-04-08T08:31:47.974Z</time></trkpt><trkpt lat="44.1418435" lon="10.3771686"><ele>399.0</ele><time>2026-04-08T08:31:48.96Z</time></trkpt><trkpt lat="44.1417502" lon="10.3772845"><ele>399.0</ele><time>2026-04-08T08:31:50.957Z</time></trkpt><trkpt lat="44.1416509" lon="10.3773783"><ele>399.0</ele><time>2026-04-08T08:31:52.964Z</time></trkpt><trkpt lat="44.1415915" lon="10.3774094"><ele>399.0</ele><time>2026-04-08T08:31:53.956Z</time></trkpt><trkpt lat="44.1414862" lon="10.3775005"><ele>399.0</ele><time>2026-04-08T08:31:55.963Z</time></trkpt><trkpt lat="44.1413873" lon="10.377609"><ele>399.0</ele><time>2026-04-08T08:31:57.974Z</time></trkpt><trkpt lat="44.1412909" lon="10.3777162"><ele>399.0</ele><time>2026-04-08T08:31:59.963Z</time></trkpt><trkpt lat="44.1411847" lon="10.3778188"><ele>399.0</ele><time>2026-04-08T08:32:01.965Z</time></trkpt><trkpt lat="44.1410687" lon="10.3778966"><ele>399.0</ele><time>2026-04-08T08:32:03.959Z</time></trkpt><trkpt lat="44.1410043" lon="10.3779116"><ele>399.0</ele><time>2026-04-08T08:32:04.962Z</time></trkpt><trkpt lat="44.1409407" lon="10.3779174"><ele>399.0</ele><time>2026-04-08T08:32:05.952Z</time></trkpt><trkpt lat="44.1408287" lon="10.3779314"><ele>399.0</ele><time>2026-04-08T08:32:07.967Z</time></trkpt><trkpt lat="44.1407332" lon="10.3779425"><ele>399.0</ele><time>2026-04-08T08:32:09.962Z</time></trkpt><trkpt lat="44.1406432" lon="10.3779496"><ele>399.0</ele><time>2026-04-08T08:32:11.975Z</time></trkpt><trkpt lat="44.1405604" lon="10.3779633"><ele>398.6</ele><time>2026-04-08T08:32:13.956Z</time></trkpt><trkpt lat="44.1404781" lon="10.3779905"><ele>398.2</ele><time>2026-04-08T08:32:15.951Z</time></trkpt><trkpt lat="44.1403955" lon="10.3780376"><ele>397.8</ele><time>2026-04-08T08:32:17.957Z</time></trkpt><trkpt lat="44.1403144" lon="10.3781129"><ele>397.40000000000003</ele><time>2026-04-08T08:32:19.953Z</time></trkpt><trkpt lat="44.1402469" lon="10.3781984"><ele>397.0</ele><time>2026-04-08T08:32:21.965Z</time></trkpt><trkpt lat="44.1401817" lon="10.3782922"><ele>397.0</ele><time>2026-04-08T08:32:23.962Z</time></trkpt><trkpt lat="44.1401288" lon="10.3784055"><ele>397.0</ele><time>2026-04-08T08:32:25.961Z</time></trkpt><trkpt lat="44.1400825" lon="10.3785316"><ele>397.0</ele><time>2026-04-08T08:32:27.96Z</time></trkpt><trkpt lat="44.14003" lon="10.3786777"><ele>397.0</ele><time>2026-04-08T08:32:29.962Z</time></trkpt><trkpt lat="44.1400052" lon="10.3787593"><ele>397.0</ele><time>2026-04-08T08:32:30.968Z</time></trkpt><trkpt lat="44.1399457" lon="10.378916"><ele>397.7142857142857</ele><time>2026-04-08T08:32:32.964Z</time></trkpt><trkpt lat="44.1399058" lon="10.3789951"><ele>398.42857142857144</ele><time>2026-04-08T08:32:33.962Z</time></trkpt><trkpt lat="44.1398589" lon="10.3790669"><ele>399.1428571428571</ele><time>2026-04-08T08:32:34.972Z</time></trkpt><trkpt lat="44.1398097" lon="10.3791401"><ele>399.8571428571429</ele><time>2026-04-08T08:32:35.962Z</time></trkpt><trkpt lat="44.1397543" lon="10.3792114"><ele>400.5714285714286</ele><time>2026-04-08T08:32:36.955Z</time></trkpt><trkpt lat="44.1396943" lon="10.3792793"><ele>401.2857142857143</ele><time>2026-04-08T08:32:37.968Z</time></trkpt><trkpt lat="44.139636" lon="10.3793463"><ele>402.0</ele><time>2026-04-08T08:32:38.963Z</time></trkpt><trkpt lat="44.1395771" lon="10.3794158"><ele>399.6666666666667</ele><time>2026-04-08T08:32:39.972Z</time></trkpt><trkpt lat="44.1395228" lon="10.3794867"><ele>397.33333333333337</ele><time>2026-04-08T08:32:40.967Z</time></trkpt><trkpt lat="44.1394674" lon="10.3795662"><ele>395.0</ele><time>2026-04-08T08:32:41.973Z</time></trkpt><trkpt lat="44.1394151" lon="10.3796499"><ele>392.6666666666667</ele><time>2026-04-08T08:32:42.968Z</time></trkpt><trkpt lat="44.1393709" lon="10.3797376"><ele>390.33333333333337</ele><time>2026-04-08T08:32:43.95Z</time></trkpt><trkpt lat="44.1393233" lon="10.3798321"><ele>388.0</ele><time>2026-04-08T08:32:44.965Z</time></trkpt><trkpt lat="44.1392887" lon="10.3799235"><ele>388.00000000000006</ele><time>2026-04-08T08:32:45.959Z</time></trkpt><trkpt lat="44.139244" lon="10.3800221"><ele>388.0</ele><time>2026-04-08T08:32:46.967Z</time></trkpt><trkpt lat="44.1392004" lon="10.3801281"><ele>388.0</ele><time>2026-04-08T08:32:47.966Z</time></trkpt><trkpt lat="44.1391586" lon="10.380238"><ele>388.0</ele><time>2026-04-08T08:32:48.963Z</time></trkpt><trkpt lat="44.139112" lon="10.3803431"><ele>388.00000000000006</ele><time>2026-04-08T08:32:49.977Z</time></trkpt><trkpt lat="44.1390601" lon="10.3804489"><ele>388.0</ele><time>2026-04-08T08:32:50.975Z</time></trkpt><trkpt lat="44.1389973" lon="10.3805419"><ele>386.50000000000006</ele><time>2026-04-08T08:32:51.959Z</time></trkpt><trkpt lat="44.1389266" lon="10.3806212"><ele>385.0</ele><time>2026-04-08T08:32:52.958Z</time></trkpt><trkpt lat="44.1388514" lon="10.3806908"><ele>383.5</ele><time>2026-04-08T08:32:53.978Z</time></trkpt><trkpt lat="44.1387763" lon="10.3807559"><ele>382.0</ele><time>2026-04-08T08:32:54.968Z</time></trkpt><trkpt lat="44.1387005" lon="10.3808263"><ele>380.5</ele><time>2026-04-08T08:32:55.97Z</time></trkpt><trkpt lat="44.1386281" lon="10.3808965"><ele>379.0</ele><time>2026-04-08T08:32:56.97Z</time></trkpt><trkpt lat="44.138557" lon="10.380972"><ele>379.0</ele><time>2026-04-08T08:32:57.967Z</time></trkpt><trkpt lat="44.1384854" lon="10.3810515"><ele>379.0</ele><time>2026-04-08T08:32:58.968Z</time></trkpt><trkpt lat="44.1384175" lon="10.3811377"><ele>379.0</ele><time>2026-04-08T08:32:59.973Z</time></trkpt><trkpt lat="44.1383533" lon="10.381228"><ele>379.0</ele><time>2026-04-08T08:33:00.96Z</time></trkpt><trkpt lat="44.1382923" lon="10.3813309"><ele>379.0</ele><time>2026-04-08T08:33:01.975Z</time></trkpt><trkpt lat="44.1382263" lon="10.3814322"><ele>377.2</ele><time>2026-04-08T08:33:02.982Z</time></trkpt><trkpt lat="44.1381561" lon="10.3815177"><ele>375.4</ele><time>2026-04-08T08:33:03.954Z</time></trkpt><trkpt lat="44.1380716" lon="10.381587"><ele>373.6</ele><time>2026-04-08T08:33:04.958Z</time></trkpt><trkpt lat="44.1379931" lon="10.3816601"><ele>371.8</ele><time>2026-04-08T08:33:05.966Z</time></trkpt><trkpt lat="44.1379111" lon="10.3817368"><ele>370.0</ele><time>2026-04-08T08:33:06.962Z</time></trkpt><trkpt lat="44.1378462" lon="10.381834"><ele>370.0</ele><time>2026-04-08T08:33:07.958Z</time></trkpt><trkpt lat="44.1377973" lon="10.381946"><ele>370.0</ele><time>2026-04-08T08:33:08.96Z</time></trkpt><trkpt lat="44.137749" lon="10.3820628"><ele>370.0</ele><time>2026-04-08T08:33:09.958Z</time></trkpt><trkpt lat="44.1376968" lon="10.3821694"><ele>370.0</ele><time>2026-04-08T08:33:10.973Z</time></trkpt><trkpt lat="44.137636" lon="10.3822796"><ele>370.0</ele><time>2026-04-08T08:33:11.959Z</time></trkpt><trkpt lat="44.1375659" lon="10.382378"><ele>369.4</ele><time>2026-04-08T08:33:12.953Z</time></trkpt><trkpt lat="44.1374908" lon="10.3824668"><ele>368.8</ele><time>2026-04-08T08:33:13.961Z</time></trkpt><trkpt lat="44.1374049" lon="10.3825344"><ele>368.20000000000005</ele><time>2026-04-08T08:33:14.958Z</time></trkpt><trkpt lat="44.137321" lon="10.3825908"><ele>367.6</ele><time>2026-04-08T08:33:15.963Z</time></trkpt><trkpt lat="44.137234" lon="10.3826431"><ele>367.0</ele><time>2026-04-08T08:33:16.962Z</time></trkpt><trkpt lat="44.1371495" lon="10.3826925"><ele>367.0</ele><time>2026-04-08T08:33:17.959Z</time></trkpt><trkpt lat="44.137063" lon="10.3827381"><ele>367.0</ele><time>2026-04-08T08:33:18.959Z</time></trkpt><trkpt lat="44.1369819" lon="10.3827842"><ele>367.0</ele><time>2026-04-08T08:33:19.96Z</time></trkpt><trkpt lat="44.1368973" lon="10.3828362"><ele>367.0</ele><time>2026-04-08T08:33:20.959Z</time></trkpt><trkpt lat="44.1368237" lon="10.382899"><ele>367.0</ele><time>2026-04-08T08:33:21.956Z</time></trkpt><trkpt lat="44.1367565" lon="10.3829803"><ele>367.0</ele><time>2026-04-08T08:33:22.962Z</time></trkpt><trkpt lat="44.1367023" lon="10.3830673"><ele>368.16666666666663</ele><time>2026-04-08T08:33:23.967Z</time></trkpt><trkpt lat="44.1366502" lon="10.3831611"><ele>369.3333333333333</ele><time>2026-04-08T08:33:24.964Z</time></trkpt><trkpt lat="44.1366123" lon="10.3832598"><ele>370.5</ele><time>2026-04-08T08:33:25.96Z</time></trkpt><trkpt lat="44.1365866" lon="10.3833671"><ele>371.6666666666667</ele><time>2026-04-08T08:33:26.962Z</time></trkpt><trkpt lat="44.1365721" lon="10.3834821"><ele>372.83333333333337</ele><time>2026-04-08T08:33:27.958Z</time></trkpt><trkpt lat="44.1365717" lon="10.3835941"><ele>374.0</ele><time>2026-04-08T08:33:28.961Z</time></trkpt><trkpt lat="44.1365793" lon="10.3837068"><ele>374.0</ele><time>2026-04-08T08:33:29.967Z</time></trkpt><trkpt lat="44.1365859" lon="10.3838171"><ele>374.0</ele><time>2026-04-08T08:33:30.964Z</time></trkpt><trkpt lat="44.136594" lon="10.3839312"><ele>374.0</ele><time>2026-04-08T08:33:31.959Z</time></trkpt><trkpt lat="44.1366046" lon="10.3840446"><ele>374.0</ele><time>2026-04-08T08:33:32.971Z</time></trkpt><trkpt lat="44.1366171" lon="10.3841549"><ele>374.0</ele><time>2026-04-08T08:33:33.974Z</time></trkpt><trkpt lat="44.1366303" lon="10.3842628"><ele>374.0</ele><time>2026-04-08T08:33:34.953Z</time></trkpt><trkpt lat="44.1366432" lon="10.3843742"><ele>374.0</ele><time>2026-04-08T08:33:35.966Z</time></trkpt><trkpt lat="44.1366572" lon="10.3844787"><ele>374.0</ele><time>2026-04-08T08:33:36.979Z</time></trkpt><trkpt lat="44.1366695" lon="10.3845907"><ele>374.0</ele><time>2026-04-08T08:33:37.985Z</time></trkpt><trkpt lat="44.1366852" lon="10.3847052"><ele>374.0</ele><time>2026-04-08T08:33:38.967Z</time></trkpt><trkpt lat="44.1366968" lon="10.3848142"><ele>374.0</ele><time>2026-04-08T08:33:39.961Z</time></trkpt><trkpt lat="44.1367117" lon="10.3849232"><ele>374.0</ele><time>2026-04-08T08:33:40.982Z</time></trkpt><trkpt lat="44.1367248" lon="10.3850355"><ele>373.0</ele><time>2026-04-08T08:33:41.978Z</time></trkpt><trkpt lat="44.1367432" lon="10.385147"><ele>372.0</ele><time>2026-04-08T08:33:42.979Z</time></trkpt><trkpt lat="44.1367551" lon="10.3852596"><ele>371.0</ele><time>2026-04-08T08:33:43.967Z</time></trkpt><trkpt lat="44.1367701" lon="10.3853734"><ele>370.0</ele><time>2026-04-08T08:33:44.966Z</time></trkpt><trkpt lat="44.1367895" lon="10.3854804"><ele>369.0</ele><time>2026-04-08T08:33:45.995Z</time></trkpt><trkpt lat="44.1368058" lon="10.3855904"><ele>368.0</ele><time>2026-04-08T08:33:46.964Z</time></trkpt><trkpt lat="44.1368227" lon="10.3857026"><ele>367.33333333333337</ele><time>2026-04-08T08:33:47.968Z</time></trkpt><trkpt lat="44.1368382" lon="10.3858145"><ele>366.6666666666667</ele><time>2026-04-08T08:33:48.964Z</time></trkpt><trkpt lat="44.1368572" lon="10.3859286"><ele>366.0</ele><time>2026-04-08T08:33:49.97Z</time></trkpt><trkpt lat="44.1368662" lon="10.3860437"><ele>365.3333333333333</ele><time>2026-04-08T08:33:50.966Z</time></trkpt><trkpt lat="44.1368608" lon="10.3861549"><ele>364.66666666666663</ele><time>2026-04-08T08:33:51.962Z</time></trkpt><trkpt lat="44.1368104" lon="10.3862539"><ele>364.0</ele><time>2026-04-08T08:33:52.972Z</time></trkpt><trkpt lat="44.1367516" lon="10.3863233"><ele>363.16666666666663</ele><time>2026-04-08T08:33:53.969Z</time></trkpt><trkpt lat="44.1366719" lon="10.3863665"><ele>362.3333333333333</ele><time>2026-04-08T08:33:54.972Z</time></trkpt><trkpt lat="44.1365907" lon="10.3864013"><ele>361.5</ele><time>2026-04-08T08:33:55.966Z</time></trkpt><trkpt lat="44.1365088" lon="10.3864387"><ele>360.6666666666667</ele><time>2026-04-08T08:33:56.967Z</time></trkpt><trkpt lat="44.1364222" lon="10.3864714"><ele>359.83333333333337</ele><time>2026-04-08T08:33:57.974Z</time></trkpt><trkpt lat="44.1363386" lon="10.3865095"><ele>359.0</ele><time>2026-04-08T08:33:58.968Z</time></trkpt><trkpt lat="44.1362564" lon="10.3865446"><ele>359.0</ele><time>2026-04-08T08:33:59.976Z</time></trkpt><trkpt lat="44.1361725" lon="10.3865762"><ele>359.0</ele><time>2026-04-08T08:34:00.967Z</time></trkpt><trkpt lat="44.1360862" lon="10.3866199"><ele>359.0</ele><time>2026-04-08T08:34:01.959Z</time></trkpt><trkpt lat="44.1360064" lon="10.3866549"><ele>359.0</ele><time>2026-04-08T08:34:02.968Z</time></trkpt><trkpt lat="44.1359268" lon="10.3866839"><ele>359.0</ele><time>2026-04-08T08:34:03.964Z</time></trkpt><trkpt lat="44.1358407" lon="10.3867232"><ele>359.0</ele><time>2026-04-08T08:34:04.96Z</time></trkpt><trkpt lat="44.1357525" lon="10.3867609"><ele>357.4</ele><time>2026-04-08T08:34:05.969Z</time></trkpt><trkpt lat="44.135666" lon="10.3867959"><ele>355.79999999999995</ele><time>2026-04-08T08:34:06.962Z</time></trkpt><trkpt lat="44.1355801" lon="10.3868329"><ele>354.20000000000005</ele><time>2026-04-08T08:34:07.964Z</time></trkpt><trkpt lat="44.13549" lon="10.3868815"><ele>352.6</ele><time>2026-04-08T08:34:08.961Z</time></trkpt><trkpt lat="44.1354091" lon="10.3869473"><ele>351.0</ele><time>2026-04-08T08:34:09.956Z</time></trkpt><trkpt lat="44.1353407" lon="10.3870301"><ele>351.0</ele><time>2026-04-08T08:34:10.965Z</time></trkpt><trkpt lat="44.1352803" lon="10.3871288"><ele>351.0</ele><time>2026-04-08T08:34:11.967Z</time></trkpt><trkpt lat="44.1352319" lon="10.3872402"><ele>351.0</ele><time>2026-04-08T08:34:12.97Z</time></trkpt><trkpt lat="44.1351888" lon="10.3873591"><ele>351.0</ele><time>2026-04-08T08:34:13.96Z</time></trkpt><trkpt lat="44.1351495" lon="10.3874826"><ele>351.0</ele><time>2026-04-08T08:34:14.969Z</time></trkpt><trkpt lat="44.1351116" lon="10.3876032"><ele>351.8</ele><time>2026-04-08T08:34:15.96Z</time></trkpt><trkpt lat="44.1350731" lon="10.3877211"><ele>352.6</ele><time>2026-04-08T08:34:16.964Z</time></trkpt><trkpt lat="44.1350394" lon="10.3878386"><ele>353.4</ele><time>2026-04-08T08:34:17.959Z</time></trkpt><trkpt lat="44.1350023" lon="10.3879562"><ele>354.2</ele><time>2026-04-08T08:34:18.961Z</time></trkpt><trkpt lat="44.1349615" lon="10.3880767"><ele>355.0</ele><time>2026-04-08T08:34:19.976Z</time></trkpt><trkpt lat="44.1349262" lon="10.3881861"><ele>352.8</ele><time>2026-04-08T08:34:20.958Z</time></trkpt><trkpt lat="44.1348871" lon="10.3883059"><ele>350.6</ele><time>2026-04-08T08:34:21.961Z</time></trkpt><trkpt lat="44.1348512" lon="10.3884255"><ele>348.4</ele><time>2026-04-08T08:34:22.97Z</time></trkpt><trkpt lat="44.1348273" lon="10.3885501"><ele>346.2</ele><time>2026-04-08T08:34:23.963Z</time></trkpt><trkpt lat="44.1348105" lon="10.3886801"><ele>344.0</ele><time>2026-04-08T08:34:24.966Z</time></trkpt><trkpt lat="44.1347992" lon="10.3888119"><ele>343.4</ele><time>2026-04-08T08:34:25.953Z</time></trkpt><trkpt lat="44.1347917" lon="10.3889407"><ele>342.79999999999995</ele><time>2026-04-08T08:34:26.979Z</time></trkpt><trkpt lat="44.1347722" lon="10.3890665"><ele>342.20000000000005</ele><time>2026-04-08T08:34:27.965Z</time></trkpt><trkpt lat="44.1347449" lon="10.3891912"><ele>341.6</ele><time>2026-04-08T08:34:28.972Z</time></trkpt><trkpt lat="44.13471" lon="10.3893178"><ele>341.0</ele><time>2026-04-08T08:34:29.954Z</time></trkpt><trkpt lat="44.1346744" lon="10.3894381"><ele>341.0</ele><time>2026-04-08T08:34:30.959Z</time></trkpt><trkpt lat="44.1346403" lon="10.3895569"><ele>341.0</ele><time>2026-04-08T08:34:31.962Z</time></trkpt><trkpt lat="44.1346085" lon="10.3896778"><ele>341.0</ele><time>2026-04-08T08:34:32.958Z</time></trkpt><trkpt lat="44.1345908" lon="10.3898048"><ele>341.0</ele><time>2026-04-08T08:34:33.973Z</time></trkpt><trkpt lat="44.1345934" lon="10.3899398"><ele>341.0</ele><time>2026-04-08T08:34:34.965Z</time></trkpt><trkpt lat="44.1346166" lon="10.3900735"><ele>338.8</ele><time>2026-04-08T08:34:35.963Z</time></trkpt><trkpt lat="44.1346566" lon="10.3901948"><ele>336.6</ele><time>2026-04-08T08:34:36.956Z</time></trkpt><trkpt lat="44.1347049" lon="10.3903178"><ele>334.4</ele><time>2026-04-08T08:34:37.971Z</time></trkpt><trkpt lat="44.1347524" lon="10.390438"><ele>332.2</ele><time>2026-04-08T08:34:38.964Z</time></trkpt><trkpt lat="44.1347974" lon="10.3905636"><ele>330.0</ele><time>2026-04-08T08:34:39.963Z</time></trkpt><trkpt lat="44.134845" lon="10.3906896"><ele>333.4</ele><time>2026-04-08T08:34:40.973Z</time></trkpt><trkpt lat="44.1348915" lon="10.3908148"><ele>336.8</ele><time>2026-04-08T08:34:41.966Z</time></trkpt><trkpt lat="44.1349441" lon="10.3909457"><ele>340.20000000000005</ele><time>2026-04-08T08:34:42.971Z</time></trkpt><trkpt lat="44.1350015" lon="10.3910739"><ele>343.6</ele><time>2026-04-08T08:34:43.967Z</time></trkpt><trkpt lat="44.1350625" lon="10.3911996"><ele>347.0</ele><time>2026-04-08T08:34:44.966Z</time></trkpt><trkpt lat="44.135125" lon="10.3913283"><ele>344.20000000000005</ele><time>2026-04-08T08:34:45.963Z</time></trkpt><trkpt lat="44.1351951" lon="10.3914563"><ele>341.4</ele><time>2026-04-08T08:34:46.963Z</time></trkpt><trkpt lat="44.1352665" lon="10.3915851"><ele>338.6</ele><time>2026-04-08T08:34:47.97Z</time></trkpt><trkpt lat="44.1353346" lon="10.3917021"><ele>335.79999999999995</ele><time>2026-04-08T08:34:48.961Z</time></trkpt><trkpt lat="44.1353926" lon="10.3918076"><ele>333.0</ele><time>2026-04-08T08:34:49.965Z</time></trkpt><trkpt lat="44.1354474" lon="10.3919094"><ele>333.0</ele><time>2026-04-08T08:34:50.957Z</time></trkpt><trkpt lat="44.1354849" lon="10.392019"><ele>333.0</ele><time>2026-04-08T08:34:51.962Z</time></trkpt><trkpt lat="44.1354955" lon="10.3921358"><ele>333.0</ele><time>2026-04-08T08:34:52.975Z</time></trkpt><trkpt lat="44.135476" lon="10.3922534"><ele>333.0</ele><time>2026-04-08T08:34:53.968Z</time></trkpt><trkpt lat="44.1354205" lon="10.3923597"><ele>333.0</ele><time>2026-04-08T08:34:54.955Z</time></trkpt><trkpt lat="44.1353505" lon="10.3924429"><ele>333.0</ele><time>2026-04-08T08:34:55.957Z</time></trkpt><trkpt lat="44.1352738" lon="10.3925174"><ele>333.1666666666667</ele><time>2026-04-08T08:34:56.967Z</time></trkpt><trkpt lat="44.1351989" lon="10.3925862"><ele>333.3333333333333</ele><time>2026-04-08T08:34:57.957Z</time></trkpt><trkpt lat="44.1351276" lon="10.3926553"><ele>333.5</ele><time>2026-04-08T08:34:58.964Z</time></trkpt><trkpt lat="44.1350533" lon="10.3927088"><ele>333.66666666666663</ele><time>2026-04-08T08:34:59.966Z</time></trkpt><trkpt lat="44.1349755" lon="10.3927348"><ele>333.8333333333333</ele><time>2026-04-08T08:35:00.96Z</time></trkpt><trkpt lat="44.1348994" lon="10.3927451"><ele>334.0</ele><time>2026-04-08T08:35:01.962Z</time></trkpt><trkpt lat="44.1348353" lon="10.3927482"><ele>334.5</ele><time>2026-04-08T08:35:02.956Z</time></trkpt><trkpt lat="44.1347316" lon="10.3927391"><ele>335.0</ele><time>2026-04-08T08:35:04.961Z</time></trkpt><trkpt lat="44.1346475" lon="10.3927395"><ele>335.5</ele><time>2026-04-08T08:35:06.968Z</time></trkpt><trkpt lat="44.1345588" lon="10.3927597"><ele>336.0</ele><time>2026-04-08T08:35:09.966Z</time></trkpt><trkpt lat="44.1344895" lon="10.39279"><ele>336.5</ele><time>2026-04-08T08:35:12.959Z</time></trkpt><trkpt lat="44.1344259" lon="10.392827"><ele>337.0</ele><time>2026-04-08T08:35:15.975Z</time></trkpt><trkpt lat="44.1343678" lon="10.3928739"><ele>337.0</ele><time>2026-04-08T08:35:18.962Z</time></trkpt><trkpt lat="44.1342973" lon="10.3929248"><ele>337.0</ele><time>2026-04-08T08:35:21.969Z</time></trkpt><trkpt lat="44.1342205" lon="10.3929699"><ele>337.0</ele><time>2026-04-08T08:35:24.964Z</time></trkpt><trkpt lat="44.1341377" lon="10.3930001"><ele>337.0</ele><time>2026-04-08T08:35:27.948Z</time></trkpt><trkpt lat="44.1340536" lon="10.3930091"><ele>337.0</ele><time>2026-04-08T08:35:30.959Z</time></trkpt><trkpt lat="44.1339661" lon="10.3930074"><ele>337.0</ele><time>2026-04-08T08:35:33.951Z</time></trkpt><trkpt lat="44.1338762" lon="10.3929959"><ele>338.0</ele><time>2026-04-08T08:35:36.972Z</time></trkpt><trkpt lat="44.1337905" lon="10.3929805"><ele>339.0</ele><time>2026-04-08T08:35:39.976Z</time></trkpt><trkpt lat="44.1337099" lon="10.3929578"><ele>340.0</ele><time>2026-04-08T08:35:42.961Z</time></trkpt><trkpt lat="44.1336355" lon="10.3929307"><ele>341.0</ele><time>2026-04-08T08:35:45.972Z</time></trkpt><trkpt lat="44.1335597" lon="10.3928885"><ele>342.0</ele><time>2026-04-08T08:35:48.952Z</time></trkpt><trkpt lat="44.1334765" lon="10.3928443"><ele>343.0</ele><time>2026-04-08T08:35:51.962Z</time></trkpt><trkpt lat="44.1333925" lon="10.3927995"><ele>343.0</ele><time>2026-04-08T08:35:54.953Z</time></trkpt><trkpt lat="44.1333062" lon="10.3927562"><ele>343.0</ele><time>2026-04-08T08:35:57.96Z</time></trkpt><trkpt lat="44.1332239" lon="10.3927099"><ele>343.0</ele><time>2026-04-08T08:36:00.952Z</time></trkpt><trkpt lat="44.1331406" lon="10.3926693"><ele>343.0</ele><time>2026-04-08T08:36:03.963Z</time></trkpt><trkpt lat="44.1330566" lon="10.392622"><ele>343.0</ele><time>2026-04-08T08:36:06.961Z</time></trkpt><trkpt lat="44.1329963" lon="10.39259"><ele>343.0</ele><time>2026-04-08T08:36:08.968Z</time></trkpt><trkpt lat="44.1329316" lon="10.392568"><ele>343.8333333333333</ele><time>2026-04-08T08:36:10.964Z</time></trkpt><trkpt lat="44.1328382" lon="10.3925604"><ele>344.66666666666663</ele><time>2026-04-08T08:36:13.961Z</time></trkpt><trkpt lat="44.1327488" lon="10.3925683"><ele>345.5</ele><time>2026-04-08T08:36:16.958Z</time></trkpt><trkpt lat="44.1326847" lon="10.3925806"><ele>346.3333333333333</ele><time>2026-04-08T08:36:18.968Z</time></trkpt><trkpt lat="44.1325939" lon="10.3926007"><ele>347.1666666666667</ele><time>2026-04-08T08:36:21.96Z</time></trkpt><trkpt lat="44.132504" lon="10.3926263"><ele>348.0</ele><time>2026-04-08T08:36:24.964Z</time></trkpt><trkpt lat="44.1324121" lon="10.3926469"><ele>349.2857142857143</ele><time>2026-04-08T08:36:27.99Z</time></trkpt><trkpt lat="44.1323492" lon="10.3926576"><ele>350.57142857142856</ele><time>2026-04-08T08:36:29.965Z</time></trkpt><trkpt lat="44.1322848" lon="10.3926681"><ele>351.8571428571429</ele><time>2026-04-08T08:36:31.967Z</time></trkpt><trkpt lat="44.1321917" lon="10.3926544"><ele>353.1428571428571</ele><time>2026-04-08T08:36:34.957Z</time></trkpt><trkpt lat="44.1321294" lon="10.3926322"><ele>354.42857142857144</ele><time>2026-04-08T08:36:36.964Z</time></trkpt><trkpt lat="44.1320654" lon="10.3926017"><ele>355.7142857142857</ele><time>2026-04-08T08:36:38.975Z</time></trkpt><trkpt lat="44.1319983" lon="10.3925544"><ele>357.0</ele><time>2026-04-08T08:36:40.961Z</time></trkpt><trkpt lat="44.1319329" lon="10.3925111"><ele>357.0</ele><time>2026-04-08T08:36:42.962Z</time></trkpt><trkpt lat="44.1318657" lon="10.3924617"><ele>357.0</ele><time>2026-04-08T08:36:44.962Z</time></trkpt><trkpt lat="44.1317987" lon="10.3924028"><ele>357.0</ele><time>2026-04-08T08:36:46.967Z</time></trkpt><trkpt lat="44.1317335" lon="10.3923397"><ele>357.0</ele><time>2026-04-08T08:36:48.97Z</time></trkpt><trkpt lat="44.1316618" lon="10.3922879"><ele>357.0</ele><time>2026-04-08T08:36:50.958Z</time></trkpt><trkpt lat="44.1315932" lon="10.3922393"><ele>357.0</ele><time>2026-04-08T08:36:52.963Z</time></trkpt><trkpt lat="44.131525" lon="10.3921885"><ele>354.85714285714283</ele><time>2026-04-08T08:36:54.958Z</time></trkpt><trkpt lat="44.1314581" lon="10.3921486"><ele>352.7142857142857</ele><time>2026-04-08T08:36:56.968Z</time></trkpt><trkpt lat="44.1313881" lon="10.3921137"><ele>350.57142857142856</ele><time>2026-04-08T08:36:58.98Z</time></trkpt><trkpt lat="44.1313165" lon="10.3920878"><ele>348.42857142857144</ele><time>2026-04-08T08:37:00.966Z</time></trkpt><trkpt lat="44.1312432" lon="10.3920646"><ele>346.2857142857143</ele><time>2026-04-08T08:37:02.964Z</time></trkpt><trkpt lat="44.1311692" lon="10.3920499"><ele>344.1428571428571</ele><time>2026-04-08T08:37:04.96Z</time></trkpt><trkpt lat="44.1311003" lon="10.3920361"><ele>342.0</ele><time>2026-04-08T08:37:06.962Z</time></trkpt><trkpt lat="44.1310256" lon="10.3920184"><ele>342.0</ele><time>2026-04-08T08:37:08.961Z</time></trkpt><trkpt lat="44.13095" lon="10.392004"><ele>342.0</ele><time>2026-04-08T08:37:10.962Z</time></trkpt><trkpt lat="44.1308721" lon="10.3919817"><ele>342.0</ele><time>2026-04-08T08:37:12.971Z</time></trkpt><trkpt lat="44.1307942" lon="10.3919599"><ele>342.0</ele><time>2026-04-08T08:37:14.962Z</time></trkpt><trkpt lat="44.1307106" lon="10.3919504"><ele>342.0</ele><time>2026-04-08T08:37:16.971Z</time></trkpt><trkpt lat="44.130616" lon="10.391953"><ele>342.0</ele><time>2026-04-08T08:37:18.962Z</time></trkpt><trkpt lat="44.1305176" lon="10.3919721"><ele>341.20000000000005</ele><time>2026-04-08T08:37:20.964Z</time></trkpt><trkpt lat="44.130417" lon="10.3919993"><ele>340.4</ele><time>2026-04-08T08:37:22.964Z</time></trkpt><trkpt lat="44.1303092" lon="10.3920272"><ele>339.6</ele><time>2026-04-08T08:37:24.965Z</time></trkpt><trkpt lat="44.1301925" lon="10.3920525"><ele>338.79999999999995</ele><time>2026-04-08T08:37:26.964Z</time></trkpt><trkpt lat="44.130086" lon="10.3920789"><ele>338.0</ele><time>2026-04-08T08:37:28.968Z</time></trkpt><trkpt lat="44.1300214" lon="10.3920927"><ele>338.0</ele><time>2026-04-08T08:37:29.973Z</time></trkpt><trkpt lat="44.1299567" lon="10.3921083"><ele>338.0</ele><time>2026-04-08T08:37:30.964Z</time></trkpt><trkpt lat="44.1298402" lon="10.3921453"><ele>338.0</ele><time>2026-04-08T08:37:32.958Z</time></trkpt><trkpt lat="44.1297786" lon="10.3921772"><ele>338.0</ele><time>2026-04-08T08:37:33.962Z</time></trkpt><trkpt lat="44.1297191" lon="10.3922181"><ele>338.0</ele><time>2026-04-08T08:37:34.96Z</time></trkpt><trkpt lat="44.1296628" lon="10.3922668"><ele>338.0</ele><time>2026-04-08T08:37:35.961Z</time></trkpt><trkpt lat="44.1296124" lon="10.3923244"><ele>338.0</ele><time>2026-04-08T08:37:36.968Z</time></trkpt><trkpt lat="44.1295632" lon="10.3923908"><ele>337.57142857142856</ele><time>2026-04-08T08:37:37.964Z</time></trkpt><trkpt lat="44.1295179" lon="10.3924643"><ele>337.1428571428571</ele><time>2026-04-08T08:37:38.964Z</time></trkpt><trkpt lat="44.1294721" lon="10.3925394"><ele>336.71428571428567</ele><time>2026-04-08T08:37:39.963Z</time></trkpt><trkpt lat="44.1294275" lon="10.3926141"><ele>336.2857142857143</ele><time>2026-04-08T08:37:40.965Z</time></trkpt><trkpt lat="44.1293824" lon="10.3926966"><ele>335.85714285714283</ele><time>2026-04-08T08:37:41.967Z</time></trkpt><trkpt lat="44.1293378" lon="10.3927728"><ele>335.4285714285714</ele><time>2026-04-08T08:37:42.961Z</time></trkpt><trkpt lat="44.1292883" lon="10.3928479"><ele>335.0</ele><time>2026-04-08T08:37:43.965Z</time></trkpt><trkpt lat="44.1292418" lon="10.3929193"><ele>334.99999999999994</ele><time>2026-04-08T08:37:44.959Z</time></trkpt><trkpt lat="44.1291921" lon="10.3929927"><ele>335.0</ele><time>2026-04-08T08:37:45.963Z</time></trkpt><trkpt lat="44.1291401" lon="10.3930595"><ele>335.0</ele><time>2026-04-08T08:37:46.964Z</time></trkpt><trkpt lat="44.1290801" lon="10.3931242"><ele>335.0</ele><time>2026-04-08T08:37:47.968Z</time></trkpt><trkpt lat="44.1290224" lon="10.3931822"><ele>335.0</ele><time>2026-04-08T08:37:48.966Z</time></trkpt><trkpt lat="44.1289566" lon="10.3932404"><ele>334.99999999999994</ele><time>2026-04-08T08:37:49.969Z</time></trkpt><trkpt lat="44.1288917" lon="10.3932947"><ele>335.0</ele><time>2026-04-08T08:37:50.966Z</time></trkpt><trkpt lat="44.1288242" lon="10.3933458"><ele>334.6666666666667</ele><time>2026-04-08T08:37:51.954Z</time></trkpt><trkpt lat="44.1287568" lon="10.3933926"><ele>334.33333333333337</ele><time>2026-04-08T08:37:52.965Z</time></trkpt><trkpt lat="44.1286849" lon="10.3934339"><ele>334.0</ele><time>2026-04-08T08:37:53.973Z</time></trkpt><trkpt lat="44.1286109" lon="10.3934713"><ele>333.6666666666667</ele><time>2026-04-08T08:37:54.962Z</time></trkpt><trkpt lat="44.1285405" lon="10.3934934"><ele>333.3333333333333</ele><time>2026-04-08T08:37:55.957Z</time></trkpt><trkpt lat="44.1284648" lon="10.3935218"><ele>333.0</ele><time>2026-04-08T08:37:56.956Z</time></trkpt><trkpt lat="44.1283912" lon="10.3935503"><ele>333.0</ele><time>2026-04-08T08:37:57.958Z</time></trkpt><trkpt lat="44.1283168" lon="10.3935803"><ele>333.0</ele><time>2026-04-08T08:37:58.966Z</time></trkpt><trkpt lat="44.1282368" lon="10.3936116"><ele>333.0</ele><time>2026-04-08T08:37:59.962Z</time></trkpt><trkpt lat="44.1281562" lon="10.3936386"><ele>333.0</ele><time>2026-04-08T08:38:00.959Z</time></trkpt><trkpt lat="44.1280811" lon="10.3936702"><ele>333.0</ele><time>2026-04-08T08:38:01.97Z</time></trkpt><trkpt lat="44.1280029" lon="10.393703"><ele>333.0</ele><time>2026-04-08T08:38:02.961Z</time></trkpt><trkpt lat="44.127929" lon="10.3937488"><ele>331.5</ele><time>2026-04-08T08:38:03.965Z</time></trkpt><trkpt lat="44.1278539" lon="10.3938081"><ele>330.0</ele><time>2026-04-08T08:38:04.967Z</time></trkpt><trkpt lat="44.1277921" lon="10.3938851"><ele>328.5</ele><time>2026-04-08T08:38:05.966Z</time></trkpt><trkpt lat="44.1277404" lon="10.3939764"><ele>327.0</ele><time>2026-04-08T08:38:06.962Z</time></trkpt><trkpt lat="44.1276998" lon="10.3940736"><ele>325.5</ele><time>2026-04-08T08:38:07.967Z</time></trkpt><trkpt lat="44.1276711" lon="10.3941815"><ele>324.0</ele><time>2026-04-08T08:38:08.962Z</time></trkpt><trkpt lat="44.1276561" lon="10.3942927"><ele>324.0</ele><time>2026-04-08T08:38:09.953Z</time></trkpt><trkpt lat="44.1276454" lon="10.3944077"><ele>324.0</ele><time>2026-04-08T08:38:10.958Z</time></trkpt><trkpt lat="44.1276353" lon="10.3945283"><ele>324.0</ele><time>2026-04-08T08:38:11.972Z</time></trkpt><trkpt lat="44.1276249" lon="10.3946386"><ele>324.0</ele><time>2026-04-08T08:38:12.966Z</time></trkpt><trkpt lat="44.1276141" lon="10.3947582"><ele>324.0</ele><time>2026-04-08T08:38:13.963Z</time></trkpt><trkpt lat="44.1276029" lon="10.3948751"><ele>324.0</ele><time>2026-04-08T08:38:14.975Z</time></trkpt><trkpt lat="44.127594" lon="10.3949911"><ele>324.1666666666667</ele><time>2026-04-08T08:38:15.968Z</time></trkpt><trkpt lat="44.1275823" lon="10.3951082"><ele>324.3333333333333</ele><time>2026-04-08T08:38:16.958Z</time></trkpt><trkpt lat="44.1275679" lon="10.3952229"><ele>324.5</ele><time>2026-04-08T08:38:17.96Z</time></trkpt><trkpt lat="44.1275564" lon="10.3953366"><ele>324.66666666666663</ele><time>2026-04-08T08:38:18.977Z</time></trkpt><trkpt lat="44.1275411" lon="10.3954523"><ele>324.8333333333333</ele><time>2026-04-08T08:38:19.967Z</time></trkpt><trkpt lat="44.1275257" lon="10.395565"><ele>325.0</ele><time>2026-04-08T08:38:20.969Z</time></trkpt><trkpt lat="44.1275087" lon="10.3956785"><ele>325.8333333333333</ele><time>2026-04-08T08:38:21.964Z</time></trkpt><trkpt lat="44.1274861" lon="10.3957884"><ele>326.66666666666663</ele><time>2026-04-08T08:38:22.964Z</time></trkpt><trkpt lat="44.1274553" lon="10.3958916"><ele>327.5</ele><time>2026-04-08T08:38:23.966Z</time></trkpt><trkpt lat="44.1274189" lon="10.3959827"><ele>328.3333333333333</ele><time>2026-04-08T08:38:24.967Z</time></trkpt><trkpt lat="44.1273763" lon="10.3960726"><ele>329.1666666666667</ele><time>2026-04-08T08:38:25.973Z</time></trkpt><trkpt lat="44.1273301" lon="10.3961581"><ele>330.0</ele><time>2026-04-08T08:38:26.964Z</time></trkpt><trkpt lat="44.1272838" lon="10.3962414"><ele>328.28571428571433</ele><time>2026-04-08T08:38:27.966Z</time></trkpt><trkpt lat="44.127238" lon="10.3963295"><ele>326.57142857142856</ele><time>2026-04-08T08:38:28.965Z</time></trkpt><trkpt lat="44.1271963" lon="10.3964137"><ele>324.8571428571429</ele><time>2026-04-08T08:38:29.969Z</time></trkpt><trkpt lat="44.1271489" lon="10.3964957"><ele>323.14285714285717</ele><time>2026-04-08T08:38:30.968Z</time></trkpt><trkpt lat="44.1271049" lon="10.3965706"><ele>321.42857142857144</ele><time>2026-04-08T08:38:31.97Z</time></trkpt><trkpt lat="44.1270563" lon="10.3966516"><ele>319.7142857142857</ele><time>2026-04-08T08:38:32.97Z</time></trkpt><trkpt lat="44.1270102" lon="10.3967312"><ele>318.0</ele><time>2026-04-08T08:38:33.963Z</time></trkpt><trkpt lat="44.1269633" lon="10.3968113"><ele>318.0</ele><time>2026-04-08T08:38:34.966Z</time></trkpt><trkpt lat="44.1269153" lon="10.3968942"><ele>318.0</ele><time>2026-04-08T08:38:35.979Z</time></trkpt><trkpt lat="44.1268716" lon="10.3969829"><ele>318.0</ele><time>2026-04-08T08:38:36.956Z</time></trkpt><trkpt lat="44.1268316" lon="10.3970713"><ele>318.0</ele><time>2026-04-08T08:38:37.961Z</time></trkpt><trkpt lat="44.1267918" lon="10.3971601"><ele>318.0</ele><time>2026-04-08T08:38:38.967Z</time></trkpt><trkpt lat="44.1267461" lon="10.3972489"><ele>318.0</ele><time>2026-04-08T08:38:39.971Z</time></trkpt><trkpt lat="44.1266991" lon="10.3973386"><ele>319.1666666666667</ele><time>2026-04-08T08:38:40.974Z</time></trkpt><trkpt lat="44.1266553" lon="10.3974227"><ele>320.3333333333333</ele><time>2026-04-08T08:38:41.965Z</time></trkpt><trkpt lat="44.1266068" lon="10.3975068"><ele>321.5</ele><time>2026-04-08T08:38:42.955Z</time></trkpt><trkpt lat="44.1265584" lon="10.3975937"><ele>322.66666666666663</ele><time>2026-04-08T08:38:43.968Z</time></trkpt><trkpt lat="44.1265116" lon="10.3976771"><ele>323.8333333333333</ele><time>2026-04-08T08:38:44.971Z</time></trkpt><trkpt lat="44.1264814" lon="10.3977722"><ele>325.0</ele><time>2026-04-08T08:38:45.966Z</time></trkpt><trkpt lat="44.126476" lon="10.3978806"><ele>324.57142857142856</ele><time>2026-04-08T08:38:46.963Z</time></trkpt><trkpt lat="44.1265051" lon="10.3979761"><ele>324.14285714285717</ele><time>2026-04-08T08:38:47.972Z</time></trkpt><trkpt lat="44.1265433" lon="10.3980612"><ele>323.7142857142857</ele><time>2026-04-08T08:38:48.963Z</time></trkpt><trkpt lat="44.1265887" lon="10.398136"><ele>323.2857142857143</ele><time>2026-04-08T08:38:49.972Z</time></trkpt><trkpt lat="44.1266323" lon="10.3982161"><ele>322.8571428571429</ele><time>2026-04-08T08:38:50.965Z</time></trkpt><trkpt lat="44.1266673" lon="10.3982998"><ele>322.42857142857144</ele><time>2026-04-08T08:38:51.963Z</time></trkpt><trkpt lat="44.1267085" lon="10.3983831"><ele>322.0</ele><time>2026-04-08T08:38:52.966Z</time></trkpt><trkpt lat="44.1267476" lon="10.3984697"><ele>322.0</ele><time>2026-04-08T08:38:53.966Z</time></trkpt><trkpt lat="44.1267833" lon="10.3985619"><ele>322.0</ele><time>2026-04-08T08:38:54.962Z</time></trkpt><trkpt lat="44.1268218" lon="10.3986562"><ele>322.0</ele><time>2026-04-08T08:38:55.97Z</time></trkpt><trkpt lat="44.1268622" lon="10.3987509"><ele>322.0</ele><time>2026-04-08T08:38:56.967Z</time></trkpt><trkpt lat="44.1268985" lon="10.3988508"><ele>322.0</ele><time>2026-04-08T08:38:57.972Z</time></trkpt><trkpt lat="44.126939" lon="10.3989531"><ele>322.0</ele><time>2026-04-08T08:38:58.974Z</time></trkpt><trkpt lat="44.126983" lon="10.3990529"><ele>320.66666666666663</ele><time>2026-04-08T08:38:59.964Z</time></trkpt><trkpt lat="44.127024" lon="10.3991546"><ele>319.3333333333333</ele><time>2026-04-08T08:39:00.971Z</time></trkpt><trkpt lat="44.1270431" lon="10.3992653"><ele>318.0</ele><time>2026-04-08T08:39:01.967Z</time></trkpt><trkpt lat="44.1270254" lon="10.3993717"><ele>316.6666666666667</ele><time>2026-04-08T08:39:02.971Z</time></trkpt><trkpt lat="44.1269788" lon="10.3994613"><ele>315.33333333333337</ele><time>2026-04-08T08:39:03.96Z</time></trkpt><trkpt lat="44.1269141" lon="10.3995174"><ele>314.0</ele><time>2026-04-08T08:39:04.96Z</time></trkpt><trkpt lat="44.1268466" lon="10.3995509"><ele>314.0</ele><time>2026-04-08T08:39:05.981Z</time></trkpt><trkpt lat="44.1267831" lon="10.3995683"><ele>314.0</ele><time>2026-04-08T08:39:06.978Z</time></trkpt><trkpt lat="44.1266662" lon="10.3996137"><ele>314.0</ele><time>2026-04-08T08:39:08.97Z</time></trkpt><trkpt lat="44.126563" lon="10.3996558"><ele>314.0</ele><time>2026-04-08T08:39:10.962Z</time></trkpt><trkpt lat="44.1264798" lon="10.3996933"><ele>314.0</ele><time>2026-04-08T08:39:12.967Z</time></trkpt><trkpt lat="44.1264061" lon="10.3997207"><ele>314.85714285714283</ele><time>2026-04-08T08:39:14.957Z</time></trkpt><trkpt lat="44.1263359" lon="10.3997531"><ele>315.7142857142857</ele><time>2026-04-08T08:39:16.969Z</time></trkpt><trkpt lat="44.1262761" lon="10.3997839"><ele>316.57142857142856</ele><time>2026-04-08T08:39:18.947Z</time></trkpt><trkpt lat="44.1262135" lon="10.3998052"><ele>317.42857142857144</ele><time>2026-04-08T08:39:20.962Z</time></trkpt><trkpt lat="44.1261279" lon="10.3998398"><ele>318.2857142857143</ele><time>2026-04-08T08:39:23.958Z</time></trkpt><trkpt lat="44.1260591" lon="10.3998732"><ele>319.1428571428571</ele><time>2026-04-08T08:39:26.957Z</time></trkpt><trkpt lat="44.1259995" lon="10.3999119"><ele>320.0</ele><time>2026-04-08T08:39:29.973Z</time></trkpt><trkpt lat="44.1259448" lon="10.3999697"><ele>320.0</ele><time>2026-04-08T08:39:32.964Z</time></trkpt><trkpt lat="44.1258947" lon="10.4000327"><ele>320.0</ele><time>2026-04-08T08:39:35.982Z</time></trkpt><trkpt lat="44.1258556" lon="10.4001139"><ele>320.0</ele><time>2026-04-08T08:39:38.961Z</time></trkpt><trkpt lat="44.125846" lon="10.4002167"><ele>320.0</ele><time>2026-04-08T08:39:41.964Z</time></trkpt><trkpt lat="44.1258699" lon="10.4003082"><ele>320.0</ele><time>2026-04-08T08:39:44.966Z</time></trkpt><trkpt lat="44.1259176" lon="10.4003829"><ele>320.0</ele><time>2026-04-08T08:39:48.963Z</time></trkpt><trkpt lat="44.1258786" lon="10.4004543"><ele>320.0</ele><time>2026-04-08T08:39:53.967Z</time></trkpt><trkpt lat="44.1258127" lon="10.4004068"><ele>320.0</ele><time>2026-04-08T08:39:57.958Z</time></trkpt><trkpt lat="44.1258018" lon="10.4003143"><ele>320.0</ele><time>2026-04-08T08:40:00.963Z</time></trkpt><trkpt lat="44.1257891" lon="10.4002247"><ele>320.0</ele><time>2026-04-08T08:40:03.967Z</time></trkpt><trkpt lat="44.125762" lon="10.4001192"><ele>320.0</ele><time>2026-04-08T08:40:07.957Z</time></trkpt><trkpt lat="44.1257316" lon="10.4000367"><ele>320.0</ele><time>2026-04-08T08:40:12.969Z</time></trkpt><trkpt lat="44.1257438" lon="10.400139"><ele>320.0</ele><time>2026-04-08T08:40:16.964Z</time></trkpt><trkpt lat="44.1257574" lon="10.4002427"><ele>320.0</ele><time>2026-04-08T08:40:20.967Z</time></trkpt><trkpt lat="44.1257669" lon="10.4003319"><ele>320.0</ele><time>2026-04-08T08:40:25.962Z</time></trkpt><trkpt lat="44.1257004" lon="10.4003684"><ele>320.0</ele><time>2026-04-08T08:40:30.962Z</time></trkpt><trkpt lat="44.1256246" lon="10.4003711"><ele>320.0</ele><time>2026-04-08T08:40:35.955Z</time></trkpt><trkpt lat="44.1256454" lon="10.4004857"><ele>320.0</ele><time>2026-04-08T08:40:39.961Z</time></trkpt><trkpt lat="44.1256183" lon="10.4005996"><ele>320.0</ele><time>2026-04-08T08:40:42.969Z</time></trkpt><trkpt lat="44.1255678" lon="10.4006822"><ele>320.0</ele><time>2026-04-08T08:40:44.963Z</time></trkpt><trkpt lat="44.1255005" lon="10.4007872"><ele>320.0</ele><time>2026-04-08T08:40:46.97Z</time></trkpt><trkpt lat="44.125431" lon="10.4008997"><ele>320.0</ele><time>2026-04-08T08:40:48.962Z</time></trkpt><trkpt lat="44.125391" lon="10.4009802"><ele>320.0</ele><time>2026-04-08T08:40:50.952Z</time></trkpt><trkpt lat="44.1253239" lon="10.4009905"><ele>320.0</ele><time>2026-04-08T08:40:54.975Z</time></trkpt><trkpt lat="44.1252624" lon="10.4010361"><ele>320.0</ele><time>2026-04-08T08:40:57.96Z</time></trkpt><trkpt lat="44.1252122" lon="10.4011193"><ele>320.0</ele><time>2026-04-08T08:41:00.958Z</time></trkpt><trkpt lat="44.1251577" lon="10.401207"><ele>320.0</ele><time>2026-04-08T08:41:03.965Z</time></trkpt><trkpt lat="44.1251088" lon="10.4012959"><ele>320.0</ele><time>2026-04-08T08:41:06.956Z</time></trkpt><trkpt lat="44.125054" lon="10.4013791"><ele>320.0</ele><time>2026-04-08T08:41:09.969Z</time></trkpt><trkpt lat="44.1250018" lon="10.4014718"><ele>320.0</ele><time>2026-04-08T08:41:12.95Z</time></trkpt><trkpt lat="44.1249511" lon="10.40156"><ele>320.0</ele><time>2026-04-08T08:41:15.959Z</time></trkpt><trkpt lat="44.1249018" lon="10.4016434"><ele>320.0</ele><time>2026-04-08T08:41:18.956Z</time></trkpt><trkpt lat="44.1248519" lon="10.4017294"><ele>319.83333333333337</ele><time>2026-04-08T08:41:21.954Z</time></trkpt><trkpt lat="44.1247992" lon="10.4018178"><ele>319.6666666666667</ele><time>2026-04-08T08:41:24.965Z</time></trkpt><trkpt lat="44.1247414" lon="10.401907"><ele>319.5</ele><time>2026-04-08T08:41:27.963Z</time></trkpt><trkpt lat="44.1246896" lon="10.4019936"><ele>319.3333333333333</ele><time>2026-04-08T08:41:30.964Z</time></trkpt><trkpt lat="44.1246392" lon="10.4020721"><ele>319.16666666666663</ele><time>2026-04-08T08:41:33.978Z</time></trkpt><trkpt lat="44.1245847" lon="10.4021543"><ele>319.0</ele><time>2026-04-08T08:41:36.964Z</time></trkpt><trkpt lat="44.12453" lon="10.4022345"><ele>319.5</ele><time>2026-04-08T08:41:39.955Z</time></trkpt><trkpt lat="44.1244733" lon="10.4023209"><ele>320.0</ele><time>2026-04-08T08:41:42.968Z</time></trkpt><trkpt lat="44.1244156" lon="10.4024093"><ele>320.5</ele><time>2026-04-08T08:41:45.961Z</time></trkpt><trkpt lat="44.1243649" lon="10.4025008"><ele>321.0</ele><time>2026-04-08T08:41:48.955Z</time></trkpt><trkpt lat="44.1243131" lon="10.4025918"><ele>321.5</ele><time>2026-04-08T08:41:51.959Z</time></trkpt><trkpt lat="44.1242575" lon="10.4026756"><ele>322.0</ele><time>2026-04-08T08:41:54.966Z</time></trkpt><trkpt lat="44.124204" lon="10.4027634"><ele>322.0</ele><time>2026-04-08T08:41:57.958Z</time></trkpt><trkpt lat="44.1241509" lon="10.4028533"><ele>322.0</ele><time>2026-04-08T08:42:00.968Z</time></trkpt><trkpt lat="44.1240919" lon="10.4029452"><ele>322.0</ele><time>2026-04-08T08:42:03.957Z</time></trkpt><trkpt lat="44.1240386" lon="10.4030427"><ele>322.0</ele><time>2026-04-08T08:42:06.951Z</time></trkpt><trkpt lat="44.123987" lon="10.4031483"><ele>322.0</ele><time>2026-04-08T08:42:09.95Z</time></trkpt><trkpt lat="44.1239299" lon="10.4032482"><ele>322.0</ele><time>2026-04-08T08:42:12.968Z</time></trkpt><trkpt lat="44.1238645" lon="10.4033425"><ele>321.85714285714283</ele><time>2026-04-08T08:42:15.96Z</time></trkpt><trkpt lat="44.1238003" lon="10.4034399"><ele>321.7142857142857</ele><time>2026-04-08T08:42:18.954Z</time></trkpt><trkpt lat="44.1237575" lon="10.4035113"><ele>321.57142857142856</ele><time>2026-04-08T08:42:20.957Z</time></trkpt><trkpt lat="44.1237158" lon="10.4035783"><ele>321.42857142857144</ele><time>2026-04-08T08:42:22.959Z</time></trkpt><trkpt lat="44.1236726" lon="10.4036515"><ele>321.2857142857143</ele><time>2026-04-08T08:42:24.969Z</time></trkpt><trkpt lat="44.1236262" lon="10.4037264"><ele>321.1428571428571</ele><time>2026-04-08T08:42:26.961Z</time></trkpt><trkpt lat="44.12358" lon="10.4037963"><ele>321.0</ele><time>2026-04-08T08:42:28.959Z</time></trkpt><trkpt lat="44.1235383" lon="10.4038673"><ele>320.99999999999994</ele><time>2026-04-08T08:42:30.968Z</time></trkpt><trkpt lat="44.1235002" lon="10.4039379"><ele>321.0</ele><time>2026-04-08T08:42:32.968Z</time></trkpt><trkpt lat="44.1234444" lon="10.4040398"><ele>321.0</ele><time>2026-04-08T08:42:35.961Z</time></trkpt><trkpt lat="44.1234009" lon="10.4041091"><ele>321.0</ele><time>2026-04-08T08:42:37.956Z</time></trkpt><trkpt lat="44.1233361" lon="10.4041959"><ele>321.0</ele><time>2026-04-08T08:42:40.961Z</time></trkpt><trkpt lat="44.1232925" lon="10.4042645"><ele>320.99999999999994</ele><time>2026-04-08T08:42:42.957Z</time></trkpt><trkpt lat="44.1232526" lon="10.4043374"><ele>321.0</ele><time>2026-04-08T08:42:44.966Z</time></trkpt><trkpt lat="44.1232122" lon="10.4044051"><ele>321.0</ele><time>2026-04-08T08:42:46.956Z</time></trkpt><trkpt lat="44.123148" lon="10.4045018"><ele>321.0</ele><time>2026-04-08T08:42:49.962Z</time></trkpt><trkpt lat="44.1231068" lon="10.4045726"><ele>321.0</ele><time>2026-04-08T08:42:51.951Z</time></trkpt><trkpt lat="44.1230661" lon="10.404644"><ele>321.0</ele><time>2026-04-08T08:42:53.957Z</time></trkpt><trkpt lat="44.1230254" lon="10.4047144"><ele>321.0</ele><time>2026-04-08T08:42:55.956Z</time></trkpt><trkpt lat="44.1229823" lon="10.4047855"><ele>321.0</ele><time>2026-04-08T08:42:57.98Z</time></trkpt><trkpt lat="44.1229222" lon="10.4048845"><ele>321.2857142857143</ele><time>2026-04-08T08:43:00.955Z</time></trkpt><trkpt lat="44.1228795" lon="10.4049495"><ele>321.57142857142856</ele><time>2026-04-08T08:43:02.961Z</time></trkpt><trkpt lat="44.1228312" lon="10.4050143"><ele>321.8571428571429</ele><time>2026-04-08T08:43:04.959Z</time></trkpt><trkpt lat="44.1227869" lon="10.405088"><ele>322.1428571428571</ele><time>2026-04-08T08:43:06.958Z</time></trkpt><trkpt lat="44.1227426" lon="10.4051638"><ele>322.42857142857144</ele><time>2026-04-08T08:43:08.957Z</time></trkpt><trkpt lat="44.1226962" lon="10.4052411"><ele>322.7142857142857</ele><time>2026-04-08T08:43:10.965Z</time></trkpt><trkpt lat="44.1226486" lon="10.4053183"><ele>323.0</ele><time>2026-04-08T08:43:12.962Z</time></trkpt><trkpt lat="44.1226032" lon="10.4053922"><ele>323.00000000000006</ele><time>2026-04-08T08:43:14.957Z</time></trkpt><trkpt lat="44.122558" lon="10.4054718"><ele>323.0</ele><time>2026-04-08T08:43:16.958Z</time></trkpt><trkpt lat="44.1225135" lon="10.4055515"><ele>323.0</ele><time>2026-04-08T08:43:18.965Z</time></trkpt><trkpt lat="44.1224657" lon="10.4056294"><ele>323.0</ele><time>2026-04-08T08:43:20.959Z</time></trkpt><trkpt lat="44.1224222" lon="10.4057111"><ele>323.0</ele><time>2026-04-08T08:43:22.966Z</time></trkpt><trkpt lat="44.1223749" lon="10.4057854"><ele>323.00000000000006</ele><time>2026-04-08T08:43:24.957Z</time></trkpt><trkpt lat="44.1223287" lon="10.4058629"><ele>323.0</ele><time>2026-04-08T08:43:26.98Z</time></trkpt><trkpt lat="44.1222824" lon="10.4059432"><ele>322.7142857142857</ele><time>2026-04-08T08:43:28.959Z</time></trkpt><trkpt lat="44.1222355" lon="10.4060227"><ele>322.42857142857144</ele><time>2026-04-08T08:43:30.967Z</time></trkpt><trkpt lat="44.1221891" lon="10.406102"><ele>322.1428571428571</ele><time>2026-04-08T08:43:32.962Z</time></trkpt><trkpt lat="44.1221426" lon="10.4061792"><ele>321.8571428571429</ele><time>2026-04-08T08:43:34.962Z</time></trkpt><trkpt lat="44.1220904" lon="10.4062568"><ele>321.57142857142856</ele><time>2026-04-08T08:43:36.951Z</time></trkpt><trkpt lat="44.122042" lon="10.406336"><ele>321.2857142857143</ele><time>2026-04-08T08:43:38.969Z</time></trkpt><trkpt lat="44.1219965" lon="10.4064134"><ele>321.0</ele><time>2026-04-08T08:43:40.96Z</time></trkpt><trkpt lat="44.1219451" lon="10.4064865"><ele>321.0</ele><time>2026-04-08T08:43:42.956Z</time></trkpt><trkpt lat="44.1218969" lon="10.4065661"><ele>321.0</ele><time>2026-04-08T08:43:44.967Z</time></trkpt><trkpt lat="44.1218445" lon="10.406645"><ele>321.0</ele><time>2026-04-08T08:43:46.966Z</time></trkpt><trkpt lat="44.1217971" lon="10.4067232"><ele>321.0</ele><time>2026-04-08T08:43:48.96Z</time></trkpt><trkpt lat="44.1217462" lon="10.4068005"><ele>321.0</ele><time>2026-04-08T08:43:50.962Z</time></trkpt><trkpt lat="44.1216979" lon="10.4068812"><ele>321.0</ele><time>2026-04-08T08:43:52.953Z</time></trkpt><trkpt lat="44.1216495" lon="10.4069598"><ele>320.99999999999994</ele><time>2026-04-08T08:43:54.968Z</time></trkpt><trkpt lat="44.1216007" lon="10.4070379"><ele>321.0</ele><time>2026-04-08T08:43:56.962Z</time></trkpt><trkpt lat="44.1215526" lon="10.4071156"><ele>321.0</ele><time>2026-04-08T08:43:58.97Z</time></trkpt><trkpt lat="44.1215075" lon="10.4071977"><ele>321.0</ele><time>2026-04-08T08:44:00.97Z</time></trkpt><trkpt lat="44.1214619" lon="10.4072816"><ele>321.0</ele><time>2026-04-08T08:44:02.948Z</time></trkpt><trkpt lat="44.1214146" lon="10.4073643"><ele>320.99999999999994</ele><time>2026-04-08T08:44:04.957Z</time></trkpt><trkpt lat="44.1213651" lon="10.4074437"><ele>321.0</ele><time>2026-04-08T08:44:06.96Z</time></trkpt><trkpt lat="44.1213148" lon="10.407521"><ele>321.6666666666667</ele><time>2026-04-08T08:44:08.96Z</time></trkpt><trkpt lat="44.1212646" lon="10.4075995"><ele>322.3333333333333</ele><time>2026-04-08T08:44:10.964Z</time></trkpt><trkpt lat="44.1212101" lon="10.4076726"><ele>323.0</ele><time>2026-04-08T08:44:12.97Z</time></trkpt><trkpt lat="44.1211575" lon="10.4077534"><ele>323.66666666666663</ele><time>2026-04-08T08:44:14.964Z</time></trkpt><trkpt lat="44.12111" lon="10.4078367"><ele>324.3333333333333</ele><time>2026-04-08T08:44:16.951Z</time></trkpt><trkpt lat="44.1210655" lon="10.4079164"><ele>325.0</ele><time>2026-04-08T08:44:18.961Z</time></trkpt><trkpt lat="44.1210166" lon="10.4079992"><ele>325.0</ele><time>2026-04-08T08:44:20.957Z</time></trkpt><trkpt lat="44.1209685" lon="10.4080772"><ele>325.0</ele><time>2026-04-08T08:44:22.96Z</time></trkpt><trkpt lat="44.1209206" lon="10.4081558"><ele>325.0</ele><time>2026-04-08T08:44:24.961Z</time></trkpt><trkpt lat="44.1208749" lon="10.4082287"><ele>325.0</ele><time>2026-04-08T08:44:26.958Z</time></trkpt><trkpt lat="44.1208172" lon="10.4083287"><ele>325.0</ele><time>2026-04-08T08:44:29.965Z</time></trkpt><trkpt lat="44.1207637" lon="10.4084142"><ele>325.0</ele><time>2026-04-08T08:44:32.962Z</time></trkpt><trkpt lat="44.1207038" lon="10.4085087"><ele>323.8333333333333</ele><time>2026-04-08T08:44:35.962Z</time></trkpt><trkpt lat="44.1206435" lon="10.408605"><ele>322.66666666666663</ele><time>2026-04-08T08:44:38.956Z</time></trkpt><trkpt lat="44.1205935" lon="10.4086916"><ele>321.5</ele><time>2026-04-08T08:44:41.96Z</time></trkpt><trkpt lat="44.1205489" lon="10.4087724"><ele>320.3333333333333</ele><time>2026-04-08T08:44:44.963Z</time></trkpt><trkpt lat="44.1205172" lon="10.4088541"><ele>319.1666666666667</ele><time>2026-04-08T08:44:47.955Z</time></trkpt><trkpt lat="44.1205005" lon="10.4089442"><ele>318.0</ele><time>2026-04-08T08:44:52.965Z</time></trkpt><trkpt lat="44.120566" lon="10.4090553"><ele>318.0</ele><time>2026-04-08T08:44:55.965Z</time></trkpt><trkpt lat="44.1206478" lon="10.4090712"><ele>318.0</ele><time>2026-04-08T08:44:57.971Z</time></trkpt><trkpt lat="44.1207258" lon="10.409073"><ele>318.0</ele><time>2026-04-08T08:44:59.963Z</time></trkpt><trkpt lat="44.1208046" lon="10.409062"><ele>318.0</ele><time>2026-04-08T08:45:01.959Z</time></trkpt><trkpt lat="44.1208737" lon="10.4090659"><ele>318.0</ele><time>2026-04-08T08:45:03.957Z</time></trkpt><trkpt lat="44.1209421" lon="10.4090781"><ele>318.0</ele><time>2026-04-08T08:45:05.961Z</time></trkpt><trkpt lat="44.1210138" lon="10.409087"><ele>319.2857142857143</ele><time>2026-04-08T08:45:07.954Z</time></trkpt><trkpt lat="44.1210849" lon="10.4091009"><ele>320.5714285714286</ele><time>2026-04-08T08:45:09.958Z</time></trkpt><trkpt lat="44.1211545" lon="10.4091107"><ele>321.8571428571429</ele><time>2026-04-08T08:45:11.962Z</time></trkpt><trkpt lat="44.1212257" lon="10.4091185"><ele>323.1428571428571</ele><time>2026-04-08T08:45:13.964Z</time></trkpt><trkpt lat="44.1212984" lon="10.4091334"><ele>324.42857142857144</ele><time>2026-04-08T08:45:15.965Z</time></trkpt><trkpt lat="44.1213721" lon="10.4091448"><ele>325.7142857142857</ele><time>2026-04-08T08:45:17.957Z</time></trkpt><trkpt lat="44.1214425" lon="10.4091552"><ele>327.0</ele><time>2026-04-08T08:45:19.96Z</time></trkpt><trkpt lat="44.1215122" lon="10.4091685"><ele>327.42857142857144</ele><time>2026-04-08T08:45:21.962Z</time></trkpt><trkpt lat="44.1215868" lon="10.4091713"><ele>327.8571428571429</ele><time>2026-04-08T08:45:23.957Z</time></trkpt><trkpt lat="44.1216606" lon="10.4091758"><ele>328.28571428571433</ele><time>2026-04-08T08:45:25.961Z</time></trkpt><trkpt lat="44.1217344" lon="10.4091873"><ele>328.7142857142857</ele><time>2026-04-08T08:45:27.957Z</time></trkpt><trkpt lat="44.1218102" lon="10.4092001"><ele>329.14285714285717</ele><time>2026-04-08T08:45:29.961Z</time></trkpt><trkpt lat="44.1218796" lon="10.409206"><ele>329.5714285714286</ele><time>2026-04-08T08:45:31.96Z</time></trkpt><trkpt lat="44.1219508" lon="10.4092192"><ele>330.0</ele><time>2026-04-08T08:45:33.963Z</time></trkpt><trkpt lat="44.1220206" lon="10.4092317"><ele>330.00000000000006</ele><time>2026-04-08T08:45:35.963Z</time></trkpt><trkpt lat="44.1220898" lon="10.4092517"><ele>330.0</ele><time>2026-04-08T08:45:37.955Z</time></trkpt><trkpt lat="44.122163" lon="10.4092649"><ele>330.0</ele><time>2026-04-08T08:45:39.953Z</time></trkpt><trkpt lat="44.1222364" lon="10.4092763"><ele>330.0</ele><time>2026-04-08T08:45:41.962Z</time></trkpt><trkpt lat="44.1223101" lon="10.4092846"><ele>330.0</ele><time>2026-04-08T08:45:43.956Z</time></trkpt><trkpt lat="44.1223823" lon="10.409295"><ele>330.00000000000006</ele><time>2026-04-08T08:45:45.954Z</time></trkpt><trkpt lat="44.1224536" lon="10.4093049"><ele>330.0</ele><time>2026-04-08T08:45:47.97Z</time></trkpt><trkpt lat="44.1225268" lon="10.4093153"><ele>330.42857142857144</ele><time>2026-04-08T08:45:49.964Z</time></trkpt><trkpt lat="44.1225977" lon="10.4093236"><ele>330.8571428571429</ele><time>2026-04-08T08:45:51.954Z</time></trkpt><trkpt lat="44.1226727" lon="10.4093406"><ele>331.28571428571433</ele><time>2026-04-08T08:45:53.952Z</time></trkpt><trkpt lat="44.1227486" lon="10.4093526"><ele>331.7142857142857</ele><time>2026-04-08T08:45:55.965Z</time></trkpt><trkpt lat="44.1228225" lon="10.4093676"><ele>332.1428571428571</ele><time>2026-04-08T08:45:57.957Z</time></trkpt><trkpt lat="44.122894" lon="10.4093756"><ele>332.5714285714286</ele><time>2026-04-08T08:45:59.952Z</time></trkpt><trkpt lat="44.1229642" lon="10.4093848"><ele>333.0</ele><time>2026-04-08T08:46:01.966Z</time></trkpt><trkpt lat="44.1230284" lon="10.4094123"><ele>333.0</ele><time>2026-04-08T08:46:03.959Z</time></trkpt><trkpt lat="44.1230985" lon="10.4094468"><ele>333.0</ele><time>2026-04-08T08:46:05.958Z</time></trkpt><trkpt lat="44.1231724" lon="10.4094767"><ele>333.0</ele><time>2026-04-08T08:46:07.964Z</time></trkpt><trkpt lat="44.1232497" lon="10.4095013"><ele>333.0</ele><time>2026-04-08T08:46:09.956Z</time></trkpt><trkpt lat="44.1233233" lon="10.409526"><ele>333.0</ele><time>2026-04-08T08:46:11.953Z</time></trkpt><trkpt lat="44.1233966" lon="10.4095513"><ele>333.0</ele><time>2026-04-08T08:46:13.958Z</time></trkpt><trkpt lat="44.1234702" lon="10.4095748"><ele>333.2857142857143</ele><time>2026-04-08T08:46:15.953Z</time></trkpt><trkpt lat="44.1235434" lon="10.4095985"><ele>333.57142857142856</ele><time>2026-04-08T08:46:17.955Z</time></trkpt><trkpt lat="44.1236157" lon="10.4096216"><ele>333.85714285714283</ele><time>2026-04-08T08:46:19.959Z</time></trkpt><trkpt lat="44.1236883" lon="10.4096481"><ele>334.1428571428571</ele><time>2026-04-08T08:46:21.951Z</time></trkpt><trkpt lat="44.1237618" lon="10.4096713"><ele>334.42857142857144</ele><time>2026-04-08T08:46:23.975Z</time></trkpt><trkpt lat="44.123833" lon="10.4096945"><ele>334.71428571428567</ele><time>2026-04-08T08:46:25.949Z</time></trkpt><trkpt lat="44.1239032" lon="10.4097122"><ele>335.0</ele><time>2026-04-08T08:46:27.953Z</time></trkpt><trkpt lat="44.1239768" lon="10.4097353"><ele>335.1428571428571</ele><time>2026-04-08T08:46:29.96Z</time></trkpt><trkpt lat="44.1240479" lon="10.4097634"><ele>335.2857142857143</ele><time>2026-04-08T08:46:31.966Z</time></trkpt><trkpt lat="44.1241105" lon="10.4097951"><ele>335.42857142857144</ele><time>2026-04-08T08:46:33.972Z</time></trkpt><trkpt lat="44.1241752" lon="10.4098318"><ele>335.57142857142856</ele><time>2026-04-08T08:46:35.965Z</time></trkpt><trkpt lat="44.1242468" lon="10.409865"><ele>335.7142857142857</ele><time>2026-04-08T08:46:37.951Z</time></trkpt><trkpt lat="44.1243198" lon="10.4099036"><ele>335.85714285714283</ele><time>2026-04-08T08:46:39.951Z</time></trkpt><trkpt lat="44.124392" lon="10.4099395"><ele>336.0</ele><time>2026-04-08T08:46:41.947Z</time></trkpt><trkpt lat="44.1244757" lon="10.4099817"><ele>336.57142857142856</ele><time>2026-04-08T08:46:44.951Z</time></trkpt><trkpt lat="44.1245485" lon="10.4100197"><ele>337.1428571428571</ele><time>2026-04-08T08:46:47.97Z</time></trkpt><trkpt lat="44.1246132" lon="10.4100574"><ele>337.7142857142857</ele><time>2026-04-08T08:46:50.954Z</time></trkpt><trkpt lat="44.1246553" lon="10.4101242"><ele>338.2857142857143</ele><time>2026-04-08T08:46:53.95Z</time></trkpt><trkpt lat="44.1247032" lon="10.4102224"><ele>338.85714285714283</ele><time>2026-04-08T08:46:56.963Z</time></trkpt><trkpt lat="44.1247449" lon="10.4103001"><ele>339.42857142857144</ele><time>2026-04-08T08:46:58.957Z</time></trkpt><trkpt lat="44.1247942" lon="10.4103692"><ele>340.0</ele><time>2026-04-08T08:47:00.953Z</time></trkpt><trkpt lat="44.1248563" lon="10.4104159"><ele>340.5714285714286</ele><time>2026-04-08T08:47:02.952Z</time></trkpt><trkpt lat="44.1249287" lon="10.4104337"><ele>341.1428571428571</ele><time>2026-04-08T08:47:04.955Z</time></trkpt><trkpt lat="44.1250009" lon="10.4104259"><ele>341.7142857142857</ele><time>2026-04-08T08:47:06.956Z</time></trkpt><trkpt lat="44.1250732" lon="10.4104095"><ele>342.28571428571433</ele><time>2026-04-08T08:47:08.949Z</time></trkpt><trkpt lat="44.1251447" lon="10.4103934"><ele>342.8571428571429</ele><time>2026-04-08T08:47:10.959Z</time></trkpt><trkpt lat="44.1252172" lon="10.4103897"><ele>343.42857142857144</ele><time>2026-04-08T08:47:12.953Z</time></trkpt><trkpt lat="44.1252906" lon="10.4103991"><ele>344.0</ele><time>2026-04-08T08:47:14.955Z</time></trkpt><trkpt lat="44.1253604" lon="10.4104245"><ele>344.00000000000006</ele><time>2026-04-08T08:47:16.951Z</time></trkpt><trkpt lat="44.1254302" lon="10.4104563"><ele>344.0</ele><time>2026-04-08T08:47:18.958Z</time></trkpt><trkpt lat="44.1254979" lon="10.4104807"><ele>344.0</ele><time>2026-04-08T08:47:20.95Z</time></trkpt><trkpt lat="44.1255685" lon="10.4105105"><ele>344.0</ele><time>2026-04-08T08:47:22.957Z</time></trkpt><trkpt lat="44.1256396" lon="10.4105434"><ele>344.0</ele><time>2026-04-08T08:47:24.959Z</time></trkpt><trkpt lat="44.1257122" lon="10.4105747"><ele>344.00000000000006</ele><time>2026-04-08T08:47:26.959Z</time></trkpt><trkpt lat="44.1257826" lon="10.410608"><ele>344.0</ele><time>2026-04-08T08:47:28.957Z</time></trkpt><trkpt lat="44.125852" lon="10.4106403"><ele>344.5714285714286</ele><time>2026-04-08T08:47:30.956Z</time></trkpt><trkpt lat="44.125921" lon="10.4106703"><ele>345.14285714285717</ele><time>2026-04-08T08:47:32.976Z</time></trkpt><trkpt lat="44.1259905" lon="10.4106988"><ele>345.7142857142857</ele><time>2026-04-08T08:47:34.96Z</time></trkpt><trkpt lat="44.126062" lon="10.4107157"><ele>346.28571428571433</ele><time>2026-04-08T08:47:36.961Z</time></trkpt><trkpt lat="44.126137" lon="10.4107365"><ele>346.8571428571429</ele><time>2026-04-08T08:47:38.948Z</time></trkpt><trkpt lat="44.1262094" lon="10.4107602"><ele>347.42857142857144</ele><time>2026-04-08T08:47:40.958Z</time></trkpt><trkpt lat="44.1262804" lon="10.4107789"><ele>348.0</ele><time>2026-04-08T08:47:42.965Z</time></trkpt><trkpt lat="44.1263527" lon="10.4108009"><ele>348.0</ele><time>2026-04-08T08:47:44.952Z</time></trkpt><trkpt lat="44.1264279" lon="10.4108193"><ele>348.0</ele><time>2026-04-08T08:47:46.956Z</time></trkpt><trkpt lat="44.1265006" lon="10.4108387"><ele>348.0</ele><time>2026-04-08T08:47:48.957Z</time></trkpt><trkpt lat="44.1265731" lon="10.4108548"><ele>348.0</ele><time>2026-04-08T08:47:50.979Z</time></trkpt><trkpt lat="44.1266424" lon="10.4108768"><ele>348.0</ele><time>2026-04-08T08:47:52.965Z</time></trkpt><trkpt lat="44.1267156" lon="10.410899"><ele>348.0</ele><time>2026-04-08T08:47:54.966Z</time></trkpt><trkpt lat="44.1267896" lon="10.4109246"><ele>348.0</ele><time>2026-04-08T08:47:56.972Z</time></trkpt><trkpt lat="44.1268608" lon="10.4109458"><ele>348.1428571428571</ele><time>2026-04-08T08:47:58.977Z</time></trkpt><trkpt lat="44.1269309" lon="10.4109649"><ele>348.2857142857143</ele><time>2026-04-08T08:48:00.975Z</time></trkpt><trkpt lat="44.1270004" lon="10.4109822"><ele>348.42857142857144</ele><time>2026-04-08T08:48:02.953Z</time></trkpt><trkpt lat="44.1270727" lon="10.411001"><ele>348.57142857142856</ele><time>2026-04-08T08:48:04.973Z</time></trkpt><trkpt lat="44.1271461" lon="10.4110186"><ele>348.7142857142857</ele><time>2026-04-08T08:48:06.966Z</time></trkpt><trkpt lat="44.1272165" lon="10.4110373"><ele>348.85714285714283</ele><time>2026-04-08T08:48:08.96Z</time></trkpt><trkpt lat="44.1272853" lon="10.4110578"><ele>349.0</ele><time>2026-04-08T08:48:10.957Z</time></trkpt><trkpt lat="44.1273518" lon="10.4110812"><ele>349.1428571428571</ele><time>2026-04-08T08:48:12.962Z</time></trkpt><trkpt lat="44.127424" lon="10.4111112"><ele>349.2857142857143</ele><time>2026-04-08T08:48:14.976Z</time></trkpt><trkpt lat="44.1274933" lon="10.4111364"><ele>349.42857142857144</ele><time>2026-04-08T08:48:16.97Z</time></trkpt><trkpt lat="44.1275593" lon="10.4111607"><ele>349.57142857142856</ele><time>2026-04-08T08:48:18.96Z</time></trkpt><trkpt lat="44.1276311" lon="10.4111858"><ele>349.7142857142857</ele><time>2026-04-08T08:48:20.957Z</time></trkpt><trkpt lat="44.1277056" lon="10.411213"><ele>349.85714285714283</ele><time>2026-04-08T08:48:22.963Z</time></trkpt><trkpt lat="44.1277803" lon="10.4112353"><ele>350.0</ele><time>2026-04-08T08:48:24.961Z</time></trkpt><trkpt lat="44.1278549" lon="10.4112613"><ele>350.0</ele><time>2026-04-08T08:48:26.958Z</time></trkpt><trkpt lat="44.1279258" lon="10.4112873"><ele>350.0</ele><time>2026-04-08T08:48:28.98Z</time></trkpt><trkpt lat="44.1279992" lon="10.411313"><ele>350.0</ele><time>2026-04-08T08:48:30.954Z</time></trkpt><trkpt lat="44.1280689" lon="10.4113342"><ele>350.0</ele><time>2026-04-08T08:48:32.97Z</time></trkpt><trkpt lat="44.1281366" lon="10.4113566"><ele>350.0</ele><time>2026-04-08T08:48:34.963Z</time></trkpt><trkpt lat="44.1282099" lon="10.4113769"><ele>350.0</ele><time>2026-04-08T08:48:36.953Z</time></trkpt><trkpt lat="44.1282814" lon="10.4113947"><ele>350.0</ele><time>2026-04-08T08:48:38.957Z</time></trkpt><trkpt lat="44.1283546" lon="10.4114161"><ele>350.42857142857144</ele><time>2026-04-08T08:48:40.958Z</time></trkpt><trkpt lat="44.1284277" lon="10.411432"><ele>350.8571428571429</ele><time>2026-04-08T08:48:42.969Z</time></trkpt><trkpt lat="44.1284957" lon="10.4114381"><ele>351.2857142857143</ele><time>2026-04-08T08:48:44.981Z</time></trkpt><trkpt lat="44.1285689" lon="10.4114447"><ele>351.7142857142857</ele><time>2026-04-08T08:48:46.958Z</time></trkpt><trkpt lat="44.1286423" lon="10.4114469"><ele>352.14285714285717</ele><time>2026-04-08T08:48:48.955Z</time></trkpt><trkpt lat="44.1287131" lon="10.4114636"><ele>352.57142857142856</ele><time>2026-04-08T08:48:50.963Z</time></trkpt><trkpt lat="44.1287795" lon="10.4114829"><ele>353.0</ele><time>2026-04-08T08:48:52.957Z</time></trkpt><trkpt lat="44.1288372" lon="10.4115406"><ele>353.0</ele><time>2026-04-08T08:48:54.962Z</time></trkpt><trkpt lat="44.1288952" lon="10.4116003"><ele>353.0</ele><time>2026-04-08T08:48:56.97Z</time></trkpt><trkpt lat="44.1289658" lon="10.411637"><ele>353.0</ele><time>2026-04-08T08:48:58.963Z</time></trkpt><trkpt lat="44.1290385" lon="10.4116647"><ele>353.0</ele><time>2026-04-08T08:49:00.955Z</time></trkpt><trkpt lat="44.1291112" lon="10.4116852"><ele>353.0</ele><time>2026-04-08T08:49:02.953Z</time></trkpt><trkpt lat="44.1291864" lon="10.4117081"><ele>353.0</ele><time>2026-04-08T08:49:04.979Z</time></trkpt><trkpt lat="44.1292593" lon="10.4117294"><ele>353.0</ele><time>2026-04-08T08:49:06.952Z</time></trkpt><trkpt lat="44.1293296" lon="10.4117611"><ele>353.33333333333337</ele><time>2026-04-08T08:49:08.967Z</time></trkpt><trkpt lat="44.1293985" lon="10.4117944"><ele>353.6666666666667</ele><time>2026-04-08T08:49:10.961Z</time></trkpt><trkpt lat="44.1294699" lon="10.4118208"><ele>354.0</ele><time>2026-04-08T08:49:12.958Z</time></trkpt><trkpt lat="44.1295439" lon="10.411838"><ele>354.3333333333333</ele><time>2026-04-08T08:49:14.954Z</time></trkpt><trkpt lat="44.1296179" lon="10.4118613"><ele>354.66666666666663</ele><time>2026-04-08T08:49:16.951Z</time></trkpt><trkpt lat="44.12969" lon="10.4118929"><ele>355.0</ele><time>2026-04-08T08:49:18.969Z</time></trkpt><trkpt lat="44.1297631" lon="10.4119301"><ele>355.0</ele><time>2026-04-08T08:49:20.971Z</time></trkpt><trkpt lat="44.1298366" lon="10.4119723"><ele>355.0</ele><time>2026-04-08T08:49:22.978Z</time></trkpt><trkpt lat="44.1299099" lon="10.4120138"><ele>355.0</ele><time>2026-04-08T08:49:24.957Z</time></trkpt><trkpt lat="44.1299828" lon="10.4120583"><ele>355.0</ele><time>2026-04-08T08:49:26.966Z</time></trkpt><trkpt lat="44.1300572" lon="10.4121007"><ele>355.0</ele><time>2026-04-08T08:49:28.978Z</time></trkpt><trkpt lat="44.1301265" lon="10.4121417"><ele>355.0</ele><time>2026-04-08T08:49:30.963Z</time></trkpt><trkpt lat="44.1301958" lon="10.4121848"><ele>356.3333333333333</ele><time>2026-04-08T08:49:32.964Z</time></trkpt><trkpt lat="44.1302648" lon="10.4122303"><ele>357.66666666666663</ele><time>2026-04-08T08:49:34.966Z</time></trkpt><trkpt lat="44.1303346" lon="10.4122773"><ele>359.0</ele><time>2026-04-08T08:49:36.958Z</time></trkpt><trkpt lat="44.1304041" lon="10.4123254"><ele>360.3333333333333</ele><time>2026-04-08T08:49:38.956Z</time></trkpt><trkpt lat="44.1304689" lon="10.4123736"><ele>361.6666666666667</ele><time>2026-04-08T08:49:40.954Z</time></trkpt><trkpt lat="44.1305357" lon="10.4124323"><ele>363.0</ele><time>2026-04-08T08:49:42.96Z</time></trkpt><trkpt lat="44.1306055" lon="10.412485"><ele>363.0</ele><time>2026-04-08T08:49:44.951Z</time></trkpt><trkpt lat="44.1306732" lon="10.4125382"><ele>363.0</ele><time>2026-04-08T08:49:46.967Z</time></trkpt><trkpt lat="44.1307432" lon="10.4125913"><ele>363.0</ele><time>2026-04-08T08:49:48.955Z</time></trkpt><trkpt lat="44.1308128" lon="10.4126373"><ele>363.0</ele><time>2026-04-08T08:49:50.952Z</time></trkpt><trkpt lat="44.1308825" lon="10.4126857"><ele>363.0</ele><time>2026-04-08T08:49:52.951Z</time></trkpt><trkpt lat="44.1309529" lon="10.4127318"><ele>363.0</ele><time>2026-04-08T08:49:54.959Z</time></trkpt><trkpt lat="44.131023" lon="10.4127779"><ele>363.1666666666667</ele><time>2026-04-08T08:49:56.957Z</time></trkpt><trkpt lat="44.1310896" lon="10.4128203"><ele>363.3333333333333</ele><time>2026-04-08T08:49:58.965Z</time></trkpt><trkpt lat="44.1311589" lon="10.4128675"><ele>363.5</ele><time>2026-04-08T08:50:00.961Z</time></trkpt><trkpt lat="44.1312285" lon="10.4129136"><ele>363.66666666666663</ele><time>2026-04-08T08:50:02.959Z</time></trkpt><trkpt lat="44.1312974" lon="10.4129597"><ele>363.8333333333333</ele><time>2026-04-08T08:50:04.954Z</time></trkpt><trkpt lat="44.13137" lon="10.4130015"><ele>364.0</ele><time>2026-04-08T08:50:06.976Z</time></trkpt><trkpt lat="44.1314396" lon="10.4130476"><ele>364.3333333333333</ele><time>2026-04-08T08:50:08.966Z</time></trkpt><trkpt lat="44.1315087" lon="10.4130954"><ele>364.66666666666663</ele><time>2026-04-08T08:50:10.955Z</time></trkpt><trkpt lat="44.1315797" lon="10.413139"><ele>365.0</ele><time>2026-04-08T08:50:12.966Z</time></trkpt><trkpt lat="44.1316511" lon="10.4131756"><ele>365.3333333333333</ele><time>2026-04-08T08:50:14.981Z</time></trkpt><trkpt lat="44.1317208" lon="10.4132114"><ele>365.6666666666667</ele><time>2026-04-08T08:50:16.965Z</time></trkpt><trkpt lat="44.1317919" lon="10.4132437"><ele>366.0</ele><time>2026-04-08T08:50:18.962Z</time></trkpt><trkpt lat="44.1318672" lon="10.4132771"><ele>366.3333333333333</ele><time>2026-04-08T08:50:20.96Z</time></trkpt><trkpt lat="44.1319429" lon="10.413312"><ele>366.6666666666667</ele><time>2026-04-08T08:50:22.958Z</time></trkpt><trkpt lat="44.1320166" lon="10.4133475"><ele>367.0</ele><time>2026-04-08T08:50:24.96Z</time></trkpt><trkpt lat="44.1320861" lon="10.4133801"><ele>367.33333333333337</ele><time>2026-04-08T08:50:26.952Z</time></trkpt><trkpt lat="44.1321637" lon="10.4134143"><ele>367.6666666666667</ele><time>2026-04-08T08:50:28.968Z</time></trkpt><trkpt lat="44.1322414" lon="10.4134449"><ele>368.0</ele><time>2026-04-08T08:50:30.98Z</time></trkpt><trkpt lat="44.1323187" lon="10.4134771"><ele>368.83333333333337</ele><time>2026-04-08T08:50:32.974Z</time></trkpt><trkpt lat="44.1323946" lon="10.4135095"><ele>369.6666666666667</ele><time>2026-04-08T08:50:34.972Z</time></trkpt><trkpt lat="44.1324736" lon="10.4135368"><ele>370.5</ele><time>2026-04-08T08:50:36.955Z</time></trkpt><trkpt lat="44.1325549" lon="10.4135702"><ele>371.3333333333333</ele><time>2026-04-08T08:50:38.96Z</time></trkpt><trkpt lat="44.1326309" lon="10.4136002"><ele>372.16666666666663</ele><time>2026-04-08T08:50:40.959Z</time></trkpt><trkpt lat="44.1327088" lon="10.4136316"><ele>373.0</ele><time>2026-04-08T08:50:42.955Z</time></trkpt><trkpt lat="44.1327873" lon="10.4136629"><ele>373.0</ele><time>2026-04-08T08:50:44.964Z</time></trkpt><trkpt lat="44.1328658" lon="10.4136945"><ele>373.0</ele><time>2026-04-08T08:50:46.968Z</time></trkpt><trkpt lat="44.1329448" lon="10.4137308"><ele>373.0</ele><time>2026-04-08T08:50:48.954Z</time></trkpt><trkpt lat="44.1330209" lon="10.4137662"><ele>373.0</ele><time>2026-04-08T08:50:50.953Z</time></trkpt><trkpt lat="44.1330982" lon="10.4137962"><ele>373.0</ele><time>2026-04-08T08:50:52.968Z</time></trkpt><trkpt lat="44.1331779" lon="10.4138311"><ele>373.0</ele><time>2026-04-08T08:50:54.963Z</time></trkpt><trkpt lat="44.1332548" lon="10.4138629"><ele>373.7142857142857</ele><time>2026-04-08T08:50:56.962Z</time></trkpt><trkpt lat="44.1333258" lon="10.4139003"><ele>374.42857142857144</ele><time>2026-04-08T08:50:58.956Z</time></trkpt><trkpt lat="44.1333932" lon="10.4139419"><ele>375.1428571428571</ele><time>2026-04-08T08:51:00.967Z</time></trkpt><trkpt lat="44.133456" lon="10.4139925"><ele>375.8571428571429</ele><time>2026-04-08T08:51:02.965Z</time></trkpt><trkpt lat="44.1335207" lon="10.4140434"><ele>376.57142857142856</ele><time>2026-04-08T08:51:04.969Z</time></trkpt><trkpt lat="44.1335803" lon="10.4140942"><ele>377.2857142857143</ele><time>2026-04-08T08:51:06.965Z</time></trkpt><trkpt lat="44.1336385" lon="10.4141544"><ele>378.0</ele><time>2026-04-08T08:51:08.954Z</time></trkpt><trkpt lat="44.1336981" lon="10.4142214"><ele>378.0</ele><time>2026-04-08T08:51:10.956Z</time></trkpt><trkpt lat="44.1337594" lon="10.414277"><ele>378.0</ele><time>2026-04-08T08:51:12.959Z</time></trkpt><trkpt lat="44.1338174" lon="10.4143384"><ele>378.0</ele><time>2026-04-08T08:51:14.95Z</time></trkpt><trkpt lat="44.1338747" lon="10.4144088"><ele>378.0</ele><time>2026-04-08T08:51:16.961Z</time></trkpt><trkpt lat="44.1339318" lon="10.4144759"><ele>378.0</ele><time>2026-04-08T08:51:18.964Z</time></trkpt><trkpt lat="44.1339919" lon="10.4145398"><ele>378.0</ele><time>2026-04-08T08:51:20.962Z</time></trkpt><trkpt lat="44.1340493" lon="10.4145995"><ele>378.0</ele><time>2026-04-08T08:51:22.961Z</time></trkpt><trkpt lat="44.1341018" lon="10.4146628"><ele>378.6666666666667</ele><time>2026-04-08T08:51:24.965Z</time></trkpt><trkpt lat="44.1341561" lon="10.4147317"><ele>379.3333333333333</ele><time>2026-04-08T08:51:26.966Z</time></trkpt><trkpt lat="44.1342147" lon="10.4147986"><ele>380.0</ele><time>2026-04-08T08:51:28.965Z</time></trkpt><trkpt lat="44.1342741" lon="10.4148682"><ele>380.66666666666663</ele><time>2026-04-08T08:51:30.965Z</time></trkpt><trkpt lat="44.1343326" lon="10.4149359"><ele>381.3333333333333</ele><time>2026-04-08T08:51:32.975Z</time></trkpt><trkpt lat="44.1343933" lon="10.4150075"><ele>382.0</ele><time>2026-04-08T08:51:34.961Z</time></trkpt><trkpt lat="44.1344511" lon="10.4150727"><ele>382.0</ele><time>2026-04-08T08:51:36.975Z</time></trkpt><trkpt lat="44.1345066" lon="10.4151404"><ele>382.0</ele><time>2026-04-08T08:51:38.962Z</time></trkpt><trkpt lat="44.1345673" lon="10.4152086"><ele>382.0</ele><time>2026-04-08T08:51:40.973Z</time></trkpt><trkpt lat="44.1346274" lon="10.4152745"><ele>382.0</ele><time>2026-04-08T08:51:42.981Z</time></trkpt><trkpt lat="44.1346867" lon="10.415343"><ele>382.0</ele><time>2026-04-08T08:51:44.99Z</time></trkpt><trkpt lat="44.1347465" lon="10.4154091"><ele>382.0</ele><time>2026-04-08T08:51:46.987Z</time></trkpt><trkpt lat="44.1348082" lon="10.4154716"><ele>381.8333333333333</ele><time>2026-04-08T08:51:48.978Z</time></trkpt><trkpt lat="44.134876" lon="10.4155242"><ele>381.66666666666663</ele><time>2026-04-08T08:51:50.961Z</time></trkpt><trkpt lat="44.1349486" lon="10.4155602"><ele>381.5</ele><time>2026-04-08T08:51:52.97Z</time></trkpt><trkpt lat="44.135023" lon="10.4155948"><ele>381.3333333333333</ele><time>2026-04-08T08:51:54.963Z</time></trkpt><trkpt lat="44.1350976" lon="10.4156299"><ele>381.1666666666667</ele><time>2026-04-08T08:51:56.965Z</time></trkpt><trkpt lat="44.1351703" lon="10.4156647"><ele>381.0</ele><time>2026-04-08T08:51:58.972Z</time></trkpt><trkpt lat="44.1352433" lon="10.4157052"><ele>381.5</ele><time>2026-04-08T08:52:00.961Z</time></trkpt><trkpt lat="44.1353172" lon="10.415742"><ele>382.0</ele><time>2026-04-08T08:52:02.96Z</time></trkpt><trkpt lat="44.1353901" lon="10.415776"><ele>382.5</ele><time>2026-04-08T08:52:04.97Z</time></trkpt><trkpt lat="44.1354629" lon="10.4158108"><ele>383.0</ele><time>2026-04-08T08:52:06.966Z</time></trkpt><trkpt lat="44.1355366" lon="10.4158424"><ele>383.5</ele><time>2026-04-08T08:52:08.976Z</time></trkpt><trkpt lat="44.1356134" lon="10.4158763"><ele>384.0</ele><time>2026-04-08T08:52:10.971Z</time></trkpt><trkpt lat="44.135689" lon="10.4159077"><ele>384.6666666666667</ele><time>2026-04-08T08:52:12.964Z</time></trkpt><trkpt lat="44.1357638" lon="10.4159372"><ele>385.33333333333337</ele><time>2026-04-08T08:52:14.972Z</time></trkpt><trkpt lat="44.1358411" lon="10.4159713"><ele>386.0</ele><time>2026-04-08T08:52:16.97Z</time></trkpt><trkpt lat="44.1359168" lon="10.4160059"><ele>386.6666666666667</ele><time>2026-04-08T08:52:18.963Z</time></trkpt><trkpt lat="44.1359933" lon="10.4160382"><ele>387.33333333333337</ele><time>2026-04-08T08:52:20.965Z</time></trkpt><trkpt lat="44.1360692" lon="10.4160746"><ele>388.0</ele><time>2026-04-08T08:52:22.963Z</time></trkpt><trkpt lat="44.1361456" lon="10.4161117"><ele>388.00000000000006</ele><time>2026-04-08T08:52:24.957Z</time></trkpt><trkpt lat="44.1362182" lon="10.4161577"><ele>388.0</ele><time>2026-04-08T08:52:26.974Z</time></trkpt><trkpt lat="44.1362898" lon="10.4162081"><ele>388.0</ele><time>2026-04-08T08:52:28.959Z</time></trkpt><trkpt lat="44.1363592" lon="10.4162664"><ele>388.0</ele><time>2026-04-08T08:52:30.955Z</time></trkpt><trkpt lat="44.1364245" lon="10.4163261"><ele>388.00000000000006</ele><time>2026-04-08T08:52:32.955Z</time></trkpt><trkpt lat="44.1364943" lon="10.4163917"><ele>388.0</ele><time>2026-04-08T08:52:34.952Z</time></trkpt><trkpt lat="44.1365613" lon="10.4164562"><ele>389.00000000000006</ele><time>2026-04-08T08:52:36.963Z</time></trkpt><trkpt lat="44.1366279" lon="10.4165255"><ele>390.0</ele><time>2026-04-08T08:52:38.958Z</time></trkpt><trkpt lat="44.1366952" lon="10.4165946"><ele>391.0</ele><time>2026-04-08T08:52:40.962Z</time></trkpt><trkpt lat="44.136764" lon="10.4166579"><ele>392.0</ele><time>2026-04-08T08:52:42.983Z</time></trkpt><trkpt lat="44.1368298" lon="10.4167227"><ele>393.00000000000006</ele><time>2026-04-08T08:52:44.958Z</time></trkpt><trkpt lat="44.1368924" lon="10.4167932"><ele>394.0</ele><time>2026-04-08T08:52:46.986Z</time></trkpt><trkpt lat="44.1369558" lon="10.4168623"><ele>394.00000000000006</ele><time>2026-04-08T08:52:48.986Z</time></trkpt><trkpt lat="44.1370183" lon="10.4169349"><ele>394.0</ele><time>2026-04-08T08:52:50.964Z</time></trkpt><trkpt lat="44.1370821" lon="10.4170004"><ele>394.0</ele><time>2026-04-08T08:52:52.957Z</time></trkpt><trkpt lat="44.1371458" lon="10.4170687"><ele>394.0</ele><time>2026-04-08T08:52:54.962Z</time></trkpt><trkpt lat="44.1372095" lon="10.4171376"><ele>394.00000000000006</ele><time>2026-04-08T08:52:56.975Z</time></trkpt><trkpt lat="44.1372735" lon="10.4172022"><ele>394.0</ele><time>2026-04-08T08:52:58.962Z</time></trkpt><trkpt lat="44.1373345" lon="10.4172666"><ele>394.8571428571429</ele><time>2026-04-08T08:53:00.957Z</time></trkpt><trkpt lat="44.1373927" lon="10.4173275"><ele>395.7142857142857</ele><time>2026-04-08T08:53:02.964Z</time></trkpt><trkpt lat="44.1374414" lon="10.4173924"><ele>396.57142857142856</ele><time>2026-04-08T08:53:04.963Z</time></trkpt><trkpt lat="44.1374942" lon="10.4174502"><ele>397.42857142857144</ele><time>2026-04-08T08:53:06.955Z</time></trkpt><trkpt lat="44.1375507" lon="10.4175084"><ele>398.2857142857143</ele><time>2026-04-08T08:53:08.958Z</time></trkpt><trkpt lat="44.1376046" lon="10.4175673"><ele>399.14285714285717</ele><time>2026-04-08T08:53:10.962Z</time></trkpt><trkpt lat="44.1376597" lon="10.4176233"><ele>400.0</ele><time>2026-04-08T08:53:12.965Z</time></trkpt><trkpt lat="44.1377197" lon="10.4176888"><ele>400.00000000000006</ele><time>2026-04-08T08:53:14.967Z</time></trkpt><trkpt lat="44.13778" lon="10.4177548"><ele>400.0</ele><time>2026-04-08T08:53:16.961Z</time></trkpt><trkpt lat="44.1378389" lon="10.4178154"><ele>400.0</ele><time>2026-04-08T08:53:18.962Z</time></trkpt><trkpt lat="44.1379027" lon="10.4178753"><ele>400.0</ele><time>2026-04-08T08:53:20.961Z</time></trkpt><trkpt lat="44.1379685" lon="10.417936"><ele>400.00000000000006</ele><time>2026-04-08T08:53:22.968Z</time></trkpt><trkpt lat="44.1380293" lon="10.4180059"><ele>400.0</ele><time>2026-04-08T08:53:24.963Z</time></trkpt><trkpt lat="44.1380988" lon="10.4180603"><ele>400.6</ele><time>2026-04-08T08:53:26.964Z</time></trkpt><trkpt lat="44.1381837" lon="10.4181106"><ele>401.2</ele><time>2026-04-08T08:53:28.962Z</time></trkpt><trkpt lat="44.1382817" lon="10.4181558"><ele>401.79999999999995</ele><time>2026-04-08T08:53:30.963Z</time></trkpt><trkpt lat="44.1383862" lon="10.4182091"><ele>402.4</ele><time>2026-04-08T08:53:32.972Z</time></trkpt><trkpt lat="44.1384959" lon="10.4182421"><ele>403.0</ele><time>2026-04-08T08:53:34.97Z</time></trkpt><trkpt lat="44.138619" lon="10.4182392"><ele>403.0</ele><time>2026-04-08T08:53:36.965Z</time></trkpt><trkpt lat="44.1386836" lon="10.4182308"><ele>403.0</ele><time>2026-04-08T08:53:37.965Z</time></trkpt><trkpt lat="44.1387508" lon="10.4182227"><ele>403.0</ele><time>2026-04-08T08:53:38.959Z</time></trkpt><trkpt lat="44.1388179" lon="10.4182211"><ele>403.0</ele><time>2026-04-08T08:53:39.96Z</time></trkpt><trkpt lat="44.1388876" lon="10.4182163"><ele>403.0</ele><time>2026-04-08T08:53:40.953Z</time></trkpt><trkpt lat="44.1389567" lon="10.418214"><ele>403.0</ele><time>2026-04-08T08:53:41.958Z</time></trkpt><trkpt lat="44.1390312" lon="10.4182129"><ele>403.0</ele><time>2026-04-08T08:53:42.963Z</time></trkpt><trkpt lat="44.1391073" lon="10.4182204"><ele>401.83333333333337</ele><time>2026-04-08T08:53:43.963Z</time></trkpt><trkpt lat="44.1391811" lon="10.418235"><ele>400.6666666666667</ele><time>2026-04-08T08:53:44.979Z</time></trkpt><trkpt lat="44.139253" lon="10.4182529"><ele>399.5</ele><time>2026-04-08T08:53:45.963Z</time></trkpt><trkpt lat="44.1393295" lon="10.4182601"><ele>398.33333333333337</ele><time>2026-04-08T08:53:46.956Z</time></trkpt><trkpt lat="44.1394058" lon="10.4182596"><ele>397.1666666666667</ele><time>2026-04-08T08:53:47.977Z</time></trkpt><trkpt lat="44.1394819" lon="10.4182547"><ele>396.0</ele><time>2026-04-08T08:53:48.963Z</time></trkpt><trkpt lat="44.1395557" lon="10.4182484"><ele>396.0</ele><time>2026-04-08T08:53:49.963Z</time></trkpt><trkpt lat="44.1396324" lon="10.4182403"><ele>396.0</ele><time>2026-04-08T08:53:50.963Z</time></trkpt><trkpt lat="44.13971" lon="10.4182321"><ele>396.0</ele><time>2026-04-08T08:53:51.973Z</time></trkpt><trkpt lat="44.1397886" lon="10.4182236"><ele>396.0</ele><time>2026-04-08T08:53:52.96Z</time></trkpt><trkpt lat="44.1398677" lon="10.4182106"><ele>396.0</ele><time>2026-04-08T08:53:53.96Z</time></trkpt><trkpt lat="44.1399434" lon="10.418198"><ele>396.0</ele><time>2026-04-08T08:53:54.956Z</time></trkpt><trkpt lat="44.1400174" lon="10.4181866"><ele>396.0</ele><time>2026-04-08T08:53:55.964Z</time></trkpt><trkpt lat="44.1400913" lon="10.4181764"><ele>396.0</ele><time>2026-04-08T08:53:56.963Z</time></trkpt><trkpt lat="44.1401683" lon="10.4181624"><ele>396.0</ele><time>2026-04-08T08:53:57.964Z</time></trkpt><trkpt lat="44.1402391" lon="10.4181219"><ele>396.0</ele><time>2026-04-08T08:53:58.967Z</time></trkpt><trkpt lat="44.1403006" lon="10.4180578"><ele>396.0</ele><time>2026-04-08T08:53:59.964Z</time></trkpt><trkpt lat="44.1403522" lon="10.417987"><ele>396.0</ele><time>2026-04-08T08:54:00.969Z</time></trkpt><trkpt lat="44.1403918" lon="10.4178879"><ele>394.14285714285717</ele><time>2026-04-08T08:54:01.971Z</time></trkpt><trkpt lat="44.1404196" lon="10.4177855"><ele>392.2857142857143</ele><time>2026-04-08T08:54:02.981Z</time></trkpt><trkpt lat="44.1404401" lon="10.4176821"><ele>390.42857142857144</ele><time>2026-04-08T08:54:03.963Z</time></trkpt><trkpt lat="44.1404585" lon="10.4175811"><ele>388.57142857142856</ele><time>2026-04-08T08:54:04.962Z</time></trkpt><trkpt lat="44.1404731" lon="10.41748"><ele>386.71428571428567</ele><time>2026-04-08T08:54:05.963Z</time></trkpt><trkpt lat="44.1404851" lon="10.4173836"><ele>384.85714285714283</ele><time>2026-04-08T08:54:06.957Z</time></trkpt><trkpt lat="44.1404979" lon="10.4172823"><ele>383.0</ele><time>2026-04-08T08:54:07.969Z</time></trkpt><trkpt lat="44.1405097" lon="10.4171929"><ele>382.0</ele><time>2026-04-08T08:54:08.964Z</time></trkpt><trkpt lat="44.1405236" lon="10.4171022"><ele>381.0</ele><time>2026-04-08T08:54:09.975Z</time></trkpt><trkpt lat="44.1405469" lon="10.4169281"><ele>380.0</ele><time>2026-04-08T08:54:11.971Z</time></trkpt><trkpt lat="44.1405673" lon="10.4167647"><ele>379.0</ele><time>2026-04-08T08:54:13.968Z</time></trkpt><trkpt lat="44.1405858" lon="10.4166121"><ele>378.0</ele><time>2026-04-08T08:54:15.965Z</time></trkpt><trkpt lat="44.1406079" lon="10.4164711"><ele>378.0</ele><time>2026-04-08T08:54:17.968Z</time></trkpt><trkpt lat="44.1406259" lon="10.4163354"><ele>378.0</ele><time>2026-04-08T08:54:19.968Z</time></trkpt><trkpt lat="44.1406421" lon="10.4161989"><ele>378.0</ele><time>2026-04-08T08:54:21.957Z</time></trkpt><trkpt lat="44.1406544" lon="10.4160756"><ele>378.0</ele><time>2026-04-08T08:54:23.965Z</time></trkpt><trkpt lat="44.1406717" lon="10.4159545"><ele>378.0</ele><time>2026-04-08T08:54:25.956Z</time></trkpt><trkpt lat="44.1406915" lon="10.4158509"><ele>377.8333333333333</ele><time>2026-04-08T08:54:27.988Z</time></trkpt><trkpt lat="44.1407017" lon="10.4157529"><ele>377.6666666666667</ele><time>2026-04-08T08:54:29.952Z</time></trkpt><trkpt lat="44.140703" lon="10.4156579"><ele>377.5</ele><time>2026-04-08T08:54:31.957Z</time></trkpt><trkpt lat="44.1407234" lon="10.4155354"><ele>377.33333333333337</ele><time>2026-04-08T08:54:34.981Z</time></trkpt><trkpt lat="44.1407324" lon="10.41543"><ele>377.1666666666667</ele><time>2026-04-08T08:54:37.968Z</time></trkpt><trkpt lat="44.14073" lon="10.415323"><ele>377.0</ele><time>2026-04-08T08:54:40.961Z</time></trkpt><trkpt lat="44.1407284" lon="10.415213"><ele>377.1666666666667</ele><time>2026-04-08T08:54:43.979Z</time></trkpt><trkpt lat="44.140718" lon="10.4151058"><ele>377.33333333333337</ele><time>2026-04-08T08:54:46.972Z</time></trkpt><trkpt lat="44.1407111" lon="10.4149976"><ele>377.5</ele><time>2026-04-08T08:54:49.972Z</time></trkpt><trkpt lat="44.1407081" lon="10.4148888"><ele>377.6666666666667</ele><time>2026-04-08T08:54:52.983Z</time></trkpt><trkpt lat="44.140706" lon="10.4147761"><ele>377.8333333333333</ele><time>2026-04-08T08:54:55.959Z</time></trkpt><trkpt lat="44.1406971" lon="10.4146662"><ele>378.0</ele><time>2026-04-08T08:54:58.966Z</time></trkpt><trkpt lat="44.1406936" lon="10.4145564"><ele>378.5</ele><time>2026-04-08T08:55:01.954Z</time></trkpt><trkpt lat="44.1406976" lon="10.4144368"><ele>379.0</ele><time>2026-04-08T08:55:04.965Z</time></trkpt><trkpt lat="44.1407183" lon="10.4143298"><ele>379.5</ele><time>2026-04-08T08:55:07.957Z</time></trkpt><trkpt lat="44.1407659" lon="10.4142455"><ele>380.0</ele><time>2026-04-08T08:55:10.957Z</time></trkpt><trkpt lat="44.1408354" lon="10.4141917"><ele>380.5</ele><time>2026-04-08T08:55:13.959Z</time></trkpt><trkpt lat="44.1409136" lon="10.4141813"><ele>381.0</ele><time>2026-04-08T08:55:16.955Z</time></trkpt><trkpt lat="44.1409849" lon="10.4142247"><ele>382.0</ele><time>2026-04-08T08:55:19.961Z</time></trkpt><trkpt lat="44.1410338" lon="10.4143149"><ele>383.0</ele><time>2026-04-08T08:55:22.96Z</time></trkpt><trkpt lat="44.1410595" lon="10.4144224"><ele>384.0</ele><time>2026-04-08T08:55:25.953Z</time></trkpt><trkpt lat="44.1410706" lon="10.4145265"><ele>385.0</ele><time>2026-04-08T08:55:28.956Z</time></trkpt><trkpt lat="44.1410798" lon="10.414635"><ele>386.0</ele><time>2026-04-08T08:55:31.965Z</time></trkpt><trkpt lat="44.1411058" lon="10.4147441"><ele>387.0</ele><time>2026-04-08T08:55:34.97Z</time></trkpt><trkpt lat="44.1411503" lon="10.4148389"><ele>387.0</ele><time>2026-04-08T08:55:37.964Z</time></trkpt><trkpt lat="44.1412193" lon="10.4149076"><ele>387.0</ele><time>2026-04-08T08:55:40.959Z</time></trkpt><trkpt lat="44.1412959" lon="10.4149516"><ele>387.0</ele><time>2026-04-08T08:55:43.955Z</time></trkpt><trkpt lat="44.1413807" lon="10.4149638"><ele>387.0</ele><time>2026-04-08T08:55:46.962Z</time></trkpt><trkpt lat="44.1414631" lon="10.4149512"><ele>387.0</ele><time>2026-04-08T08:55:49.968Z</time></trkpt><trkpt lat="44.1415419" lon="10.4149302"><ele>387.0</ele><time>2026-04-08T08:55:52.97Z</time></trkpt><trkpt lat="44.1416232" lon="10.4149073"><ele>388.6666666666667</ele><time>2026-04-08T08:55:55.963Z</time></trkpt><trkpt lat="44.1417003" lon="10.4148884"><ele>390.33333333333337</ele><time>2026-04-08T08:55:58.967Z</time></trkpt><trkpt lat="44.1417723" lon="10.4148755"><ele>392.0</ele><time>2026-04-08T08:56:01.976Z</time></trkpt><trkpt lat="44.1418496" lon="10.4148646"><ele>393.6666666666667</ele><time>2026-04-08T08:56:04.966Z</time></trkpt><trkpt lat="44.1419323" lon="10.4148579"><ele>395.33333333333337</ele><time>2026-04-08T08:56:07.957Z</time></trkpt><trkpt lat="44.1420096" lon="10.4148681"><ele>397.0</ele><time>2026-04-08T08:56:10.959Z</time></trkpt><trkpt lat="44.1420922" lon="10.4148806"><ele>397.00000000000006</ele><time>2026-04-08T08:56:13.958Z</time></trkpt><trkpt lat="44.1421703" lon="10.4148892"><ele>397.0</ele><time>2026-04-08T08:56:16.97Z</time></trkpt><trkpt lat="44.1422487" lon="10.4149001"><ele>397.0</ele><time>2026-04-08T08:56:19.968Z</time></trkpt><trkpt lat="44.1423158" lon="10.4149171"><ele>397.0</ele><time>2026-04-08T08:56:22.987Z</time></trkpt><trkpt lat="44.1423922" lon="10.4149285"><ele>397.00000000000006</ele><time>2026-04-08T08:56:25.961Z</time></trkpt><trkpt lat="44.1424771" lon="10.4149442"><ele>397.0</ele><time>2026-04-08T08:56:28.978Z</time></trkpt><trkpt lat="44.142559" lon="10.4149551"><ele>398.00000000000006</ele><time>2026-04-08T08:56:31.954Z</time></trkpt><trkpt lat="44.1426483" lon="10.414962"><ele>399.0</ele><time>2026-04-08T08:56:34.953Z</time></trkpt><trkpt lat="44.1427353" lon="10.4149614"><ele>400.0</ele><time>2026-04-08T08:56:37.962Z</time></trkpt><trkpt lat="44.1428173" lon="10.4149559"><ele>401.0</ele><time>2026-04-08T08:56:40.978Z</time></trkpt><trkpt lat="44.1429076" lon="10.4149445"><ele>402.00000000000006</ele><time>2026-04-08T08:56:43.954Z</time></trkpt><trkpt lat="44.142992" lon="10.414919"><ele>403.0</ele><time>2026-04-08T08:56:46.966Z</time></trkpt><trkpt lat="44.1430725" lon="10.4148971"><ele>403.00000000000006</ele><time>2026-04-08T08:56:49.959Z</time></trkpt><trkpt lat="44.1431548" lon="10.4148848"><ele>403.0</ele><time>2026-04-08T08:56:52.96Z</time></trkpt><trkpt lat="44.143238" lon="10.4148921"><ele>403.0</ele><time>2026-04-08T08:56:55.957Z</time></trkpt><trkpt lat="44.1433161" lon="10.41491"><ele>403.0</ele><time>2026-04-08T08:56:58.971Z</time></trkpt><trkpt lat="44.1433963" lon="10.4149397"><ele>403.00000000000006</ele><time>2026-04-08T08:57:01.962Z</time></trkpt><trkpt lat="44.1434765" lon="10.4149616"><ele>403.0</ele><time>2026-04-08T08:57:04.967Z</time></trkpt><trkpt lat="44.1435611" lon="10.4149814"><ele>405.00000000000006</ele><time>2026-04-08T08:57:07.954Z</time></trkpt><trkpt lat="44.1436433" lon="10.415005"><ele>407.0</ele><time>2026-04-08T08:57:10.958Z</time></trkpt><trkpt lat="44.1437239" lon="10.4150301"><ele>409.0</ele><time>2026-04-08T08:57:13.975Z</time></trkpt><trkpt lat="44.1437999" lon="10.4150641"><ele>411.0</ele><time>2026-04-08T08:57:16.959Z</time></trkpt><trkpt lat="44.1438799" lon="10.4150931"><ele>413.00000000000006</ele><time>2026-04-08T08:57:19.968Z</time></trkpt><trkpt lat="44.1439542" lon="10.4151279"><ele>415.0</ele><time>2026-04-08T08:57:22.965Z</time></trkpt><trkpt lat="44.1440332" lon="10.4151479"><ele>415.00000000000006</ele><time>2026-04-08T08:57:25.974Z</time></trkpt><trkpt lat="44.1441141" lon="10.4151228"><ele>415.0</ele><time>2026-04-08T08:57:28.974Z</time></trkpt><trkpt lat="44.1441526" lon="10.4150296"><ele>415.0</ele><time>2026-04-08T08:57:31.965Z</time></trkpt><trkpt lat="44.1441355" lon="10.4149151"><ele>415.0</ele><time>2026-04-08T08:57:34.983Z</time></trkpt><trkpt lat="44.1440764" lon="10.4148352"><ele>415.00000000000006</ele><time>2026-04-08T08:57:37.978Z</time></trkpt><trkpt lat="44.1440094" lon="10.4147841"><ele>415.0</ele><time>2026-04-08T08:57:40.961Z</time></trkpt><trkpt lat="44.1439376" lon="10.4147436"><ele>415.00000000000006</ele><time>2026-04-08T08:57:43.961Z</time></trkpt><trkpt lat="44.1438614" lon="10.4147032"><ele>415.0</ele><time>2026-04-08T08:57:46.962Z</time></trkpt><trkpt lat="44.1437788" lon="10.4146922"><ele>415.0</ele><time>2026-04-08T08:57:49.971Z</time></trkpt><trkpt lat="44.1436981" lon="10.4146781"><ele>415.0</ele><time>2026-04-08T08:57:52.957Z</time></trkpt><trkpt lat="44.1436175" lon="10.4146661"><ele>415.00000000000006</ele><time>2026-04-08T08:57:55.959Z</time></trkpt><trkpt lat="44.143538" lon="10.4146346"><ele>415.0</ele><time>2026-04-08T08:57:58.963Z</time></trkpt><trkpt lat="44.1434682" lon="10.4145753"><ele>416.6666666666667</ele><time>2026-04-08T08:58:01.96Z</time></trkpt><trkpt lat="44.1434197" lon="10.414488"><ele>418.33333333333337</ele><time>2026-04-08T08:58:04.964Z</time></trkpt><trkpt lat="44.1434048" lon="10.4143751"><ele>420.0</ele><time>2026-04-08T08:58:07.96Z</time></trkpt><trkpt lat="44.1434077" lon="10.4142584"><ele>421.66666666666663</ele><time>2026-04-08T08:58:10.982Z</time></trkpt><trkpt lat="44.143417" lon="10.4141409"><ele>423.3333333333333</ele><time>2026-04-08T08:58:13.961Z</time></trkpt><trkpt lat="44.1434184" lon="10.4140205"><ele>425.0</ele><time>2026-04-08T08:58:16.963Z</time></trkpt><trkpt lat="44.1434254" lon="10.4138978"><ele>425.99999999999994</ele><time>2026-04-08T08:58:19.958Z</time></trkpt><trkpt lat="44.143419" lon="10.4137804"><ele>427.0</ele><time>2026-04-08T08:58:22.974Z</time></trkpt><trkpt lat="44.1434059" lon="10.4136594"><ele>428.0</ele><time>2026-04-08T08:58:25.962Z</time></trkpt><trkpt lat="44.1433823" lon="10.4135385"><ele>429.0</ele><time>2026-04-08T08:58:28.958Z</time></trkpt><trkpt lat="44.1433559" lon="10.4134169"><ele>429.99999999999994</ele><time>2026-04-08T08:58:31.959Z</time></trkpt><trkpt lat="44.1433316" lon="10.4132971"><ele>431.0</ele><time>2026-04-08T08:58:34.983Z</time></trkpt><trkpt lat="44.1433056" lon="10.4131809"><ele>430.99999999999994</ele><time>2026-04-08T08:58:37.97Z</time></trkpt><trkpt lat="44.1432747" lon="10.4130667"><ele>431.0</ele><time>2026-04-08T08:58:40.967Z</time></trkpt><trkpt lat="44.1432286" lon="10.4129694"><ele>431.0</ele><time>2026-04-08T08:58:43.968Z</time></trkpt><trkpt lat="44.1431623" lon="10.4128987"><ele>431.0</ele><time>2026-04-08T08:58:46.971Z</time></trkpt><trkpt lat="44.1430796" lon="10.4128663"><ele>430.99999999999994</ele><time>2026-04-08T08:58:49.968Z</time></trkpt><trkpt lat="44.1429954" lon="10.4128564"><ele>431.0</ele><time>2026-04-08T08:58:52.962Z</time></trkpt><trkpt lat="44.1429166" lon="10.4128412"><ele>430.66666666666663</ele><time>2026-04-08T08:58:55.961Z</time></trkpt><trkpt lat="44.1428346" lon="10.4128114"><ele>430.3333333333333</ele><time>2026-04-08T08:58:58.964Z</time></trkpt><trkpt lat="44.1427676" lon="10.4127409"><ele>430.0</ele><time>2026-04-08T08:59:01.956Z</time></trkpt><trkpt lat="44.1427378" lon="10.4126313"><ele>429.66666666666663</ele><time>2026-04-08T08:59:04.953Z</time></trkpt><trkpt lat="44.1427525" lon="10.4125078"><ele>429.3333333333333</ele><time>2026-04-08T08:59:07.953Z</time></trkpt><trkpt lat="44.1428028" lon="10.4124112"><ele>429.0</ele><time>2026-04-08T08:59:10.966Z</time></trkpt><trkpt lat="44.1428836" lon="10.4123546"><ele>429.0</ele><time>2026-04-08T08:59:13.965Z</time></trkpt><trkpt lat="44.1429662" lon="10.4123185"><ele>429.0</ele><time>2026-04-08T08:59:16.959Z</time></trkpt><trkpt lat="44.1430487" lon="10.4122767"><ele>429.0</ele><time>2026-04-08T08:59:19.966Z</time></trkpt><trkpt lat="44.1431268" lon="10.4122307"><ele>429.0</ele><time>2026-04-08T08:59:22.969Z</time></trkpt><trkpt lat="44.1432061" lon="10.4122005"><ele>429.0</ele><time>2026-04-08T08:59:25.956Z</time></trkpt><trkpt lat="44.1432877" lon="10.4121667"><ele>429.0</ele><time>2026-04-08T08:59:28.977Z</time></trkpt><trkpt lat="44.1433715" lon="10.4121387"><ele>430.8333333333333</ele><time>2026-04-08T08:59:31.956Z</time></trkpt><trkpt lat="44.1434546" lon="10.4121173"><ele>432.66666666666663</ele><time>2026-04-08T08:59:34.959Z</time></trkpt><trkpt lat="44.1435359" lon="10.4120972"><ele>434.5</ele><time>2026-04-08T08:59:37.985Z</time></trkpt><trkpt lat="44.1436199" lon="10.4120786"><ele>436.3333333333333</ele><time>2026-04-08T08:59:40.963Z</time></trkpt><trkpt lat="44.1437035" lon="10.4120505"><ele>438.16666666666663</ele><time>2026-04-08T08:59:43.962Z</time></trkpt><trkpt lat="44.1437775" lon="10.4119874"><ele>440.0</ele><time>2026-04-08T08:59:46.969Z</time></trkpt><trkpt lat="44.1438433" lon="10.4119109"><ele>439.99999999999994</ele><time>2026-04-08T08:59:49.967Z</time></trkpt><trkpt lat="44.1439018" lon="10.4118222"><ele>440.0</ele><time>2026-04-08T08:59:52.968Z</time></trkpt><trkpt lat="44.1439615" lon="10.411737"><ele>440.0</ele><time>2026-04-08T08:59:55.972Z</time></trkpt><trkpt lat="44.1440104" lon="10.4116417"><ele>440.0</ele><time>2026-04-08T08:59:58.977Z</time></trkpt><trkpt lat="44.1440375" lon="10.4115308"><ele>439.99999999999994</ele><time>2026-04-08T09:00:01.976Z</time></trkpt><trkpt lat="44.1440388" lon="10.4114147"><ele>440.0</ele><time>2026-04-08T09:00:04.948Z</time></trkpt><trkpt lat="44.1440156" lon="10.4113018"><ele>441.16666666666663</ele><time>2026-04-08T09:00:07.963Z</time></trkpt><trkpt lat="44.1439716" lon="10.4112004"><ele>442.3333333333333</ele><time>2026-04-08T09:00:10.969Z</time></trkpt><trkpt lat="44.1439205" lon="10.4111115"><ele>443.5</ele><time>2026-04-08T09:00:13.968Z</time></trkpt><trkpt lat="44.1438567" lon="10.4110284"><ele>444.66666666666663</ele><time>2026-04-08T09:00:16.976Z</time></trkpt><trkpt lat="44.143792" lon="10.4109624"><ele>445.8333333333333</ele><time>2026-04-08T09:00:19.968Z</time></trkpt><trkpt lat="44.1437267" lon="10.4109054"><ele>447.0</ele><time>2026-04-08T09:00:22.961Z</time></trkpt><trkpt lat="44.143659" lon="10.4108367"><ele>447.0</ele><time>2026-04-08T09:00:25.954Z</time></trkpt><trkpt lat="44.1435928" lon="10.41077"><ele>447.0</ele><time>2026-04-08T09:00:28.961Z</time></trkpt><trkpt lat="44.1435314" lon="10.4107105"><ele>447.0</ele><time>2026-04-08T09:00:31.954Z</time></trkpt><trkpt lat="44.1434635" lon="10.4106494"><ele>447.0</ele><time>2026-04-08T09:00:34.971Z</time></trkpt><trkpt lat="44.143416" lon="10.4105636"><ele>447.0</ele><time>2026-04-08T09:00:37.973Z</time></trkpt><trkpt lat="44.1434267" lon="10.4104474"><ele>447.0</ele><time>2026-04-08T09:00:40.972Z</time></trkpt><trkpt lat="44.1434861" lon="10.4103488"><ele>447.5</ele><time>2026-04-08T09:00:43.979Z</time></trkpt><trkpt lat="44.1435642" lon="10.410298"><ele>448.0</ele><time>2026-04-08T09:00:46.961Z</time></trkpt><trkpt lat="44.1436405" lon="10.4102651"><ele>448.5</ele><time>2026-04-08T09:00:49.969Z</time></trkpt><trkpt lat="44.143715" lon="10.4102271"><ele>449.0</ele><time>2026-04-08T09:00:52.951Z</time></trkpt><trkpt lat="44.1437918" lon="10.4101917"><ele>449.5</ele><time>2026-04-08T09:00:55.958Z</time></trkpt><trkpt lat="44.1438693" lon="10.4101526"><ele>450.0</ele><time>2026-04-08T09:00:58.957Z</time></trkpt><trkpt lat="44.1439421" lon="10.4101131"><ele>450.0</ele><time>2026-04-08T09:01:01.978Z</time></trkpt><trkpt lat="44.1440237" lon="10.4100984"><ele>450.0</ele><time>2026-04-08T09:01:04.975Z</time></trkpt><trkpt lat="44.1441031" lon="10.4100993"><ele>450.0</ele><time>2026-04-08T09:01:07.959Z</time></trkpt><trkpt lat="44.1441814" lon="10.4101213"><ele>450.0</ele><time>2026-04-08T09:01:10.957Z</time></trkpt><trkpt lat="44.1442572" lon="10.4101539"><ele>450.0</ele><time>2026-04-08T09:01:13.966Z</time></trkpt><trkpt lat="44.1443349" lon="10.4101782"><ele>450.0</ele><time>2026-04-08T09:01:16.959Z</time></trkpt><trkpt lat="44.1444138" lon="10.4102061"><ele>452.3333333333333</ele><time>2026-04-08T09:01:19.952Z</time></trkpt><trkpt lat="44.144494" lon="10.4102279"><ele>454.66666666666663</ele><time>2026-04-08T09:01:22.95Z</time></trkpt><trkpt lat="44.1445722" lon="10.410251"><ele>457.0</ele><time>2026-04-08T09:01:25.966Z</time></trkpt><trkpt lat="44.1446488" lon="10.4102761"><ele>459.3333333333333</ele><time>2026-04-08T09:01:28.976Z</time></trkpt><trkpt lat="44.14473" lon="10.4103077"><ele>461.66666666666663</ele><time>2026-04-08T09:01:31.965Z</time></trkpt><trkpt lat="44.144811" lon="10.4103347"><ele>464.0</ele><time>2026-04-08T09:01:34.961Z</time></trkpt><trkpt lat="44.1448936" lon="10.4103561"><ele>465.16666666666663</ele><time>2026-04-08T09:01:37.996Z</time></trkpt><trkpt lat="44.1449725" lon="10.4103878"><ele>466.3333333333333</ele><time>2026-04-08T09:01:40.956Z</time></trkpt><trkpt lat="44.145052" lon="10.4104181"><ele>467.5</ele><time>2026-04-08T09:01:43.956Z</time></trkpt><trkpt lat="44.145133" lon="10.4104471"><ele>468.66666666666663</ele><time>2026-04-08T09:01:46.955Z</time></trkpt><trkpt lat="44.1452133" lon="10.4104764"><ele>469.8333333333333</ele><time>2026-04-08T09:01:49.955Z</time></trkpt><trkpt lat="44.1452964" lon="10.4105054"><ele>471.0</ele><time>2026-04-08T09:01:52.967Z</time></trkpt><trkpt lat="44.1453728" lon="10.4105325"><ele>471.3333333333333</ele><time>2026-04-08T09:01:55.959Z</time></trkpt><trkpt lat="44.1454545" lon="10.4105624"><ele>471.66666666666663</ele><time>2026-04-08T09:01:58.953Z</time></trkpt><trkpt lat="44.1455359" lon="10.4105884"><ele>472.0</ele><time>2026-04-08T09:02:01.957Z</time></trkpt><trkpt lat="44.1456183" lon="10.4106156"><ele>472.3333333333333</ele><time>2026-04-08T09:02:04.956Z</time></trkpt><trkpt lat="44.1456988" lon="10.4106532"><ele>472.66666666666663</ele><time>2026-04-08T09:02:07.956Z</time></trkpt><trkpt lat="44.1457798" lon="10.4106895"><ele>473.0</ele><time>2026-04-08T09:02:10.983Z</time></trkpt><trkpt lat="44.1458631" lon="10.4107188"><ele>473.3333333333333</ele><time>2026-04-08T09:02:13.964Z</time></trkpt><trkpt lat="44.1459443" lon="10.4107546"><ele>473.66666666666663</ele><time>2026-04-08T09:02:16.961Z</time></trkpt><trkpt lat="44.1460295" lon="10.4107734"><ele>474.0</ele><time>2026-04-08T09:02:19.959Z</time></trkpt><trkpt lat="44.1461182" lon="10.4108042"><ele>474.33333333333337</ele><time>2026-04-08T09:02:22.952Z</time></trkpt><trkpt lat="44.1462015" lon="10.4108271"><ele>474.6666666666667</ele><time>2026-04-08T09:02:25.954Z</time></trkpt><trkpt lat="44.1462781" lon="10.4108518"><ele>475.0</ele><time>2026-04-08T09:02:28.948Z</time></trkpt><trkpt lat="44.146356" lon="10.4108728"><ele>475.00000000000006</ele><time>2026-04-08T09:02:31.95Z</time></trkpt><trkpt lat="44.1464257" lon="10.4109001"><ele>475.0</ele><time>2026-04-08T09:02:34.952Z</time></trkpt><trkpt lat="44.1465007" lon="10.4109445"><ele>475.0</ele><time>2026-04-08T09:02:37.95Z</time></trkpt><trkpt lat="44.1465699" lon="10.4109968"><ele>475.0</ele><time>2026-04-08T09:02:40.951Z</time></trkpt><trkpt lat="44.146632" lon="10.4110578"><ele>475.00000000000006</ele><time>2026-04-08T09:02:43.945Z</time></trkpt><trkpt lat="44.1466859" lon="10.4111332"><ele>475.0</ele><time>2026-04-08T09:02:46.956Z</time></trkpt><trkpt lat="44.1467451" lon="10.4112125"><ele>475.83333333333337</ele><time>2026-04-08T09:02:49.951Z</time></trkpt><trkpt lat="44.1467962" lon="10.4112924"><ele>476.6666666666667</ele><time>2026-04-08T09:02:52.956Z</time></trkpt><trkpt lat="44.1468534" lon="10.4113743"><ele>477.5</ele><time>2026-04-08T09:02:55.964Z</time></trkpt><trkpt lat="44.1469062" lon="10.411458"><ele>478.33333333333337</ele><time>2026-04-08T09:02:58.956Z</time></trkpt><trkpt lat="44.146963" lon="10.4115345"><ele>479.1666666666667</ele><time>2026-04-08T09:03:01.974Z</time></trkpt><trkpt lat="44.1470199" lon="10.4116162"><ele>480.0</ele><time>2026-04-08T09:03:04.976Z</time></trkpt><trkpt lat="44.1470784" lon="10.4116956"><ele>481.1666666666667</ele><time>2026-04-08T09:03:07.985Z</time></trkpt><trkpt lat="44.1471369" lon="10.4117745"><ele>482.33333333333337</ele><time>2026-04-08T09:03:10.963Z</time></trkpt><trkpt lat="44.1471923" lon="10.4118577"><ele>483.5</ele><time>2026-04-08T09:03:13.953Z</time></trkpt><trkpt lat="44.1472466" lon="10.4119416"><ele>484.6666666666667</ele><time>2026-04-08T09:03:16.978Z</time></trkpt><trkpt lat="44.1473027" lon="10.412019"><ele>485.83333333333337</ele><time>2026-04-08T09:03:19.959Z</time></trkpt><trkpt lat="44.1473581" lon="10.4121001"><ele>487.0</ele><time>2026-04-08T09:03:22.949Z</time></trkpt><trkpt lat="44.1474141" lon="10.41218"><ele>487.6666666666667</ele><time>2026-04-08T09:03:25.96Z</time></trkpt><trkpt lat="44.1474703" lon="10.4122632"><ele>488.33333333333337</ele><time>2026-04-08T09:03:28.953Z</time></trkpt><trkpt lat="44.1475279" lon="10.4123482"><ele>489.0</ele><time>2026-04-08T09:03:31.962Z</time></trkpt><trkpt lat="44.1475895" lon="10.4124277"><ele>489.66666666666663</ele><time>2026-04-08T09:03:34.984Z</time></trkpt><trkpt lat="44.1476477" lon="10.4125122"><ele>490.3333333333333</ele><time>2026-04-08T09:03:37.962Z</time></trkpt><trkpt lat="44.1477081" lon="10.4125969"><ele>491.0</ele><time>2026-04-08T09:03:40.962Z</time></trkpt><trkpt lat="44.147768" lon="10.4126829"><ele>490.99999999999994</ele><time>2026-04-08T09:03:43.96Z</time></trkpt><trkpt lat="44.1478279" lon="10.4127643"><ele>491.0</ele><time>2026-04-08T09:03:46.955Z</time></trkpt><trkpt lat="44.1478875" lon="10.412848"><ele>491.0</ele><time>2026-04-08T09:03:49.952Z</time></trkpt><trkpt lat="44.1479428" lon="10.4129337"><ele>491.0</ele><time>2026-04-08T09:03:52.956Z</time></trkpt><trkpt lat="44.1479953" lon="10.4130147"><ele>490.99999999999994</ele><time>2026-04-08T09:03:55.979Z</time></trkpt><trkpt lat="44.148041" lon="10.4130844"><ele>491.0</ele><time>2026-04-08T09:03:58.957Z</time></trkpt><trkpt lat="44.1481074" lon="10.4131464"><ele>490.99999999999994</ele><time>2026-04-08T09:04:01.958Z</time></trkpt><trkpt lat="44.148192" lon="10.413155"><ele>491.0</ele><time>2026-04-08T09:04:04.955Z</time></trkpt><trkpt lat="44.1482233" lon="10.4130429"><ele>491.0</ele><time>2026-04-08T09:04:07.966Z</time></trkpt><trkpt lat="44.1482146" lon="10.4129196"><ele>491.0</ele><time>2026-04-08T09:04:10.954Z</time></trkpt><trkpt lat="44.148195" lon="10.4128078"><ele>490.99999999999994</ele><time>2026-04-08T09:04:13.953Z</time></trkpt><trkpt lat="44.1481716" lon="10.412696"><ele>491.0</ele><time>2026-04-08T09:04:16.967Z</time></trkpt><trkpt lat="44.1481471" lon="10.4125864"><ele>490.99999999999994</ele><time>2026-04-08T09:04:19.963Z</time></trkpt><trkpt lat="44.1481282" lon="10.4124681"><ele>491.0</ele><time>2026-04-08T09:04:22.967Z</time></trkpt><trkpt lat="44.1481112" lon="10.4123592"><ele>491.0</ele><time>2026-04-08T09:04:25.969Z</time></trkpt><trkpt lat="44.1480965" lon="10.412255"><ele>491.0</ele><time>2026-04-08T09:04:28.966Z</time></trkpt><trkpt lat="44.1480736" lon="10.4121486"><ele>490.99999999999994</ele><time>2026-04-08T09:04:31.967Z</time></trkpt><trkpt lat="44.1480536" lon="10.4120321"><ele>491.0</ele><time>2026-04-08T09:04:34.982Z</time></trkpt><trkpt lat="44.1480364" lon="10.4119138"><ele>490.8333333333333</ele><time>2026-04-08T09:04:37.975Z</time></trkpt><trkpt lat="44.1480218" lon="10.4118004"><ele>490.66666666666663</ele><time>2026-04-08T09:04:40.977Z</time></trkpt><trkpt lat="44.1480007" lon="10.4116847"><ele>490.5</ele><time>2026-04-08T09:04:43.954Z</time></trkpt><trkpt lat="44.1479763" lon="10.4115744"><ele>490.33333333333337</ele><time>2026-04-08T09:04:46.963Z</time></trkpt><trkpt lat="44.147951" lon="10.4114627"><ele>490.1666666666667</ele><time>2026-04-08T09:04:49.973Z</time></trkpt><trkpt lat="44.1479357" lon="10.4113455"><ele>490.0</ele><time>2026-04-08T09:04:52.956Z</time></trkpt><trkpt lat="44.1479135" lon="10.4112362"><ele>490.6666666666667</ele><time>2026-04-08T09:04:55.966Z</time></trkpt><trkpt lat="44.1478865" lon="10.41113"><ele>491.33333333333337</ele><time>2026-04-08T09:04:58.953Z</time></trkpt><trkpt lat="44.1478707" lon="10.4110139"><ele>492.0</ele><time>2026-04-08T09:05:01.96Z</time></trkpt><trkpt lat="44.1478517" lon="10.4108993"><ele>492.66666666666663</ele><time>2026-04-08T09:05:04.983Z</time></trkpt><trkpt lat="44.1478327" lon="10.4107889"><ele>493.3333333333333</ele><time>2026-04-08T09:05:07.967Z</time></trkpt><trkpt lat="44.1478159" lon="10.4106794"><ele>494.0</ele><time>2026-04-08T09:05:10.976Z</time></trkpt><trkpt lat="44.1477938" lon="10.4105669"><ele>494.8333333333333</ele><time>2026-04-08T09:05:13.95Z</time></trkpt><trkpt lat="44.1477791" lon="10.4104507"><ele>495.66666666666663</ele><time>2026-04-08T09:05:16.96Z</time></trkpt><trkpt lat="44.1477615" lon="10.4103315"><ele>496.5</ele><time>2026-04-08T09:05:19.957Z</time></trkpt><trkpt lat="44.1477408" lon="10.4102127"><ele>497.33333333333337</ele><time>2026-04-08T09:05:22.972Z</time></trkpt><trkpt lat="44.1477225" lon="10.4100911"><ele>498.1666666666667</ele><time>2026-04-08T09:05:25.956Z</time></trkpt><trkpt lat="44.1477032" lon="10.4099743"><ele>499.0</ele><time>2026-04-08T09:05:28.96Z</time></trkpt><trkpt lat="44.1476816" lon="10.4098614"><ele>499.00000000000006</ele><time>2026-04-08T09:05:31.981Z</time></trkpt><trkpt lat="44.1476641" lon="10.4097434"><ele>499.0</ele><time>2026-04-08T09:05:34.959Z</time></trkpt><trkpt lat="44.1476577" lon="10.4096258"><ele>499.0</ele><time>2026-04-08T09:05:37.954Z</time></trkpt><trkpt lat="44.1476405" lon="10.4095155"><ele>499.0</ele><time>2026-04-08T09:05:40.958Z</time></trkpt><trkpt lat="44.1476299" lon="10.4093998"><ele>499.00000000000006</ele><time>2026-04-08T09:05:43.968Z</time></trkpt><trkpt lat="44.1476096" lon="10.4092957"><ele>499.0</ele><time>2026-04-08T09:05:46.979Z</time></trkpt><trkpt lat="44.1475952" lon="10.4091888"><ele>500.6666666666667</ele><time>2026-04-08T09:05:49.952Z</time></trkpt><trkpt lat="44.1475861" lon="10.4090693"><ele>502.33333333333337</ele><time>2026-04-08T09:05:52.971Z</time></trkpt><trkpt lat="44.1475725" lon="10.4089466"><ele>504.0</ele><time>2026-04-08T09:05:55.961Z</time></trkpt><trkpt lat="44.1475495" lon="10.4088279"><ele>505.66666666666663</ele><time>2026-04-08T09:05:58.951Z</time></trkpt><trkpt lat="44.1475327" lon="10.4087102"><ele>507.3333333333333</ele><time>2026-04-08T09:06:01.966Z</time></trkpt><trkpt lat="44.1475104" lon="10.4085977"><ele>509.0</ele><time>2026-04-08T09:06:04.973Z</time></trkpt><trkpt lat="44.1474845" lon="10.4084826"><ele>510.16666666666663</ele><time>2026-04-08T09:06:07.957Z</time></trkpt><trkpt lat="44.1474461" lon="10.4083705"><ele>511.3333333333333</ele><time>2026-04-08T09:06:10.978Z</time></trkpt><trkpt lat="44.1473901" lon="10.4082826"><ele>512.5</ele><time>2026-04-08T09:06:13.956Z</time></trkpt><trkpt lat="44.1473314" lon="10.4081929"><ele>513.6666666666666</ele><time>2026-04-08T09:06:16.973Z</time></trkpt><trkpt lat="44.1472721" lon="10.4081054"><ele>514.8333333333334</ele><time>2026-04-08T09:06:19.969Z</time></trkpt><trkpt lat="44.1472227" lon="10.4080068"><ele>516.0</ele><time>2026-04-08T09:06:22.949Z</time></trkpt><trkpt lat="44.1472281" lon="10.4079055"><ele>514.6666666666666</ele><time>2026-04-08T09:06:25.954Z</time></trkpt><trkpt lat="44.1473046" lon="10.4078397"><ele>513.3333333333334</ele><time>2026-04-08T09:06:28.961Z</time></trkpt><trkpt lat="44.147372" lon="10.4077891"><ele>512.0</ele><time>2026-04-08T09:06:31.963Z</time></trkpt><trkpt lat="44.1474413" lon="10.4077495"><ele>510.6666666666667</ele><time>2026-04-08T09:06:35.974Z</time></trkpt><trkpt lat="44.1475193" lon="10.4077469"><ele>509.33333333333337</ele><time>2026-04-08T09:06:39.952Z</time></trkpt><trkpt lat="44.147585" lon="10.4077638"><ele>508.0</ele><time>2026-04-08T09:06:42.956Z</time></trkpt><trkpt lat="44.147658" lon="10.4077843"><ele>508.00000000000006</ele><time>2026-04-08T09:06:45.962Z</time></trkpt><trkpt lat="44.1477299" lon="10.4078045"><ele>508.0</ele><time>2026-04-08T09:06:48.961Z</time></trkpt><trkpt lat="44.1478045" lon="10.4078325"><ele>508.0</ele><time>2026-04-08T09:06:51.965Z</time></trkpt><trkpt lat="44.1478805" lon="10.4078645"><ele>508.0</ele><time>2026-04-08T09:06:54.967Z</time></trkpt><trkpt lat="44.1479415" lon="10.4079329"><ele>508.00000000000006</ele><time>2026-04-08T09:06:57.972Z</time></trkpt><trkpt lat="44.1479781" lon="10.4080353"><ele>508.0</ele><time>2026-04-08T09:07:00.967Z</time></trkpt><trkpt lat="44.1479879" lon="10.4081476"><ele>508.1666666666667</ele><time>2026-04-08T09:07:03.955Z</time></trkpt><trkpt lat="44.1479972" lon="10.4082662"><ele>508.33333333333337</ele><time>2026-04-08T09:07:06.95Z</time></trkpt><trkpt lat="44.1480034" lon="10.4083839"><ele>508.5</ele><time>2026-04-08T09:07:09.975Z</time></trkpt><trkpt lat="44.1480193" lon="10.408501"><ele>508.66666666666663</ele><time>2026-04-08T09:07:12.95Z</time></trkpt><trkpt lat="44.1480367" lon="10.408617"><ele>508.8333333333333</ele><time>2026-04-08T09:07:15.964Z</time></trkpt><trkpt lat="44.148042" lon="10.4087333"><ele>509.0</ele><time>2026-04-08T09:07:18.969Z</time></trkpt><trkpt lat="44.1480535" lon="10.4088527"><ele>508.99999999999994</ele><time>2026-04-08T09:07:21.957Z</time></trkpt><trkpt lat="44.1480675" lon="10.4089674"><ele>509.0</ele><time>2026-04-08T09:07:24.958Z</time></trkpt><trkpt lat="44.1480797" lon="10.4090835"><ele>509.0</ele><time>2026-04-08T09:07:27.953Z</time></trkpt><trkpt lat="44.1480918" lon="10.4092011"><ele>509.0</ele><time>2026-04-08T09:07:30.976Z</time></trkpt><trkpt lat="44.1481027" lon="10.4093156"><ele>508.99999999999994</ele><time>2026-04-08T09:07:33.975Z</time></trkpt><trkpt lat="44.1481159" lon="10.409428"><ele>509.0</ele><time>2026-04-08T09:07:36.959Z</time></trkpt><trkpt lat="44.148128" lon="10.4095469"><ele>507.3333333333333</ele><time>2026-04-08T09:07:39.97Z</time></trkpt><trkpt lat="44.1481447" lon="10.4096641"><ele>505.66666666666663</ele><time>2026-04-08T09:07:42.961Z</time></trkpt><trkpt lat="44.1481615" lon="10.4097783"><ele>504.0</ele><time>2026-04-08T09:07:45.954Z</time></trkpt><trkpt lat="44.1481806" lon="10.4098888"><ele>502.33333333333337</ele><time>2026-04-08T09:07:48.961Z</time></trkpt><trkpt lat="44.1482058" lon="10.4099967"><ele>500.6666666666667</ele><time>2026-04-08T09:07:51.976Z</time></trkpt><trkpt lat="44.1482332" lon="10.4101059"><ele>499.0</ele><time>2026-04-08T09:07:54.966Z</time></trkpt><trkpt lat="44.1482568" lon="10.4102189"><ele>503.33333333333337</ele><time>2026-04-08T09:07:57.96Z</time></trkpt><trkpt lat="44.148285" lon="10.4103287"><ele>507.6666666666667</ele><time>2026-04-08T09:08:00.976Z</time></trkpt><trkpt lat="44.1483177" lon="10.4104296"><ele>512.0</ele><time>2026-04-08T09:08:03.978Z</time></trkpt><trkpt lat="44.1483444" lon="10.4105425"><ele>516.3333333333334</ele><time>2026-04-08T09:08:06.977Z</time></trkpt><trkpt lat="44.148375" lon="10.4106526"><ele>520.6666666666666</ele><time>2026-04-08T09:08:09.977Z</time></trkpt><trkpt lat="44.1484057" lon="10.4107565"><ele>525.0</ele><time>2026-04-08T09:08:12.976Z</time></trkpt><trkpt lat="44.1484395" lon="10.4108628"><ele>525.0</ele><time>2026-04-08T09:08:15.955Z</time></trkpt><trkpt lat="44.1484743" lon="10.4109704"><ele>525.0</ele><time>2026-04-08T09:08:18.966Z</time></trkpt><trkpt lat="44.1485137" lon="10.4110746"><ele>525.0</ele><time>2026-04-08T09:08:21.956Z</time></trkpt><trkpt lat="44.1485628" lon="10.4111691"><ele>525.0</ele><time>2026-04-08T09:08:24.955Z</time></trkpt><trkpt lat="44.1486084" lon="10.4112697"><ele>525.0</ele><time>2026-04-08T09:08:27.98Z</time></trkpt><trkpt lat="44.1486729" lon="10.4113499"><ele>525.0</ele><time>2026-04-08T09:08:30.955Z</time></trkpt><trkpt lat="44.1487267" lon="10.4114082"><ele>525.0</ele><time>2026-04-08T09:08:33.96Z</time></trkpt><trkpt lat="44.1487977" lon="10.4114436"><ele>525.0</ele><time>2026-04-08T09:08:36.955Z</time></trkpt><trkpt lat="44.1488734" lon="10.4114078"><ele>525.0</ele><time>2026-04-08T09:08:39.966Z</time></trkpt><trkpt lat="44.1489468" lon="10.4113311"><ele>525.0</ele><time>2026-04-08T09:08:42.964Z</time></trkpt><trkpt lat="44.1489962" lon="10.4112705"><ele>525.0</ele><time>2026-04-08T09:08:44.968Z</time></trkpt><trkpt lat="44.1490506" lon="10.4112131"><ele>525.0</ele><time>2026-04-08T09:08:46.955Z</time></trkpt><trkpt lat="44.1491113" lon="10.4111739"><ele>525.0</ele><time>2026-04-08T09:08:48.954Z</time></trkpt><trkpt lat="44.1491882" lon="10.4111518"><ele>524.8333333333334</ele><time>2026-04-08T09:08:51.951Z</time></trkpt><trkpt lat="44.1492756" lon="10.4111666"><ele>524.6666666666666</ele><time>2026-04-08T09:08:54.952Z</time></trkpt><trkpt lat="44.1493371" lon="10.4111969"><ele>524.5</ele><time>2026-04-08T09:08:56.954Z</time></trkpt><trkpt lat="44.1494178" lon="10.4112523"><ele>524.3333333333333</ele><time>2026-04-08T09:08:59.946Z</time></trkpt><trkpt lat="44.1494776" lon="10.4112927"><ele>524.1666666666666</ele><time>2026-04-08T09:09:01.972Z</time></trkpt><trkpt lat="44.1495381" lon="10.4113178"><ele>524.0</ele><time>2026-04-08T09:09:03.975Z</time></trkpt><trkpt lat="44.1496202" lon="10.4113534"><ele>524.0</ele><time>2026-04-08T09:09:06.949Z</time></trkpt><trkpt lat="44.1496969" lon="10.4113921"><ele>524.0</ele><time>2026-04-08T09:09:09.958Z</time></trkpt><trkpt lat="44.1497727" lon="10.4114327"><ele>524.0</ele><time>2026-04-08T09:09:12.966Z</time></trkpt><trkpt lat="44.1498455" lon="10.4114689"><ele>524.0</ele><time>2026-04-08T09:09:15.954Z</time></trkpt><trkpt lat="44.1499176" lon="10.4114993"><ele>524.0</ele><time>2026-04-08T09:09:18.961Z</time></trkpt><trkpt lat="44.1499936" lon="10.411534"><ele>524.0</ele><time>2026-04-08T09:09:21.953Z</time></trkpt><trkpt lat="44.1500632" lon="10.4115669"><ele>525.0</ele><time>2026-04-08T09:09:24.95Z</time></trkpt><trkpt lat="44.1501383" lon="10.4116057"><ele>526.0</ele><time>2026-04-08T09:09:27.948Z</time></trkpt><trkpt lat="44.1502158" lon="10.4116358"><ele>527.0</ele><time>2026-04-08T09:09:30.948Z</time></trkpt><trkpt lat="44.1502885" lon="10.4116752"><ele>528.0</ele><time>2026-04-08T09:09:33.951Z</time></trkpt><trkpt lat="44.1503593" lon="10.4117282"><ele>529.0</ele><time>2026-04-08T09:09:36.953Z</time></trkpt><trkpt lat="44.1504272" lon="10.4117698"><ele>530.0</ele><time>2026-04-08T09:09:39.951Z</time></trkpt><trkpt lat="44.150492" lon="10.4118066"><ele>530.0</ele><time>2026-04-08T09:09:42.951Z</time></trkpt><trkpt lat="44.1505609" lon="10.411824"><ele>530.0</ele><time>2026-04-08T09:09:45.948Z</time></trkpt><trkpt lat="44.150637" lon="10.4118367"><ele>530.0</ele><time>2026-04-08T09:09:48.952Z</time></trkpt><trkpt lat="44.1507231" lon="10.4118353"><ele>530.0</ele><time>2026-04-08T09:09:51.959Z</time></trkpt><trkpt lat="44.1508048" lon="10.4118161"><ele>530.0</ele><time>2026-04-08T09:09:54.952Z</time></trkpt><trkpt lat="44.1508836" lon="10.4118095"><ele>530.0</ele><time>2026-04-08T09:09:57.95Z</time></trkpt><trkpt lat="44.1509683" lon="10.4117899"><ele>530.1666666666666</ele><time>2026-04-08T09:10:00.966Z</time></trkpt><trkpt lat="44.151055" lon="10.4117743"><ele>530.3333333333333</ele><time>2026-04-08T09:10:03.964Z</time></trkpt><trkpt lat="44.151138" lon="10.4117619"><ele>530.5</ele><time>2026-04-08T09:10:06.958Z</time></trkpt><trkpt lat="44.1512187" lon="10.411748"><ele>530.6666666666666</ele><time>2026-04-08T09:10:09.95Z</time></trkpt><trkpt lat="44.1513003" lon="10.4117285"><ele>530.8333333333334</ele><time>2026-04-08T09:10:12.958Z</time></trkpt><trkpt lat="44.1513816" lon="10.411718"><ele>531.0</ele><time>2026-04-08T09:10:15.952Z</time></trkpt><trkpt lat="44.1514634" lon="10.4117007"><ele>532.5</ele><time>2026-04-08T09:10:18.955Z</time></trkpt><trkpt lat="44.1515429" lon="10.411687"><ele>534.0</ele><time>2026-04-08T09:10:21.96Z</time></trkpt><trkpt lat="44.1516294" lon="10.4116802"><ele>535.5</ele><time>2026-04-08T09:10:24.971Z</time></trkpt><trkpt lat="44.1517166" lon="10.4116621"><ele>537.0</ele><time>2026-04-08T09:10:27.946Z</time></trkpt><trkpt lat="44.1517997" lon="10.4116316"><ele>538.5</ele><time>2026-04-08T09:10:30.948Z</time></trkpt><trkpt lat="44.1518798" lon="10.4115881"><ele>540.0</ele><time>2026-04-08T09:10:33.949Z</time></trkpt><trkpt lat="44.151954" lon="10.4115301"><ele>540.0</ele><time>2026-04-08T09:10:36.948Z</time></trkpt><trkpt lat="44.1520275" lon="10.4114633"><ele>540.0</ele><time>2026-04-08T09:10:39.953Z</time></trkpt><trkpt lat="44.1521063" lon="10.4114039"><ele>540.0</ele><time>2026-04-08T09:10:42.953Z</time></trkpt><trkpt lat="44.1521827" lon="10.4113435"><ele>540.0</ele><time>2026-04-08T09:10:45.948Z</time></trkpt><trkpt lat="44.1522643" lon="10.4112931"><ele>540.0</ele><time>2026-04-08T09:10:48.947Z</time></trkpt><trkpt lat="44.1523482" lon="10.4112364"><ele>540.0</ele><time>2026-04-08T09:10:51.948Z</time></trkpt><trkpt lat="44.1524323" lon="10.4111879"><ele>540.1666666666666</ele><time>2026-04-08T09:10:54.952Z</time></trkpt><trkpt lat="44.1525181" lon="10.4111395"><ele>540.3333333333334</ele><time>2026-04-08T09:10:57.956Z</time></trkpt><trkpt lat="44.1526024" lon="10.4110927"><ele>540.5</ele><time>2026-04-08T09:11:00.953Z</time></trkpt><trkpt lat="44.1526641" lon="10.41107"><ele>540.6666666666667</ele><time>2026-04-08T09:11:02.955Z</time></trkpt><trkpt lat="44.1527555" lon="10.4110496"><ele>540.8333333333334</ele><time>2026-04-08T09:11:05.949Z</time></trkpt><trkpt lat="44.1528188" lon="10.4110509"><ele>541.0</ele><time>2026-04-08T09:11:07.958Z</time></trkpt><trkpt lat="44.1528806" lon="10.4110724"><ele>541.0000000000001</ele><time>2026-04-08T09:11:09.946Z</time></trkpt><trkpt lat="44.1529441" lon="10.4111055"><ele>541.0</ele><time>2026-04-08T09:11:11.963Z</time></trkpt><trkpt lat="44.153006" lon="10.4111371"><ele>541.0</ele><time>2026-04-08T09:11:13.959Z</time></trkpt><trkpt lat="44.1530692" lon="10.4111686"><ele>541.0</ele><time>2026-04-08T09:11:15.949Z</time></trkpt><trkpt lat="44.1531299" lon="10.4112031"><ele>541.0</ele><time>2026-04-08T09:11:17.949Z</time></trkpt><trkpt lat="44.1531929" lon="10.4112352"><ele>541.0000000000001</ele><time>2026-04-08T09:11:19.954Z</time></trkpt><trkpt lat="44.1532617" lon="10.4112563"><ele>541.0</ele><time>2026-04-08T09:11:21.955Z</time></trkpt><trkpt lat="44.1533454" lon="10.4112811"><ele>542.3333333333334</ele><time>2026-04-08T09:11:24.953Z</time></trkpt><trkpt lat="44.1534229" lon="10.4113058"><ele>543.6666666666667</ele><time>2026-04-08T09:11:28.954Z</time></trkpt><trkpt lat="44.1534988" lon="10.4113235"><ele>545.0</ele><time>2026-04-08T09:11:32.951Z</time></trkpt><trkpt lat="44.153577" lon="10.4113464"><ele>546.3333333333334</ele><time>2026-04-08T09:11:36.96Z</time></trkpt><trkpt lat="44.1535042" lon="10.4112606"><ele>547.6666666666666</ele><time>2026-04-08T09:11:45.956Z</time></trkpt><trkpt lat="44.1533995" lon="10.4112275"><ele>549.0</ele><time>2026-04-08T09:11:47.952Z</time></trkpt><trkpt lat="44.1532819" lon="10.4111948"><ele>549.0</ele><time>2026-04-08T09:11:49.981Z</time></trkpt><trkpt lat="44.1532154" lon="10.4111758"><ele>549.0</ele><time>2026-04-08T09:11:50.953Z</time></trkpt><trkpt lat="44.1531509" lon="10.41115"><ele>549.0</ele><time>2026-04-08T09:11:51.964Z</time></trkpt><trkpt lat="44.1530862" lon="10.4111209"><ele>549.0</ele><time>2026-04-08T09:11:52.967Z</time></trkpt><trkpt lat="44.1530155" lon="10.4110866"><ele>549.0</ele><time>2026-04-08T09:11:53.974Z</time></trkpt><trkpt lat="44.1529442" lon="10.4110474"><ele>549.0</ele><time>2026-04-08T09:11:54.953Z</time></trkpt><trkpt lat="44.1528677" lon="10.4110165"><ele>549.0</ele><time>2026-04-08T09:11:55.966Z</time></trkpt><trkpt lat="44.1527836" lon="10.4110013"><ele>547.6666666666666</ele><time>2026-04-08T09:11:56.96Z</time></trkpt><trkpt lat="44.1526976" lon="10.4110158"><ele>546.3333333333334</ele><time>2026-04-08T09:11:57.971Z</time></trkpt><trkpt lat="44.1526134" lon="10.4110475"><ele>545.0</ele><time>2026-04-08T09:11:58.959Z</time></trkpt><trkpt lat="44.1525284" lon="10.4110853"><ele>543.6666666666667</ele><time>2026-04-08T09:11:59.956Z</time></trkpt><trkpt lat="44.1524436" lon="10.4111334"><ele>542.3333333333334</ele><time>2026-04-08T09:12:00.949Z</time></trkpt><trkpt lat="44.1523562" lon="10.4111846"><ele>541.0</ele><time>2026-04-08T09:12:01.952Z</time></trkpt><trkpt lat="44.1522668" lon="10.4112383"><ele>540.8</ele><time>2026-04-08T09:12:02.964Z</time></trkpt><trkpt lat="44.152178" lon="10.4113025"><ele>540.6</ele><time>2026-04-08T09:12:03.954Z</time></trkpt><trkpt lat="44.152089" lon="10.4113682"><ele>540.4</ele><time>2026-04-08T09:12:04.954Z</time></trkpt><trkpt lat="44.1519994" lon="10.4114308"><ele>540.2</ele><time>2026-04-08T09:12:05.957Z</time></trkpt><trkpt lat="44.1519076" lon="10.4114976"><ele>540.0</ele><time>2026-04-08T09:12:06.956Z</time></trkpt><trkpt lat="44.1518126" lon="10.4115605"><ele>540.0</ele><time>2026-04-08T09:12:07.978Z</time></trkpt><trkpt lat="44.1517098" lon="10.4116002"><ele>540.0</ele><time>2026-04-08T09:12:08.977Z</time></trkpt><trkpt lat="44.1516078" lon="10.4116238"><ele>540.0</ele><time>2026-04-08T09:12:09.956Z</time></trkpt><trkpt lat="44.1515041" lon="10.4116378"><ele>540.0</ele><time>2026-04-08T09:12:10.957Z</time></trkpt><trkpt lat="44.151398" lon="10.4116513"><ele>540.0</ele><time>2026-04-08T09:12:11.959Z</time></trkpt><trkpt lat="44.151298" lon="10.4116654"><ele>538.5</ele><time>2026-04-08T09:12:12.953Z</time></trkpt><trkpt lat="44.1512112" lon="10.411679"><ele>537.0</ele><time>2026-04-08T09:12:13.95Z</time></trkpt><trkpt lat="44.1511361" lon="10.4116901"><ele>535.5</ele><time>2026-04-08T09:12:14.954Z</time></trkpt><trkpt lat="44.1510286" lon="10.4117104"><ele>534.0</ele><time>2026-04-08T09:12:16.971Z</time></trkpt><trkpt lat="44.1509609" lon="10.4117255"><ele>532.5</ele><time>2026-04-08T09:12:18.953Z</time></trkpt><trkpt lat="44.1508994" lon="10.411799"><ele>531.0</ele><time>2026-04-08T09:12:21.954Z</time></trkpt><trkpt lat="44.1509451" lon="10.4118805"><ele>531.0</ele><time>2026-04-08T09:12:26.955Z</time></trkpt><trkpt lat="44.1510037" lon="10.4119182"><ele>531.0</ele><time>2026-04-08T09:12:29.95Z</time></trkpt><trkpt lat="44.1510659" lon="10.4119797"><ele>531.0</ele><time>2026-04-08T09:12:33.961Z</time></trkpt><trkpt lat="44.1510591" lon="10.4120736"><ele>531.0</ele><time>2026-04-08T09:12:38.975Z</time></trkpt><trkpt lat="44.1509852" lon="10.4121018"><ele>531.0</ele><time>2026-04-08T09:12:43.954Z</time></trkpt><trkpt lat="44.1509129" lon="10.4121088"><ele>531.0</ele><time>2026-04-08T09:12:47.954Z</time></trkpt><trkpt lat="44.1508404" lon="10.4121274"><ele>531.0</ele><time>2026-04-08T09:12:51.955Z</time></trkpt><trkpt lat="44.1508042" lon="10.4122165"><ele>546.0</ele><time>2026-04-08T09:12:55.966Z</time></trkpt><trkpt lat="44.1507899" lon="10.4123116"><ele>546.0</ele><time>2026-04-08T09:12:59.964Z</time></trkpt><trkpt lat="44.1507791" lon="10.4124015"><ele>546.0</ele><time>2026-04-08T09:13:03.955Z</time></trkpt><trkpt lat="44.1507655" lon="10.4124922"><ele>546.0</ele><time>2026-04-08T09:13:07.964Z</time></trkpt><trkpt lat="44.1507558" lon="10.4125828"><ele>546.0</ele><time>2026-04-08T09:13:15.948Z</time></trkpt></trkseg></trk></gpx>